<?xml version="1.0" encoding="UTF-8" standalone="yes"?>
<gpx xmlns="http://www.topografix.com/GPX/1/1" xmlns:gpxx="http://www.garmin.com/xmlschemas/GpxExtensions/v3" xmlns:gpxtpx="http://www.garmin.com/xmlschemas/TrackPointExtension/v1" creator="TCX Converter" version="1.1" xmlns:xsi="http://www.w3.org/2001/XMLSchema-instance" xsi:schemaLocation="http://www.topografix.com/GPX/1/1 http://www.topografix.com/GPX/1/1/gpx.xsd http://www.garmin.com/xmlschemas/GpxExtensions/v3 http://www.garmin.com/xmlschemas/GpxExtensions/v3/GpxExtensionsv3.xsd http://www.garmin.com/xmlschemas/TrackPointExtension/v1 http://www.garmin.com/xmlschemas/TrackPointExtension/v1/TrackPointExtensionv1.xsd">
<metadata>
<link href="http://www.teambikeolympo.it">
<text>Team Bike Olympo, The house of TCX Converter</text>
</link>
<time>2009-04-06T19:08:57Z</time>
</metadata>
  <trk>
    <name>2011-12-17T00_0</name>
    <trkseg>
      <trkpt lat="43.723600" lon="12.634009">
        <ele>417.70465000000002</ele>
        <time>2013-06-30T08:00:00Z</time>
      </trkpt>
      <trkpt lat="43.723379" lon="12.633560">
        <ele>417.73209000000003</ele>
        <time>2013-06-30T08:00:05Z</time>
      </trkpt>
      <trkpt lat="43.723189" lon="12.632680">
        <ele>417.71924000000001</ele>
        <time>2013-06-30T08:00:14Z</time>
      </trkpt>
      <trkpt lat="43.723089" lon="12.632480">
        <ele>417.71078</ele>
        <time>2013-06-30T08:00:16Z</time>
      </trkpt>
      <trkpt lat="43.722880" lon="12.632359">
        <ele>417.68261999999999</ele>
        <time>2013-06-30T08:00:19Z</time>
      </trkpt>
      <trkpt lat="43.722299" lon="12.632280">
        <ele>417.66451999999998</ele>
        <time>2013-06-30T08:00:27Z</time>
      </trkpt>
      <trkpt lat="43.722139" lon="12.632180">
        <ele>417.67583999999999</ele>
        <time>2013-06-30T08:00:29Z</time>
      </trkpt>
      <trkpt lat="43.721920" lon="12.631880">
        <ele>417.66503999999998</ele>
        <time>2013-06-30T08:00:33Z</time>
      </trkpt>
      <trkpt lat="43.721500" lon="12.631049">
        <ele>417.43718999999999</ele>
        <time>2013-06-30T08:00:43Z</time>
      </trkpt>
      <trkpt lat="43.721260" lon="12.629950">
        <ele>417.18198000000001</ele>
        <time>2013-06-30T08:00:54Z</time>
      </trkpt>
      <trkpt lat="43.721059" lon="12.629439">
        <ele>417.06580000000002</ele>
        <time>2013-06-30T08:01:00Z</time>
      </trkpt>
      <trkpt lat="43.720889" lon="12.629190">
        <ele>417.04669000000001</ele>
        <time>2013-06-30T08:01:03Z</time>
      </trkpt>
      <trkpt lat="43.720269" lon="12.628709">
        <ele>416.96740999999997</ele>
        <time>2013-06-30T08:01:13Z</time>
      </trkpt>
      <trkpt lat="43.719479" lon="12.628340">
        <ele>417.05880999999999</ele>
        <time>2013-06-30T08:01:24Z</time>
      </trkpt>
      <trkpt lat="43.719290" lon="12.628340">
        <ele>417.07141000000001</ele>
        <time>2013-06-30T08:01:26Z</time>
      </trkpt>
      <trkpt lat="43.718979" lon="12.628510">
        <ele>417.11826000000002</ele>
        <time>2013-06-30T08:01:31Z</time>
      </trkpt>
      <trkpt lat="43.718810" lon="12.628519">
        <ele>417.14749</ele>
        <time>2013-06-30T08:01:33Z</time>
      </trkpt>
      <trkpt lat="43.718619" lon="12.628470">
        <ele>417.20386000000002</ele>
        <time>2013-06-30T08:01:36Z</time>
      </trkpt>
      <trkpt lat="43.718189" lon="12.628219">
        <ele>417.33596999999997</ele>
        <time>2013-06-30T08:01:42Z</time>
      </trkpt>
      <trkpt lat="43.717969" lon="12.627959">
        <ele>417.43912</ele>
        <time>2013-06-30T08:01:46Z</time>
      </trkpt>
      <trkpt lat="43.717409" lon="12.627049">
        <ele>417.61130000000003</ele>
        <time>2013-06-30T08:01:57Z</time>
      </trkpt>
      <trkpt lat="43.717040" lon="12.626809">
        <ele>417.69637999999998</ele>
        <time>2013-06-30T08:02:03Z</time>
      </trkpt>
      <trkpt lat="43.716900" lon="12.626640">
        <ele>417.72525000000002</ele>
        <time>2013-06-30T08:02:05Z</time>
      </trkpt>
      <trkpt lat="43.716540" lon="12.625769">
        <ele>417.73135000000002</ele>
        <time>2013-06-30T08:02:15Z</time>
      </trkpt>
      <trkpt lat="43.716359" lon="12.625550">
        <ele>417.74236999999999</ele>
        <time>2013-06-30T08:02:18Z</time>
      </trkpt>
      <trkpt lat="43.716020" lon="12.625420">
        <ele>417.76740000000001</ele>
        <time>2013-06-30T08:02:23Z</time>
      </trkpt>
      <trkpt lat="43.715690" lon="12.625420">
        <ele>417.76537999999999</ele>
        <time>2013-06-30T08:02:27Z</time>
      </trkpt>
      <trkpt lat="43.715179" lon="12.625659">
        <ele>417.75772000000001</ele>
        <time>2013-06-30T08:02:34Z</time>
      </trkpt>
      <trkpt lat="43.714410" lon="12.625020">
        <ele>417.92880000000002</ele>
        <time>2013-06-30T08:02:46Z</time>
      </trkpt>
      <trkpt lat="43.714110" lon="12.624779">
        <ele>418.01132000000001</ele>
        <time>2013-06-30T08:02:51Z</time>
      </trkpt>
      <trkpt lat="43.713539" lon="12.624000">
        <ele>418.25436000000002</ele>
        <time>2013-06-30T08:03:02Z</time>
      </trkpt>
      <trkpt lat="43.713379" lon="12.623659">
        <ele>418.42577999999997</ele>
        <time>2013-06-30T08:03:06Z</time>
      </trkpt>
      <trkpt lat="43.713399" lon="12.623269">
        <ele>418.53908999999999</ele>
        <time>2013-06-30T08:03:09Z</time>
      </trkpt>
      <trkpt lat="43.713539" lon="12.622679">
        <ele>418.73489000000001</ele>
        <time>2013-06-30T08:03:15Z</time>
      </trkpt>
      <trkpt lat="43.714050" lon="12.621650">
        <ele>419.26015999999998</ele>
        <time>2013-06-30T08:03:27Z</time>
      </trkpt>
      <trkpt lat="43.714070" lon="12.621599">
        <ele>419.32465000000002</ele>
        <time>2013-06-30T08:03:28Z</time>
      </trkpt>
      <trkpt lat="43.714119" lon="12.621480">
        <ele>419.39490000000001</ele>
        <time>2013-06-30T08:03:29Z</time>
      </trkpt>
      <trkpt lat="43.714119" lon="12.621290">
        <ele>419.54903999999999</ele>
        <time>2013-06-30T08:03:31Z</time>
      </trkpt>
      <trkpt lat="43.714050" lon="12.621169">
        <ele>419.71895999999998</ele>
        <time>2013-06-30T08:03:33Z</time>
      </trkpt>
      <trkpt lat="43.713590" lon="12.620909">
        <ele>420.22336000000001</ele>
        <time>2013-06-30T08:03:39Z</time>
      </trkpt>
      <trkpt lat="43.713499" lon="12.620809">
        <ele>420.37857000000002</ele>
        <time>2013-06-30T08:03:41Z</time>
      </trkpt>
      <trkpt lat="43.713360" lon="12.620160">
        <ele>420.80865</ele>
        <time>2013-06-30T08:03:47Z</time>
      </trkpt>
      <trkpt lat="43.712990" lon="12.619710">
        <ele>421.19997999999998</ele>
        <time>2013-06-30T08:03:54Z</time>
      </trkpt>
      <trkpt lat="43.712770" lon="12.619269">
        <ele>421.49319000000003</ele>
        <time>2013-06-30T08:03:59Z</time>
      </trkpt>
      <trkpt lat="43.712719" lon="12.618929">
        <ele>421.70670000000001</ele>
        <time>2013-06-30T08:04:02Z</time>
      </trkpt>
      <trkpt lat="43.713020" lon="12.617759">
        <ele>422.78579999999999</ele>
        <time>2013-06-30T08:04:14Z</time>
      </trkpt>
      <trkpt lat="43.713020" lon="12.617740">
        <ele>422.87418000000002</ele>
        <time>2013-06-30T08:04:15Z</time>
      </trkpt>
      <trkpt lat="43.713000" lon="12.617499">
        <ele>423.04381999999998</ele>
        <time>2013-06-30T08:04:17Z</time>
      </trkpt>
      <trkpt lat="43.712809" lon="12.616739">
        <ele>423.72937000000002</ele>
        <time>2013-06-30T08:04:25Z</time>
      </trkpt>
      <trkpt lat="43.712760" lon="12.615960">
        <ele>424.41012999999998</ele>
        <time>2013-06-30T08:04:32Z</time>
      </trkpt>
      <trkpt lat="43.712719" lon="12.615819">
        <ele>424.59640999999999</ele>
        <time>2013-06-30T08:04:34Z</time>
      </trkpt>
      <trkpt lat="43.712540" lon="12.615579">
        <ele>424.85748000000001</ele>
        <time>2013-06-30T08:04:37Z</time>
      </trkpt>
      <trkpt lat="43.712050" lon="12.615259">
        <ele>425.52672999999999</ele>
        <time>2013-06-30T08:04:44Z</time>
      </trkpt>
      <trkpt lat="43.711820" lon="12.615050">
        <ele>425.94675000000001</ele>
        <time>2013-06-30T08:04:48Z</time>
      </trkpt>
      <trkpt lat="43.711699" lon="12.614799">
        <ele>426.22426999999999</ele>
        <time>2013-06-30T08:04:51Z</time>
      </trkpt>
      <trkpt lat="43.711580" lon="12.614390">
        <ele>426.53820999999999</ele>
        <time>2013-06-30T08:04:55Z</time>
      </trkpt>
      <trkpt lat="43.711450" lon="12.614209">
        <ele>426.75671</ele>
        <time>2013-06-30T08:04:58Z</time>
      </trkpt>
      <trkpt lat="43.711039" lon="12.614090">
        <ele>427.26650999999998</ele>
        <time>2013-06-30T08:05:03Z</time>
      </trkpt>
      <trkpt lat="43.710619" lon="12.614139">
        <ele>427.90125</ele>
        <time>2013-06-30T08:05:09Z</time>
      </trkpt>
      <trkpt lat="43.710470" lon="12.614060">
        <ele>428.14019999999999</ele>
        <time>2013-06-30T08:05:11Z</time>
      </trkpt>
      <trkpt lat="43.710409" lon="12.613960">
        <ele>428.26970999999998</ele>
        <time>2013-06-30T08:05:12Z</time>
      </trkpt>
      <trkpt lat="43.710389" lon="12.613789">
        <ele>428.54883000000001</ele>
        <time>2013-06-30T08:05:14Z</time>
      </trkpt>
      <trkpt lat="43.710440" lon="12.613649">
        <ele>428.69168000000002</ele>
        <time>2013-06-30T08:05:15Z</time>
      </trkpt>
      <trkpt lat="43.710749" lon="12.613319">
        <ele>429.45278999999999</ele>
        <time>2013-06-30T08:05:21Z</time>
      </trkpt>
      <trkpt lat="43.710909" lon="12.613070">
        <ele>429.86795000000001</ele>
        <time>2013-06-30T08:05:24Z</time>
      </trkpt>
      <trkpt lat="43.710939" lon="12.612950">
        <ele>430.01970999999998</ele>
        <time>2013-06-30T08:05:25Z</time>
      </trkpt>
      <trkpt lat="43.710969" lon="12.612499">
        <ele>430.56405999999998</ele>
        <time>2013-06-30T08:05:29Z</time>
      </trkpt>
      <trkpt lat="43.710939" lon="12.612299">
        <ele>430.75078999999999</ele>
        <time>2013-06-30T08:05:31Z</time>
      </trkpt>
      <trkpt lat="43.710809" lon="12.611990">
        <ele>431.03820999999999</ele>
        <time>2013-06-30T08:05:35Z</time>
      </trkpt>
      <trkpt lat="43.710259" lon="12.611379">
        <ele>431.83242999999999</ele>
        <time>2013-06-30T08:05:44Z</time>
      </trkpt>
      <trkpt lat="43.709919" lon="12.610569">
        <ele>432.90886999999998</ele>
        <time>2013-06-30T08:05:53Z</time>
      </trkpt>
      <trkpt lat="43.709369" lon="12.609909">
        <ele>434.12619000000001</ele>
        <time>2013-06-30T08:06:03Z</time>
      </trkpt>
      <trkpt lat="43.709310" lon="12.609790">
        <ele>434.24365</ele>
        <time>2013-06-30T08:06:04Z</time>
      </trkpt>
      <trkpt lat="43.709280" lon="12.609400">
        <ele>434.73151000000001</ele>
        <time>2013-06-30T08:06:08Z</time>
      </trkpt>
      <trkpt lat="43.709180" lon="12.609189">
        <ele>435.09273999999999</ele>
        <time>2013-06-30T08:06:11Z</time>
      </trkpt>
      <trkpt lat="43.708960" lon="12.609179">
        <ele>435.33864999999997</ele>
        <time>2013-06-30T08:06:14Z</time>
      </trkpt>
      <trkpt lat="43.708530" lon="12.609460">
        <ele>435.81914999999998</ele>
        <time>2013-06-30T08:06:20Z</time>
      </trkpt>
      <trkpt lat="43.707719" lon="12.609349">
        <ele>436.45528999999999</ele>
        <time>2013-06-30T08:06:31Z</time>
      </trkpt>
      <trkpt lat="43.707580" lon="12.609259">
        <ele>436.52679000000001</ele>
        <time>2013-06-30T08:06:33Z</time>
      </trkpt>
      <trkpt lat="43.707050" lon="12.608260">
        <ele>437.12157999999999</ele>
        <time>2013-06-30T08:06:45Z</time>
      </trkpt>
      <trkpt lat="43.706890" lon="12.607960">
        <ele>437.33704</ele>
        <time>2013-06-30T08:06:48Z</time>
      </trkpt>
      <trkpt lat="43.706490" lon="12.607600">
        <ele>438.29858000000002</ele>
        <time>2013-06-30T08:06:55Z</time>
      </trkpt>
      <trkpt lat="43.706109" lon="12.607049">
        <ele>439.15472</ele>
        <time>2013-06-30T08:07:02Z</time>
      </trkpt>
      <trkpt lat="43.705629" lon="12.606599">
        <ele>440.17800999999997</ele>
        <time>2013-06-30T08:07:10Z</time>
      </trkpt>
      <trkpt lat="43.705499" lon="12.606340">
        <ele>440.55585000000002</ele>
        <time>2013-06-30T08:07:13Z</time>
      </trkpt>
      <trkpt lat="43.705359" lon="12.605620">
        <ele>441.18358999999998</ele>
        <time>2013-06-30T08:07:20Z</time>
      </trkpt>
      <trkpt lat="43.705050" lon="12.604919">
        <ele>442.17595999999998</ele>
        <time>2013-06-30T08:07:28Z</time>
      </trkpt>
      <trkpt lat="43.704449" lon="12.604399">
        <ele>443.38378999999998</ele>
        <time>2013-06-30T08:07:38Z</time>
      </trkpt>
      <trkpt lat="43.704030" lon="12.604429">
        <ele>443.85579999999999</ele>
        <time>2013-06-30T08:07:43Z</time>
      </trkpt>
      <trkpt lat="43.703910" lon="12.604380">
        <ele>444.03960999999998</ele>
        <time>2013-06-30T08:07:45Z</time>
      </trkpt>
      <trkpt lat="43.703370" lon="12.603599">
        <ele>445.07413000000003</ele>
        <time>2013-06-30T08:07:55Z</time>
      </trkpt>
      <trkpt lat="43.702999" lon="12.603320">
        <ele>445.58731</ele>
        <time>2013-06-30T08:08:01Z</time>
      </trkpt>
      <trkpt lat="43.702899" lon="12.603160">
        <ele>445.72539999999998</ele>
        <time>2013-06-30T08:08:03Z</time>
      </trkpt>
      <trkpt lat="43.702839" lon="12.602770">
        <ele>445.96722</ele>
        <time>2013-06-30T08:08:07Z</time>
      </trkpt>
      <trkpt lat="43.702699" lon="12.602240">
        <ele>446.23140999999998</ele>
        <time>2013-06-30T08:08:12Z</time>
      </trkpt>
      <trkpt lat="43.702599" lon="12.601320">
        <ele>447.21987999999999</ele>
        <time>2013-06-30T08:08:21Z</time>
      </trkpt>
      <trkpt lat="43.702639" lon="12.600860">
        <ele>447.84375</ele>
        <time>2013-06-30T08:08:26Z</time>
      </trkpt>
      <trkpt lat="43.702769" lon="12.600549">
        <ele>448.24063000000001</ele>
        <time>2013-06-30T08:08:29Z</time>
      </trkpt>
      <trkpt lat="43.703050" lon="12.600389">
        <ele>448.78118999999998</ele>
        <time>2013-06-30T08:08:33Z</time>
      </trkpt>
      <trkpt lat="43.703659" lon="12.600310">
        <ele>449.75482</ele>
        <time>2013-06-30T08:08:41Z</time>
      </trkpt>
      <trkpt lat="43.703870" lon="12.600380">
        <ele>450.05569000000003</ele>
        <time>2013-06-30T08:08:44Z</time>
      </trkpt>
      <trkpt lat="43.704409" lon="12.600779">
        <ele>450.87421000000001</ele>
        <time>2013-06-30T08:08:52Z</time>
      </trkpt>
      <trkpt lat="43.704560" lon="12.600830">
        <ele>451.10721000000001</ele>
        <time>2013-06-30T08:08:54Z</time>
      </trkpt>
      <trkpt lat="43.704650" lon="12.600770">
        <ele>451.32745</ele>
        <time>2013-06-30T08:08:56Z</time>
      </trkpt>
      <trkpt lat="43.704699" lon="12.600649">
        <ele>451.42624000000001</ele>
        <time>2013-06-30T08:08:57Z</time>
      </trkpt>
      <trkpt lat="43.704569" lon="12.600029">
        <ele>451.94162</ele>
        <time>2013-06-30T08:09:03Z</time>
      </trkpt>
      <trkpt lat="43.704630" lon="12.599850">
        <ele>452.13198999999997</ele>
        <time>2013-06-30T08:09:05Z</time>
      </trkpt>
      <trkpt lat="43.704880" lon="12.599560">
        <ele>452.62871999999999</ele>
        <time>2013-06-30T08:09:10Z</time>
      </trkpt>
      <trkpt lat="43.705440" lon="12.599399">
        <ele>453.29818999999998</ele>
        <time>2013-06-30T08:09:17Z</time>
      </trkpt>
      <trkpt lat="43.705480" lon="12.599250">
        <ele>453.46422999999999</ele>
        <time>2013-06-30T08:09:19Z</time>
      </trkpt>
      <trkpt lat="43.705420" lon="12.599100">
        <ele>453.60293999999999</ele>
        <time>2013-06-30T08:09:21Z</time>
      </trkpt>
      <trkpt lat="43.704920" lon="12.598419">
        <ele>454.51285000000001</ele>
        <time>2013-06-30T08:09:30Z</time>
      </trkpt>
      <trkpt lat="43.704660" lon="12.598219">
        <ele>455.08440999999999</ele>
        <time>2013-06-30T08:09:34Z</time>
      </trkpt>
      <trkpt lat="43.704219" lon="12.598149">
        <ele>455.76769999999999</ele>
        <time>2013-06-30T08:09:40Z</time>
      </trkpt>
      <trkpt lat="43.704070" lon="12.598029">
        <ele>455.96622000000002</ele>
        <time>2013-06-30T08:09:42Z</time>
      </trkpt>
      <trkpt lat="43.703719" lon="12.597350">
        <ele>456.66922</ele>
        <time>2013-06-30T08:09:50Z</time>
      </trkpt>
      <trkpt lat="43.703540" lon="12.596760">
        <ele>457.31754000000001</ele>
        <time>2013-06-30T08:09:56Z</time>
      </trkpt>
      <trkpt lat="43.703180" lon="12.596210">
        <ele>458.11639000000002</ele>
        <time>2013-06-30T08:10:03Z</time>
      </trkpt>
      <trkpt lat="43.703110" lon="12.595599">
        <ele>458.75020999999998</ele>
        <time>2013-06-30T08:10:09Z</time>
      </trkpt>
      <trkpt lat="43.703240" lon="12.595069">
        <ele>459.37533999999999</ele>
        <time>2013-06-30T08:10:15Z</time>
      </trkpt>
      <trkpt lat="43.703229" lon="12.594270">
        <ele>460.22064</ele>
        <time>2013-06-30T08:10:23Z</time>
      </trkpt>
      <trkpt lat="43.703310" lon="12.593989">
        <ele>460.48293999999999</ele>
        <time>2013-06-30T08:10:26Z</time>
      </trkpt>
      <trkpt lat="43.703470" lon="12.593780">
        <ele>460.65706999999998</ele>
        <time>2013-06-30T08:10:28Z</time>
      </trkpt>
      <trkpt lat="43.704219" lon="12.593109">
        <ele>461.71057000000002</ele>
        <time>2013-06-30T08:10:40Z</time>
      </trkpt>
      <trkpt lat="43.704660" lon="12.592720">
        <ele>462.19069999999999</ele>
        <time>2013-06-30T08:10:47Z</time>
      </trkpt>
      <trkpt lat="43.704880" lon="12.592360">
        <ele>462.75533999999999</ele>
        <time>2013-06-30T08:10:52Z</time>
      </trkpt>
      <trkpt lat="43.704920" lon="12.592179">
        <ele>462.98602</ele>
        <time>2013-06-30T08:10:54Z</time>
      </trkpt>
      <trkpt lat="43.704909" lon="12.591979">
        <ele>463.19952000000001</ele>
        <time>2013-06-30T08:10:56Z</time>
      </trkpt>
      <trkpt lat="43.704720" lon="12.591210">
        <ele>463.83084000000002</ele>
        <time>2013-06-30T08:11:03Z</time>
      </trkpt>
      <trkpt lat="43.704730" lon="12.590939">
        <ele>464.10946999999999</ele>
        <time>2013-06-30T08:11:06Z</time>
      </trkpt>
      <trkpt lat="43.704790" lon="12.590679">
        <ele>464.42797999999999</ele>
        <time>2013-06-30T08:11:09Z</time>
      </trkpt>
      <trkpt lat="43.704999" lon="12.590409">
        <ele>464.87637000000001</ele>
        <time>2013-06-30T08:11:13Z</time>
      </trkpt>
      <trkpt lat="43.705559" lon="12.590060">
        <ele>465.43524000000002</ele>
        <time>2013-06-30T08:11:21Z</time>
      </trkpt>
      <trkpt lat="43.705959" lon="12.589320">
        <ele>465.86450000000002</ele>
        <time>2013-06-30T08:11:30Z</time>
      </trkpt>
      <trkpt lat="43.705979" lon="12.588969">
        <ele>465.96237000000002</ele>
        <time>2013-06-30T08:11:33Z</time>
      </trkpt>
      <trkpt lat="43.705879" lon="12.587740">
        <ele>466.12094000000002</ele>
        <time>2013-06-30T08:11:45Z</time>
      </trkpt>
      <trkpt lat="43.705870" lon="12.587670">
        <ele>466.11761000000001</ele>
        <time>2013-06-30T08:11:46Z</time>
      </trkpt>
      <trkpt lat="43.705759" lon="12.587410">
        <ele>466.09838999999999</ele>
        <time>2013-06-30T08:11:49Z</time>
      </trkpt>
      <trkpt lat="43.705420" lon="12.587099">
        <ele>466.15145999999999</ele>
        <time>2013-06-30T08:11:54Z</time>
      </trkpt>
      <trkpt lat="43.705289" lon="12.586850">
        <ele>466.23336999999998</ele>
        <time>2013-06-30T08:11:57Z</time>
      </trkpt>
      <trkpt lat="43.704990" lon="12.585679">
        <ele>466.56348000000003</ele>
        <time>2013-06-30T08:12:09Z</time>
      </trkpt>
      <trkpt lat="43.704980" lon="12.585640">
        <ele>466.56348000000003</ele>
        <time>2013-06-30T08:12:09Z</time>
      </trkpt>
      <trkpt lat="43.704999" lon="12.584729">
        <ele>466.8374</ele>
        <time>2013-06-30T08:12:18Z</time>
      </trkpt>
      <trkpt lat="43.704779" lon="12.584100">
        <ele>467.04117000000002</ele>
        <time>2013-06-30T08:12:25Z</time>
      </trkpt>
      <trkpt lat="43.704809" lon="12.583709">
        <ele>467.24761999999998</ele>
        <time>2013-06-30T08:12:29Z</time>
      </trkpt>
      <trkpt lat="43.705139" lon="12.582999">
        <ele>467.67421999999999</ele>
        <time>2013-06-30T08:12:37Z</time>
      </trkpt>
      <trkpt lat="43.705210" lon="12.582810">
        <ele>467.78350999999998</ele>
        <time>2013-06-30T08:12:39Z</time>
      </trkpt>
      <trkpt lat="43.705240" lon="12.582569">
        <ele>467.89447000000001</ele>
        <time>2013-06-30T08:12:41Z</time>
      </trkpt>
      <trkpt lat="43.705210" lon="12.581690">
        <ele>468.25330000000002</ele>
        <time>2013-06-30T08:12:50Z</time>
      </trkpt>
      <trkpt lat="43.705029" lon="12.580899">
        <ele>468.68256000000002</ele>
        <time>2013-06-30T08:12:58Z</time>
      </trkpt>
      <trkpt lat="43.705039" lon="12.579660">
        <ele>469.18277</ele>
        <time>2013-06-30T08:13:10Z</time>
      </trkpt>
      <trkpt lat="43.705039" lon="12.579460">
        <ele>469.25443000000001</ele>
        <time>2013-06-30T08:13:12Z</time>
      </trkpt>
      <trkpt lat="43.704980" lon="12.579140">
        <ele>469.35403000000002</ele>
        <time>2013-06-30T08:13:15Z</time>
      </trkpt>
      <trkpt lat="43.704790" lon="12.578599">
        <ele>469.48441000000003</ele>
        <time>2013-06-30T08:13:21Z</time>
      </trkpt>
      <trkpt lat="43.704739" lon="12.578510">
        <ele>469.49639999999999</ele>
        <time>2013-06-30T08:13:22Z</time>
      </trkpt>
      <trkpt lat="43.704609" lon="12.578440">
        <ele>469.51839999999999</ele>
        <time>2013-06-30T08:13:24Z</time>
      </trkpt>
      <trkpt lat="43.704509" lon="12.578420">
        <ele>469.52838000000003</ele>
        <time>2013-06-30T08:13:25Z</time>
      </trkpt>
      <trkpt lat="43.704000" lon="12.578670">
        <ele>469.48660000000001</ele>
        <time>2013-06-30T08:13:32Z</time>
      </trkpt>
      <trkpt lat="43.703700" lon="12.578740">
        <ele>469.31988999999999</ele>
        <time>2013-06-30T08:13:36Z</time>
      </trkpt>
      <trkpt lat="43.703140" lon="12.578599">
        <ele>469.06299000000001</ele>
        <time>2013-06-30T08:13:44Z</time>
      </trkpt>
      <trkpt lat="43.702690" lon="12.578359">
        <ele>468.87457000000001</ele>
        <time>2013-06-30T08:13:50Z</time>
      </trkpt>
      <trkpt lat="43.702079" lon="12.578410">
        <ele>468.36414000000002</ele>
        <time>2013-06-30T08:13:59Z</time>
      </trkpt>
      <trkpt lat="43.701919" lon="12.578350">
        <ele>468.23477000000003</ele>
        <time>2013-06-30T08:14:01Z</time>
      </trkpt>
      <trkpt lat="43.701860" lon="12.578259">
        <ele>468.16840000000002</ele>
        <time>2013-06-30T08:14:02Z</time>
      </trkpt>
      <trkpt lat="43.701840" lon="12.578039">
        <ele>468.03219999999999</ele>
        <time>2013-06-30T08:14:04Z</time>
      </trkpt>
      <trkpt lat="43.702019" lon="12.577500">
        <ele>467.59372000000002</ele>
        <time>2013-06-30T08:14:10Z</time>
      </trkpt>
      <trkpt lat="43.702190" lon="12.576740">
        <ele>467.03915000000001</ele>
        <time>2013-06-30T08:14:18Z</time>
      </trkpt>
      <trkpt lat="43.702439" lon="12.576129">
        <ele>466.67831000000001</ele>
        <time>2013-06-30T08:14:24Z</time>
      </trkpt>
      <trkpt lat="43.702530" lon="12.575809">
        <ele>466.42151000000001</ele>
        <time>2013-06-30T08:14:28Z</time>
      </trkpt>
      <trkpt lat="43.702839" lon="12.575200">
        <ele>465.84829999999999</ele>
        <time>2013-06-30T08:14:35Z</time>
      </trkpt>
      <trkpt lat="43.703110" lon="12.574450">
        <ele>465.07263</ele>
        <time>2013-06-30T08:14:43Z</time>
      </trkpt>
      <trkpt lat="43.703159" lon="12.574140">
        <ele>464.75247000000002</ele>
        <time>2013-06-30T08:14:46Z</time>
      </trkpt>
      <trkpt lat="43.703129" lon="12.573850">
        <ele>464.49056999999999</ele>
        <time>2013-06-30T08:14:49Z</time>
      </trkpt>
      <trkpt lat="43.702980" lon="12.573620">
        <ele>464.27274</ele>
        <time>2013-06-30T08:14:52Z</time>
      </trkpt>
      <trkpt lat="43.702709" lon="12.573409">
        <ele>464.05041999999997</ele>
        <time>2013-06-30T08:14:56Z</time>
      </trkpt>
      <trkpt lat="43.702509" lon="12.573349">
        <ele>463.89458999999999</ele>
        <time>2013-06-30T08:14:59Z</time>
      </trkpt>
      <trkpt lat="43.701759" lon="12.573330">
        <ele>462.71789999999999</ele>
        <time>2013-06-30T08:15:09Z</time>
      </trkpt>
      <trkpt lat="43.701529" lon="12.573239">
        <ele>462.37619000000001</ele>
        <time>2013-06-30T08:15:12Z</time>
      </trkpt>
      <trkpt lat="43.701210" lon="12.572740">
        <ele>461.69522000000001</ele>
        <time>2013-06-30T08:15:18Z</time>
      </trkpt>
      <trkpt lat="43.700620" lon="12.572319">
        <ele>460.63436999999999</ele>
        <time>2013-06-30T08:15:27Z</time>
      </trkpt>
      <trkpt lat="43.700409" lon="12.571999">
        <ele>460.33373999999998</ele>
        <time>2013-06-30T08:15:31Z</time>
      </trkpt>
      <trkpt lat="43.700019" lon="12.570879">
        <ele>459.73205999999999</ele>
        <time>2013-06-30T08:15:43Z</time>
      </trkpt>
      <trkpt lat="43.699839" lon="12.570389">
        <ele>459.26132000000001</ele>
        <time>2013-06-30T08:15:49Z</time>
      </trkpt>
      <trkpt lat="43.699549" lon="12.569399">
        <ele>458.38659999999999</ele>
        <time>2013-06-30T08:15:59Z</time>
      </trkpt>
      <trkpt lat="43.699080" lon="12.568340">
        <ele>457.23917</ele>
        <time>2013-06-30T08:16:11Z</time>
      </trkpt>
      <trkpt lat="43.699040" lon="12.568240">
        <ele>457.17676</ele>
        <time>2013-06-30T08:16:12Z</time>
      </trkpt>
      <trkpt lat="43.698880" lon="12.567810">
        <ele>456.95400999999998</ele>
        <time>2013-06-30T08:16:17Z</time>
      </trkpt>
      <trkpt lat="43.698780" lon="12.567399">
        <ele>456.70193</ele>
        <time>2013-06-30T08:16:21Z</time>
      </trkpt>
      <trkpt lat="43.698739" lon="12.566820">
        <ele>456.35834</ele>
        <time>2013-06-30T08:16:27Z</time>
      </trkpt>
      <trkpt lat="43.698810" lon="12.566210">
        <ele>456.23169000000001</ele>
        <time>2013-06-30T08:16:33Z</time>
      </trkpt>
      <trkpt lat="43.698810" lon="12.565629">
        <ele>456.07080000000002</ele>
        <time>2013-06-30T08:16:38Z</time>
      </trkpt>
      <trkpt lat="43.698750" lon="12.565420">
        <ele>455.98163</ele>
        <time>2013-06-30T08:16:40Z</time>
      </trkpt>
      <trkpt lat="43.698490" lon="12.565120">
        <ele>455.77294999999998</ele>
        <time>2013-06-30T08:16:45Z</time>
      </trkpt>
      <trkpt lat="43.698460" lon="12.564960">
        <ele>455.74860000000001</ele>
        <time>2013-06-30T08:16:46Z</time>
      </trkpt>
      <trkpt lat="43.698789" lon="12.564160">
        <ele>455.04525999999998</ele>
        <time>2013-06-30T08:16:55Z</time>
      </trkpt>
      <trkpt lat="43.698859" lon="12.563740">
        <ele>454.79056000000003</ele>
        <time>2013-06-30T08:17:00Z</time>
      </trkpt>
      <trkpt lat="43.698840" lon="12.563489">
        <ele>454.68007999999998</ele>
        <time>2013-06-30T08:17:02Z</time>
      </trkpt>
      <trkpt lat="43.698739" lon="12.563299">
        <ele>454.54019</ele>
        <time>2013-06-30T08:17:04Z</time>
      </trkpt>
      <trkpt lat="43.698399" lon="12.562939">
        <ele>453.84140000000002</ele>
        <time>2013-06-30T08:17:10Z</time>
      </trkpt>
      <trkpt lat="43.698190" lon="12.562590">
        <ele>453.37905999999998</ele>
        <time>2013-06-30T08:17:14Z</time>
      </trkpt>
      <trkpt lat="43.698120" lon="12.562319">
        <ele>453.15445</ele>
        <time>2013-06-30T08:17:17Z</time>
      </trkpt>
      <trkpt lat="43.698069" lon="12.561789">
        <ele>452.84710999999999</ele>
        <time>2013-06-30T08:17:22Z</time>
      </trkpt>
      <trkpt lat="43.697939" lon="12.561440">
        <ele>452.43322999999998</ele>
        <time>2013-06-30T08:17:26Z</time>
      </trkpt>
      <trkpt lat="43.697709" lon="12.561140">
        <ele>451.94173999999998</ele>
        <time>2013-06-30T08:17:30Z</time>
      </trkpt>
      <trkpt lat="43.697479" lon="12.560929">
        <ele>451.50040000000001</ele>
        <time>2013-06-30T08:17:34Z</time>
      </trkpt>
      <trkpt lat="43.697049" lon="12.560639">
        <ele>450.98090000000002</ele>
        <time>2013-06-30T08:17:40Z</time>
      </trkpt>
      <trkpt lat="43.696850" lon="12.560620">
        <ele>450.7226</ele>
        <time>2013-06-30T08:17:43Z</time>
      </trkpt>
      <trkpt lat="43.696390" lon="12.560799">
        <ele>450.22451999999998</ele>
        <time>2013-06-30T08:17:49Z</time>
      </trkpt>
      <trkpt lat="43.696299" lon="12.560739">
        <ele>450.06621999999999</ele>
        <time>2013-06-30T08:17:51Z</time>
      </trkpt>
      <trkpt lat="43.696150" lon="12.560479">
        <ele>449.85464000000002</ele>
        <time>2013-06-30T08:17:54Z</time>
      </trkpt>
      <trkpt lat="43.695849" lon="12.559779">
        <ele>449.42773</ele>
        <time>2013-06-30T08:18:02Z</time>
      </trkpt>
      <trkpt lat="43.695539" lon="12.559440">
        <ele>449.19711000000001</ele>
        <time>2013-06-30T08:18:07Z</time>
      </trkpt>
      <trkpt lat="43.695389" lon="12.559410">
        <ele>449.11171999999999</ele>
        <time>2013-06-30T08:18:09Z</time>
      </trkpt>
      <trkpt lat="43.695249" lon="12.559449">
        <ele>449.03021000000001</ele>
        <time>2013-06-30T08:18:11Z</time>
      </trkpt>
      <trkpt lat="43.694750" lon="12.559689">
        <ele>448.48145</ele>
        <time>2013-06-30T08:18:18Z</time>
      </trkpt>
      <trkpt lat="43.694689" lon="12.559670">
        <ele>448.38623000000001</ele>
        <time>2013-06-30T08:18:19Z</time>
      </trkpt>
      <trkpt lat="43.694669" lon="12.559559">
        <ele>448.29302999999999</ele>
        <time>2013-06-30T08:18:20Z</time>
      </trkpt>
      <trkpt lat="43.694719" lon="12.559480">
        <ele>448.20177999999999</ele>
        <time>2013-06-30T08:18:21Z</time>
      </trkpt>
      <trkpt lat="43.695219" lon="12.559240">
        <ele>447.62466000000001</ele>
        <time>2013-06-30T08:18:28Z</time>
      </trkpt>
      <trkpt lat="43.695790" lon="12.558810">
        <ele>446.84692000000001</ele>
        <time>2013-06-30T08:18:37Z</time>
      </trkpt>
      <trkpt lat="43.696030" lon="12.558499">
        <ele>446.50934000000001</ele>
        <time>2013-06-30T08:18:41Z</time>
      </trkpt>
      <trkpt lat="43.696079" lon="12.558290">
        <ele>446.35552999999999</ele>
        <time>2013-06-30T08:18:43Z</time>
      </trkpt>
      <trkpt lat="43.696060" lon="12.557949">
        <ele>446.07754999999997</ele>
        <time>2013-06-30T08:18:47Z</time>
      </trkpt>
      <trkpt lat="43.695830" lon="12.557419">
        <ele>445.60577000000001</ele>
        <time>2013-06-30T08:18:53Z</time>
      </trkpt>
      <trkpt lat="43.695749" lon="12.557129">
        <ele>445.38116000000002</ele>
        <time>2013-06-30T08:18:56Z</time>
      </trkpt>
      <trkpt lat="43.695670" lon="12.555890">
        <ele>444.44887999999997</ele>
        <time>2013-06-30T08:19:08Z</time>
      </trkpt>
      <trkpt lat="43.695639" lon="12.555400">
        <ele>444.16235</ele>
        <time>2013-06-30T08:19:12Z</time>
      </trkpt>
      <trkpt lat="43.695579" lon="12.555099">
        <ele>443.96017000000001</ele>
        <time>2013-06-30T08:19:15Z</time>
      </trkpt>
      <trkpt lat="43.695360" lon="12.554629">
        <ele>443.60269</ele>
        <time>2013-06-30T08:19:21Z</time>
      </trkpt>
      <trkpt lat="43.695330" lon="12.554150">
        <ele>443.41498000000001</ele>
        <time>2013-06-30T08:19:25Z</time>
      </trkpt>
      <trkpt lat="43.695370" lon="12.553869">
        <ele>443.06180000000001</ele>
        <time>2013-06-30T08:19:28Z</time>
      </trkpt>
      <trkpt lat="43.695709" lon="12.552889">
        <ele>441.75182999999998</ele>
        <time>2013-06-30T08:19:39Z</time>
      </trkpt>
      <trkpt lat="43.696190" lon="12.552020">
        <ele>440.90454</ele>
        <time>2013-06-30T08:19:49Z</time>
      </trkpt>
      <trkpt lat="43.696229" lon="12.551830">
        <ele>440.74265000000003</ele>
        <time>2013-06-30T08:19:51Z</time>
      </trkpt>
      <trkpt lat="43.696220" lon="12.551649">
        <ele>440.57445999999999</ele>
        <time>2013-06-30T08:19:53Z</time>
      </trkpt>
      <trkpt lat="43.696109" lon="12.551230">
        <ele>440.19403</ele>
        <time>2013-06-30T08:19:57Z</time>
      </trkpt>
      <trkpt lat="43.696030" lon="12.551070">
        <ele>439.98584</ele>
        <time>2013-06-30T08:19:59Z</time>
      </trkpt>
      <trkpt lat="43.695739" lon="12.550729">
        <ele>439.45557000000002</ele>
        <time>2013-06-30T08:20:04Z</time>
      </trkpt>
      <trkpt lat="43.695509" lon="12.549960">
        <ele>438.61407000000003</ele>
        <time>2013-06-30T08:20:12Z</time>
      </trkpt>
      <trkpt lat="43.695100" lon="12.549240">
        <ele>437.64742999999999</ele>
        <time>2013-06-30T08:20:21Z</time>
      </trkpt>
      <trkpt lat="43.694759" lon="12.548879">
        <ele>437.00076000000001</ele>
        <time>2013-06-30T08:20:27Z</time>
      </trkpt>
      <trkpt lat="43.694359" lon="12.548650">
        <ele>436.32092</ele>
        <time>2013-06-30T08:20:33Z</time>
      </trkpt>
      <trkpt lat="43.694129" lon="12.548640">
        <ele>436.03174000000001</ele>
        <time>2013-06-30T08:20:36Z</time>
      </trkpt>
      <trkpt lat="43.693360" lon="12.548900">
        <ele>435.27911</ele>
        <time>2013-06-30T08:20:46Z</time>
      </trkpt>
      <trkpt lat="43.693089" lon="12.549010">
        <ele>434.84775000000002</ele>
        <time>2013-06-30T08:20:50Z</time>
      </trkpt>
      <trkpt lat="43.692320" lon="12.549460">
        <ele>433.63817999999998</ele>
        <time>2013-06-30T08:21:01Z</time>
      </trkpt>
      <trkpt lat="43.692029" lon="12.549549">
        <ele>433.17804000000001</ele>
        <time>2013-06-30T08:21:05Z</time>
      </trkpt>
      <trkpt lat="43.691179" lon="12.549500">
        <ele>431.53841999999997</ele>
        <time>2013-06-30T08:21:16Z</time>
      </trkpt>
      <trkpt lat="43.690519" lon="12.549370">
        <ele>430.69058000000001</ele>
        <time>2013-06-30T08:21:25Z</time>
      </trkpt>
      <trkpt lat="43.690320" lon="12.549279">
        <ele>430.41574000000003</ele>
        <time>2013-06-30T08:21:28Z</time>
      </trkpt>
      <trkpt lat="43.690259" lon="12.549160">
        <ele>430.22994999999997</ele>
        <time>2013-06-30T08:21:30Z</time>
      </trkpt>
      <trkpt lat="43.690299" lon="12.548849">
        <ele>429.97311000000002</ele>
        <time>2013-06-30T08:21:33Z</time>
      </trkpt>
      <trkpt lat="43.690470" lon="12.548450">
        <ele>429.69607999999999</ele>
        <time>2013-06-30T08:21:37Z</time>
      </trkpt>
      <trkpt lat="43.690659" lon="12.548199">
        <ele>429.45972</ele>
        <time>2013-06-30T08:21:41Z</time>
      </trkpt>
      <trkpt lat="43.691119" lon="12.547829">
        <ele>429.02593999999999</ele>
        <time>2013-06-30T08:21:48Z</time>
      </trkpt>
      <trkpt lat="43.691209" lon="12.547639">
        <ele>428.88663000000003</ele>
        <time>2013-06-30T08:21:50Z</time>
      </trkpt>
      <trkpt lat="43.691219" lon="12.547439">
        <ele>428.75134000000003</ele>
        <time>2013-06-30T08:21:52Z</time>
      </trkpt>
      <trkpt lat="43.691019" lon="12.546889">
        <ele>428.46609000000001</ele>
        <time>2013-06-30T08:21:58Z</time>
      </trkpt>
      <trkpt lat="43.690979" lon="12.546489">
        <ele>428.23671999999999</ele>
        <time>2013-06-30T08:22:02Z</time>
      </trkpt>
      <trkpt lat="43.690629" lon="12.545829">
        <ele>427.37515000000002</ele>
        <time>2013-06-30T08:22:10Z</time>
      </trkpt>
      <trkpt lat="43.690459" lon="12.544800">
        <ele>426.48993000000002</ele>
        <time>2013-06-30T08:22:20Z</time>
      </trkpt>
      <trkpt lat="43.690370" lon="12.544570">
        <ele>426.30266999999998</ele>
        <time>2013-06-30T08:22:22Z</time>
      </trkpt>
      <trkpt lat="43.690029" lon="12.543980">
        <ele>425.31412</ele>
        <time>2013-06-30T08:22:30Z</time>
      </trkpt>
      <trkpt lat="43.689750" lon="12.543599">
        <ele>424.50751000000002</ele>
        <time>2013-06-30T08:22:35Z</time>
      </trkpt>
      <trkpt lat="43.689539" lon="12.543399">
        <ele>424.00659000000002</ele>
        <time>2013-06-30T08:22:38Z</time>
      </trkpt>
      <trkpt lat="43.688689" lon="12.542979">
        <ele>422.22341999999998</ele>
        <time>2013-06-30T08:22:50Z</time>
      </trkpt>
      <trkpt lat="43.688140" lon="12.542700">
        <ele>420.79674999999997</ele>
        <time>2013-06-30T08:22:58Z</time>
      </trkpt>
      <trkpt lat="43.687869" lon="12.542660">
        <ele>420.00360000000001</ele>
        <time>2013-06-30T08:23:02Z</time>
      </trkpt>
      <trkpt lat="43.687260" lon="12.542930">
        <ele>418.46390000000002</ele>
        <time>2013-06-30T08:23:10Z</time>
      </trkpt>
      <trkpt lat="43.687090" lon="12.542900">
        <ele>417.90206999999998</ele>
        <time>2013-06-30T08:23:13Z</time>
      </trkpt>
      <trkpt lat="43.686370" lon="12.542159">
        <ele>415.76947000000001</ele>
        <time>2013-06-30T08:23:25Z</time>
      </trkpt>
      <trkpt lat="43.686180" lon="12.541969">
        <ele>415.15445</ele>
        <time>2013-06-30T08:23:28Z</time>
      </trkpt>
      <trkpt lat="43.685309" lon="12.541639">
        <ele>412.88643999999999</ele>
        <time>2013-06-30T08:23:40Z</time>
      </trkpt>
      <trkpt lat="43.685260" lon="12.541620">
        <ele>412.68268</ele>
        <time>2013-06-30T08:23:41Z</time>
      </trkpt>
      <trkpt lat="43.684979" lon="12.541439">
        <ele>411.72061000000002</ele>
        <time>2013-06-30T08:23:46Z</time>
      </trkpt>
      <trkpt lat="43.684370" lon="12.540670">
        <ele>409.96573000000001</ele>
        <time>2013-06-30T08:23:57Z</time>
      </trkpt>
      <trkpt lat="43.684249" lon="12.540340">
        <ele>409.46575999999999</ele>
        <time>2013-06-30T08:24:00Z</time>
      </trkpt>
      <trkpt lat="43.684070" lon="12.539459">
        <ele>407.87200999999999</ele>
        <time>2013-06-30T08:24:09Z</time>
      </trkpt>
      <trkpt lat="43.684010" lon="12.539360">
        <ele>407.68954000000002</ele>
        <time>2013-06-30T08:24:10Z</time>
      </trkpt>
      <trkpt lat="43.683510" lon="12.538999">
        <ele>406.26947000000001</ele>
        <time>2013-06-30T08:24:18Z</time>
      </trkpt>
      <trkpt lat="43.683409" lon="12.538839">
        <ele>405.89882999999998</ele>
        <time>2013-06-30T08:24:20Z</time>
      </trkpt>
      <trkpt lat="43.683369" lon="12.538360">
        <ele>404.90978999999999</ele>
        <time>2013-06-30T08:24:25Z</time>
      </trkpt>
      <trkpt lat="43.683190" lon="12.537719">
        <ele>403.67928999999998</ele>
        <time>2013-06-30T08:24:31Z</time>
      </trkpt>
      <trkpt lat="43.682700" lon="12.536800">
        <ele>401.68783999999999</ele>
        <time>2013-06-30T08:24:42Z</time>
      </trkpt>
      <trkpt lat="43.682530" lon="12.536700">
        <ele>401.13019000000003</ele>
        <time>2013-06-30T08:24:45Z</time>
      </trkpt>
      <trkpt lat="43.681959" lon="12.536519">
        <ele>399.69069999999999</ele>
        <time>2013-06-30T08:24:52Z</time>
      </trkpt>
      <trkpt lat="43.681959" lon="12.536370">
        <ele>399.25711000000001</ele>
        <time>2013-06-30T08:24:54Z</time>
      </trkpt>
      <trkpt lat="43.682189" lon="12.536130">
        <ele>398.33746000000002</ele>
        <time>2013-06-30T08:24:58Z</time>
      </trkpt>
      <trkpt lat="43.682330" lon="12.535910">
        <ele>397.62493999999998</ele>
        <time>2013-06-30T08:25:01Z</time>
      </trkpt>
      <trkpt lat="43.682370" lon="12.535729">
        <ele>397.40222</ele>
        <time>2013-06-30T08:25:02Z</time>
      </trkpt>
      <trkpt lat="43.682359" lon="12.535570">
        <ele>396.98626999999999</ele>
        <time>2013-06-30T08:25:04Z</time>
      </trkpt>
      <trkpt lat="43.682249" lon="12.535429">
        <ele>396.58774</ele>
        <time>2013-06-30T08:25:06Z</time>
      </trkpt>
      <trkpt lat="43.681699" lon="12.535139">
        <ele>394.85744999999997</ele>
        <time>2013-06-30T08:25:14Z</time>
      </trkpt>
      <trkpt lat="43.681659" lon="12.535069">
        <ele>394.62887999999998</ele>
        <time>2013-06-30T08:25:15Z</time>
      </trkpt>
      <trkpt lat="43.681680" lon="12.534939">
        <ele>394.39938000000001</ele>
        <time>2013-06-30T08:25:16Z</time>
      </trkpt>
      <trkpt lat="43.682159" lon="12.534980">
        <ele>393.01056</ele>
        <time>2013-06-30T08:25:22Z</time>
      </trkpt>
      <trkpt lat="43.682630" lon="12.534950">
        <ele>391.36831999999998</ele>
        <time>2013-06-30T08:25:29Z</time>
      </trkpt>
      <trkpt lat="43.682749" lon="12.534839">
        <ele>390.89251999999999</ele>
        <time>2013-06-30T08:25:31Z</time>
      </trkpt>
      <trkpt lat="43.682849" lon="12.534490">
        <ele>390.16854999999998</ele>
        <time>2013-06-30T08:25:34Z</time>
      </trkpt>
      <trkpt lat="43.682819" lon="12.534219">
        <ele>389.39553999999998</ele>
        <time>2013-06-30T08:25:37Z</time>
      </trkpt>
      <trkpt lat="43.682719" lon="12.534019">
        <ele>388.87732</ele>
        <time>2013-06-30T08:25:39Z</time>
      </trkpt>
      <trkpt lat="43.682519" lon="12.533830">
        <ele>388.11612000000002</ele>
        <time>2013-06-30T08:25:42Z</time>
      </trkpt>
      <trkpt lat="43.682230" lon="12.533689">
        <ele>386.88598999999999</ele>
        <time>2013-06-30T08:25:47Z</time>
      </trkpt>
      <trkpt lat="43.682159" lon="12.533550">
        <ele>386.63317999999998</ele>
        <time>2013-06-30T08:25:48Z</time>
      </trkpt>
      <trkpt lat="43.682180" lon="12.532639">
        <ele>384.20956000000001</ele>
        <time>2013-06-30T08:25:57Z</time>
      </trkpt>
      <trkpt lat="43.682040" lon="12.531949">
        <ele>382.30139000000003</ele>
        <time>2013-06-30T08:26:04Z</time>
      </trkpt>
      <trkpt lat="43.682080" lon="12.531649">
        <ele>381.49599999999998</ele>
        <time>2013-06-30T08:26:07Z</time>
      </trkpt>
      <trkpt lat="43.682289" lon="12.531080">
        <ele>379.85068000000001</ele>
        <time>2013-06-30T08:26:13Z</time>
      </trkpt>
      <trkpt lat="43.682389" lon="12.530910">
        <ele>379.28705000000002</ele>
        <time>2013-06-30T08:26:15Z</time>
      </trkpt>
      <trkpt lat="43.682600" lon="12.530680">
        <ele>378.14389</ele>
        <time>2013-06-30T08:26:19Z</time>
      </trkpt>
      <trkpt lat="43.682939" lon="12.530499">
        <ele>376.71283</ele>
        <time>2013-06-30T08:26:24Z</time>
      </trkpt>
      <trkpt lat="43.683049" lon="12.530239">
        <ele>375.86574999999999</ele>
        <time>2013-06-30T08:26:27Z</time>
      </trkpt>
      <trkpt lat="43.683049" lon="12.529889">
        <ele>375.0145</ele>
        <time>2013-06-30T08:26:30Z</time>
      </trkpt>
      <trkpt lat="43.682819" lon="12.529549">
        <ele>373.90566999999999</ele>
        <time>2013-06-30T08:26:34Z</time>
      </trkpt>
      <trkpt lat="43.682730" lon="12.529170">
        <ele>372.86880000000002</ele>
        <time>2013-06-30T08:26:38Z</time>
      </trkpt>
      <trkpt lat="43.682359" lon="12.528759">
        <ele>371.14917000000003</ele>
        <time>2013-06-30T08:26:45Z</time>
      </trkpt>
      <trkpt lat="43.682210" lon="12.528739">
        <ele>370.61849999999998</ele>
        <time>2013-06-30T08:26:47Z</time>
      </trkpt>
      <trkpt lat="43.682149" lon="12.528799">
        <ele>370.34433000000001</ele>
        <time>2013-06-30T08:26:48Z</time>
      </trkpt>
      <trkpt lat="43.682149" lon="12.528910">
        <ele>370.0686</ele>
        <time>2013-06-30T08:26:49Z</time>
      </trkpt>
      <trkpt lat="43.682200" lon="12.528999">
        <ele>369.79565000000002</ele>
        <time>2013-06-30T08:26:50Z</time>
      </trkpt>
      <trkpt lat="43.682519" lon="12.529250">
        <ele>368.42899</ele>
        <time>2013-06-30T08:26:55Z</time>
      </trkpt>
      <trkpt lat="43.682609" lon="12.529380">
        <ele>368.14841000000001</ele>
        <time>2013-06-30T08:26:56Z</time>
      </trkpt>
      <trkpt lat="43.682649" lon="12.529889">
        <ele>366.71496999999999</ele>
        <time>2013-06-30T08:27:01Z</time>
      </trkpt>
      <trkpt lat="43.682619" lon="12.529979">
        <ele>366.42583999999999</ele>
        <time>2013-06-30T08:27:02Z</time>
      </trkpt>
      <trkpt lat="43.682560" lon="12.530019">
        <ele>366.14075000000003</ele>
        <time>2013-06-30T08:27:03Z</time>
      </trkpt>
      <trkpt lat="43.682460" lon="12.529970">
        <ele>365.59656000000001</ele>
        <time>2013-06-30T08:27:05Z</time>
      </trkpt>
      <trkpt lat="43.682419" lon="12.529570">
        <ele>364.61191000000002</ele>
        <time>2013-06-30T08:27:09Z</time>
      </trkpt>
      <trkpt lat="43.682370" lon="12.529440">
        <ele>364.38718</ele>
        <time>2013-06-30T08:27:10Z</time>
      </trkpt>
      <trkpt lat="43.682170" lon="12.529300">
        <ele>363.71996999999999</ele>
        <time>2013-06-30T08:27:13Z</time>
      </trkpt>
      <trkpt lat="43.681729" lon="12.529340">
        <ele>362.35126000000002</ele>
        <time>2013-06-30T08:27:19Z</time>
      </trkpt>
      <trkpt lat="43.681190" lon="12.529659">
        <ele>360.48910999999998</ele>
        <time>2013-06-30T08:27:27Z</time>
      </trkpt>
      <trkpt lat="43.680900" lon="12.529719">
        <ele>359.57515999999998</ele>
        <time>2013-06-30T08:27:31Z</time>
      </trkpt>
      <trkpt lat="43.680769" lon="12.529659">
        <ele>359.35156000000001</ele>
        <time>2013-06-30T08:27:32Z</time>
      </trkpt>
      <trkpt lat="43.680660" lon="12.529510">
        <ele>358.91347999999999</ele>
        <time>2013-06-30T08:27:34Z</time>
      </trkpt>
      <trkpt lat="43.680270" lon="12.528580">
        <ele>356.52370999999999</ele>
        <time>2013-06-30T08:27:45Z</time>
      </trkpt>
      <trkpt lat="43.680170" lon="12.528480">
        <ele>356.30255</ele>
        <time>2013-06-30T08:27:46Z</time>
      </trkpt>
      <trkpt lat="43.680079" lon="12.528469">
        <ele>355.85757000000001</ele>
        <time>2013-06-30T08:27:48Z</time>
      </trkpt>
      <trkpt lat="43.680000" lon="12.528580">
        <ele>355.63339000000002</ele>
        <time>2013-06-30T08:27:49Z</time>
      </trkpt>
      <trkpt lat="43.679989" lon="12.528669">
        <ele>355.40796</ele>
        <time>2013-06-30T08:27:50Z</time>
      </trkpt>
      <trkpt lat="43.680289" lon="12.529340">
        <ele>353.49106</ele>
        <time>2013-06-30T08:27:58Z</time>
      </trkpt>
      <trkpt lat="43.680430" lon="12.529900">
        <ele>352.20837</ele>
        <time>2013-06-30T08:28:03Z</time>
      </trkpt>
      <trkpt lat="43.680479" lon="12.530439">
        <ele>350.68103000000002</ele>
        <time>2013-06-30T08:28:09Z</time>
      </trkpt>
      <trkpt lat="43.680479" lon="12.530750">
        <ele>349.95074</ele>
        <time>2013-06-30T08:28:12Z</time>
      </trkpt>
      <trkpt lat="43.680440" lon="12.530869">
        <ele>349.71154999999999</ele>
        <time>2013-06-30T08:28:13Z</time>
      </trkpt>
      <trkpt lat="43.680360" lon="12.530959">
        <ele>349.4744</ele>
        <time>2013-06-30T08:28:14Z</time>
      </trkpt>
      <trkpt lat="43.680159" lon="12.530959">
        <ele>348.76877000000002</ele>
        <time>2013-06-30T08:28:17Z</time>
      </trkpt>
      <trkpt lat="43.680049" lon="12.530799">
        <ele>348.29431</ele>
        <time>2013-06-30T08:28:19Z</time>
      </trkpt>
      <trkpt lat="43.679989" lon="12.530239">
        <ele>346.87130999999999</ele>
        <time>2013-06-30T08:28:25Z</time>
      </trkpt>
      <trkpt lat="43.679810" lon="12.529930">
        <ele>346.15848</ele>
        <time>2013-06-30T08:28:28Z</time>
      </trkpt>
      <trkpt lat="43.679629" lon="12.529730">
        <ele>345.44434000000001</ele>
        <time>2013-06-30T08:28:31Z</time>
      </trkpt>
      <trkpt lat="43.679029" lon="12.529259">
        <ele>343.09505999999999</ele>
        <time>2013-06-30T08:28:41Z</time>
      </trkpt>
      <trkpt lat="43.678560" lon="12.528629">
        <ele>341.13727</ele>
        <time>2013-06-30T08:28:49Z</time>
      </trkpt>
      <trkpt lat="43.678319" lon="12.528130">
        <ele>339.66836999999998</ele>
        <time>2013-06-30T08:28:55Z</time>
      </trkpt>
      <trkpt lat="43.677989" lon="12.526970">
        <ele>336.82501000000002</ele>
        <time>2013-06-30T08:29:07Z</time>
      </trkpt>
      <trkpt lat="43.677979" lon="12.526920">
        <ele>336.57727</ele>
        <time>2013-06-30T08:29:08Z</time>
      </trkpt>
      <trkpt lat="43.677889" lon="12.526710">
        <ele>336.07553000000001</ele>
        <time>2013-06-30T08:29:10Z</time>
      </trkpt>
      <trkpt lat="43.677489" lon="12.526740">
        <ele>334.60100999999997</ele>
        <time>2013-06-30T08:29:16Z</time>
      </trkpt>
      <trkpt lat="43.677329" lon="12.526580">
        <ele>334.14066000000003</ele>
        <time>2013-06-30T08:29:18Z</time>
      </trkpt>
      <trkpt lat="43.677099" lon="12.525930">
        <ele>332.56286999999998</ele>
        <time>2013-06-30T08:29:25Z</time>
      </trkpt>
      <trkpt lat="43.677199" lon="12.525370">
        <ele>331.16561999999999</ele>
        <time>2013-06-30T08:29:31Z</time>
      </trkpt>
      <trkpt lat="43.677169" lon="12.525180">
        <ele>330.68221999999997</ele>
        <time>2013-06-30T08:29:33Z</time>
      </trkpt>
      <trkpt lat="43.676820" lon="12.525370">
        <ele>329.49297999999999</ele>
        <time>2013-06-30T08:29:38Z</time>
      </trkpt>
      <trkpt lat="43.676730" lon="12.525370">
        <ele>329.26004</ele>
        <time>2013-06-30T08:29:39Z</time>
      </trkpt>
      <trkpt lat="43.676009" lon="12.524819">
        <ele>326.79514</ele>
        <time>2013-06-30T08:29:50Z</time>
      </trkpt>
      <trkpt lat="43.675519" lon="12.524459">
        <ele>325.16708</ele>
        <time>2013-06-30T08:29:57Z</time>
      </trkpt>
      <trkpt lat="43.675519" lon="12.524299">
        <ele>324.71026999999998</ele>
        <time>2013-06-30T08:29:59Z</time>
      </trkpt>
      <trkpt lat="43.675419" lon="12.524169">
        <ele>324.25830000000002</ele>
        <time>2013-06-30T08:30:01Z</time>
      </trkpt>
      <trkpt lat="43.675329" lon="12.524129">
        <ele>324.03487999999999</ele>
        <time>2013-06-30T08:30:02Z</time>
      </trkpt>
      <trkpt lat="43.675180" lon="12.524160">
        <ele>323.59285999999997</ele>
        <time>2013-06-30T08:30:04Z</time>
      </trkpt>
      <trkpt lat="43.675090" lon="12.524280">
        <ele>323.15627999999998</ele>
        <time>2013-06-30T08:30:06Z</time>
      </trkpt>
      <trkpt lat="43.674430" lon="12.524050">
        <ele>321.25742000000002</ele>
        <time>2013-06-30T08:30:15Z</time>
      </trkpt>
      <trkpt lat="43.673580" lon="12.523649">
        <ele>318.82657</ele>
        <time>2013-06-30T08:30:27Z</time>
      </trkpt>
      <trkpt lat="43.672729" lon="12.523259">
        <ele>316.57632000000001</ele>
        <time>2013-06-30T08:30:39Z</time>
      </trkpt>
      <trkpt lat="43.672690" lon="12.523240">
        <ele>316.38535000000002</ele>
        <time>2013-06-30T08:30:40Z</time>
      </trkpt>
      <trkpt lat="43.672009" lon="12.522849">
        <ele>314.41034000000002</ele>
        <time>2013-06-30T08:30:50Z</time>
      </trkpt>
      <trkpt lat="43.671670" lon="12.522499">
        <ele>313.18993999999998</ele>
        <time>2013-06-30T08:30:56Z</time>
      </trkpt>
      <trkpt lat="43.671389" lon="12.521899">
        <ele>311.74743999999998</ele>
        <time>2013-06-30T08:31:03Z</time>
      </trkpt>
      <trkpt lat="43.671249" lon="12.521419">
        <ele>310.72280999999998</ele>
        <time>2013-06-30T08:31:08Z</time>
      </trkpt>
      <trkpt lat="43.671199" lon="12.521100">
        <ele>310.14389</ele>
        <time>2013-06-30T08:31:11Z</time>
      </trkpt>
      <trkpt lat="43.671180" lon="12.520640">
        <ele>309.42617999999999</ele>
        <time>2013-06-30T08:31:15Z</time>
      </trkpt>
      <trkpt lat="43.671240" lon="12.519869">
        <ele>307.74660999999998</ele>
        <time>2013-06-30T08:31:23Z</time>
      </trkpt>
      <trkpt lat="43.671259" lon="12.518629">
        <ele>305.29437000000001</ele>
        <time>2013-06-30T08:31:35Z</time>
      </trkpt>
      <trkpt lat="43.671270" lon="12.518180">
        <ele>304.41165000000001</ele>
        <time>2013-06-30T08:31:39Z</time>
      </trkpt>
      <trkpt lat="43.671359" lon="12.518150">
        <ele>304.19247000000001</ele>
        <time>2013-06-30T08:31:40Z</time>
      </trkpt>
      <trkpt lat="43.671419" lon="12.518059">
        <ele>303.97617000000002</ele>
        <time>2013-06-30T08:31:41Z</time>
      </trkpt>
      <trkpt lat="43.671440" lon="12.517959">
        <ele>303.76276000000001</ele>
        <time>2013-06-30T08:31:42Z</time>
      </trkpt>
      <trkpt lat="43.671380" lon="12.517790">
        <ele>303.34453999999999</ele>
        <time>2013-06-30T08:31:44Z</time>
      </trkpt>
      <trkpt lat="43.672049" lon="12.516970">
        <ele>300.86441000000002</ele>
        <time>2013-06-30T08:31:56Z</time>
      </trkpt>
      <trkpt lat="43.672729" lon="12.516150">
        <ele>298.54845999999998</ele>
        <time>2013-06-30T08:32:08Z</time>
      </trkpt>
      <trkpt lat="43.673199" lon="12.515569">
        <ele>296.96057000000002</ele>
        <time>2013-06-30T08:32:17Z</time>
      </trkpt>
      <trkpt lat="43.673930" lon="12.514849">
        <ele>294.77294999999998</ele>
        <time>2013-06-30T08:32:29Z</time>
      </trkpt>
      <trkpt lat="43.674660" lon="12.514129">
        <ele>293.22820999999999</ele>
        <time>2013-06-30T08:32:41Z</time>
      </trkpt>
      <trkpt lat="43.674999" lon="12.513799">
        <ele>292.63198999999997</ele>
        <time>2013-06-30T08:32:46Z</time>
      </trkpt>
      <trkpt lat="43.674959" lon="12.513650">
        <ele>292.35122999999999</ele>
        <time>2013-06-30T08:32:48Z</time>
      </trkpt>
      <trkpt lat="43.674680" lon="12.513399">
        <ele>291.87862999999999</ele>
        <time>2013-06-30T08:32:52Z</time>
      </trkpt>
      <trkpt lat="43.674290" lon="12.512280">
        <ele>290.38598999999999</ele>
        <time>2013-06-30T08:33:04Z</time>
      </trkpt>
      <trkpt lat="43.673930" lon="12.511229">
        <ele>289.09609999999998</ele>
        <time>2013-06-30T08:33:15Z</time>
      </trkpt>
      <trkpt lat="43.673759" lon="12.511239">
        <ele>288.75612999999998</ele>
        <time>2013-06-30T08:33:18Z</time>
      </trkpt>
      <trkpt lat="43.672920" lon="12.511499">
        <ele>287.88153</ele>
        <time>2013-06-30T08:33:29Z</time>
      </trkpt>
      <trkpt lat="43.672720" lon="12.511650">
        <ele>287.65404999999998</ele>
        <time>2013-06-30T08:33:32Z</time>
      </trkpt>
      <trkpt lat="43.672409" lon="12.512119">
        <ele>287.18002000000001</ele>
        <time>2013-06-30T08:33:38Z</time>
      </trkpt>
      <trkpt lat="43.671919" lon="12.513100">
        <ele>286.09976</ele>
        <time>2013-06-30T08:33:50Z</time>
      </trkpt>
      <trkpt lat="43.671380" lon="12.514089">
        <ele>285.25848000000002</ele>
        <time>2013-06-30T08:34:02Z</time>
      </trkpt>
      <trkpt lat="43.670840" lon="12.515079">
        <ele>284.43326000000002</ele>
        <time>2013-06-30T08:34:14Z</time>
      </trkpt>
      <trkpt lat="43.670739" lon="12.515260">
        <ele>284.27075000000002</ele>
        <time>2013-06-30T08:34:16Z</time>
      </trkpt>
      <trkpt lat="43.670260" lon="12.515859">
        <ele>283.60802999999999</ele>
        <time>2013-06-30T08:34:25Z</time>
      </trkpt>
      <trkpt lat="43.669830" lon="12.516289">
        <ele>283.25533999999999</ele>
        <time>2013-06-30T08:34:32Z</time>
      </trkpt>
      <trkpt lat="43.669500" lon="12.516570">
        <ele>283.07047</ele>
        <time>2013-06-30T08:34:37Z</time>
      </trkpt>
      <trkpt lat="43.668640" lon="12.516949">
        <ele>282.52924000000002</ele>
        <time>2013-06-30T08:34:49Z</time>
      </trkpt>
      <trkpt lat="43.667790" lon="12.517320">
        <ele>282.04070999999999</ele>
        <time>2013-06-30T08:35:01Z</time>
      </trkpt>
      <trkpt lat="43.667660" lon="12.517379">
        <ele>281.98586999999998</ele>
        <time>2013-06-30T08:35:03Z</time>
      </trkpt>
      <trkpt lat="43.667080" lon="12.517680">
        <ele>281.86694</ele>
        <time>2013-06-30T08:35:11Z</time>
      </trkpt>
      <trkpt lat="43.666310" lon="12.518310">
        <ele>281.75107000000003</ele>
        <time>2013-06-30T08:35:23Z</time>
      </trkpt>
      <trkpt lat="43.665639" lon="12.518859">
        <ele>281.40356000000003</ele>
        <time>2013-06-30T08:35:33Z</time>
      </trkpt>
      <trkpt lat="43.665370" lon="12.519179">
        <ele>281.1694</ele>
        <time>2013-06-30T08:35:38Z</time>
      </trkpt>
      <trkpt lat="43.664919" lon="12.520250">
        <ele>280.77596999999997</ele>
        <time>2013-06-30T08:35:50Z</time>
      </trkpt>
      <trkpt lat="43.664900" lon="12.520289">
        <ele>280.75049000000001</ele>
        <time>2013-06-30T08:35:51Z</time>
      </trkpt>
      <trkpt lat="43.664840" lon="12.520610">
        <ele>280.67822000000001</ele>
        <time>2013-06-30T08:35:54Z</time>
      </trkpt>
      <trkpt lat="43.664840" lon="12.520910">
        <ele>280.59652999999997</ele>
        <time>2013-06-30T08:35:57Z</time>
      </trkpt>
      <trkpt lat="43.664949" lon="12.521279">
        <ele>280.45733999999999</ele>
        <time>2013-06-30T08:36:01Z</time>
      </trkpt>
      <trkpt lat="43.665479" lon="12.522290">
        <ele>279.99716000000001</ele>
        <time>2013-06-30T08:36:13Z</time>
      </trkpt>
      <trkpt lat="43.665490" lon="12.522310">
        <ele>279.99716000000001</ele>
        <time>2013-06-30T08:36:13Z</time>
      </trkpt>
      <trkpt lat="43.665950" lon="12.523370">
        <ele>279.66750999999999</ele>
        <time>2013-06-30T08:36:25Z</time>
      </trkpt>
      <trkpt lat="43.666099" lon="12.523709">
        <ele>279.51796999999999</ele>
        <time>2013-06-30T08:36:29Z</time>
      </trkpt>
      <trkpt lat="43.666139" lon="12.523999">
        <ele>279.44141000000002</ele>
        <time>2013-06-30T08:36:31Z</time>
      </trkpt>
      <trkpt lat="43.666060" lon="12.524350">
        <ele>279.28091000000001</ele>
        <time>2013-06-30T08:36:35Z</time>
      </trkpt>
      <trkpt lat="43.665609" lon="12.525419">
        <ele>278.72061000000002</ele>
        <time>2013-06-30T08:36:47Z</time>
      </trkpt>
      <trkpt lat="43.665159" lon="12.526499">
        <ele>277.88431000000003</ele>
        <time>2013-06-30T08:36:59Z</time>
      </trkpt>
      <trkpt lat="43.665049" lon="12.526750">
        <ele>277.67556999999999</ele>
        <time>2013-06-30T08:37:02Z</time>
      </trkpt>
      <trkpt lat="43.664580" lon="12.527809">
        <ele>276.77789000000001</ele>
        <time>2013-06-30T08:37:14Z</time>
      </trkpt>
      <trkpt lat="43.664109" lon="12.528859">
        <ele>275.83956999999998</ele>
        <time>2013-06-30T08:37:26Z</time>
      </trkpt>
      <trkpt lat="43.663639" lon="12.529919">
        <ele>274.94510000000002</ele>
        <time>2013-06-30T08:37:38Z</time>
      </trkpt>
      <trkpt lat="43.663430" lon="12.530390">
        <ele>274.60318000000001</ele>
        <time>2013-06-30T08:37:43Z</time>
      </trkpt>
      <trkpt lat="43.663019" lon="12.531429">
        <ele>273.82028000000003</ele>
        <time>2013-06-30T08:37:55Z</time>
      </trkpt>
      <trkpt lat="43.662800" lon="12.531859">
        <ele>273.57324</ele>
        <time>2013-06-30T08:38:00Z</time>
      </trkpt>
      <trkpt lat="43.662250" lon="12.532839">
        <ele>272.99054000000001</ele>
        <time>2013-06-30T08:38:12Z</time>
      </trkpt>
      <trkpt lat="43.661699" lon="12.533830">
        <ele>272.21140000000003</ele>
        <time>2013-06-30T08:38:24Z</time>
      </trkpt>
      <trkpt lat="43.661200" lon="12.534730">
        <ele>271.48998999999998</ele>
        <time>2013-06-30T08:38:35Z</time>
      </trkpt>
      <trkpt lat="43.660640" lon="12.535699">
        <ele>270.70697000000001</ele>
        <time>2013-06-30T08:38:47Z</time>
      </trkpt>
      <trkpt lat="43.660089" lon="12.536679">
        <ele>269.99072000000001</ele>
        <time>2013-06-30T08:38:59Z</time>
      </trkpt>
      <trkpt lat="43.659530" lon="12.537650">
        <ele>269.34915000000001</ele>
        <time>2013-06-30T08:39:11Z</time>
      </trkpt>
      <trkpt lat="43.658970" lon="12.538630">
        <ele>268.71886999999998</ele>
        <time>2013-06-30T08:39:23Z</time>
      </trkpt>
      <trkpt lat="43.658410" lon="12.539599">
        <ele>268.11273</ele>
        <time>2013-06-30T08:39:35Z</time>
      </trkpt>
      <trkpt lat="43.657859" lon="12.540570">
        <ele>267.58859000000001</ele>
        <time>2013-06-30T08:39:47Z</time>
      </trkpt>
      <trkpt lat="43.657299" lon="12.541550">
        <ele>267.07538</ele>
        <time>2013-06-30T08:39:59Z</time>
      </trkpt>
      <trkpt lat="43.656740" lon="12.542519">
        <ele>266.49506000000002</ele>
        <time>2013-06-30T08:40:11Z</time>
      </trkpt>
      <trkpt lat="43.656189" lon="12.543499">
        <ele>265.94387999999998</ele>
        <time>2013-06-30T08:40:23Z</time>
      </trkpt>
      <trkpt lat="43.655650" lon="12.544429">
        <ele>265.33199999999999</ele>
        <time>2013-06-30T08:40:34Z</time>
      </trkpt>
      <trkpt lat="43.655409" lon="12.545130">
        <ele>264.80396000000002</ele>
        <time>2013-06-30T08:40:42Z</time>
      </trkpt>
      <trkpt lat="43.655169" lon="12.546329">
        <ele>264.15341000000001</ele>
        <time>2013-06-30T08:40:54Z</time>
      </trkpt>
      <trkpt lat="43.654969" lon="12.547309">
        <ele>263.79248000000001</ele>
        <time>2013-06-30T08:41:04Z</time>
      </trkpt>
      <trkpt lat="43.654830" lon="12.547839">
        <ele>263.65118000000001</ele>
        <time>2013-06-30T08:41:09Z</time>
      </trkpt>
      <trkpt lat="43.654640" lon="12.548289">
        <ele>263.51852000000002</ele>
        <time>2013-06-30T08:41:14Z</time>
      </trkpt>
      <trkpt lat="43.654080" lon="12.549249">
        <ele>263.14864999999998</ele>
        <time>2013-06-30T08:41:26Z</time>
      </trkpt>
      <trkpt lat="43.653929" lon="12.549500">
        <ele>263.06342000000001</ele>
        <time>2013-06-30T08:41:29Z</time>
      </trkpt>
      <trkpt lat="43.653629" lon="12.550670">
        <ele>262.74606</ele>
        <time>2013-06-30T08:41:41Z</time>
      </trkpt>
      <trkpt lat="43.653329" lon="12.551839">
        <ele>262.38177000000002</ele>
        <time>2013-06-30T08:41:53Z</time>
      </trkpt>
      <trkpt lat="43.653280" lon="12.552020">
        <ele>262.31110000000001</ele>
        <time>2013-06-30T08:41:55Z</time>
      </trkpt>
      <trkpt lat="43.653199" lon="12.552020">
        <ele>262.27451000000002</ele>
        <time>2013-06-30T08:41:56Z</time>
      </trkpt>
      <trkpt lat="43.652999" lon="12.551760">
        <ele>262.11948000000001</ele>
        <time>2013-06-30T08:42:00Z</time>
      </trkpt>
      <trkpt lat="43.653020" lon="12.551389">
        <ele>261.99041999999997</ele>
        <time>2013-06-30T08:42:03Z</time>
      </trkpt>
      <trkpt lat="43.653250" lon="12.550670">
        <ele>261.64699999999999</ele>
        <time>2013-06-30T08:42:11Z</time>
      </trkpt>
      <trkpt lat="43.653239" lon="12.550399">
        <ele>261.52715999999998</ele>
        <time>2013-06-30T08:42:14Z</time>
      </trkpt>
      <trkpt lat="43.653139" lon="12.550259">
        <ele>261.49032999999997</ele>
        <time>2013-06-30T08:42:15Z</time>
      </trkpt>
      <trkpt lat="43.652879" lon="12.550129">
        <ele>261.36414000000002</ele>
        <time>2013-06-30T08:42:19Z</time>
      </trkpt>
      <trkpt lat="43.652100" lon="12.550109">
        <ele>261.15584999999999</ele>
        <time>2013-06-30T08:42:29Z</time>
      </trkpt>
      <trkpt lat="43.651589" lon="12.550269">
        <ele>260.88922000000002</ele>
        <time>2013-06-30T08:42:36Z</time>
      </trkpt>
      <trkpt lat="43.650860" lon="12.550989">
        <ele>260.05721999999997</ele>
        <time>2013-06-30T08:42:48Z</time>
      </trkpt>
      <trkpt lat="43.650639" lon="12.551200">
        <ele>259.83046999999999</ele>
        <time>2013-06-30T08:42:52Z</time>
      </trkpt>
      <trkpt lat="43.650070" lon="12.552160">
        <ele>259.37598000000003</ele>
        <time>2013-06-30T08:43:04Z</time>
      </trkpt>
      <trkpt lat="43.649499" lon="12.553119">
        <ele>258.97000000000003</ele>
        <time>2013-06-30T08:43:16Z</time>
      </trkpt>
      <trkpt lat="43.649440" lon="12.553219">
        <ele>258.92514</ele>
        <time>2013-06-30T08:43:17Z</time>
      </trkpt>
      <trkpt lat="43.648830" lon="12.554130">
        <ele>258.17007000000001</ele>
        <time>2013-06-30T08:43:29Z</time>
      </trkpt>
      <trkpt lat="43.648219" lon="12.555040">
        <ele>257.56725999999998</ele>
        <time>2013-06-30T08:43:41Z</time>
      </trkpt>
      <trkpt lat="43.647879" lon="12.555540">
        <ele>257.35001</ele>
        <time>2013-06-30T08:43:48Z</time>
      </trkpt>
      <trkpt lat="43.647229" lon="12.556399">
        <ele>256.93954000000002</ele>
        <time>2013-06-30T08:44:00Z</time>
      </trkpt>
      <trkpt lat="43.646590" lon="12.557259">
        <ele>256.52132999999998</ele>
        <time>2013-06-30T08:44:12Z</time>
      </trkpt>
      <trkpt lat="43.645940" lon="12.558119">
        <ele>256.22372000000001</ele>
        <time>2013-06-30T08:44:24Z</time>
      </trkpt>
      <trkpt lat="43.645289" lon="12.558980">
        <ele>255.82616999999999</ele>
        <time>2013-06-30T08:44:36Z</time>
      </trkpt>
      <trkpt lat="43.644950" lon="12.559440">
        <ele>255.60083</ele>
        <time>2013-06-30T08:44:42Z</time>
      </trkpt>
      <trkpt lat="43.644629" lon="12.560599">
        <ele>255.32584</ele>
        <time>2013-06-30T08:44:54Z</time>
      </trkpt>
      <trkpt lat="43.644309" lon="12.561759">
        <ele>255.16130000000001</ele>
        <time>2013-06-30T08:45:06Z</time>
      </trkpt>
      <trkpt lat="43.643990" lon="12.562920">
        <ele>254.82968</ele>
        <time>2013-06-30T08:45:18Z</time>
      </trkpt>
      <trkpt lat="43.643670" lon="12.564079">
        <ele>254.97540000000001</ele>
        <time>2013-06-30T08:45:30Z</time>
      </trkpt>
      <trkpt lat="43.643340" lon="12.565239">
        <ele>255.49455</ele>
        <time>2013-06-30T08:45:42Z</time>
      </trkpt>
      <trkpt lat="43.643020" lon="12.566389">
        <ele>255.78299999999999</ele>
        <time>2013-06-30T08:45:54Z</time>
      </trkpt>
      <trkpt lat="43.643020" lon="12.566400">
        <ele>255.78299999999999</ele>
        <time>2013-06-30T08:45:54Z</time>
      </trkpt>
      <trkpt lat="43.642480" lon="12.567399">
        <ele>256.18283000000002</ele>
        <time>2013-06-30T08:46:06Z</time>
      </trkpt>
      <trkpt lat="43.642269" lon="12.567789">
        <ele>256.39654999999999</ele>
        <time>2013-06-30T08:46:11Z</time>
      </trkpt>
      <trkpt lat="43.641700" lon="12.568749">
        <ele>256.94292999999999</ele>
        <time>2013-06-30T08:46:23Z</time>
      </trkpt>
      <trkpt lat="43.641560" lon="12.569000">
        <ele>257.12475999999998</ele>
        <time>2013-06-30T08:46:26Z</time>
      </trkpt>
      <trkpt lat="43.641210" lon="12.569840">
        <ele>257.72890999999998</ele>
        <time>2013-06-30T08:46:35Z</time>
      </trkpt>
      <trkpt lat="43.640810" lon="12.570949">
        <ele>258.58005000000003</ele>
        <time>2013-06-30T08:46:47Z</time>
      </trkpt>
      <trkpt lat="43.640439" lon="12.571980">
        <ele>259.60577000000001</ele>
        <time>2013-06-30T08:46:59Z</time>
      </trkpt>
      <trkpt lat="43.640139" lon="12.573149">
        <ele>260.67221000000001</ele>
        <time>2013-06-30T08:47:11Z</time>
      </trkpt>
      <trkpt lat="43.639830" lon="12.574319">
        <ele>261.78841999999997</ele>
        <time>2013-06-30T08:47:23Z</time>
      </trkpt>
      <trkpt lat="43.639530" lon="12.575479">
        <ele>262.91559000000001</ele>
        <time>2013-06-30T08:47:35Z</time>
      </trkpt>
      <trkpt lat="43.639219" lon="12.576649">
        <ele>264.04199</ele>
        <time>2013-06-30T08:47:47Z</time>
      </trkpt>
      <trkpt lat="43.639000" lon="12.577509">
        <ele>264.76128999999997</ele>
        <time>2013-06-30T08:47:55Z</time>
      </trkpt>
      <trkpt lat="43.638929" lon="12.578750">
        <ele>265.82440000000003</ele>
        <time>2013-06-30T08:48:07Z</time>
      </trkpt>
      <trkpt lat="43.638880" lon="12.579720">
        <ele>266.7561</ele>
        <time>2013-06-30T08:48:17Z</time>
      </trkpt>
      <trkpt lat="43.638699" lon="12.580329">
        <ele>267.33031999999997</ele>
        <time>2013-06-30T08:48:23Z</time>
      </trkpt>
      <trkpt lat="43.638429" lon="12.580620">
        <ele>267.81317000000001</ele>
        <time>2013-06-30T08:48:28Z</time>
      </trkpt>
      <trkpt lat="43.637639" lon="12.581210">
        <ele>269.02289000000002</ele>
        <time>2013-06-30T08:48:40Z</time>
      </trkpt>
      <trkpt lat="43.636849" lon="12.581800">
        <ele>270.26317999999998</ele>
        <time>2013-06-30T08:48:52Z</time>
      </trkpt>
      <trkpt lat="43.636060" lon="12.582390">
        <ele>271.50143000000003</ele>
        <time>2013-06-30T08:49:04Z</time>
      </trkpt>
      <trkpt lat="43.635690" lon="12.582659">
        <ele>272.04345999999998</ele>
        <time>2013-06-30T08:49:09Z</time>
      </trkpt>
      <trkpt lat="43.634849" lon="12.583089">
        <ele>273.41881999999998</ele>
        <time>2013-06-30T08:49:21Z</time>
      </trkpt>
      <trkpt lat="43.634010" lon="12.583530">
        <ele>274.87213000000003</ele>
        <time>2013-06-30T08:49:33Z</time>
      </trkpt>
      <trkpt lat="43.633850" lon="12.583609">
        <ele>275.24142000000001</ele>
        <time>2013-06-30T08:49:36Z</time>
      </trkpt>
      <trkpt lat="43.633089" lon="12.584269">
        <ele>276.5163</ele>
        <time>2013-06-30T08:49:47Z</time>
      </trkpt>
      <trkpt lat="43.632329" lon="12.584929">
        <ele>277.92590000000001</ele>
        <time>2013-06-30T08:49:59Z</time>
      </trkpt>
      <trkpt lat="43.631939" lon="12.585270">
        <ele>278.84616</ele>
        <time>2013-06-30T08:50:06Z</time>
      </trkpt>
      <trkpt lat="43.631799" lon="12.585440">
        <ele>279.13222999999999</ele>
        <time>2013-06-30T08:50:08Z</time>
      </trkpt>
      <trkpt lat="43.631709" lon="12.585630">
        <ele>279.42156999999997</ele>
        <time>2013-06-30T08:50:10Z</time>
      </trkpt>
      <trkpt lat="43.631620" lon="12.585990">
        <ele>279.95305999999999</ele>
        <time>2013-06-30T08:50:14Z</time>
      </trkpt>
      <trkpt lat="43.631620" lon="12.586209">
        <ele>280.20303000000001</ele>
        <time>2013-06-30T08:50:16Z</time>
      </trkpt>
      <trkpt lat="43.631809" lon="12.587419">
        <ele>281.65645999999998</ele>
        <time>2013-06-30T08:50:28Z</time>
      </trkpt>
      <trkpt lat="43.631809" lon="12.587440">
        <ele>281.65645999999998</ele>
        <time>2013-06-30T08:50:28Z</time>
      </trkpt>
      <trkpt lat="43.631829" lon="12.587810">
        <ele>282.16118999999998</ele>
        <time>2013-06-30T08:50:32Z</time>
      </trkpt>
      <trkpt lat="43.631799" lon="12.588039">
        <ele>282.42133000000001</ele>
        <time>2013-06-30T08:50:34Z</time>
      </trkpt>
      <trkpt lat="43.631720" lon="12.588239">
        <ele>282.68126999999998</ele>
        <time>2013-06-30T08:50:36Z</time>
      </trkpt>
      <trkpt lat="43.631160" lon="12.589210">
        <ele>284.27512000000002</ele>
        <time>2013-06-30T08:50:48Z</time>
      </trkpt>
      <trkpt lat="43.630679" lon="12.590030">
        <ele>285.64026000000001</ele>
        <time>2013-06-30T08:50:59Z</time>
      </trkpt>
      <trkpt lat="43.630619" lon="12.590339">
        <ele>285.95760999999999</ele>
        <time>2013-06-30T08:51:02Z</time>
      </trkpt>
      <trkpt lat="43.630640" lon="12.591529">
        <ele>286.93502999999998</ele>
        <time>2013-06-30T08:51:13Z</time>
      </trkpt>
      <trkpt lat="43.630359" lon="12.592709">
        <ele>287.81689</ele>
        <time>2013-06-30T08:51:25Z</time>
      </trkpt>
      <trkpt lat="43.630080" lon="12.593889">
        <ele>288.78438999999997</ele>
        <time>2013-06-30T08:51:37Z</time>
      </trkpt>
      <trkpt lat="43.629799" lon="12.595069">
        <ele>289.76526000000001</ele>
        <time>2013-06-30T08:51:49Z</time>
      </trkpt>
      <trkpt lat="43.629629" lon="12.595750">
        <ele>290.23041000000001</ele>
        <time>2013-06-30T08:51:56Z</time>
      </trkpt>
      <trkpt lat="43.629590" lon="12.596540">
        <ele>290.79568</ele>
        <time>2013-06-30T08:52:04Z</time>
      </trkpt>
      <trkpt lat="43.629599" lon="12.597469">
        <ele>291.40548999999999</ele>
        <time>2013-06-30T08:52:13Z</time>
      </trkpt>
      <trkpt lat="43.629480" lon="12.598700">
        <ele>292.06063999999998</ele>
        <time>2013-06-30T08:52:25Z</time>
      </trkpt>
      <trkpt lat="43.629420" lon="12.599339">
        <ele>292.31984999999997</ele>
        <time>2013-06-30T08:52:31Z</time>
      </trkpt>
      <trkpt lat="43.629420" lon="12.600579">
        <ele>292.79647999999997</ele>
        <time>2013-06-30T08:52:43Z</time>
      </trkpt>
      <trkpt lat="43.629420" lon="12.601820">
        <ele>293.00119000000001</ele>
        <time>2013-06-30T08:52:55Z</time>
      </trkpt>
      <trkpt lat="43.629420" lon="12.602619">
        <ele>293.14679000000001</ele>
        <time>2013-06-30T08:53:03Z</time>
      </trkpt>
      <trkpt lat="43.629569" lon="12.603839">
        <ele>293.34206999999998</ele>
        <time>2013-06-30T08:53:15Z</time>
      </trkpt>
      <trkpt lat="43.629590" lon="12.603959">
        <ele>293.35338999999999</ele>
        <time>2013-06-30T08:53:16Z</time>
      </trkpt>
      <trkpt lat="43.629580" lon="12.604389">
        <ele>293.39487000000003</ele>
        <time>2013-06-30T08:53:20Z</time>
      </trkpt>
      <trkpt lat="43.629299" lon="12.605209">
        <ele>293.45496000000003</ele>
        <time>2013-06-30T08:53:29Z</time>
      </trkpt>
      <trkpt lat="43.628849" lon="12.606290">
        <ele>293.33084000000002</ele>
        <time>2013-06-30T08:53:41Z</time>
      </trkpt>
      <trkpt lat="43.628789" lon="12.606429">
        <ele>293.31589000000002</ele>
        <time>2013-06-30T08:53:42Z</time>
      </trkpt>
      <trkpt lat="43.628249" lon="12.607419">
        <ele>293.12322999999998</ele>
        <time>2013-06-30T08:53:54Z</time>
      </trkpt>
      <trkpt lat="43.628219" lon="12.607470">
        <ele>293.10565000000003</ele>
        <time>2013-06-30T08:53:55Z</time>
      </trkpt>
      <trkpt lat="43.627940" lon="12.607820">
        <ele>293.01236</ele>
        <time>2013-06-30T08:54:00Z</time>
      </trkpt>
      <trkpt lat="43.627130" lon="12.608359">
        <ele>292.73993000000002</ele>
        <time>2013-06-30T08:54:12Z</time>
      </trkpt>
      <trkpt lat="43.626760" lon="12.608599">
        <ele>292.57852000000003</ele>
        <time>2013-06-30T08:54:18Z</time>
      </trkpt>
      <trkpt lat="43.625870" lon="12.608759">
        <ele>292.21136000000001</ele>
        <time>2013-06-30T08:54:30Z</time>
      </trkpt>
      <trkpt lat="43.625539" lon="12.608819">
        <ele>292.07641999999998</ele>
        <time>2013-06-30T08:54:34Z</time>
      </trkpt>
      <trkpt lat="43.624939" lon="12.609010">
        <ele>291.79099000000002</ele>
        <time>2013-06-30T08:54:42Z</time>
      </trkpt>
      <trkpt lat="43.624730" lon="12.609200">
        <ele>291.62774999999999</ele>
        <time>2013-06-30T08:54:46Z</time>
      </trkpt>
      <trkpt lat="43.624070" lon="12.610039">
        <ele>291.04779000000002</ele>
        <time>2013-06-30T08:54:58Z</time>
      </trkpt>
      <trkpt lat="43.623780" lon="12.610399">
        <ele>290.76639</ele>
        <time>2013-06-30T08:55:03Z</time>
      </trkpt>
      <trkpt lat="43.623410" lon="12.610759">
        <ele>290.39951000000002</ele>
        <time>2013-06-30T08:55:09Z</time>
      </trkpt>
      <trkpt lat="43.623129" lon="12.610769">
        <ele>290.13729999999998</ele>
        <time>2013-06-30T08:55:13Z</time>
      </trkpt>
      <trkpt lat="43.622260" lon="12.610429">
        <ele>289.33078</ele>
        <time>2013-06-30T08:55:25Z</time>
      </trkpt>
      <trkpt lat="43.622230" lon="12.610420">
        <ele>289.24950999999999</ele>
        <time>2013-06-30T08:55:26Z</time>
      </trkpt>
      <trkpt lat="43.621710" lon="12.610320">
        <ele>288.62673999999998</ele>
        <time>2013-06-30T08:55:33Z</time>
      </trkpt>
      <trkpt lat="43.621210" lon="12.610290">
        <ele>288.04030999999998</ele>
        <time>2013-06-30T08:55:40Z</time>
      </trkpt>
      <trkpt lat="43.621069" lon="12.610329">
        <ele>287.88132000000002</ele>
        <time>2013-06-30T08:55:42Z</time>
      </trkpt>
      <trkpt lat="43.620950" lon="12.610439">
        <ele>287.72368999999998</ele>
        <time>2013-06-30T08:55:44Z</time>
      </trkpt>
      <trkpt lat="43.620839" lon="12.610710">
        <ele>287.48903999999999</ele>
        <time>2013-06-30T08:55:47Z</time>
      </trkpt>
      <trkpt lat="43.620850" lon="12.611080">
        <ele>287.25524999999999</ele>
        <time>2013-06-30T08:55:50Z</time>
      </trkpt>
      <trkpt lat="43.621399" lon="12.611870">
        <ele>286.35930999999999</ele>
        <time>2013-06-30T08:56:01Z</time>
      </trkpt>
      <trkpt lat="43.621489" lon="12.612220">
        <ele>286.10602</ele>
        <time>2013-06-30T08:56:04Z</time>
      </trkpt>
      <trkpt lat="43.621469" lon="12.613010">
        <ele>285.42563000000001</ele>
        <time>2013-06-30T08:56:12Z</time>
      </trkpt>
      <trkpt lat="43.621580" lon="12.614239">
        <ele>284.42565999999999</ele>
        <time>2013-06-30T08:56:24Z</time>
      </trkpt>
      <trkpt lat="43.621689" lon="12.615470">
        <ele>283.29568</ele>
        <time>2013-06-30T08:56:36Z</time>
      </trkpt>
      <trkpt lat="43.621699" lon="12.616709">
        <ele>282.01904000000002</ele>
        <time>2013-06-30T08:56:48Z</time>
      </trkpt>
      <trkpt lat="43.621699" lon="12.616850">
        <ele>281.91611</ele>
        <time>2013-06-30T08:56:49Z</time>
      </trkpt>
      <trkpt lat="43.621619" lon="12.617140">
        <ele>281.59399000000002</ele>
        <time>2013-06-30T08:56:52Z</time>
      </trkpt>
      <trkpt lat="43.621510" lon="12.617280">
        <ele>281.37598000000003</ele>
        <time>2013-06-30T08:56:54Z</time>
      </trkpt>
      <trkpt lat="43.621259" lon="12.617319">
        <ele>280.96262000000002</ele>
        <time>2013-06-30T08:56:58Z</time>
      </trkpt>
      <trkpt lat="43.621029" lon="12.617169">
        <ele>280.66604999999998</ele>
        <time>2013-06-30T08:57:01Z</time>
      </trkpt>
      <trkpt lat="43.620349" lon="12.616469">
        <ele>279.37277</ele>
        <time>2013-06-30T08:57:12Z</time>
      </trkpt>
      <trkpt lat="43.620049" lon="12.616239">
        <ele>278.76431000000002</ele>
        <time>2013-06-30T08:57:17Z</time>
      </trkpt>
      <trkpt lat="43.619649" lon="12.616079">
        <ele>278.06848000000002</ele>
        <time>2013-06-30T08:57:23Z</time>
      </trkpt>
      <trkpt lat="43.618769" lon="12.615849">
        <ele>276.57199000000003</ele>
        <time>2013-06-30T08:57:35Z</time>
      </trkpt>
      <trkpt lat="43.618760" lon="12.615849">
        <ele>276.57199000000003</ele>
        <time>2013-06-30T08:57:35Z</time>
      </trkpt>
      <trkpt lat="43.618550" lon="12.615830">
        <ele>276.29989999999998</ele>
        <time>2013-06-30T08:57:37Z</time>
      </trkpt>
      <trkpt lat="43.618420" lon="12.615879">
        <ele>276.02361999999999</ele>
        <time>2013-06-30T08:57:39Z</time>
      </trkpt>
      <trkpt lat="43.618249" lon="12.616160">
        <ele>275.45853</ele>
        <time>2013-06-30T08:57:43Z</time>
      </trkpt>
      <trkpt lat="43.618209" lon="12.616609">
        <ele>274.88488999999998</ele>
        <time>2013-06-30T08:57:47Z</time>
      </trkpt>
      <trkpt lat="43.618219" lon="12.617059">
        <ele>274.31808000000001</ele>
        <time>2013-06-30T08:57:51Z</time>
      </trkpt>
      <trkpt lat="43.618420" lon="12.618270">
        <ele>272.66611</ele>
        <time>2013-06-30T08:58:03Z</time>
      </trkpt>
      <trkpt lat="43.618479" lon="12.618660">
        <ele>272.13724000000002</ele>
        <time>2013-06-30T08:58:07Z</time>
      </trkpt>
      <trkpt lat="43.618620" lon="12.619770">
        <ele>270.73412999999999</ele>
        <time>2013-06-30T08:58:18Z</time>
      </trkpt>
      <trkpt lat="43.618630" lon="12.620049">
        <ele>270.33231000000001</ele>
        <time>2013-06-30T08:58:21Z</time>
      </trkpt>
      <trkpt lat="43.618550" lon="12.620319">
        <ele>269.91570999999999</ele>
        <time>2013-06-30T08:58:24Z</time>
      </trkpt>
      <trkpt lat="43.618320" lon="12.620539">
        <ele>269.34627999999998</ele>
        <time>2013-06-30T08:58:28Z</time>
      </trkpt>
      <trkpt lat="43.617419" lon="12.620620">
        <ele>267.63808999999998</ele>
        <time>2013-06-30T08:58:40Z</time>
      </trkpt>
      <trkpt lat="43.616530" lon="12.620709">
        <ele>265.82384999999999</ele>
        <time>2013-06-30T08:58:52Z</time>
      </trkpt>
      <trkpt lat="43.615630" lon="12.620790">
        <ele>264.11626999999999</ele>
        <time>2013-06-30T08:59:04Z</time>
      </trkpt>
      <trkpt lat="43.614889" lon="12.620860">
        <ele>262.84426999999999</ele>
        <time>2013-06-30T08:59:13Z</time>
      </trkpt>
      <trkpt lat="43.614710" lon="12.621080">
        <ele>262.26272999999998</ele>
        <time>2013-06-30T08:59:17Z</time>
      </trkpt>
      <trkpt lat="43.614609" lon="12.621280">
        <ele>261.96149000000003</ele>
        <time>2013-06-30T08:59:19Z</time>
      </trkpt>
      <trkpt lat="43.614580" lon="12.621829">
        <ele>261.20663000000002</ele>
        <time>2013-06-30T08:59:24Z</time>
      </trkpt>
      <trkpt lat="43.614490" lon="12.622920">
        <ele>259.61444</ele>
        <time>2013-06-30T08:59:35Z</time>
      </trkpt>
      <trkpt lat="43.614220" lon="12.624110">
        <ele>258.02945</ele>
        <time>2013-06-30T08:59:47Z</time>
      </trkpt>
      <trkpt lat="43.613970" lon="12.625250">
        <ele>256.47653000000003</ele>
        <time>2013-06-30T08:59:59Z</time>
      </trkpt>
      <trkpt lat="43.613689" lon="12.625650">
        <ele>255.81873999999999</ele>
        <time>2013-06-30T09:00:04Z</time>
      </trkpt>
      <trkpt lat="43.613589" lon="12.625899">
        <ele>255.40262000000001</ele>
        <time>2013-06-30T09:00:07Z</time>
      </trkpt>
      <trkpt lat="43.612899" lon="12.625099">
        <ele>253.83266</ele>
        <time>2013-06-30T09:00:19Z</time>
      </trkpt>
      <trkpt lat="43.612580" lon="12.624719">
        <ele>253.25239999999999</ele>
        <time>2013-06-30T09:00:24Z</time>
      </trkpt>
      <trkpt lat="43.612339" lon="12.624340">
        <ele>252.68054000000001</ele>
        <time>2013-06-30T09:00:29Z</time>
      </trkpt>
      <trkpt lat="43.612220" lon="12.624010">
        <ele>252.21355</ele>
        <time>2013-06-30T09:00:33Z</time>
      </trkpt>
      <trkpt lat="43.612169" lon="12.623559">
        <ele>251.75806</ele>
        <time>2013-06-30T09:00:37Z</time>
      </trkpt>
      <trkpt lat="43.612179" lon="12.623220">
        <ele>251.33331000000001</ele>
        <time>2013-06-30T09:00:41Z</time>
      </trkpt>
      <trkpt lat="43.612269" lon="12.621989">
        <ele>250.01822999999999</ele>
        <time>2013-06-30T09:00:53Z</time>
      </trkpt>
      <trkpt lat="43.612299" lon="12.621610">
        <ele>249.70531</ele>
        <time>2013-06-30T09:00:56Z</time>
      </trkpt>
      <trkpt lat="43.612320" lon="12.620639">
        <ele>248.82449</ele>
        <time>2013-06-30T09:01:06Z</time>
      </trkpt>
      <trkpt lat="43.612160" lon="12.619829">
        <ele>248.28391999999999</ele>
        <time>2013-06-30T09:01:14Z</time>
      </trkpt>
      <trkpt lat="43.611839" lon="12.618669">
        <ele>247.59360000000001</ele>
        <time>2013-06-30T09:01:26Z</time>
      </trkpt>
      <trkpt lat="43.611730" lon="12.618270">
        <ele>247.34880000000001</ele>
        <time>2013-06-30T09:01:30Z</time>
      </trkpt>
      <trkpt lat="43.611200" lon="12.617269">
        <ele>246.49387999999999</ele>
        <time>2013-06-30T09:01:42Z</time>
      </trkpt>
      <trkpt lat="43.611159" lon="12.617199">
        <ele>246.43200999999999</ele>
        <time>2013-06-30T09:01:43Z</time>
      </trkpt>
      <trkpt lat="43.610919" lon="12.616829">
        <ele>246.20961</ele>
        <time>2013-06-30T09:01:47Z</time>
      </trkpt>
      <trkpt lat="43.610669" lon="12.616550">
        <ele>245.98017999999999</ele>
        <time>2013-06-30T09:01:52Z</time>
      </trkpt>
      <trkpt lat="43.610150" lon="12.616100">
        <ele>245.59169</ele>
        <time>2013-06-30T09:02:00Z</time>
      </trkpt>
      <trkpt lat="43.609809" lon="12.615640">
        <ele>245.2627</ele>
        <time>2013-06-30T09:02:06Z</time>
      </trkpt>
      <trkpt lat="43.609809" lon="12.615449">
        <ele>245.1636</ele>
        <time>2013-06-30T09:02:08Z</time>
      </trkpt>
      <trkpt lat="43.609890" lon="12.615150">
        <ele>245.02146999999999</ele>
        <time>2013-06-30T09:02:11Z</time>
      </trkpt>
      <trkpt lat="43.610339" lon="12.614079">
        <ele>244.75618</ele>
        <time>2013-06-30T09:02:23Z</time>
      </trkpt>
      <trkpt lat="43.610529" lon="12.613630">
        <ele>244.6507</ele>
        <time>2013-06-30T09:02:28Z</time>
      </trkpt>
      <trkpt lat="43.610599" lon="12.613199">
        <ele>244.63423</ele>
        <time>2013-06-30T09:02:33Z</time>
      </trkpt>
      <trkpt lat="43.610450" lon="12.611979">
        <ele>244.81040999999999</ele>
        <time>2013-06-30T09:02:45Z</time>
      </trkpt>
      <trkpt lat="43.610359" lon="12.611210">
        <ele>244.92456000000001</ele>
        <time>2013-06-30T09:02:52Z</time>
      </trkpt>
      <trkpt lat="43.610169" lon="12.610339">
        <ele>245.26192</ele>
        <time>2013-06-30T09:03:01Z</time>
      </trkpt>
      <trkpt lat="43.609800" lon="12.609210">
        <ele>245.27963</ele>
        <time>2013-06-30T09:03:13Z</time>
      </trkpt>
      <trkpt lat="43.609419" lon="12.608080">
        <ele>245.37996000000001</ele>
        <time>2013-06-30T09:03:25Z</time>
      </trkpt>
      <trkpt lat="43.609049" lon="12.606949">
        <ele>245.67080999999999</ele>
        <time>2013-06-30T09:03:37Z</time>
      </trkpt>
      <trkpt lat="43.608680" lon="12.605830">
        <ele>246.18082999999999</ele>
        <time>2013-06-30T09:03:49Z</time>
      </trkpt>
      <trkpt lat="43.608299" lon="12.604700">
        <ele>246.69417000000001</ele>
        <time>2013-06-30T09:04:01Z</time>
      </trkpt>
      <trkpt lat="43.607930" lon="12.603569">
        <ele>247.26696999999999</ele>
        <time>2013-06-30T09:04:13Z</time>
      </trkpt>
      <trkpt lat="43.607560" lon="12.602440">
        <ele>247.89961</ele>
        <time>2013-06-30T09:04:25Z</time>
      </trkpt>
      <trkpt lat="43.607179" lon="12.601309">
        <ele>248.65645000000001</ele>
        <time>2013-06-30T09:04:37Z</time>
      </trkpt>
      <trkpt lat="43.606930" lon="12.600549">
        <ele>249.22772000000001</ele>
        <time>2013-06-30T09:04:45Z</time>
      </trkpt>
      <trkpt lat="43.606499" lon="12.599460">
        <ele>250.14583999999999</ele>
        <time>2013-06-30T09:04:57Z</time>
      </trkpt>
      <trkpt lat="43.606059" lon="12.598379">
        <ele>250.98041000000001</ele>
        <time>2013-06-30T09:05:09Z</time>
      </trkpt>
      <trkpt lat="43.605630" lon="12.597290">
        <ele>251.87288000000001</ele>
        <time>2013-06-30T09:05:21Z</time>
      </trkpt>
      <trkpt lat="43.605200" lon="12.596200">
        <ele>252.83674999999999</ele>
        <time>2013-06-30T09:05:33Z</time>
      </trkpt>
      <trkpt lat="43.604770" lon="12.595109">
        <ele>253.87088</ele>
        <time>2013-06-30T09:05:45Z</time>
      </trkpt>
      <trkpt lat="43.604340" lon="12.594029">
        <ele>255.30803</ele>
        <time>2013-06-30T09:05:57Z</time>
      </trkpt>
      <trkpt lat="43.603899" lon="12.592939">
        <ele>256.93340999999998</ele>
        <time>2013-06-30T09:06:09Z</time>
      </trkpt>
      <trkpt lat="43.603790" lon="12.592660">
        <ele>257.30266999999998</ele>
        <time>2013-06-30T09:06:12Z</time>
      </trkpt>
      <trkpt lat="43.603349" lon="12.591580">
        <ele>258.55248999999998</ele>
        <time>2013-06-30T09:06:24Z</time>
      </trkpt>
      <trkpt lat="43.602909" lon="12.590500">
        <ele>259.79309000000001</ele>
        <time>2013-06-30T09:06:36Z</time>
      </trkpt>
      <trkpt lat="43.602459" lon="12.589419">
        <ele>260.92349000000002</ele>
        <time>2013-06-30T09:06:48Z</time>
      </trkpt>
      <trkpt lat="43.602069" lon="12.588469">
        <ele>262.05529999999999</ele>
        <time>2013-06-30T09:06:59Z</time>
      </trkpt>
      <trkpt lat="43.601969" lon="12.588160">
        <ele>262.32303000000002</ele>
        <time>2013-06-30T09:07:02Z</time>
      </trkpt>
      <trkpt lat="43.601980" lon="12.587630">
        <ele>262.80291999999997</ele>
        <time>2013-06-30T09:07:07Z</time>
      </trkpt>
      <trkpt lat="43.601910" lon="12.587129">
        <ele>263.33334000000002</ele>
        <time>2013-06-30T09:07:12Z</time>
      </trkpt>
      <trkpt lat="43.601660" lon="12.586490">
        <ele>264.13150000000002</ele>
        <time>2013-06-30T09:07:19Z</time>
      </trkpt>
      <trkpt lat="43.601469" lon="12.586169">
        <ele>264.57085999999998</ele>
        <time>2013-06-30T09:07:23Z</time>
      </trkpt>
      <trkpt lat="43.601409" lon="12.585909">
        <ele>264.88632000000001</ele>
        <time>2013-06-30T09:07:26Z</time>
      </trkpt>
      <trkpt lat="43.601460" lon="12.585679">
        <ele>265.09640999999999</ele>
        <time>2013-06-30T09:07:28Z</time>
      </trkpt>
      <trkpt lat="43.601690" lon="12.585150">
        <ele>265.74301000000003</ele>
        <time>2013-06-30T09:07:34Z</time>
      </trkpt>
      <trkpt lat="43.602170" lon="12.584100">
        <ele>267.25738999999999</ele>
        <time>2013-06-30T09:07:46Z</time>
      </trkpt>
      <trkpt lat="43.602649" lon="12.583050">
        <ele>268.64873999999998</ele>
        <time>2013-06-30T09:07:58Z</time>
      </trkpt>
      <trkpt lat="43.603100" lon="12.582069">
        <ele>269.70290999999997</ele>
        <time>2013-06-30T09:08:09Z</time>
      </trkpt>
      <trkpt lat="43.603660" lon="12.581100">
        <ele>270.63936999999999</ele>
        <time>2013-06-30T09:08:21Z</time>
      </trkpt>
      <trkpt lat="43.603899" lon="12.580689">
        <ele>271.05239999999998</ele>
        <time>2013-06-30T09:08:26Z</time>
      </trkpt>
      <trkpt lat="43.604319" lon="12.580120">
        <ele>271.75252999999998</ele>
        <time>2013-06-30T09:08:34Z</time>
      </trkpt>
      <trkpt lat="43.604549" lon="12.579879">
        <ele>272.09206999999998</ele>
        <time>2013-06-30T09:08:38Z</time>
      </trkpt>
      <trkpt lat="43.604900" lon="12.579630">
        <ele>272.53302000000002</ele>
        <time>2013-06-30T09:08:43Z</time>
      </trkpt>
      <trkpt lat="43.605379" lon="12.579519">
        <ele>273.21929999999998</ele>
        <time>2013-06-30T09:08:50Z</time>
      </trkpt>
      <trkpt lat="43.606269" lon="12.579419">
        <ele>274.28899999999999</ele>
        <time>2013-06-30T09:09:02Z</time>
      </trkpt>
      <trkpt lat="43.607170" lon="12.579309">
        <ele>275.16913</ele>
        <time>2013-06-30T09:09:14Z</time>
      </trkpt>
      <trkpt lat="43.608069" lon="12.579210">
        <ele>276.03969999999998</ele>
        <time>2013-06-30T09:09:26Z</time>
      </trkpt>
      <trkpt lat="43.608499" lon="12.579159">
        <ele>276.48635999999999</ele>
        <time>2013-06-30T09:09:32Z</time>
      </trkpt>
      <trkpt lat="43.608740" lon="12.579059">
        <ele>276.70339999999999</ele>
        <time>2013-06-30T09:09:35Z</time>
      </trkpt>
      <trkpt lat="43.609089" lon="12.578819">
        <ele>277.08416999999997</ele>
        <time>2013-06-30T09:09:40Z</time>
      </trkpt>
      <trkpt lat="43.609319" lon="12.578580">
        <ele>277.42358000000002</ele>
        <time>2013-06-30T09:09:44Z</time>
      </trkpt>
      <trkpt lat="43.609479" lon="12.578310">
        <ele>277.68729000000002</ele>
        <time>2013-06-30T09:09:47Z</time>
      </trkpt>
      <trkpt lat="43.609639" lon="12.577929">
        <ele>278.14157</ele>
        <time>2013-06-30T09:09:52Z</time>
      </trkpt>
      <trkpt lat="43.610009" lon="12.576800">
        <ele>279.51709</ele>
        <time>2013-06-30T09:10:04Z</time>
      </trkpt>
      <trkpt lat="43.610060" lon="12.576659">
        <ele>279.62853999999999</ele>
        <time>2013-06-30T09:10:05Z</time>
      </trkpt>
      <trkpt lat="43.610199" lon="12.576169">
        <ele>280.11313000000001</ele>
        <time>2013-06-30T09:10:10Z</time>
      </trkpt>
      <trkpt lat="43.610260" lon="12.575750">
        <ele>280.44821000000002</ele>
        <time>2013-06-30T09:10:14Z</time>
      </trkpt>
      <trkpt lat="43.610250" lon="12.575139">
        <ele>281.05016999999998</ele>
        <time>2013-06-30T09:10:20Z</time>
      </trkpt>
      <trkpt lat="43.610160" lon="12.573899">
        <ele>282.19510000000002</ele>
        <time>2013-06-30T09:10:32Z</time>
      </trkpt>
      <trkpt lat="43.610079" lon="12.572670">
        <ele>283.26083</ele>
        <time>2013-06-30T09:10:44Z</time>
      </trkpt>
      <trkpt lat="43.609990" lon="12.571439">
        <ele>284.31887999999998</ele>
        <time>2013-06-30T09:10:56Z</time>
      </trkpt>
      <trkpt lat="43.609899" lon="12.570200">
        <ele>285.47338999999999</ele>
        <time>2013-06-30T09:11:08Z</time>
      </trkpt>
      <trkpt lat="43.609860" lon="12.569639">
        <ele>286.15280000000001</ele>
        <time>2013-06-30T09:11:14Z</time>
      </trkpt>
      <trkpt lat="43.609660" lon="12.569130">
        <ele>286.73034999999999</ele>
        <time>2013-06-30T09:11:19Z</time>
      </trkpt>
      <trkpt lat="43.609100" lon="12.568149">
        <ele>288.00317000000001</ele>
        <time>2013-06-30T09:11:31Z</time>
      </trkpt>
      <trkpt lat="43.608550" lon="12.567180">
        <ele>289.30734000000001</ele>
        <time>2013-06-30T09:11:43Z</time>
      </trkpt>
      <trkpt lat="43.608039" lon="12.566279">
        <ele>290.42944</ele>
        <time>2013-06-30T09:11:54Z</time>
      </trkpt>
      <trkpt lat="43.607679" lon="12.565139">
        <ele>291.44769000000002</ele>
        <time>2013-06-30T09:12:06Z</time>
      </trkpt>
      <trkpt lat="43.607330" lon="12.564000">
        <ele>292.40613000000002</ele>
        <time>2013-06-30T09:12:18Z</time>
      </trkpt>
      <trkpt lat="43.606970" lon="12.562869">
        <ele>293.30178999999998</ele>
        <time>2013-06-30T09:12:30Z</time>
      </trkpt>
      <trkpt lat="43.606610" lon="12.561729">
        <ele>294.02472</ele>
        <time>2013-06-30T09:12:42Z</time>
      </trkpt>
      <trkpt lat="43.606250" lon="12.560590">
        <ele>294.87578999999999</ele>
        <time>2013-06-30T09:12:54Z</time>
      </trkpt>
      <trkpt lat="43.606169" lon="12.560320">
        <ele>295.00177000000002</ele>
        <time>2013-06-30T09:12:57Z</time>
      </trkpt>
      <trkpt lat="43.605639" lon="12.559310">
        <ele>295.90417000000002</ele>
        <time>2013-06-30T09:13:09Z</time>
      </trkpt>
      <trkpt lat="43.605119" lon="12.558309">
        <ele>297.48788000000002</ele>
        <time>2013-06-30T09:13:21Z</time>
      </trkpt>
      <trkpt lat="43.604840" lon="12.557770">
        <ele>298.26510999999999</ele>
        <time>2013-06-30T09:13:27Z</time>
      </trkpt>
      <trkpt lat="43.604570" lon="12.557519">
        <ele>298.86223999999999</ele>
        <time>2013-06-30T09:13:32Z</time>
      </trkpt>
      <trkpt lat="43.603739" lon="12.557050">
        <ele>300.27017000000001</ele>
        <time>2013-06-30T09:13:44Z</time>
      </trkpt>
      <trkpt lat="43.603520" lon="12.556929">
        <ele>300.59994999999998</ele>
        <time>2013-06-30T09:13:47Z</time>
      </trkpt>
      <trkpt lat="43.603060" lon="12.556480">
        <ele>301.68826000000001</ele>
        <time>2013-06-30T09:13:55Z</time>
      </trkpt>
      <trkpt lat="43.602359" lon="12.555709">
        <ele>303.05590999999998</ele>
        <time>2013-06-30T09:14:07Z</time>
      </trkpt>
      <trkpt lat="43.601650" lon="12.554940">
        <ele>304.48482999999999</ele>
        <time>2013-06-30T09:14:19Z</time>
      </trkpt>
      <trkpt lat="43.601490" lon="12.554759">
        <ele>304.69204999999999</ele>
        <time>2013-06-30T09:14:21Z</time>
      </trkpt>
      <trkpt lat="43.600740" lon="12.554069">
        <ele>305.90411</ele>
        <time>2013-06-30T09:14:33Z</time>
      </trkpt>
      <trkpt lat="43.600199" lon="12.553570">
        <ele>306.62018</ele>
        <time>2013-06-30T09:14:42Z</time>
      </trkpt>
      <trkpt lat="43.599820" lon="12.553059">
        <ele>307.21249</ele>
        <time>2013-06-30T09:14:49Z</time>
      </trkpt>
      <trkpt lat="43.599350" lon="12.551999">
        <ele>308.38312000000002</ele>
        <time>2013-06-30T09:15:01Z</time>
      </trkpt>
      <trkpt lat="43.598960" lon="12.551140">
        <ele>309.37164000000001</ele>
        <time>2013-06-30T09:15:11Z</time>
      </trkpt>
      <trkpt lat="43.598709" lon="12.550719">
        <ele>309.82042999999999</ele>
        <time>2013-06-30T09:15:16Z</time>
      </trkpt>
      <trkpt lat="43.598509" lon="12.550550">
        <ele>310.10381999999998</ele>
        <time>2013-06-30T09:15:19Z</time>
      </trkpt>
      <trkpt lat="43.597980" lon="12.550329">
        <ele>310.93777</ele>
        <time>2013-06-30T09:15:27Z</time>
      </trkpt>
      <trkpt lat="43.597559" lon="12.550280">
        <ele>311.49347</ele>
        <time>2013-06-30T09:15:32Z</time>
      </trkpt>
      <trkpt lat="43.596749" lon="12.550299">
        <ele>312.73885999999999</ele>
        <time>2013-06-30T09:15:43Z</time>
      </trkpt>
      <trkpt lat="43.596549" lon="12.550160">
        <ele>313.05054000000001</ele>
        <time>2013-06-30T09:15:46Z</time>
      </trkpt>
      <trkpt lat="43.595949" lon="12.549490">
        <ele>313.78561000000002</ele>
        <time>2013-06-30T09:15:57Z</time>
      </trkpt>
      <trkpt lat="43.595710" lon="12.549089">
        <ele>314.01297</ele>
        <time>2013-06-30T09:16:02Z</time>
      </trkpt>
      <trkpt lat="43.595269" lon="12.548220">
        <ele>314.65140000000002</ele>
        <time>2013-06-30T09:16:12Z</time>
      </trkpt>
      <trkpt lat="43.594890" lon="12.547100">
        <ele>315.70868000000002</ele>
        <time>2013-06-30T09:16:24Z</time>
      </trkpt>
      <trkpt lat="43.594700" lon="12.546529">
        <ele>316.30736999999999</ele>
        <time>2013-06-30T09:16:30Z</time>
      </trkpt>
      <trkpt lat="43.594600" lon="12.546319">
        <ele>316.49265000000003</ele>
        <time>2013-06-30T09:16:32Z</time>
      </trkpt>
      <trkpt lat="43.594010" lon="12.545390">
        <ele>317.78841999999997</ele>
        <time>2013-06-30T09:16:44Z</time>
      </trkpt>
      <trkpt lat="43.593410" lon="12.544449">
        <ele>318.97958</ele>
        <time>2013-06-30T09:16:56Z</time>
      </trkpt>
      <trkpt lat="43.592820" lon="12.543520">
        <ele>320.10403000000002</ele>
        <time>2013-06-30T09:17:08Z</time>
      </trkpt>
      <trkpt lat="43.592760" lon="12.543420">
        <ele>320.33022999999997</ele>
        <time>2013-06-30T09:17:10Z</time>
      </trkpt>
      <trkpt lat="43.592590" lon="12.543130">
        <ele>320.67374000000001</ele>
        <time>2013-06-30T09:17:13Z</time>
      </trkpt>
      <trkpt lat="43.592419" lon="12.542649">
        <ele>321.24239999999998</ele>
        <time>2013-06-30T09:17:18Z</time>
      </trkpt>
      <trkpt lat="43.592300" lon="12.542050">
        <ele>321.71123999999998</ele>
        <time>2013-06-30T09:17:24Z</time>
      </trkpt>
      <trkpt lat="43.592300" lon="12.541620">
        <ele>322.03609999999998</ele>
        <time>2013-06-30T09:17:29Z</time>
      </trkpt>
      <trkpt lat="43.592360" lon="12.540379">
        <ele>322.99423000000002</ele>
        <time>2013-06-30T09:17:41Z</time>
      </trkpt>
      <trkpt lat="43.592419" lon="12.539150">
        <ele>324.29088999999999</ele>
        <time>2013-06-30T09:17:53Z</time>
      </trkpt>
      <trkpt lat="43.592460" lon="12.538240">
        <ele>325.69461000000001</ele>
        <time>2013-06-30T09:18:01Z</time>
      </trkpt>
      <trkpt lat="43.592400" lon="12.536999">
        <ele>327.81072999999998</ele>
        <time>2013-06-30T09:18:13Z</time>
      </trkpt>
      <trkpt lat="43.592349" lon="12.536019">
        <ele>329.32220000000001</ele>
        <time>2013-06-30T09:18:23Z</time>
      </trkpt>
      <trkpt lat="43.592200" lon="12.535429">
        <ele>330.25927999999999</ele>
        <time>2013-06-30T09:18:29Z</time>
      </trkpt>
      <trkpt lat="43.591919" lon="12.534950">
        <ele>331.16901000000001</ele>
        <time>2013-06-30T09:18:35Z</time>
      </trkpt>
      <trkpt lat="43.591659" lon="12.534669">
        <ele>331.71625</ele>
        <time>2013-06-30T09:18:39Z</time>
      </trkpt>
      <trkpt lat="43.591340" lon="12.534469">
        <ele>332.39733999999999</ele>
        <time>2013-06-30T09:18:44Z</time>
      </trkpt>
      <trkpt lat="43.590769" lon="12.534219">
        <ele>333.50711000000001</ele>
        <time>2013-06-30T09:18:52Z</time>
      </trkpt>
      <trkpt lat="43.590609" lon="12.534089">
        <ele>333.79784999999998</ele>
        <time>2013-06-30T09:18:54Z</time>
      </trkpt>
      <trkpt lat="43.590339" lon="12.533680">
        <ele>334.72246999999999</ele>
        <time>2013-06-30T09:19:00Z</time>
      </trkpt>
      <trkpt lat="43.589940" lon="12.532630">
        <ele>336.62204000000003</ele>
        <time>2013-06-30T09:19:11Z</time>
      </trkpt>
      <trkpt lat="43.589679" lon="12.532270">
        <ele>337.43288999999999</ele>
        <time>2013-06-30T09:19:16Z</time>
      </trkpt>
      <trkpt lat="43.589370" lon="12.532040">
        <ele>338.13396999999998</ele>
        <time>2013-06-30T09:19:21Z</time>
      </trkpt>
      <trkpt lat="43.588690" lon="12.531800">
        <ele>339.45119999999997</ele>
        <time>2013-06-30T09:19:30Z</time>
      </trkpt>
      <trkpt lat="43.588320" lon="12.531589">
        <ele>340.59543000000002</ele>
        <time>2013-06-30T09:19:36Z</time>
      </trkpt>
      <trkpt lat="43.588179" lon="12.531419">
        <ele>340.96627999999998</ele>
        <time>2013-06-30T09:19:38Z</time>
      </trkpt>
      <trkpt lat="43.587849" lon="12.530850">
        <ele>342.21539000000001</ele>
        <time>2013-06-30T09:19:45Z</time>
      </trkpt>
      <trkpt lat="43.587549" lon="12.530490">
        <ele>343.07184000000001</ele>
        <time>2013-06-30T09:19:50Z</time>
      </trkpt>
      <trkpt lat="43.586750" lon="12.529919">
        <ele>344.78296</ele>
        <time>2013-06-30T09:20:02Z</time>
      </trkpt>
      <trkpt lat="43.586499" lon="12.529740">
        <ele>345.34949</ele>
        <time>2013-06-30T09:20:06Z</time>
      </trkpt>
      <trkpt lat="43.586009" lon="12.529210">
        <ele>347.04552999999999</ele>
        <time>2013-06-30T09:20:15Z</time>
      </trkpt>
      <trkpt lat="43.585790" lon="12.528659">
        <ele>348.23876999999999</ele>
        <time>2013-06-30T09:20:21Z</time>
      </trkpt>
      <trkpt lat="43.585709" lon="12.528209">
        <ele>349.06583000000001</ele>
        <time>2013-06-30T09:20:25Z</time>
      </trkpt>
      <trkpt lat="43.585589" lon="12.526980">
        <ele>352.00528000000003</ele>
        <time>2013-06-30T09:20:37Z</time>
      </trkpt>
      <trkpt lat="43.585500" lon="12.526039">
        <ele>354.02080999999998</ele>
        <time>2013-06-30T09:20:46Z</time>
      </trkpt>
      <trkpt lat="43.585410" lon="12.525519">
        <ele>355.32733000000002</ele>
        <time>2013-06-30T09:20:51Z</time>
      </trkpt>
      <trkpt lat="43.585219" lon="12.525059">
        <ele>356.59643999999997</ele>
        <time>2013-06-30T09:20:57Z</time>
      </trkpt>
      <trkpt lat="43.584580" lon="12.524190">
        <ele>359.92371000000003</ele>
        <time>2013-06-30T09:21:09Z</time>
      </trkpt>
      <trkpt lat="43.584499" lon="12.524069">
        <ele>360.17797999999999</ele>
        <time>2013-06-30T09:21:10Z</time>
      </trkpt>
      <trkpt lat="43.584409" lon="12.523830">
        <ele>360.93191999999999</ele>
        <time>2013-06-30T09:21:13Z</time>
      </trkpt>
      <trkpt lat="43.584109" lon="12.522659">
        <ele>364.37756000000002</ele>
        <time>2013-06-30T09:21:25Z</time>
      </trkpt>
      <trkpt lat="43.583979" lon="12.522120">
        <ele>365.90764999999999</ele>
        <time>2013-06-30T09:21:30Z</time>
      </trkpt>
      <trkpt lat="43.583960" lon="12.521700">
        <ele>366.94830000000002</ele>
        <time>2013-06-30T09:21:34Z</time>
      </trkpt>
      <trkpt lat="43.584039" lon="12.520459">
        <ele>370.14075000000003</ele>
        <time>2013-06-30T09:21:46Z</time>
      </trkpt>
      <trkpt lat="43.584060" lon="12.520169">
        <ele>371.00912</ele>
        <time>2013-06-30T09:21:49Z</time>
      </trkpt>
      <trkpt lat="43.584179" lon="12.519709">
        <ele>372.57407000000001</ele>
        <time>2013-06-30T09:21:54Z</time>
      </trkpt>
      <trkpt lat="43.584580" lon="12.518600">
        <ele>376.46902</ele>
        <time>2013-06-30T09:22:06Z</time>
      </trkpt>
      <trkpt lat="43.584859" lon="12.517809">
        <ele>379.11617999999999</ele>
        <time>2013-06-30T09:22:14Z</time>
      </trkpt>
      <trkpt lat="43.584980" lon="12.517390">
        <ele>380.92651000000001</ele>
        <time>2013-06-30T09:22:19Z</time>
      </trkpt>
      <trkpt lat="43.585010" lon="12.517109">
        <ele>381.67867999999999</ele>
        <time>2013-06-30T09:22:21Z</time>
      </trkpt>
      <trkpt lat="43.585019" lon="12.516419">
        <ele>384.41626000000002</ele>
        <time>2013-06-30T09:22:28Z</time>
      </trkpt>
      <trkpt lat="43.584380" lon="12.516370">
        <ele>388.07431000000003</ele>
        <time>2013-06-30T09:22:37Z</time>
      </trkpt>
      <trkpt lat="43.583649" lon="12.517100">
        <ele>392.99779999999998</ele>
        <time>2013-06-30T09:22:49Z</time>
      </trkpt>
      <trkpt lat="43.583530" lon="12.517219">
        <ele>393.82510000000002</ele>
        <time>2013-06-30T09:22:51Z</time>
      </trkpt>
      <trkpt lat="43.583279" lon="12.517360">
        <ele>395.06671</ele>
        <time>2013-06-30T09:22:54Z</time>
      </trkpt>
      <trkpt lat="43.583240" lon="12.517439">
        <ele>395.47735999999998</ele>
        <time>2013-06-30T09:22:55Z</time>
      </trkpt>
      <trkpt lat="43.583279" lon="12.517910">
        <ele>397.46987999999999</ele>
        <time>2013-06-30T09:23:00Z</time>
      </trkpt>
      <trkpt lat="43.583249" lon="12.518039">
        <ele>397.85770000000002</ele>
        <time>2013-06-30T09:23:01Z</time>
      </trkpt>
      <trkpt lat="43.583129" lon="12.518299">
        <ele>399.0145</ele>
        <time>2013-06-30T09:23:04Z</time>
      </trkpt>
      <trkpt lat="43.583049" lon="12.518719">
        <ele>400.56423999999998</ele>
        <time>2013-06-30T09:23:08Z</time>
      </trkpt>
      <trkpt lat="43.582829" lon="12.519360">
        <ele>402.96426000000002</ele>
        <time>2013-06-30T09:23:15Z</time>
      </trkpt>
      <trkpt lat="43.582640" lon="12.520080">
        <ele>405.38574</ele>
        <time>2013-06-30T09:23:23Z</time>
      </trkpt>
      <trkpt lat="43.582410" lon="12.520559">
        <ele>407.11774000000003</ele>
        <time>2013-06-30T09:23:28Z</time>
      </trkpt>
      <trkpt lat="43.582260" lon="12.521110">
        <ele>409.04302999999999</ele>
        <time>2013-06-30T09:23:34Z</time>
      </trkpt>
      <trkpt lat="43.582109" lon="12.521409">
        <ele>410.00301999999999</ele>
        <time>2013-06-30T09:23:37Z</time>
      </trkpt>
      <trkpt lat="43.582129" lon="12.521609">
        <ele>410.62603999999999</ele>
        <time>2013-06-30T09:23:39Z</time>
      </trkpt>
      <trkpt lat="43.582480" lon="12.522139">
        <ele>412.89807000000002</ele>
        <time>2013-06-30T09:23:46Z</time>
      </trkpt>
      <trkpt lat="43.582399" lon="12.522310">
        <ele>413.51886000000002</ele>
        <time>2013-06-30T09:23:48Z</time>
      </trkpt>
      <trkpt lat="43.582260" lon="12.523230">
        <ele>416.07745</ele>
        <time>2013-06-30T09:23:57Z</time>
      </trkpt>
      <trkpt lat="43.582299" lon="12.523630">
        <ele>417.25878999999998</ele>
        <time>2013-06-30T09:24:01Z</time>
      </trkpt>
      <trkpt lat="43.582469" lon="12.523820">
        <ele>418.12844999999999</ele>
        <time>2013-06-30T09:24:04Z</time>
      </trkpt>
      <trkpt lat="43.583019" lon="12.523939">
        <ele>420.28856999999999</ele>
        <time>2013-06-30T09:24:12Z</time>
      </trkpt>
      <trkpt lat="43.583170" lon="12.524099">
        <ele>420.81738000000001</ele>
        <time>2013-06-30T09:24:14Z</time>
      </trkpt>
      <trkpt lat="43.583359" lon="12.524550">
        <ele>422.19040000000001</ele>
        <time>2013-06-30T09:24:19Z</time>
      </trkpt>
      <trkpt lat="43.583410" lon="12.524789">
        <ele>423.04088999999999</ele>
        <time>2013-06-30T09:24:22Z</time>
      </trkpt>
      <trkpt lat="43.583449" lon="12.525249">
        <ele>424.16647</ele>
        <time>2013-06-30T09:24:26Z</time>
      </trkpt>
      <trkpt lat="43.583389" lon="12.525440">
        <ele>424.72188999999997</ele>
        <time>2013-06-30T09:24:28Z</time>
      </trkpt>
      <trkpt lat="43.583300" lon="12.525519">
        <ele>425.27264000000002</ele>
        <time>2013-06-30T09:24:30Z</time>
      </trkpt>
      <trkpt lat="43.582429" lon="12.525809">
        <ele>428.90944999999999</ele>
        <time>2013-06-30T09:24:42Z</time>
      </trkpt>
      <trkpt lat="43.582339" lon="12.525839">
        <ele>429.23293999999999</ele>
        <time>2013-06-30T09:24:43Z</time>
      </trkpt>
      <trkpt lat="43.582190" lon="12.525809">
        <ele>429.87871999999999</ele>
        <time>2013-06-30T09:24:45Z</time>
      </trkpt>
      <trkpt lat="43.581900" lon="12.525530">
        <ele>431.46588000000003</ele>
        <time>2013-06-30T09:24:50Z</time>
      </trkpt>
      <trkpt lat="43.581769" lon="12.525530">
        <ele>431.77422999999999</ele>
        <time>2013-06-30T09:24:51Z</time>
      </trkpt>
      <trkpt lat="43.580959" lon="12.526049">
        <ele>434.99050999999997</ele>
        <time>2013-06-30T09:25:03Z</time>
      </trkpt>
      <trkpt lat="43.580359" lon="12.526429">
        <ele>437.79653999999999</ele>
        <time>2013-06-30T09:25:12Z</time>
      </trkpt>
      <trkpt lat="43.579709" lon="12.526740">
        <ele>440.24115</ele>
        <time>2013-06-30T09:25:21Z</time>
      </trkpt>
      <trkpt lat="43.579439" lon="12.526820">
        <ele>441.16583000000003</ele>
        <time>2013-06-30T09:25:25Z</time>
      </trkpt>
      <trkpt lat="43.579079" lon="12.526850">
        <ele>442.08801</ele>
        <time>2013-06-30T09:25:30Z</time>
      </trkpt>
      <trkpt lat="43.578840" lon="12.526970">
        <ele>442.65588000000002</ele>
        <time>2013-06-30T09:25:33Z</time>
      </trkpt>
      <trkpt lat="43.578399" lon="12.527589">
        <ele>444.52602999999999</ele>
        <time>2013-06-30T09:25:42Z</time>
      </trkpt>
      <trkpt lat="43.578059" lon="12.527809">
        <ele>445.83649000000003</ele>
        <time>2013-06-30T09:25:47Z</time>
      </trkpt>
      <trkpt lat="43.577679" lon="12.528160">
        <ele>447.40877999999998</ele>
        <time>2013-06-30T09:25:53Z</time>
      </trkpt>
      <trkpt lat="43.577539" lon="12.528469">
        <ele>448.20501999999999</ele>
        <time>2013-06-30T09:25:56Z</time>
      </trkpt>
      <trkpt lat="43.577490" lon="12.528989">
        <ele>449.84557999999998</ele>
        <time>2013-06-30T09:26:01Z</time>
      </trkpt>
      <trkpt lat="43.577439" lon="12.529040">
        <ele>450.16208</ele>
        <time>2013-06-30T09:26:02Z</time>
      </trkpt>
      <trkpt lat="43.577370" lon="12.528950">
        <ele>450.47021000000001</ele>
        <time>2013-06-30T09:26:03Z</time>
      </trkpt>
      <trkpt lat="43.577309" lon="12.528529">
        <ele>451.62542999999999</ele>
        <time>2013-06-30T09:26:07Z</time>
      </trkpt>
      <trkpt lat="43.577190" lon="12.528469">
        <ele>452.18146000000002</ele>
        <time>2013-06-30T09:26:09Z</time>
      </trkpt>
      <trkpt lat="43.577160" lon="12.528550">
        <ele>452.46161000000001</ele>
        <time>2013-06-30T09:26:10Z</time>
      </trkpt>
      <trkpt lat="43.577260" lon="12.529429">
        <ele>455.11725000000001</ele>
        <time>2013-06-30T09:26:19Z</time>
      </trkpt>
      <trkpt lat="43.577370" lon="12.529900">
        <ele>456.50979999999998</ele>
        <time>2013-06-30T09:26:24Z</time>
      </trkpt>
      <trkpt lat="43.577469" lon="12.530149">
        <ele>456.92421999999999</ele>
        <time>2013-06-30T09:26:26Z</time>
      </trkpt>
      <trkpt lat="43.577750" lon="12.530309">
        <ele>457.81601000000001</ele>
        <time>2013-06-30T09:26:30Z</time>
      </trkpt>
      <trkpt lat="43.577809" lon="12.530399">
        <ele>458.05261000000002</ele>
        <time>2013-06-30T09:26:31Z</time>
      </trkpt>
      <trkpt lat="43.577799" lon="12.530990">
        <ele>459.57526000000001</ele>
        <time>2013-06-30T09:26:37Z</time>
      </trkpt>
      <trkpt lat="43.577839" lon="12.531549">
        <ele>461.27334999999999</ele>
        <time>2013-06-30T09:26:43Z</time>
      </trkpt>
      <trkpt lat="43.577950" lon="12.531879">
        <ele>462.17275999999998</ele>
        <time>2013-06-30T09:26:46Z</time>
      </trkpt>
      <trkpt lat="43.578169" lon="12.532339">
        <ele>463.74056999999999</ele>
        <time>2013-06-30T09:26:51Z</time>
      </trkpt>
      <trkpt lat="43.578139" lon="12.532599">
        <ele>464.76767000000001</ele>
        <time>2013-06-30T09:26:54Z</time>
      </trkpt>
      <trkpt lat="43.577799" lon="12.533749">
        <ele>468.36487</ele>
        <time>2013-06-30T09:27:06Z</time>
      </trkpt>
      <trkpt lat="43.577750" lon="12.533919">
        <ele>468.86342999999999</ele>
        <time>2013-06-30T09:27:08Z</time>
      </trkpt>
      <trkpt lat="43.577939" lon="12.534390">
        <ele>470.04883000000001</ele>
        <time>2013-06-30T09:27:13Z</time>
      </trkpt>
      <trkpt lat="43.578059" lon="12.534839">
        <ele>471.21249</ele>
        <time>2013-06-30T09:27:18Z</time>
      </trkpt>
      <trkpt lat="43.578069" lon="12.535459">
        <ele>472.75470000000001</ele>
        <time>2013-06-30T09:27:24Z</time>
      </trkpt>
      <trkpt lat="43.578250" lon="12.535689">
        <ele>473.53136999999998</ele>
        <time>2013-06-30T09:27:27Z</time>
      </trkpt>
      <trkpt lat="43.578259" lon="12.535759">
        <ele>473.78629000000001</ele>
        <time>2013-06-30T09:27:28Z</time>
      </trkpt>
      <trkpt lat="43.578259" lon="12.535989">
        <ele>474.28341999999998</ele>
        <time>2013-06-30T09:27:30Z</time>
      </trkpt>
      <trkpt lat="43.578099" lon="12.536679">
        <ele>476.29827999999998</ele>
        <time>2013-06-30T09:27:37Z</time>
      </trkpt>
      <trkpt lat="43.578129" lon="12.536999">
        <ele>477.26272999999998</ele>
        <time>2013-06-30T09:27:40Z</time>
      </trkpt>
      <trkpt lat="43.578110" lon="12.537280">
        <ele>478.16329999999999</ele>
        <time>2013-06-30T09:27:43Z</time>
      </trkpt>
      <trkpt lat="43.577799" lon="12.538440">
        <ele>481.24130000000002</ele>
        <time>2013-06-30T09:27:55Z</time>
      </trkpt>
      <trkpt lat="43.577790" lon="12.538479">
        <ele>481.24130000000002</ele>
        <time>2013-06-30T09:27:55Z</time>
      </trkpt>
      <trkpt lat="43.577699" lon="12.538999">
        <ele>482.45553999999998</ele>
        <time>2013-06-30T09:28:00Z</time>
      </trkpt>
      <trkpt lat="43.577609" lon="12.539050">
        <ele>482.95093000000003</ele>
        <time>2013-06-30T09:28:02Z</time>
      </trkpt>
      <trkpt lat="43.577249" lon="12.538999">
        <ele>483.89389</ele>
        <time>2013-06-30T09:28:06Z</time>
      </trkpt>
      <trkpt lat="43.577109" lon="12.539090">
        <ele>484.35181</ele>
        <time>2013-06-30T09:28:08Z</time>
      </trkpt>
      <trkpt lat="43.576870" lon="12.539620">
        <ele>485.96622000000002</ele>
        <time>2013-06-30T09:28:15Z</time>
      </trkpt>
      <trkpt lat="43.576670" lon="12.540330">
        <ele>488.05770999999999</ele>
        <time>2013-06-30T09:28:22Z</time>
      </trkpt>
      <trkpt lat="43.576589" lon="12.540489">
        <ele>488.74860000000001</ele>
        <time>2013-06-30T09:28:24Z</time>
      </trkpt>
      <trkpt lat="43.576090" lon="12.541039">
        <ele>491.13492000000002</ele>
        <time>2013-06-30T09:28:32Z</time>
      </trkpt>
      <trkpt lat="43.575630" lon="12.541659">
        <ele>494.16406000000001</ele>
        <time>2013-06-30T09:28:41Z</time>
      </trkpt>
      <trkpt lat="43.574830" lon="12.542219">
        <ele>497.67183999999997</ele>
        <time>2013-06-30T09:28:53Z</time>
      </trkpt>
      <trkpt lat="43.574719" lon="12.542300">
        <ele>497.94317999999998</ele>
        <time>2013-06-30T09:28:54Z</time>
      </trkpt>
      <trkpt lat="43.573829" lon="12.542430">
        <ele>501.18481000000003</ele>
        <time>2013-06-30T09:29:06Z</time>
      </trkpt>
      <trkpt lat="43.573509" lon="12.542479">
        <ele>502.53158999999999</ele>
        <time>2013-06-30T09:29:11Z</time>
      </trkpt>
      <trkpt lat="43.573209" lon="12.542349">
        <ele>503.73361</ele>
        <time>2013-06-30T09:29:15Z</time>
      </trkpt>
      <trkpt lat="43.572760" lon="12.542430">
        <ele>505.57479999999998</ele>
        <time>2013-06-30T09:29:21Z</time>
      </trkpt>
      <trkpt lat="43.572400" lon="12.542219">
        <ele>507.04138</ele>
        <time>2013-06-30T09:29:26Z</time>
      </trkpt>
      <trkpt lat="43.571820" lon="12.542340">
        <ele>508.95107999999999</ele>
        <time>2013-06-30T09:29:34Z</time>
      </trkpt>
      <trkpt lat="43.571729" lon="12.542270">
        <ele>509.17138999999997</ele>
        <time>2013-06-30T09:29:35Z</time>
      </trkpt>
      <trkpt lat="43.571669" lon="12.542150">
        <ele>509.62659000000002</ele>
        <time>2013-06-30T09:29:37Z</time>
      </trkpt>
      <trkpt lat="43.571620" lon="12.541910">
        <ele>510.10055999999997</ele>
        <time>2013-06-30T09:29:39Z</time>
      </trkpt>
      <trkpt lat="43.571560" lon="12.541799">
        <ele>510.57943999999998</ele>
        <time>2013-06-30T09:29:41Z</time>
      </trkpt>
      <trkpt lat="43.571439" lon="12.541789">
        <ele>510.81583000000001</ele>
        <time>2013-06-30T09:29:42Z</time>
      </trkpt>
      <trkpt lat="43.571369" lon="12.541859">
        <ele>511.05103000000003</ele>
        <time>2013-06-30T09:29:43Z</time>
      </trkpt>
      <trkpt lat="43.571330" lon="12.541980">
        <ele>511.5188</ele>
        <time>2013-06-30T09:29:45Z</time>
      </trkpt>
      <trkpt lat="43.571339" lon="12.542559">
        <ele>512.66528000000005</ele>
        <time>2013-06-30T09:29:50Z</time>
      </trkpt>
      <trkpt lat="43.571680" lon="12.543350">
        <ele>514.61719000000005</ele>
        <time>2013-06-30T09:29:59Z</time>
      </trkpt>
      <trkpt lat="43.571810" lon="12.543469">
        <ele>515.03931</ele>
        <time>2013-06-30T09:30:01Z</time>
      </trkpt>
      <trkpt lat="43.572129" lon="12.543620">
        <ele>516.13549999999998</ele>
        <time>2013-06-30T09:30:06Z</time>
      </trkpt>
      <trkpt lat="43.572340" lon="12.543839">
        <ele>516.76898000000006</ele>
        <time>2013-06-30T09:30:09Z</time>
      </trkpt>
      <trkpt lat="43.572500" lon="12.543929">
        <ele>517.34289999999999</ele>
        <time>2013-06-30T09:30:12Z</time>
      </trkpt>
      <trkpt lat="43.572709" lon="12.543959">
        <ele>517.69159000000002</ele>
        <time>2013-06-30T09:30:14Z</time>
      </trkpt>
      <trkpt lat="43.573039" lon="12.543859">
        <ele>518.44275000000005</ele>
        <time>2013-06-30T09:30:19Z</time>
      </trkpt>
      <trkpt lat="43.573169" lon="12.543869">
        <ele>518.71234000000004</ele>
        <time>2013-06-30T09:30:21Z</time>
      </trkpt>
      <trkpt lat="43.573379" lon="12.544389">
        <ele>519.50653</ele>
        <time>2013-06-30T09:30:26Z</time>
      </trkpt>
      <trkpt lat="43.573399" lon="12.544529">
        <ele>519.80187999999998</ele>
        <time>2013-06-30T09:30:28Z</time>
      </trkpt>
      <trkpt lat="43.572730" lon="12.545360">
        <ele>521.33545000000004</ele>
        <time>2013-06-30T09:30:40Z</time>
      </trkpt>
      <trkpt lat="43.572440" lon="12.545720">
        <ele>522.12945999999999</ele>
        <time>2013-06-30T09:30:45Z</time>
      </trkpt>
      <trkpt lat="43.571999" lon="12.545890">
        <ele>522.88964999999996</ele>
        <time>2013-06-30T09:30:51Z</time>
      </trkpt>
      <trkpt lat="43.571739" lon="12.545850">
        <ele>523.47906</ele>
        <time>2013-06-30T09:30:55Z</time>
      </trkpt>
      <trkpt lat="43.571509" lon="12.545890">
        <ele>523.84984999999995</ele>
        <time>2013-06-30T09:30:58Z</time>
      </trkpt>
      <trkpt lat="43.571390" lon="12.546010">
        <ele>524.02502000000004</ele>
        <time>2013-06-30T09:31:00Z</time>
      </trkpt>
      <trkpt lat="43.571190" lon="12.546340">
        <ele>524.29088999999999</ele>
        <time>2013-06-30T09:31:04Z</time>
      </trkpt>
      <trkpt lat="43.571120" lon="12.546549">
        <ele>524.47986000000003</ele>
        <time>2013-06-30T09:31:06Z</time>
      </trkpt>
      <trkpt lat="43.571060" lon="12.547079">
        <ele>525.14313000000004</ele>
        <time>2013-06-30T09:31:11Z</time>
      </trkpt>
      <trkpt lat="43.571090" lon="12.547230">
        <ele>525.45905000000005</ele>
        <time>2013-06-30T09:31:13Z</time>
      </trkpt>
      <trkpt lat="43.571160" lon="12.547319">
        <ele>525.62139999999999</ele>
        <time>2013-06-30T09:31:14Z</time>
      </trkpt>
      <trkpt lat="43.571290" lon="12.547270">
        <ele>525.94341999999995</ele>
        <time>2013-06-30T09:31:16Z</time>
      </trkpt>
      <trkpt lat="43.571480" lon="12.546919">
        <ele>526.57372999999995</ele>
        <time>2013-06-30T09:31:20Z</time>
      </trkpt>
      <trkpt lat="43.571580" lon="12.546819">
        <ele>526.85913000000005</ele>
        <time>2013-06-30T09:31:22Z</time>
      </trkpt>
      <trkpt lat="43.571769" lon="12.546830">
        <ele>527.11492999999996</ele>
        <time>2013-06-30T09:31:24Z</time>
      </trkpt>
      <trkpt lat="43.571869" lon="12.546919">
        <ele>527.32561999999996</ele>
        <time>2013-06-30T09:31:26Z</time>
      </trkpt>
      <trkpt lat="43.571940" lon="12.547750">
        <ele>528.48961999999995</ele>
        <time>2013-06-30T09:31:34Z</time>
      </trkpt>
      <trkpt lat="43.572150" lon="12.548159">
        <ele>529.18555000000003</ele>
        <time>2013-06-30T09:31:39Z</time>
      </trkpt>
      <trkpt lat="43.572429" lon="12.548919">
        <ele>530.17926</ele>
        <time>2013-06-30T09:31:47Z</time>
      </trkpt>
      <trkpt lat="43.572470" lon="12.549270">
        <ele>530.65563999999995</ele>
        <time>2013-06-30T09:31:51Z</time>
      </trkpt>
      <trkpt lat="43.572400" lon="12.549500">
        <ele>530.90648999999996</ele>
        <time>2013-06-30T09:31:53Z</time>
      </trkpt>
      <trkpt lat="43.572059" lon="12.550139">
        <ele>532.10468000000003</ele>
        <time>2013-06-30T09:32:01Z</time>
      </trkpt>
      <trkpt lat="43.571959" lon="12.550420">
        <ele>532.53386999999998</ele>
        <time>2013-06-30T09:32:04Z</time>
      </trkpt>
      <trkpt lat="43.571929" lon="12.550949">
        <ele>533.13220000000001</ele>
        <time>2013-06-30T09:32:09Z</time>
      </trkpt>
      <trkpt lat="43.572019" lon="12.551860">
        <ele>533.71636999999998</ele>
        <time>2013-06-30T09:32:18Z</time>
      </trkpt>
      <trkpt lat="43.571769" lon="12.552510">
        <ele>533.98932000000002</ele>
        <time>2013-06-30T09:32:25Z</time>
      </trkpt>
      <trkpt lat="43.571739" lon="12.553000">
        <ele>534.14160000000004</ele>
        <time>2013-06-30T09:32:30Z</time>
      </trkpt>
      <trkpt lat="43.571390" lon="12.553649">
        <ele>534.35522000000003</ele>
        <time>2013-06-30T09:32:37Z</time>
      </trkpt>
      <trkpt lat="43.571290" lon="12.554000">
        <ele>534.46747000000005</ele>
        <time>2013-06-30T09:32:41Z</time>
      </trkpt>
      <trkpt lat="43.571239" lon="12.554499">
        <ele>534.60473999999999</ele>
        <time>2013-06-30T09:32:46Z</time>
      </trkpt>
      <trkpt lat="43.571120" lon="12.554850">
        <ele>534.73431000000005</ele>
        <time>2013-06-30T09:32:50Z</time>
      </trkpt>
      <trkpt lat="43.570570" lon="12.555670">
        <ele>535.01013</ele>
        <time>2013-06-30T09:33:00Z</time>
      </trkpt>
      <trkpt lat="43.570319" lon="12.555930">
        <ele>535.17431999999997</ele>
        <time>2013-06-30T09:33:05Z</time>
      </trkpt>
      <trkpt lat="43.570210" lon="12.556109">
        <ele>535.19122000000004</ele>
        <time>2013-06-30T09:33:07Z</time>
      </trkpt>
      <trkpt lat="43.570129" lon="12.556820">
        <ele>535.28332999999998</ele>
        <time>2013-06-30T09:33:14Z</time>
      </trkpt>
      <trkpt lat="43.569850" lon="12.557559">
        <ele>535.73199</ele>
        <time>2013-06-30T09:33:22Z</time>
      </trkpt>
      <trkpt lat="43.569829" lon="12.558019">
        <ele>535.89153999999996</ele>
        <time>2013-06-30T09:33:26Z</time>
      </trkpt>
      <trkpt lat="43.569789" lon="12.558160">
        <ele>535.97295999999994</ele>
        <time>2013-06-30T09:33:28Z</time>
      </trkpt>
      <trkpt lat="43.569699" lon="12.558269">
        <ele>536.08416999999997</ele>
        <time>2013-06-30T09:33:30Z</time>
      </trkpt>
      <trkpt lat="43.569120" lon="12.558550">
        <ele>536.71887000000004</ele>
        <time>2013-06-30T09:33:38Z</time>
      </trkpt>
      <trkpt lat="43.568800" lon="12.558980">
        <ele>537.01940999999999</ele>
        <time>2013-06-30T09:33:44Z</time>
      </trkpt>
      <trkpt lat="43.568519" lon="12.559629">
        <ele>537.37982</ele>
        <time>2013-06-30T09:33:51Z</time>
      </trkpt>
      <trkpt lat="43.568049" lon="12.560339">
        <ele>537.99237000000005</ele>
        <time>2013-06-30T09:34:00Z</time>
      </trkpt>
      <trkpt lat="43.567569" lon="12.560729">
        <ele>538.53583000000003</ele>
        <time>2013-06-30T09:34:08Z</time>
      </trkpt>
      <trkpt lat="43.567439" lon="12.560750">
        <ele>538.61963000000003</ele>
        <time>2013-06-30T09:34:09Z</time>
      </trkpt>
      <trkpt lat="43.567180" lon="12.560650">
        <ele>538.98999000000003</ele>
        <time>2013-06-30T09:34:13Z</time>
      </trkpt>
      <trkpt lat="43.566939" lon="12.560690">
        <ele>539.29571999999996</ele>
        <time>2013-06-30T09:34:16Z</time>
      </trkpt>
      <trkpt lat="43.566100" lon="12.561140">
        <ele>540.35852</ele>
        <time>2013-06-30T09:34:28Z</time>
      </trkpt>
      <trkpt lat="43.565910" lon="12.561240">
        <ele>540.60107000000005</ele>
        <time>2013-06-30T09:34:31Z</time>
      </trkpt>
      <trkpt lat="43.565810" lon="12.561220">
        <ele>540.68670999999995</ele>
        <time>2013-06-30T09:34:32Z</time>
      </trkpt>
      <trkpt lat="43.565570" lon="12.560950">
        <ele>541.13018999999997</ele>
        <time>2013-06-30T09:34:37Z</time>
      </trkpt>
      <trkpt lat="43.565380" lon="12.560890">
        <ele>541.27837999999997</ele>
        <time>2013-06-30T09:34:39Z</time>
      </trkpt>
      <trkpt lat="43.564479" lon="12.560899">
        <ele>541.81897000000004</ele>
        <time>2013-06-30T09:34:51Z</time>
      </trkpt>
      <trkpt lat="43.564000" lon="12.560909">
        <ele>542.47484999999995</ele>
        <time>2013-06-30T09:34:58Z</time>
      </trkpt>
      <trkpt lat="43.563849" lon="12.560890">
        <ele>542.70605</ele>
        <time>2013-06-30T09:35:00Z</time>
      </trkpt>
      <trkpt lat="43.563599" lon="12.560760">
        <ele>542.98108000000002</ele>
        <time>2013-06-30T09:35:03Z</time>
      </trkpt>
      <trkpt lat="43.563329" lon="12.560739">
        <ele>543.21558000000005</ele>
        <time>2013-06-30T09:35:07Z</time>
      </trkpt>
      <trkpt lat="43.562709" lon="12.561120">
        <ele>543.82799999999997</ele>
        <time>2013-06-30T09:35:16Z</time>
      </trkpt>
      <trkpt lat="43.562539" lon="12.561370">
        <ele>544.18493999999998</ele>
        <time>2013-06-30T09:35:19Z</time>
      </trkpt>
      <trkpt lat="43.562460" lon="12.561889">
        <ele>544.81670999999994</ele>
        <time>2013-06-30T09:35:24Z</time>
      </trkpt>
      <trkpt lat="43.562479" lon="12.562239">
        <ele>545.56548999999995</ele>
        <time>2013-06-30T09:35:28Z</time>
      </trkpt>
      <trkpt lat="43.562560" lon="12.562609">
        <ele>546.18871999999999</ele>
        <time>2013-06-30T09:35:31Z</time>
      </trkpt>
      <trkpt lat="43.562669" lon="12.562799">
        <ele>546.67058999999995</ele>
        <time>2013-06-30T09:35:34Z</time>
      </trkpt>
      <trkpt lat="43.562809" lon="12.562860">
        <ele>546.88507000000004</ele>
        <time>2013-06-30T09:35:36Z</time>
      </trkpt>
      <trkpt lat="43.563169" lon="12.562679">
        <ele>547.36419999999998</ele>
        <time>2013-06-30T09:35:41Z</time>
      </trkpt>
      <trkpt lat="43.563299" lon="12.562679">
        <ele>547.52544999999998</ele>
        <time>2013-06-30T09:35:43Z</time>
      </trkpt>
      <trkpt lat="43.564030" lon="12.563069">
        <ele>548.59760000000006</ele>
        <time>2013-06-30T09:35:53Z</time>
      </trkpt>
      <trkpt lat="43.564200" lon="12.563120">
        <ele>548.82384999999999</ele>
        <time>2013-06-30T09:35:55Z</time>
      </trkpt>
      <trkpt lat="43.564709" lon="12.563069">
        <ele>549.16576999999995</ele>
        <time>2013-06-30T09:36:02Z</time>
      </trkpt>
      <trkpt lat="43.564769" lon="12.563120">
        <ele>549.22400000000005</ele>
        <time>2013-06-30T09:36:03Z</time>
      </trkpt>
      <trkpt lat="43.564939" lon="12.564089">
        <ele>549.90472</ele>
        <time>2013-06-30T09:36:13Z</time>
      </trkpt>
      <trkpt lat="43.564890" lon="12.564769">
        <ele>550.12865999999997</ele>
        <time>2013-06-30T09:36:19Z</time>
      </trkpt>
      <trkpt lat="43.564790" lon="12.565180">
        <ele>550.38135</ele>
        <time>2013-06-30T09:36:24Z</time>
      </trkpt>
      <trkpt lat="43.564679" lon="12.565439">
        <ele>550.72619999999995</ele>
        <time>2013-06-30T09:36:27Z</time>
      </trkpt>
      <trkpt lat="43.564509" lon="12.566570">
        <ele>551.69635000000005</ele>
        <time>2013-06-30T09:36:38Z</time>
      </trkpt>
      <trkpt lat="43.564539" lon="12.567069">
        <ele>551.91674999999998</ele>
        <time>2013-06-30T09:36:42Z</time>
      </trkpt>
      <trkpt lat="43.564520" lon="12.567459">
        <ele>552.03448000000003</ele>
        <time>2013-06-30T09:36:46Z</time>
      </trkpt>
      <trkpt lat="43.564639" lon="12.568500">
        <ele>551.95232999999996</ele>
        <time>2013-06-30T09:36:57Z</time>
      </trkpt>
      <trkpt lat="43.564769" lon="12.568670">
        <ele>551.96265000000005</ele>
        <time>2013-06-30T09:36:59Z</time>
      </trkpt>
      <trkpt lat="43.565310" lon="12.568660">
        <ele>552.17962999999997</ele>
        <time>2013-06-30T09:37:06Z</time>
      </trkpt>
      <trkpt lat="43.565619" lon="12.568549">
        <ele>552.39368000000002</ele>
        <time>2013-06-30T09:37:10Z</time>
      </trkpt>
      <trkpt lat="43.565849" lon="12.568600">
        <ele>552.61986999999999</ele>
        <time>2013-06-30T09:37:14Z</time>
      </trkpt>
      <trkpt lat="43.566309" lon="12.569669">
        <ele>553.37798999999995</ele>
        <time>2013-06-30T09:37:26Z</time>
      </trkpt>
      <trkpt lat="43.566419" lon="12.569929">
        <ele>553.54852000000005</ele>
        <time>2013-06-30T09:37:28Z</time>
      </trkpt>
      <trkpt lat="43.566460" lon="12.570219">
        <ele>553.77954</ele>
        <time>2013-06-30T09:37:31Z</time>
      </trkpt>
      <trkpt lat="43.566249" lon="12.570949">
        <ele>553.67767000000003</ele>
        <time>2013-06-30T09:37:39Z</time>
      </trkpt>
      <trkpt lat="43.565610" lon="12.571820">
        <ele>553.2088</ele>
        <time>2013-06-30T09:37:51Z</time>
      </trkpt>
      <trkpt lat="43.565399" lon="12.572110">
        <ele>553.03008999999997</ele>
        <time>2013-06-30T09:37:55Z</time>
      </trkpt>
      <trkpt lat="43.565229" lon="12.572229">
        <ele>552.89440999999999</ele>
        <time>2013-06-30T09:37:57Z</time>
      </trkpt>
      <trkpt lat="43.564850" lon="12.572340">
        <ele>552.33551</ele>
        <time>2013-06-30T09:38:03Z</time>
      </trkpt>
      <trkpt lat="43.564300" lon="12.572730">
        <ele>551.77502000000004</ele>
        <time>2013-06-30T09:38:11Z</time>
      </trkpt>
      <trkpt lat="43.564119" lon="12.572760">
        <ele>551.68511999999998</ele>
        <time>2013-06-30T09:38:13Z</time>
      </trkpt>
      <trkpt lat="43.564010" lon="12.572719">
        <ele>551.60577000000001</ele>
        <time>2013-06-30T09:38:15Z</time>
      </trkpt>
      <trkpt lat="43.563649" lon="12.572250">
        <ele>550.98932000000002</ele>
        <time>2013-06-30T09:38:21Z</time>
      </trkpt>
      <trkpt lat="43.563169" lon="12.571739">
        <ele>549.71094000000005</ele>
        <time>2013-06-30T09:38:30Z</time>
      </trkpt>
      <trkpt lat="43.563010" lon="12.571620">
        <ele>549.44312000000002</ele>
        <time>2013-06-30T09:38:32Z</time>
      </trkpt>
      <trkpt lat="43.562880" lon="12.571599">
        <ele>549.14233000000002</ele>
        <time>2013-06-30T09:38:34Z</time>
      </trkpt>
      <trkpt lat="43.562620" lon="12.571729">
        <ele>548.63360999999998</ele>
        <time>2013-06-30T09:38:37Z</time>
      </trkpt>
      <trkpt lat="43.562119" lon="12.572180">
        <ele>547.36823000000004</ele>
        <time>2013-06-30T09:38:45Z</time>
      </trkpt>
      <trkpt lat="43.561570" lon="12.572310">
        <ele>546.56781000000001</ele>
        <time>2013-06-30T09:38:53Z</time>
      </trkpt>
      <trkpt lat="43.561010" lon="12.572630">
        <ele>545.73937999999998</ele>
        <time>2013-06-30T09:39:01Z</time>
      </trkpt>
      <trkpt lat="43.560139" lon="12.572329">
        <ele>544.39458999999999</ele>
        <time>2013-06-30T09:39:13Z</time>
      </trkpt>
      <trkpt lat="43.560109" lon="12.572319">
        <ele>544.25658999999996</ele>
        <time>2013-06-30T09:39:14Z</time>
      </trkpt>
      <trkpt lat="43.559870" lon="12.572389">
        <ele>543.72815000000003</ele>
        <time>2013-06-30T09:39:18Z</time>
      </trkpt>
      <trkpt lat="43.559219" lon="12.572840">
        <ele>542.58880999999997</ele>
        <time>2013-06-30T09:39:27Z</time>
      </trkpt>
      <trkpt lat="43.559219" lon="12.572979">
        <ele>542.35515999999996</ele>
        <time>2013-06-30T09:39:29Z</time>
      </trkpt>
      <trkpt lat="43.559259" lon="12.573019">
        <ele>542.24614999999994</ele>
        <time>2013-06-30T09:39:30Z</time>
      </trkpt>
      <trkpt lat="43.559619" lon="12.572990">
        <ele>541.74634000000003</ele>
        <time>2013-06-30T09:39:35Z</time>
      </trkpt>
      <trkpt lat="43.559930" lon="12.572879">
        <ele>541.29791</ele>
        <time>2013-06-30T09:39:39Z</time>
      </trkpt>
      <trkpt lat="43.560209" lon="12.573000">
        <ele>540.82781999999997</ele>
        <time>2013-06-30T09:39:43Z</time>
      </trkpt>
      <trkpt lat="43.560590" lon="12.574059">
        <ele>539.63007000000005</ele>
        <time>2013-06-30T09:39:55Z</time>
      </trkpt>
      <trkpt lat="43.561220" lon="12.574759">
        <ele>538.20537999999999</ele>
        <time>2013-06-30T09:40:06Z</time>
      </trkpt>
      <trkpt lat="43.561350" lon="12.574979">
        <ele>537.83538999999996</ele>
        <time>2013-06-30T09:40:08Z</time>
      </trkpt>
      <trkpt lat="43.561399" lon="12.575209">
        <ele>537.29651000000001</ele>
        <time>2013-06-30T09:40:11Z</time>
      </trkpt>
      <trkpt lat="43.561440" lon="12.575530">
        <ele>536.79474000000005</ele>
        <time>2013-06-30T09:40:14Z</time>
      </trkpt>
      <trkpt lat="43.561319" lon="12.576350">
        <ele>535.60022000000004</ele>
        <time>2013-06-30T09:40:22Z</time>
      </trkpt>
      <trkpt lat="43.561329" lon="12.576740">
        <ele>534.93591000000004</ele>
        <time>2013-06-30T09:40:26Z</time>
      </trkpt>
      <trkpt lat="43.561610" lon="12.577140">
        <ele>534.12549000000001</ele>
        <time>2013-06-30T09:40:31Z</time>
      </trkpt>
      <trkpt lat="43.561730" lon="12.577400">
        <ele>533.64922999999999</ele>
        <time>2013-06-30T09:40:34Z</time>
      </trkpt>
      <trkpt lat="43.561789" lon="12.577799">
        <ele>532.84094000000005</ele>
        <time>2013-06-30T09:40:38Z</time>
      </trkpt>
      <trkpt lat="43.561779" lon="12.578159">
        <ele>532.14417000000003</ele>
        <time>2013-06-30T09:40:41Z</time>
      </trkpt>
      <trkpt lat="43.561659" lon="12.578670">
        <ele>530.72551999999996</ele>
        <time>2013-06-30T09:40:47Z</time>
      </trkpt>
      <trkpt lat="43.561489" lon="12.578919">
        <ele>530.09307999999999</ele>
        <time>2013-06-30T09:40:50Z</time>
      </trkpt>
      <trkpt lat="43.561340" lon="12.579260">
        <ele>529.21338000000003</ele>
        <time>2013-06-30T09:40:54Z</time>
      </trkpt>
      <trkpt lat="43.561150" lon="12.579470">
        <ele>528.60522000000003</ele>
        <time>2013-06-30T09:40:57Z</time>
      </trkpt>
      <trkpt lat="43.561120" lon="12.579639">
        <ele>528.18462999999997</ele>
        <time>2013-06-30T09:40:59Z</time>
      </trkpt>
      <trkpt lat="43.561159" lon="12.579749">
        <ele>527.97466999999995</ele>
        <time>2013-06-30T09:41:00Z</time>
      </trkpt>
      <trkpt lat="43.561500" lon="12.580099">
        <ele>526.67107999999996</ele>
        <time>2013-06-30T09:41:06Z</time>
      </trkpt>
      <trkpt lat="43.561849" lon="12.580620">
        <ele>524.71051</ele>
        <time>2013-06-30T09:41:13Z</time>
      </trkpt>
      <trkpt lat="43.561989" lon="12.580910">
        <ele>523.75365999999997</ele>
        <time>2013-06-30T09:41:16Z</time>
      </trkpt>
      <trkpt lat="43.562040" lon="12.581330">
        <ele>522.39531999999997</ele>
        <time>2013-06-30T09:41:20Z</time>
      </trkpt>
      <trkpt lat="43.561979" lon="12.581609">
        <ele>521.36536000000001</ele>
        <time>2013-06-30T09:41:23Z</time>
      </trkpt>
      <trkpt lat="43.561819" lon="12.581809">
        <ele>520.37456999999995</ele>
        <time>2013-06-30T09:41:26Z</time>
      </trkpt>
      <trkpt lat="43.561700" lon="12.581820">
        <ele>520.05615</ele>
        <time>2013-06-30T09:41:27Z</time>
      </trkpt>
      <trkpt lat="43.561340" lon="12.581630">
        <ele>518.47808999999995</ele>
        <time>2013-06-30T09:41:32Z</time>
      </trkpt>
      <trkpt lat="43.561220" lon="12.581619">
        <ele>517.85022000000004</ele>
        <time>2013-06-30T09:41:34Z</time>
      </trkpt>
      <trkpt lat="43.560720" lon="12.581960">
        <ele>515.65656000000001</ele>
        <time>2013-06-30T09:41:41Z</time>
      </trkpt>
      <trkpt lat="43.560409" lon="12.582120">
        <ele>514.05156999999997</ele>
        <time>2013-06-30T09:41:46Z</time>
      </trkpt>
      <trkpt lat="43.560269" lon="12.582280">
        <ele>513.39458999999999</ele>
        <time>2013-06-30T09:41:48Z</time>
      </trkpt>
      <trkpt lat="43.560190" lon="12.582450">
        <ele>512.71722</ele>
        <time>2013-06-30T09:41:50Z</time>
      </trkpt>
      <trkpt lat="43.560139" lon="12.582950">
        <ele>510.94121999999999</ele>
        <time>2013-06-30T09:41:55Z</time>
      </trkpt>
      <trkpt lat="43.560090" lon="12.583119">
        <ele>510.19925000000001</ele>
        <time>2013-06-30T09:41:57Z</time>
      </trkpt>
      <trkpt lat="43.559640" lon="12.583649">
        <ele>507.20569</ele>
        <time>2013-06-30T09:42:05Z</time>
      </trkpt>
      <trkpt lat="43.558859" lon="12.583619">
        <ele>504.03444999999999</ele>
        <time>2013-06-30T09:42:15Z</time>
      </trkpt>
      <trkpt lat="43.558529" lon="12.583790">
        <ele>502.58649000000003</ele>
        <time>2013-06-30T09:42:20Z</time>
      </trkpt>
      <trkpt lat="43.558209" lon="12.584039">
        <ele>500.96755999999999</ele>
        <time>2013-06-30T09:42:25Z</time>
      </trkpt>
      <trkpt lat="43.558079" lon="12.584550">
        <ele>499.25760000000002</ele>
        <time>2013-06-30T09:42:30Z</time>
      </trkpt>
      <trkpt lat="43.558030" lon="12.585600">
        <ele>495.83893</ele>
        <time>2013-06-30T09:42:40Z</time>
      </trkpt>
      <trkpt lat="43.557809" lon="12.586629">
        <ele>491.97516000000002</ele>
        <time>2013-06-30T09:42:51Z</time>
      </trkpt>
      <trkpt lat="43.557770" lon="12.587040">
        <ele>490.61057</ele>
        <time>2013-06-30T09:42:55Z</time>
      </trkpt>
      <trkpt lat="43.557930" lon="12.587380">
        <ele>489.26146999999997</ele>
        <time>2013-06-30T09:42:59Z</time>
      </trkpt>
      <trkpt lat="43.558179" lon="12.587589">
        <ele>487.86703</ele>
        <time>2013-06-30T09:43:03Z</time>
      </trkpt>
      <trkpt lat="43.559059" lon="12.587340">
        <ele>483.84787</ele>
        <time>2013-06-30T09:43:15Z</time>
      </trkpt>
      <trkpt lat="43.559059" lon="12.587340">
        <ele>483.52249</ele>
        <time>2013-06-30T09:43:16Z</time>
      </trkpt>
      <trkpt lat="43.559150" lon="12.587400">
        <ele>483.19092000000001</ele>
        <time>2013-06-30T09:43:17Z</time>
      </trkpt>
      <trkpt lat="43.559180" lon="12.587640">
        <ele>482.50925000000001</ele>
        <time>2013-06-30T09:43:19Z</time>
      </trkpt>
      <trkpt lat="43.559129" lon="12.587960">
        <ele>481.43948</ele>
        <time>2013-06-30T09:43:22Z</time>
      </trkpt>
      <trkpt lat="43.558859" lon="12.588360">
        <ele>479.26098999999999</ele>
        <time>2013-06-30T09:43:28Z</time>
      </trkpt>
      <trkpt lat="43.558880" lon="12.588460">
        <ele>478.8963</ele>
        <time>2013-06-30T09:43:29Z</time>
      </trkpt>
      <trkpt lat="43.558969" lon="12.588490">
        <ele>478.53116</ele>
        <time>2013-06-30T09:43:30Z</time>
      </trkpt>
      <trkpt lat="43.559229" lon="12.588160">
        <ele>476.64670000000001</ele>
        <time>2013-06-30T09:43:35Z</time>
      </trkpt>
      <trkpt lat="43.559429" lon="12.587789">
        <ele>475.13015999999999</ele>
        <time>2013-06-30T09:43:39Z</time>
      </trkpt>
      <trkpt lat="43.559519" lon="12.586780">
        <ele>471.40490999999997</ele>
        <time>2013-06-30T09:43:49Z</time>
      </trkpt>
      <trkpt lat="43.559579" lon="12.586650">
        <ele>470.63315</ele>
        <time>2013-06-30T09:43:51Z</time>
      </trkpt>
      <trkpt lat="43.559840" lon="12.586609">
        <ele>469.45490000000001</ele>
        <time>2013-06-30T09:43:54Z</time>
      </trkpt>
      <trkpt lat="43.559960" lon="12.587459">
        <ele>466.34231999999997</ele>
        <time>2013-06-30T09:44:02Z</time>
      </trkpt>
      <trkpt lat="43.560049" lon="12.587459">
        <ele>465.59586000000002</ele>
        <time>2013-06-30T09:44:04Z</time>
      </trkpt>
      <trkpt lat="43.560190" lon="12.587310">
        <ele>464.84978999999998</ele>
        <time>2013-06-30T09:44:06Z</time>
      </trkpt>
      <trkpt lat="43.560260" lon="12.587329">
        <ele>464.47464000000002</ele>
        <time>2013-06-30T09:44:07Z</time>
      </trkpt>
      <trkpt lat="43.560290" lon="12.587410">
        <ele>464.09505999999999</ele>
        <time>2013-06-30T09:44:08Z</time>
      </trkpt>
      <trkpt lat="43.560239" lon="12.587619">
        <ele>463.32263</ele>
        <time>2013-06-30T09:44:10Z</time>
      </trkpt>
      <trkpt lat="43.559909" lon="12.588109">
        <ele>460.91753999999997</ele>
        <time>2013-06-30T09:44:16Z</time>
      </trkpt>
      <trkpt lat="43.559740" lon="12.588630">
        <ele>458.54730000000001</ele>
        <time>2013-06-30T09:44:22Z</time>
      </trkpt>
      <trkpt lat="43.559489" lon="12.589099">
        <ele>456.21597000000003</ele>
        <time>2013-06-30T09:44:28Z</time>
      </trkpt>
      <trkpt lat="43.559419" lon="12.590040">
        <ele>452.69936999999999</ele>
        <time>2013-06-30T09:44:37Z</time>
      </trkpt>
      <trkpt lat="43.559340" lon="12.590249">
        <ele>451.89751999999999</ele>
        <time>2013-06-30T09:44:39Z</time>
      </trkpt>
      <trkpt lat="43.559429" lon="12.590839">
        <ele>449.64246000000003</ele>
        <time>2013-06-30T09:44:45Z</time>
      </trkpt>
      <trkpt lat="43.559250" lon="12.591380">
        <ele>447.42245000000003</ele>
        <time>2013-06-30T09:44:51Z</time>
      </trkpt>
      <trkpt lat="43.559299" lon="12.591889">
        <ele>445.52208999999999</ele>
        <time>2013-06-30T09:44:56Z</time>
      </trkpt>
      <trkpt lat="43.559280" lon="12.592089">
        <ele>445.14233000000002</ele>
        <time>2013-06-30T09:44:57Z</time>
      </trkpt>
      <trkpt lat="43.559059" lon="12.592470">
        <ele>443.29345999999998</ele>
        <time>2013-06-30T09:45:02Z</time>
      </trkpt>
      <trkpt lat="43.558950" lon="12.593009">
        <ele>441.16931</ele>
        <time>2013-06-30T09:45:08Z</time>
      </trkpt>
      <trkpt lat="43.558650" lon="12.593759">
        <ele>438.16354000000001</ele>
        <time>2013-06-30T09:45:16Z</time>
      </trkpt>
      <trkpt lat="43.558590" lon="12.594800">
        <ele>434.39022999999997</ele>
        <time>2013-06-30T09:45:26Z</time>
      </trkpt>
      <trkpt lat="43.558539" lon="12.595090">
        <ele>433.23270000000002</ele>
        <time>2013-06-30T09:45:29Z</time>
      </trkpt>
      <trkpt lat="43.558450" lon="12.595350">
        <ele>432.04721000000001</ele>
        <time>2013-06-30T09:45:32Z</time>
      </trkpt>
      <trkpt lat="43.558079" lon="12.596100">
        <ele>429.52578999999997</ele>
        <time>2013-06-30T09:45:40Z</time>
      </trkpt>
      <trkpt lat="43.558090" lon="12.596340">
        <ele>428.61133000000001</ele>
        <time>2013-06-30T09:45:43Z</time>
      </trkpt>
      <trkpt lat="43.558209" lon="12.596479">
        <ele>427.95447000000001</ele>
        <time>2013-06-30T09:45:45Z</time>
      </trkpt>
      <trkpt lat="43.558360" lon="12.596479">
        <ele>427.24804999999998</ele>
        <time>2013-06-30T09:45:47Z</time>
      </trkpt>
      <trkpt lat="43.558780" lon="12.596259">
        <ele>424.90381000000002</ele>
        <time>2013-06-30T09:45:53Z</time>
      </trkpt>
      <trkpt lat="43.558889" lon="12.596270">
        <ele>424.52417000000003</ele>
        <time>2013-06-30T09:45:54Z</time>
      </trkpt>
      <trkpt lat="43.558969" lon="12.596389">
        <ele>423.78377999999998</ele>
        <time>2013-06-30T09:45:56Z</time>
      </trkpt>
      <trkpt lat="43.558950" lon="12.596630">
        <ele>423.07465000000002</ele>
        <time>2013-06-30T09:45:58Z</time>
      </trkpt>
      <trkpt lat="43.558680" lon="12.596960">
        <ele>421.36209000000002</ele>
        <time>2013-06-30T09:46:03Z</time>
      </trkpt>
      <trkpt lat="43.558239" lon="12.597169">
        <ele>419.28915000000001</ele>
        <time>2013-06-30T09:46:09Z</time>
      </trkpt>
      <trkpt lat="43.558019" lon="12.597190">
        <ele>418.31671</ele>
        <time>2013-06-30T09:46:12Z</time>
      </trkpt>
      <trkpt lat="43.557479" lon="12.597009">
        <ele>415.64663999999999</ele>
        <time>2013-06-30T09:46:20Z</time>
      </trkpt>
      <trkpt lat="43.557240" lon="12.597030">
        <ele>414.64890000000003</ele>
        <time>2013-06-30T09:46:23Z</time>
      </trkpt>
      <trkpt lat="43.557050" lon="12.597239">
        <ele>413.67737</ele>
        <time>2013-06-30T09:46:26Z</time>
      </trkpt>
      <trkpt lat="43.556429" lon="12.598140">
        <ele>409.57378999999997</ele>
        <time>2013-06-30T09:46:38Z</time>
      </trkpt>
      <trkpt lat="43.555819" lon="12.599039">
        <ele>405.74878000000001</ele>
        <time>2013-06-30T09:46:50Z</time>
      </trkpt>
      <trkpt lat="43.555719" lon="12.599190">
        <ele>405.16135000000003</ele>
        <time>2013-06-30T09:46:52Z</time>
      </trkpt>
      <trkpt lat="43.554889" lon="12.599680">
        <ele>401.53136999999998</ele>
        <time>2013-06-30T09:47:04Z</time>
      </trkpt>
      <trkpt lat="43.554689" lon="12.599799">
        <ele>400.65008999999998</ele>
        <time>2013-06-30T09:47:07Z</time>
      </trkpt>
      <trkpt lat="43.554439" lon="12.600329">
        <ele>398.95895000000002</ele>
        <time>2013-06-30T09:47:13Z</time>
      </trkpt>
      <trkpt lat="43.554280" lon="12.600510">
        <ele>397.98718000000002</ele>
        <time>2013-06-30T09:47:16Z</time>
      </trkpt>
      <trkpt lat="43.553790" lon="12.600849">
        <ele>395.78116</ele>
        <time>2013-06-30T09:47:23Z</time>
      </trkpt>
      <trkpt lat="43.552940" lon="12.601230">
        <ele>392.10744999999997</ele>
        <time>2013-06-30T09:47:35Z</time>
      </trkpt>
      <trkpt lat="43.552780" lon="12.601300">
        <ele>391.55252000000002</ele>
        <time>2013-06-30T09:47:37Z</time>
      </trkpt>
      <trkpt lat="43.552299" lon="12.601859">
        <ele>389.27798000000001</ele>
        <time>2013-06-30T09:47:46Z</time>
      </trkpt>
      <trkpt lat="43.551839" lon="12.601880">
        <ele>387.88116000000002</ele>
        <time>2013-06-30T09:47:52Z</time>
      </trkpt>
      <trkpt lat="43.551470" lon="12.602199">
        <ele>386.48498999999998</ele>
        <time>2013-06-30T09:47:58Z</time>
      </trkpt>
      <trkpt lat="43.550619" lon="12.602619">
        <ele>383.69772</ele>
        <time>2013-06-30T09:48:10Z</time>
      </trkpt>
      <trkpt lat="43.550580" lon="12.602640">
        <ele>383.69772</ele>
        <time>2013-06-30T09:48:10Z</time>
      </trkpt>
      <trkpt lat="43.550080" lon="12.603260">
        <ele>381.55115000000001</ele>
        <time>2013-06-30T09:48:19Z</time>
      </trkpt>
      <trkpt lat="43.549549" lon="12.604269">
        <ele>378.93997000000002</ele>
        <time>2013-06-30T09:48:31Z</time>
      </trkpt>
      <trkpt lat="43.549520" lon="12.604329">
        <ele>378.73671999999999</ele>
        <time>2013-06-30T09:48:32Z</time>
      </trkpt>
      <trkpt lat="43.549500" lon="12.604429">
        <ele>378.53732000000002</ele>
        <time>2013-06-30T09:48:33Z</time>
      </trkpt>
      <trkpt lat="43.549349" lon="12.604940">
        <ele>377.37430000000001</ele>
        <time>2013-06-30T09:48:39Z</time>
      </trkpt>
      <trkpt lat="43.548659" lon="12.605730">
        <ele>374.96210000000002</ele>
        <time>2013-06-30T09:48:51Z</time>
      </trkpt>
      <trkpt lat="43.548499" lon="12.605909">
        <ele>374.56576999999999</ele>
        <time>2013-06-30T09:48:53Z</time>
      </trkpt>
      <trkpt lat="43.548329" lon="12.606169">
        <ele>373.75869999999998</ele>
        <time>2013-06-30T09:48:57Z</time>
      </trkpt>
      <trkpt lat="43.547739" lon="12.605590">
        <ele>371.90271000000001</ele>
        <time>2013-06-30T09:49:06Z</time>
      </trkpt>
      <trkpt lat="43.547219" lon="12.605279">
        <ele>370.48230000000001</ele>
        <time>2013-06-30T09:49:14Z</time>
      </trkpt>
      <trkpt lat="43.546930" lon="12.605189">
        <ele>369.97417999999999</ele>
        <time>2013-06-30T09:49:18Z</time>
      </trkpt>
      <trkpt lat="43.546649" lon="12.605170">
        <ele>369.57803000000001</ele>
        <time>2013-06-30T09:49:22Z</time>
      </trkpt>
      <trkpt lat="43.546080" lon="12.605260">
        <ele>368.52071999999998</ele>
        <time>2013-06-30T09:49:29Z</time>
      </trkpt>
      <trkpt lat="43.545590" lon="12.605170">
        <ele>367.10485999999997</ele>
        <time>2013-06-30T09:49:36Z</time>
      </trkpt>
      <trkpt lat="43.545120" lon="12.605019">
        <ele>365.81011999999998</ele>
        <time>2013-06-30T09:49:42Z</time>
      </trkpt>
      <trkpt lat="43.544270" lon="12.604629">
        <ele>363.22728999999998</ele>
        <time>2013-06-30T09:49:54Z</time>
      </trkpt>
      <trkpt lat="43.543869" lon="12.604450">
        <ele>361.97394000000003</ele>
        <time>2013-06-30T09:50:00Z</time>
      </trkpt>
      <trkpt lat="43.543230" lon="12.603959">
        <ele>360.83508</ele>
        <time>2013-06-30T09:50:10Z</time>
      </trkpt>
      <trkpt lat="43.542500" lon="12.603239">
        <ele>359.58834999999999</ele>
        <time>2013-06-30T09:50:22Z</time>
      </trkpt>
      <trkpt lat="43.541769" lon="12.602519">
        <ele>358.18292000000002</ele>
        <time>2013-06-30T09:50:34Z</time>
      </trkpt>
      <trkpt lat="43.541039" lon="12.601799">
        <ele>358.18256000000002</ele>
        <time>2013-06-30T09:50:46Z</time>
      </trkpt>
      <trkpt lat="43.540749" lon="12.601639">
        <ele>358.12592000000001</ele>
        <time>2013-06-30T09:50:50Z</time>
      </trkpt>
      <trkpt lat="43.540300" lon="12.601660">
        <ele>357.88632000000001</ele>
        <time>2013-06-30T09:50:56Z</time>
      </trkpt>
      <trkpt lat="43.540049" lon="12.601560">
        <ele>357.69830000000002</ele>
        <time>2013-06-30T09:50:59Z</time>
      </trkpt>
      <trkpt lat="43.539280" lon="12.600919">
        <ele>356.94409000000002</ele>
        <time>2013-06-30T09:51:11Z</time>
      </trkpt>
      <trkpt lat="43.538839" lon="12.600549">
        <ele>356.57922000000002</ele>
        <time>2013-06-30T09:51:18Z</time>
      </trkpt>
      <trkpt lat="43.538490" lon="12.600199">
        <ele>356.34066999999999</ele>
        <time>2013-06-30T09:51:24Z</time>
      </trkpt>
      <trkpt lat="43.537919" lon="12.599239">
        <ele>356.15093999999999</ele>
        <time>2013-06-30T09:51:36Z</time>
      </trkpt>
      <trkpt lat="43.537510" lon="12.598549">
        <ele>356.6474</ele>
        <time>2013-06-30T09:51:45Z</time>
      </trkpt>
      <trkpt lat="43.536769" lon="12.597850">
        <ele>356.85980000000001</ele>
        <time>2013-06-30T09:51:57Z</time>
      </trkpt>
      <trkpt lat="43.536649" lon="12.597729">
        <ele>356.97226000000001</ele>
        <time>2013-06-30T09:51:59Z</time>
      </trkpt>
      <trkpt lat="43.536000" lon="12.596869">
        <ele>357.60199</ele>
        <time>2013-06-30T09:52:11Z</time>
      </trkpt>
      <trkpt lat="43.535789" lon="12.596589">
        <ele>357.59728999999999</ele>
        <time>2013-06-30T09:52:15Z</time>
      </trkpt>
      <trkpt lat="43.535529" lon="12.596349">
        <ele>357.54732999999999</ele>
        <time>2013-06-30T09:52:19Z</time>
      </trkpt>
      <trkpt lat="43.534699" lon="12.595889">
        <ele>358.07422000000003</ele>
        <time>2013-06-30T09:52:31Z</time>
      </trkpt>
      <trkpt lat="43.534089" lon="12.595550">
        <ele>358.2724</ele>
        <time>2013-06-30T09:52:39Z</time>
      </trkpt>
      <trkpt lat="43.533680" lon="12.595339">
        <ele>358.62295999999998</ele>
        <time>2013-06-30T09:52:45Z</time>
      </trkpt>
      <trkpt lat="43.533500" lon="12.595299">
        <ele>358.86950999999999</ele>
        <time>2013-06-30T09:52:48Z</time>
      </trkpt>
      <trkpt lat="43.533229" lon="12.595359">
        <ele>359.11682000000002</ele>
        <time>2013-06-30T09:52:51Z</time>
      </trkpt>
      <trkpt lat="43.532390" lon="12.595810">
        <ele>360.06137000000001</ele>
        <time>2013-06-30T09:53:03Z</time>
      </trkpt>
      <trkpt lat="43.532119" lon="12.595950">
        <ele>360.33013999999997</ele>
        <time>2013-06-30T09:53:07Z</time>
      </trkpt>
      <trkpt lat="43.531389" lon="12.596040">
        <ele>361.12970000000001</ele>
        <time>2013-06-30T09:53:17Z</time>
      </trkpt>
      <trkpt lat="43.530669" lon="12.596019">
        <ele>362.19315</ele>
        <time>2013-06-30T09:53:27Z</time>
      </trkpt>
      <trkpt lat="43.530469" lon="12.595959">
        <ele>362.31423999999998</ele>
        <time>2013-06-30T09:53:29Z</time>
      </trkpt>
      <trkpt lat="43.530079" lon="12.595740">
        <ele>362.68335000000002</ele>
        <time>2013-06-30T09:53:35Z</time>
      </trkpt>
      <trkpt lat="43.529660" lon="12.595359">
        <ele>363.13422000000003</ele>
        <time>2013-06-30T09:53:42Z</time>
      </trkpt>
      <trkpt lat="43.529140" lon="12.594349">
        <ele>364.31049000000002</ele>
        <time>2013-06-30T09:53:54Z</time>
      </trkpt>
      <trkpt lat="43.529080" lon="12.594219">
        <ele>364.43230999999997</ele>
        <time>2013-06-30T09:53:55Z</time>
      </trkpt>
      <trkpt lat="43.528920" lon="12.593710">
        <ele>365.14981</ele>
        <time>2013-06-30T09:54:01Z</time>
      </trkpt>
      <trkpt lat="43.528899" lon="12.593339">
        <ele>365.51675</ele>
        <time>2013-06-30T09:54:04Z</time>
      </trkpt>
      <trkpt lat="43.528929" lon="12.593020">
        <ele>365.90206999999998</ele>
        <time>2013-06-30T09:54:07Z</time>
      </trkpt>
      <trkpt lat="43.529270" lon="12.591880">
        <ele>367.67748999999998</ele>
        <time>2013-06-30T09:54:19Z</time>
      </trkpt>
      <trkpt lat="43.529280" lon="12.591859">
        <ele>367.67748999999998</ele>
        <time>2013-06-30T09:54:19Z</time>
      </trkpt>
      <trkpt lat="43.529280" lon="12.591610">
        <ele>368.11446999999998</ele>
        <time>2013-06-30T09:54:22Z</time>
      </trkpt>
      <trkpt lat="43.529219" lon="12.591410">
        <ele>368.39044000000001</ele>
        <time>2013-06-30T09:54:24Z</time>
      </trkpt>
      <trkpt lat="43.529110" lon="12.591229">
        <ele>368.64600000000002</ele>
        <time>2013-06-30T09:54:26Z</time>
      </trkpt>
      <trkpt lat="43.528899" lon="12.591090">
        <ele>369.00977</ele>
        <time>2013-06-30T09:54:29Z</time>
      </trkpt>
      <trkpt lat="43.528160" lon="12.591039">
        <ele>370.42334</ele>
        <time>2013-06-30T09:54:39Z</time>
      </trkpt>
      <trkpt lat="43.527719" lon="12.590929">
        <ele>371.392</ele>
        <time>2013-06-30T09:54:45Z</time>
      </trkpt>
      <trkpt lat="43.527459" lon="12.590750">
        <ele>372.09163999999998</ele>
        <time>2013-06-30T09:54:49Z</time>
      </trkpt>
      <trkpt lat="43.527259" lon="12.590530">
        <ele>372.55225000000002</ele>
        <time>2013-06-30T09:54:53Z</time>
      </trkpt>
      <trkpt lat="43.527110" lon="12.590270">
        <ele>372.90170000000001</ele>
        <time>2013-06-30T09:54:56Z</time>
      </trkpt>
      <trkpt lat="43.526999" lon="12.589970">
        <ele>373.28289999999998</ele>
        <time>2013-06-30T09:54:59Z</time>
      </trkpt>
      <trkpt lat="43.526759" lon="12.588780">
        <ele>374.77942000000002</ele>
        <time>2013-06-30T09:55:11Z</time>
      </trkpt>
      <trkpt lat="43.526650" lon="12.588269">
        <ele>375.59741000000002</ele>
        <time>2013-06-30T09:55:16Z</time>
      </trkpt>
      <trkpt lat="43.526190" lon="12.587199">
        <ele>376.87671</ele>
        <time>2013-06-30T09:55:28Z</time>
      </trkpt>
      <trkpt lat="43.526109" lon="12.587010">
        <ele>377.10354999999998</ele>
        <time>2013-06-30T09:55:30Z</time>
      </trkpt>
      <trkpt lat="43.526090" lon="12.586839">
        <ele>377.31375000000003</ele>
        <time>2013-06-30T09:55:32Z</time>
      </trkpt>
      <trkpt lat="43.526120" lon="12.586690">
        <ele>377.4126</ele>
        <time>2013-06-30T09:55:33Z</time>
      </trkpt>
      <trkpt lat="43.526680" lon="12.586109">
        <ele>378.12752999999998</ele>
        <time>2013-06-30T09:55:43Z</time>
      </trkpt>
      <trkpt lat="43.526820" lon="12.585800">
        <ele>378.25375000000003</ele>
        <time>2013-06-30T09:55:46Z</time>
      </trkpt>
      <trkpt lat="43.526810" lon="12.585489">
        <ele>378.43466000000001</ele>
        <time>2013-06-30T09:55:49Z</time>
      </trkpt>
      <trkpt lat="43.526469" lon="12.584720">
        <ele>379.31243999999998</ele>
        <time>2013-06-30T09:55:58Z</time>
      </trkpt>
      <trkpt lat="43.526450" lon="12.584450">
        <ele>379.55038000000002</ele>
        <time>2013-06-30T09:56:01Z</time>
      </trkpt>
      <trkpt lat="43.526580" lon="12.584290">
        <ele>379.70202999999998</ele>
        <time>2013-06-30T09:56:03Z</time>
      </trkpt>
      <trkpt lat="43.527029" lon="12.584199">
        <ele>380.09044999999998</ele>
        <time>2013-06-30T09:56:09Z</time>
      </trkpt>
      <trkpt lat="43.527259" lon="12.584020">
        <ele>380.31441999999998</ele>
        <time>2013-06-30T09:56:13Z</time>
      </trkpt>
      <trkpt lat="43.527389" lon="12.583689">
        <ele>380.50330000000002</ele>
        <time>2013-06-30T09:56:16Z</time>
      </trkpt>
      <trkpt lat="43.527389" lon="12.583330">
        <ele>380.77771000000001</ele>
        <time>2013-06-30T09:56:20Z</time>
      </trkpt>
      <trkpt lat="43.527040" lon="12.582190">
        <ele>381.55032</ele>
        <time>2013-06-30T09:56:32Z</time>
      </trkpt>
      <trkpt lat="43.526680" lon="12.581049">
        <ele>382.45303000000001</ele>
        <time>2013-06-30T09:56:44Z</time>
      </trkpt>
      <trkpt lat="43.526590" lon="12.580750">
        <ele>382.60831000000002</ele>
        <time>2013-06-30T09:56:47Z</time>
      </trkpt>
      <trkpt lat="43.526369" lon="12.580180">
        <ele>382.99005</ele>
        <time>2013-06-30T09:56:53Z</time>
      </trkpt>
      <trkpt lat="43.526260" lon="12.579990">
        <ele>383.23236000000003</ele>
        <time>2013-06-30T09:56:56Z</time>
      </trkpt>
      <trkpt lat="43.525860" lon="12.579709">
        <ele>383.90021000000002</ele>
        <time>2013-06-30T09:57:02Z</time>
      </trkpt>
      <trkpt lat="43.525470" lon="12.579519">
        <ele>384.31583000000001</ele>
        <time>2013-06-30T09:57:07Z</time>
      </trkpt>
      <trkpt lat="43.524719" lon="12.579389">
        <ele>385.048</ele>
        <time>2013-06-30T09:57:17Z</time>
      </trkpt>
      <trkpt lat="43.524350" lon="12.578610">
        <ele>385.87963999999999</ele>
        <time>2013-06-30T09:57:26Z</time>
      </trkpt>
      <trkpt lat="43.523899" lon="12.578210">
        <ele>386.79349000000002</ele>
        <time>2013-06-30T09:57:33Z</time>
      </trkpt>
      <trkpt lat="43.523700" lon="12.577879">
        <ele>387.66928000000001</ele>
        <time>2013-06-30T09:57:38Z</time>
      </trkpt>
      <trkpt lat="43.523539" lon="12.577290">
        <ele>388.70605</ele>
        <time>2013-06-30T09:57:44Z</time>
      </trkpt>
      <trkpt lat="43.523479" lon="12.576710">
        <ele>389.38788</ele>
        <time>2013-06-30T09:57:49Z</time>
      </trkpt>
      <trkpt lat="43.523539" lon="12.575929">
        <ele>390.67302999999998</ele>
        <time>2013-06-30T09:57:57Z</time>
      </trkpt>
      <trkpt lat="43.523760" lon="12.574960">
        <ele>392.46228000000002</ele>
        <time>2013-06-30T09:58:07Z</time>
      </trkpt>
      <trkpt lat="43.523779" lon="12.574670">
        <ele>392.97143999999997</ele>
        <time>2013-06-30T09:58:10Z</time>
      </trkpt>
      <trkpt lat="43.523720" lon="12.574340">
        <ele>393.44878999999997</ele>
        <time>2013-06-30T09:58:13Z</time>
      </trkpt>
      <trkpt lat="43.523500" lon="12.573709">
        <ele>394.43695000000002</ele>
        <time>2013-06-30T09:58:20Z</time>
      </trkpt>
      <trkpt lat="43.523379" lon="12.573530">
        <ele>394.70681999999999</ele>
        <time>2013-06-30T09:58:22Z</time>
      </trkpt>
      <trkpt lat="43.523209" lon="12.573430">
        <ele>394.9873</ele>
        <time>2013-06-30T09:58:24Z</time>
      </trkpt>
      <trkpt lat="43.522320" lon="12.573309">
        <ele>396.87225000000001</ele>
        <time>2013-06-30T09:58:36Z</time>
      </trkpt>
      <trkpt lat="43.522050" lon="12.573279">
        <ele>397.59982000000002</ele>
        <time>2013-06-30T09:58:40Z</time>
      </trkpt>
      <trkpt lat="43.521649" lon="12.572900">
        <ele>399.03951999999998</ele>
        <time>2013-06-30T09:58:47Z</time>
      </trkpt>
      <trkpt lat="43.521490" lon="12.572819">
        <ele>399.47055</ele>
        <time>2013-06-30T09:58:49Z</time>
      </trkpt>
      <trkpt lat="43.521060" lon="12.572860">
        <ele>400.76970999999998</ele>
        <time>2013-06-30T09:58:55Z</time>
      </trkpt>
      <trkpt lat="43.520810" lon="12.572830">
        <ele>401.42498999999998</ele>
        <time>2013-06-30T09:58:58Z</time>
      </trkpt>
      <trkpt lat="43.520110" lon="12.572180">
        <ele>403.95785999999998</ele>
        <time>2013-06-30T09:59:09Z</time>
      </trkpt>
      <trkpt lat="43.519309" lon="12.571629">
        <ele>405.98919999999998</ele>
        <time>2013-06-30T09:59:21Z</time>
      </trkpt>
      <trkpt lat="43.518889" lon="12.571339">
        <ele>407.34787</ele>
        <time>2013-06-30T09:59:27Z</time>
      </trkpt>
      <trkpt lat="43.518640" lon="12.570979">
        <ele>408.70546999999999</ele>
        <time>2013-06-30T09:59:32Z</time>
      </trkpt>
      <trkpt lat="43.518570" lon="12.570700">
        <ele>409.55745999999999</ele>
        <time>2013-06-30T09:59:35Z</time>
      </trkpt>
      <trkpt lat="43.518519" lon="12.569820">
        <ele>412.16088999999999</ele>
        <time>2013-06-30T09:59:44Z</time>
      </trkpt>
      <trkpt lat="43.518459" lon="12.569599">
        <ele>412.71163999999999</ele>
        <time>2013-06-30T09:59:46Z</time>
      </trkpt>
      <trkpt lat="43.518340" lon="12.569380">
        <ele>413.49081000000001</ele>
        <time>2013-06-30T09:59:49Z</time>
      </trkpt>
      <trkpt lat="43.518250" lon="12.569299">
        <ele>413.73937999999998</ele>
        <time>2013-06-30T09:59:50Z</time>
      </trkpt>
      <trkpt lat="43.517720" lon="12.569049">
        <ele>415.54807</ele>
        <time>2013-06-30T09:59:57Z</time>
      </trkpt>
      <trkpt lat="43.516990" lon="12.568900">
        <ele>418.12392999999997</ele>
        <time>2013-06-30T10:00:07Z</time>
      </trkpt>
      <trkpt lat="43.516840" lon="12.568730">
        <ele>418.84143</ele>
        <time>2013-06-30T10:00:10Z</time>
      </trkpt>
      <trkpt lat="43.516700" lon="12.568189">
        <ele>420.11295000000001</ele>
        <time>2013-06-30T10:00:15Z</time>
      </trkpt>
      <trkpt lat="43.516579" lon="12.567989">
        <ele>420.9606</ele>
        <time>2013-06-30T10:00:18Z</time>
      </trkpt>
      <trkpt lat="43.516300" lon="12.567680">
        <ele>422.30707000000001</ele>
        <time>2013-06-30T10:00:23Z</time>
      </trkpt>
      <trkpt lat="43.516050" lon="12.567510">
        <ele>423.32706000000002</ele>
        <time>2013-06-30T10:00:27Z</time>
      </trkpt>
      <trkpt lat="43.515160" lon="12.567380">
        <ele>426.75943000000001</ele>
        <time>2013-06-30T10:00:39Z</time>
      </trkpt>
      <trkpt lat="43.514619" lon="12.567309">
        <ele>428.38488999999998</ele>
        <time>2013-06-30T10:00:46Z</time>
      </trkpt>
      <trkpt lat="43.514389" lon="12.567239">
        <ele>429.21091000000001</ele>
        <time>2013-06-30T10:00:49Z</time>
      </trkpt>
      <trkpt lat="43.514319" lon="12.566939">
        <ele>430.05371000000002</ele>
        <time>2013-06-30T10:00:52Z</time>
      </trkpt>
      <trkpt lat="43.514459" lon="12.566029">
        <ele>433.01702999999998</ele>
        <time>2013-06-30T10:01:01Z</time>
      </trkpt>
      <trkpt lat="43.514430" lon="12.565559">
        <ele>438.2149</ele>
        <time>2013-06-30T12:25:56Z</time>
      </trkpt>
      <trkpt lat="43.513840" lon="12.564630">
        <ele>435.64362</ele>
        <time>2013-06-30T12:26:08Z</time>
      </trkpt>
      <trkpt lat="43.513290" lon="12.563780">
        <ele>434.13265999999999</ele>
        <time>2013-06-30T12:26:19Z</time>
      </trkpt>
      <trkpt lat="43.513139" lon="12.562960">
        <ele>432.71368000000001</ele>
        <time>2013-06-30T12:26:28Z</time>
      </trkpt>
      <trkpt lat="43.512979" lon="12.562779">
        <ele>432.56918000000002</ele>
        <time>2013-06-30T12:26:30Z</time>
      </trkpt>
      <trkpt lat="43.512589" lon="12.562539">
        <ele>431.97098</ele>
        <time>2013-06-30T12:26:36Z</time>
      </trkpt>
      <trkpt lat="43.512409" lon="12.562370">
        <ele>431.60262999999998</ele>
        <time>2013-06-30T12:26:39Z</time>
      </trkpt>
      <trkpt lat="43.512059" lon="12.561810">
        <ele>430.79241999999999</ele>
        <time>2013-06-30T12:26:46Z</time>
      </trkpt>
      <trkpt lat="43.511899" lon="12.561399">
        <ele>430.44724000000002</ele>
        <time>2013-06-30T12:26:51Z</time>
      </trkpt>
      <trkpt lat="43.511870" lon="12.560950">
        <ele>430.23615000000001</ele>
        <time>2013-06-30T12:26:55Z</time>
      </trkpt>
      <trkpt lat="43.511919" lon="12.560639">
        <ele>430.06137000000001</ele>
        <time>2013-06-30T12:26:58Z</time>
      </trkpt>
      <trkpt lat="43.512300" lon="12.559519">
        <ele>429.05856</ele>
        <time>2013-06-30T12:27:10Z</time>
      </trkpt>
      <trkpt lat="43.512579" lon="12.558690">
        <ele>428.07843000000003</ele>
        <time>2013-06-30T12:27:19Z</time>
      </trkpt>
      <trkpt lat="43.512630" lon="12.558439">
        <ele>427.96789999999999</ele>
        <time>2013-06-30T12:27:21Z</time>
      </trkpt>
      <trkpt lat="43.512990" lon="12.558539">
        <ele>427.86748999999998</ele>
        <time>2013-06-30T12:27:26Z</time>
      </trkpt>
      <trkpt lat="43.513049" lon="12.558490">
        <ele>427.82886000000002</ele>
        <time>2013-06-30T12:27:27Z</time>
      </trkpt>
      <trkpt lat="43.513079" lon="12.558369">
        <ele>427.71494000000001</ele>
        <time>2013-06-30T12:27:29Z</time>
      </trkpt>
      <trkpt lat="43.513049" lon="12.557570">
        <ele>427.32454999999999</ele>
        <time>2013-06-30T12:27:36Z</time>
      </trkpt>
      <trkpt lat="43.513309" lon="12.556390">
        <ele>427.75040000000001</ele>
        <time>2013-06-30T12:27:48Z</time>
      </trkpt>
      <trkpt lat="43.513390" lon="12.556049">
        <ele>427.84906000000001</ele>
        <time>2013-06-30T12:27:52Z</time>
      </trkpt>
      <trkpt lat="43.513629" lon="12.555740">
        <ele>427.84890999999999</ele>
        <time>2013-06-30T12:27:56Z</time>
      </trkpt>
      <trkpt lat="43.514110" lon="12.555349">
        <ele>428.00565</ele>
        <time>2013-06-30T12:28:04Z</time>
      </trkpt>
      <trkpt lat="43.514430" lon="12.555019">
        <ele>428.44686999999999</ele>
        <time>2013-06-30T12:28:09Z</time>
      </trkpt>
      <trkpt lat="43.514570" lon="12.554850">
        <ele>428.60244999999998</ele>
        <time>2013-06-30T12:28:11Z</time>
      </trkpt>
      <trkpt lat="43.514600" lon="12.554669">
        <ele>428.75214</ele>
        <time>2013-06-30T12:28:13Z</time>
      </trkpt>
      <trkpt lat="43.514890" lon="12.554710">
        <ele>429.03564</ele>
        <time>2013-06-30T12:28:17Z</time>
      </trkpt>
      <trkpt lat="43.514930" lon="12.555110">
        <ele>429.29764</ele>
        <time>2013-06-30T12:28:21Z</time>
      </trkpt>
      <trkpt lat="43.514809" lon="12.555730">
        <ele>430.34433000000001</ele>
        <time>2013-06-30T12:28:27Z</time>
      </trkpt>
      <trkpt lat="43.514689" lon="12.556959">
        <ele>432.07278000000002</ele>
        <time>2013-06-30T12:28:39Z</time>
      </trkpt>
      <trkpt lat="43.514679" lon="12.557020">
        <ele>432.20245</ele>
        <time>2013-06-30T12:28:40Z</time>
      </trkpt>
      <trkpt lat="43.514700" lon="12.557159">
        <ele>432.33364999999998</ele>
        <time>2013-06-30T12:28:41Z</time>
      </trkpt>
      <trkpt lat="43.514830" lon="12.557459">
        <ele>432.87545999999998</ele>
        <time>2013-06-30T12:28:45Z</time>
      </trkpt>
      <trkpt lat="43.515120" lon="12.557730">
        <ele>433.47357</ele>
        <time>2013-06-30T12:28:49Z</time>
      </trkpt>
      <trkpt lat="43.515260" lon="12.558070">
        <ele>434.13781999999998</ele>
        <time>2013-06-30T12:28:53Z</time>
      </trkpt>
      <trkpt lat="43.515299" lon="12.558019">
        <ele>434.31963999999999</ele>
        <time>2013-06-30T12:28:54Z</time>
      </trkpt>
      <trkpt lat="43.515239" lon="12.556780">
        <ele>436.97165000000001</ele>
        <time>2013-06-30T12:29:06Z</time>
      </trkpt>
      <trkpt lat="43.515220" lon="12.556360">
        <ele>437.88353999999998</ele>
        <time>2013-06-30T12:29:10Z</time>
      </trkpt>
      <trkpt lat="43.515250" lon="12.556009">
        <ele>438.42266999999998</ele>
        <time>2013-06-30T12:29:13Z</time>
      </trkpt>
      <trkpt lat="43.515330" lon="12.555849">
        <ele>438.71312999999998</ele>
        <time>2013-06-30T12:29:15Z</time>
      </trkpt>
      <trkpt lat="43.515390" lon="12.555819">
        <ele>438.83767999999998</ele>
        <time>2013-06-30T12:29:16Z</time>
      </trkpt>
      <trkpt lat="43.516140" lon="12.555730">
        <ele>440.57404000000002</ele>
        <time>2013-06-30T12:29:26Z</time>
      </trkpt>
      <trkpt lat="43.516429" lon="12.555719">
        <ele>441.54376000000002</ele>
        <time>2013-06-30T12:29:30Z</time>
      </trkpt>
      <trkpt lat="43.516649" lon="12.555449">
        <ele>442.57190000000003</ele>
        <time>2013-06-30T12:29:34Z</time>
      </trkpt>
      <trkpt lat="43.517279" lon="12.555119">
        <ele>444.87801999999999</ele>
        <time>2013-06-30T12:29:43Z</time>
      </trkpt>
      <trkpt lat="43.517390" lon="12.555180">
        <ele>445.19580000000002</ele>
        <time>2013-06-30T12:29:44Z</time>
      </trkpt>
      <trkpt lat="43.517509" lon="12.555619">
        <ele>446.98056000000003</ele>
        <time>2013-06-30T12:29:49Z</time>
      </trkpt>
      <trkpt lat="43.517609" lon="12.555749">
        <ele>447.66147000000001</ele>
        <time>2013-06-30T12:29:51Z</time>
      </trkpt>
      <trkpt lat="43.517709" lon="12.555790">
        <ele>447.99292000000003</ele>
        <time>2013-06-30T12:29:52Z</time>
      </trkpt>
      <trkpt lat="43.517899" lon="12.555749">
        <ele>448.96341000000001</ele>
        <time>2013-06-30T12:29:55Z</time>
      </trkpt>
      <trkpt lat="43.518189" lon="12.555570">
        <ele>450.26519999999999</ele>
        <time>2013-06-30T12:29:59Z</time>
      </trkpt>
      <trkpt lat="43.518270" lon="12.555419">
        <ele>450.92626999999999</ele>
        <time>2013-06-30T12:30:01Z</time>
      </trkpt>
      <trkpt lat="43.518429" lon="12.554899">
        <ele>452.58884</ele>
        <time>2013-06-30T12:30:06Z</time>
      </trkpt>
      <trkpt lat="43.518619" lon="12.554689">
        <ele>453.89093000000003</ele>
        <time>2013-06-30T12:30:10Z</time>
      </trkpt>
      <trkpt lat="43.518819" lon="12.554620">
        <ele>454.52755999999999</ele>
        <time>2013-06-30T12:30:12Z</time>
      </trkpt>
      <trkpt lat="43.518970" lon="12.554659">
        <ele>455.16109999999998</ele>
        <time>2013-06-30T12:30:14Z</time>
      </trkpt>
      <trkpt lat="43.519430" lon="12.555010">
        <ele>457.40622000000002</ele>
        <time>2013-06-30T12:30:21Z</time>
      </trkpt>
      <trkpt lat="43.519660" lon="12.555129">
        <ele>458.77749999999997</ele>
        <time>2013-06-30T12:30:25Z</time>
      </trkpt>
      <trkpt lat="43.519750" lon="12.555129">
        <ele>459.13159000000002</ele>
        <time>2013-06-30T12:30:26Z</time>
      </trkpt>
      <trkpt lat="43.519860" lon="12.555110">
        <ele>459.51058999999998</ele>
        <time>2013-06-30T12:30:27Z</time>
      </trkpt>
      <trkpt lat="43.520299" lon="12.554850">
        <ele>462.32400999999999</ele>
        <time>2013-06-30T12:30:34Z</time>
      </trkpt>
      <trkpt lat="43.520610" lon="12.554840">
        <ele>463.82819000000001</ele>
        <time>2013-06-30T12:30:38Z</time>
      </trkpt>
      <trkpt lat="43.520889" lon="12.554629">
        <ele>465.24930000000001</ele>
        <time>2013-06-30T12:30:42Z</time>
      </trkpt>
      <trkpt lat="43.521140" lon="12.554309">
        <ele>466.95816000000002</ele>
        <time>2013-06-30T12:30:47Z</time>
      </trkpt>
      <trkpt lat="43.521270" lon="12.554250">
        <ele>467.65100000000001</ele>
        <time>2013-06-30T12:30:49Z</time>
      </trkpt>
      <trkpt lat="43.521449" lon="12.554280">
        <ele>468.41867000000002</ele>
        <time>2013-06-30T12:30:51Z</time>
      </trkpt>
      <trkpt lat="43.521639" lon="12.554399">
        <ele>469.60153000000003</ele>
        <time>2013-06-30T12:30:54Z</time>
      </trkpt>
      <trkpt lat="43.521830" lon="12.554910">
        <ele>471.47595000000001</ele>
        <time>2013-06-30T12:30:59Z</time>
      </trkpt>
      <trkpt lat="43.522020" lon="12.555210">
        <ele>472.98955999999998</ele>
        <time>2013-06-30T12:31:03Z</time>
      </trkpt>
      <trkpt lat="43.522340" lon="12.555410">
        <ele>475.00319999999999</ele>
        <time>2013-06-30T12:31:08Z</time>
      </trkpt>
      <trkpt lat="43.522520" lon="12.555400">
        <ele>475.80315999999999</ele>
        <time>2013-06-30T12:31:10Z</time>
      </trkpt>
      <trkpt lat="43.522699" lon="12.555210">
        <ele>477.00774999999999</ele>
        <time>2013-06-30T12:31:13Z</time>
      </trkpt>
      <trkpt lat="43.522729" lon="12.554899">
        <ele>478.23691000000002</ele>
        <time>2013-06-30T12:31:16Z</time>
      </trkpt>
      <trkpt lat="43.522800" lon="12.554740">
        <ele>479.05988000000002</ele>
        <time>2013-06-30T12:31:18Z</time>
      </trkpt>
      <trkpt lat="43.523279" lon="12.554230">
        <ele>482.39569</ele>
        <time>2013-06-30T12:31:26Z</time>
      </trkpt>
      <trkpt lat="43.523390" lon="12.554020">
        <ele>483.68804999999998</ele>
        <time>2013-06-30T12:31:29Z</time>
      </trkpt>
      <trkpt lat="43.523590" lon="12.553470">
        <ele>486.40120999999999</ele>
        <time>2013-06-30T12:31:35Z</time>
      </trkpt>
      <trkpt lat="43.523890" lon="12.553040">
        <ele>489.07440000000003</ele>
        <time>2013-06-30T12:31:41Z</time>
      </trkpt>
      <trkpt lat="43.524369" lon="12.552090">
        <ele>494.22555999999997</ele>
        <time>2013-06-30T12:31:52Z</time>
      </trkpt>
      <trkpt lat="43.524689" lon="12.550929">
        <ele>500.0582</ele>
        <time>2013-06-30T12:32:04Z</time>
      </trkpt>
      <trkpt lat="43.524710" lon="12.550859">
        <ele>500.52456999999998</ele>
        <time>2013-06-30T12:32:05Z</time>
      </trkpt>
      <trkpt lat="43.524949" lon="12.550299">
        <ele>503.69826999999998</ele>
        <time>2013-06-30T12:32:12Z</time>
      </trkpt>
      <trkpt lat="43.525210" lon="12.549109">
        <ele>509.45492999999999</ele>
        <time>2013-06-30T12:32:24Z</time>
      </trkpt>
      <trkpt lat="43.525310" lon="12.548659">
        <ele>511.41858000000002</ele>
        <time>2013-06-30T12:32:28Z</time>
      </trkpt>
      <trkpt lat="43.525489" lon="12.548120">
        <ele>514.40259000000003</ele>
        <time>2013-06-30T12:32:34Z</time>
      </trkpt>
      <trkpt lat="43.525969" lon="12.547079">
        <ele>520.61608999999999</ele>
        <time>2013-06-30T12:32:46Z</time>
      </trkpt>
      <trkpt lat="43.526150" lon="12.546689">
        <ele>523.24274000000003</ele>
        <time>2013-06-30T12:32:51Z</time>
      </trkpt>
      <trkpt lat="43.526309" lon="12.546429">
        <ele>524.81804999999997</ele>
        <time>2013-06-30T12:32:54Z</time>
      </trkpt>
      <trkpt lat="43.526620" lon="12.546110">
        <ele>527.39832000000001</ele>
        <time>2013-06-30T12:32:59Z</time>
      </trkpt>
      <trkpt lat="43.526810" lon="12.545809">
        <ele>529.45672999999999</ele>
        <time>2013-06-30T12:33:03Z</time>
      </trkpt>
      <trkpt lat="43.526959" lon="12.545479">
        <ele>531.71807999999999</ele>
        <time>2013-06-30T12:33:07Z</time>
      </trkpt>
      <trkpt lat="43.527319" lon="12.544340">
        <ele>538.56732</ele>
        <time>2013-06-30T12:33:19Z</time>
      </trkpt>
      <trkpt lat="43.527400" lon="12.544089">
        <ele>539.66412000000003</ele>
        <time>2013-06-30T12:33:21Z</time>
      </trkpt>
      <trkpt lat="43.527509" lon="12.543880">
        <ele>541.36584000000005</ele>
        <time>2013-06-30T12:33:24Z</time>
      </trkpt>
      <trkpt lat="43.527319" lon="12.544949">
        <ele>547.46227999999996</ele>
        <time>2013-06-30T12:33:34Z</time>
      </trkpt>
      <trkpt lat="43.527219" lon="12.545939">
        <ele>553.51526000000001</ele>
        <time>2013-06-30T12:33:44Z</time>
      </trkpt>
      <trkpt lat="43.527140" lon="12.546220">
        <ele>555.27679000000001</ele>
        <time>2013-06-30T12:33:47Z</time>
      </trkpt>
      <trkpt lat="43.526850" lon="12.546749">
        <ele>558.93610000000001</ele>
        <time>2013-06-30T12:33:54Z</time>
      </trkpt>
      <trkpt lat="43.526710" lon="12.547319">
        <ele>561.49359000000004</ele>
        <time>2013-06-30T12:33:59Z</time>
      </trkpt>
      <trkpt lat="43.526689" lon="12.547599">
        <ele>563.06879000000004</ele>
        <time>2013-06-30T12:34:02Z</time>
      </trkpt>
      <trkpt lat="43.526720" lon="12.548029">
        <ele>565.23279000000002</ele>
        <time>2013-06-30T12:34:06Z</time>
      </trkpt>
      <trkpt lat="43.526420" lon="12.548989">
        <ele>571.05547999999999</ele>
        <time>2013-06-30T12:34:16Z</time>
      </trkpt>
      <trkpt lat="43.526309" lon="12.549950">
        <ele>577.15099999999995</ele>
        <time>2013-06-30T12:34:26Z</time>
      </trkpt>
      <trkpt lat="43.526329" lon="12.550450">
        <ele>580.18322999999998</ele>
        <time>2013-06-30T12:34:31Z</time>
      </trkpt>
      <trkpt lat="43.526539" lon="12.551389">
        <ele>585.74090999999999</ele>
        <time>2013-06-30T12:34:40Z</time>
      </trkpt>
      <trkpt lat="43.526699" lon="12.551979">
        <ele>589.44359999999995</ele>
        <time>2013-06-30T12:34:46Z</time>
      </trkpt>
      <trkpt lat="43.526769" lon="12.552079">
        <ele>590.63495</ele>
        <time>2013-06-30T12:34:48Z</time>
      </trkpt>
      <trkpt lat="43.526859" lon="12.552090">
        <ele>591.21862999999996</ele>
        <time>2013-06-30T12:34:49Z</time>
      </trkpt>
      <trkpt lat="43.526929" lon="12.551890">
        <ele>592.37476000000004</ele>
        <time>2013-06-30T12:34:51Z</time>
      </trkpt>
      <trkpt lat="43.527049" lon="12.550729">
        <ele>598.91156000000001</ele>
        <time>2013-06-30T12:35:02Z</time>
      </trkpt>
      <trkpt lat="43.527259" lon="12.549530">
        <ele>606.26031</ele>
        <time>2013-06-30T12:35:14Z</time>
      </trkpt>
      <trkpt lat="43.527310" lon="12.549270">
        <ele>608.11639000000002</ele>
        <time>2013-06-30T12:35:17Z</time>
      </trkpt>
      <trkpt lat="43.527730" lon="12.548169">
        <ele>615.20177999999999</ele>
        <time>2013-06-30T12:35:29Z</time>
      </trkpt>
      <trkpt lat="43.527890" lon="12.547750">
        <ele>617.57941000000005</ele>
        <time>2013-06-30T12:35:33Z</time>
      </trkpt>
      <trkpt lat="43.528150" lon="12.547330">
        <ele>621.17400999999995</ele>
        <time>2013-06-30T12:35:39Z</time>
      </trkpt>
      <trkpt lat="43.528169" lon="12.547109">
        <ele>622.41632000000004</ele>
        <time>2013-06-30T12:35:41Z</time>
      </trkpt>
      <trkpt lat="43.528120" lon="12.546719">
        <ele>625.10199</ele>
        <time>2013-06-30T12:35:45Z</time>
      </trkpt>
      <trkpt lat="43.528179" lon="12.546480">
        <ele>626.50580000000002</ele>
        <time>2013-06-30T12:35:47Z</time>
      </trkpt>
      <trkpt lat="43.528369" lon="12.546280">
        <ele>629.28345000000002</ele>
        <time>2013-06-30T12:35:51Z</time>
      </trkpt>
      <trkpt lat="43.528959" lon="12.545999">
        <ele>634.71509000000003</ele>
        <time>2013-06-30T12:35:59Z</time>
      </trkpt>
      <trkpt lat="43.529200" lon="12.545939">
        <ele>636.73797999999999</ele>
        <time>2013-06-30T12:36:02Z</time>
      </trkpt>
      <trkpt lat="43.529259" lon="12.546010">
        <ele>637.40448000000004</ele>
        <time>2013-06-30T12:36:03Z</time>
      </trkpt>
      <trkpt lat="43.529219" lon="12.546180">
        <ele>638.72497999999996</ele>
        <time>2013-06-30T12:36:05Z</time>
      </trkpt>
      <trkpt lat="43.528899" lon="12.546410">
        <ele>641.95366999999999</ele>
        <time>2013-06-30T12:36:10Z</time>
      </trkpt>
      <trkpt lat="43.528710" lon="12.546649">
        <ele>643.94897000000003</ele>
        <time>2013-06-30T12:36:13Z</time>
      </trkpt>
      <trkpt lat="43.528629" lon="12.546949">
        <ele>645.96605999999997</ele>
        <time>2013-06-30T12:36:16Z</time>
      </trkpt>
      <trkpt lat="43.528710" lon="12.547990">
        <ele>652.81542999999999</ele>
        <time>2013-06-30T12:36:26Z</time>
      </trkpt>
      <trkpt lat="43.528620" lon="12.548580">
        <ele>656.71331999999995</ele>
        <time>2013-06-30T12:36:32Z</time>
      </trkpt>
      <trkpt lat="43.528520" lon="12.549130">
        <ele>660.90088000000003</ele>
        <time>2013-06-30T12:36:38Z</time>
      </trkpt>
      <trkpt lat="43.528559" lon="12.549560">
        <ele>663.79480000000001</ele>
        <time>2013-06-30T12:36:42Z</time>
      </trkpt>
      <trkpt lat="43.528439" lon="12.550269">
        <ele>668.64661000000001</ele>
        <time>2013-06-30T12:36:49Z</time>
      </trkpt>
      <trkpt lat="43.528429" lon="12.550540">
        <ele>669.96929999999998</ele>
        <time>2013-06-30T12:36:51Z</time>
      </trkpt>
      <trkpt lat="43.528710" lon="12.551720">
        <ele>678.32227</ele>
        <time>2013-06-30T12:37:03Z</time>
      </trkpt>
      <trkpt lat="43.528859" lon="12.552329">
        <ele>683.46898999999996</ele>
        <time>2013-06-30T12:37:10Z</time>
      </trkpt>
      <trkpt lat="43.528810" lon="12.553570">
        <ele>692.2287</ele>
        <time>2013-06-30T12:37:22Z</time>
      </trkpt>
      <trkpt lat="43.528799" lon="12.553749">
        <ele>693.56628000000001</ele>
        <time>2013-06-30T12:37:24Z</time>
      </trkpt>
      <trkpt lat="43.528859" lon="12.554329">
        <ele>696.92211999999995</ele>
        <time>2013-06-30T12:37:29Z</time>
      </trkpt>
      <trkpt lat="43.528699" lon="12.555159">
        <ele>703.11803999999995</ele>
        <time>2013-06-30T12:37:38Z</time>
      </trkpt>
      <trkpt lat="43.528680" lon="12.555570">
        <ele>705.76147000000003</ele>
        <time>2013-06-30T12:37:42Z</time>
      </trkpt>
      <trkpt lat="43.528680" lon="12.555919">
        <ele>707.78876000000002</ele>
        <time>2013-06-30T12:37:45Z</time>
      </trkpt>
      <trkpt lat="43.528739" lon="12.556330">
        <ele>710.56395999999995</ele>
        <time>2013-06-30T12:37:49Z</time>
      </trkpt>
      <trkpt lat="43.528799" lon="12.556439">
        <ele>711.26940999999999</ele>
        <time>2013-06-30T12:37:50Z</time>
      </trkpt>
      <trkpt lat="43.528880" lon="12.556420">
        <ele>711.98113999999998</ele>
        <time>2013-06-30T12:37:51Z</time>
      </trkpt>
      <trkpt lat="43.529119" lon="12.555459">
        <ele>719.41907000000003</ele>
        <time>2013-06-30T12:38:01Z</time>
      </trkpt>
      <trkpt lat="43.529329" lon="12.554980">
        <ele>723.29065000000003</ele>
        <time>2013-06-30T12:38:07Z</time>
      </trkpt>
      <trkpt lat="43.529549" lon="12.554199">
        <ele>728.64948000000004</ele>
        <time>2013-06-30T12:38:15Z</time>
      </trkpt>
      <trkpt lat="43.529800" lon="12.553760">
        <ele>732.47211000000004</ele>
        <time>2013-06-30T12:38:20Z</time>
      </trkpt>
      <trkpt lat="43.530069" lon="12.552970">
        <ele>738.81182999999999</ele>
        <time>2013-06-30T12:38:29Z</time>
      </trkpt>
      <trkpt lat="43.530230" lon="12.552260">
        <ele>744.03985999999998</ele>
        <time>2013-06-30T12:38:36Z</time>
      </trkpt>
      <trkpt lat="43.530249" lon="12.551809">
        <ele>747.04803000000004</ele>
        <time>2013-06-30T12:38:40Z</time>
      </trkpt>
      <trkpt lat="43.530369" lon="12.551089">
        <ele>752.09929999999997</ele>
        <time>2013-06-30T12:38:47Z</time>
      </trkpt>
      <trkpt lat="43.530460" lon="12.550780">
        <ele>754.80426</ele>
        <time>2013-06-30T12:38:51Z</time>
      </trkpt>
      <trkpt lat="43.530739" lon="12.550069">
        <ele>759.24956999999995</ele>
        <time>2013-06-30T12:38:58Z</time>
      </trkpt>
      <trkpt lat="43.530959" lon="12.549860">
        <ele>761.6925</ele>
        <time>2013-06-30T12:39:02Z</time>
      </trkpt>
      <trkpt lat="43.531069" lon="12.549890">
        <ele>762.31890999999996</ele>
        <time>2013-06-30T12:39:03Z</time>
      </trkpt>
      <trkpt lat="43.530920" lon="12.550389">
        <ele>766.30047999999999</ele>
        <time>2013-06-30T12:39:09Z</time>
      </trkpt>
      <trkpt lat="43.530980" lon="12.550719">
        <ele>768.40692000000001</ele>
        <time>2013-06-30T12:39:12Z</time>
      </trkpt>
      <trkpt lat="43.530959" lon="12.551249">
        <ele>772.03521999999998</ele>
        <time>2013-06-30T12:39:17Z</time>
      </trkpt>
      <trkpt lat="43.531040" lon="12.552220">
        <ele>779.39264000000003</ele>
        <time>2013-06-30T12:39:27Z</time>
      </trkpt>
      <trkpt lat="43.531099" lon="12.552510">
        <ele>781.67334000000005</ele>
        <time>2013-06-30T12:39:30Z</time>
      </trkpt>
      <trkpt lat="43.531380" lon="12.553140">
        <ele>786.81622000000004</ele>
        <time>2013-06-30T12:39:37Z</time>
      </trkpt>
      <trkpt lat="43.531259" lon="12.553690">
        <ele>790.59253000000001</ele>
        <time>2013-06-30T12:39:42Z</time>
      </trkpt>
      <trkpt lat="43.531259" lon="12.554929">
        <ele>798.89813000000004</ele>
        <time>2013-06-30T12:39:54Z</time>
      </trkpt>
      <trkpt lat="43.531259" lon="12.556169">
        <ele>807.12854000000004</ele>
        <time>2013-06-30T12:40:06Z</time>
      </trkpt>
      <trkpt lat="43.531259" lon="12.556330">
        <ele>808.61010999999996</ele>
        <time>2013-06-30T12:40:08Z</time>
      </trkpt>
      <trkpt lat="43.531419" lon="12.557029">
        <ele>813.88073999999995</ele>
        <time>2013-06-30T12:40:15Z</time>
      </trkpt>
      <trkpt lat="43.531600" lon="12.557489">
        <ele>817.66228999999998</ele>
        <time>2013-06-30T12:40:20Z</time>
      </trkpt>
      <trkpt lat="43.531600" lon="12.557659">
        <ele>819.12323000000004</ele>
        <time>2013-06-30T12:40:22Z</time>
      </trkpt>
      <trkpt lat="43.531480" lon="12.558220">
        <ele>822.62414999999999</ele>
        <time>2013-06-30T12:40:27Z</time>
      </trkpt>
      <trkpt lat="43.531480" lon="12.558479">
        <ele>824.64806999999996</ele>
        <time>2013-06-30T12:40:30Z</time>
      </trkpt>
      <trkpt lat="43.531649" lon="12.559359">
        <ele>831.28594999999996</ele>
        <time>2013-06-30T12:40:39Z</time>
      </trkpt>
      <trkpt lat="43.531860" lon="12.559900">
        <ele>835.84795999999994</ele>
        <time>2013-06-30T12:40:45Z</time>
      </trkpt>
      <trkpt lat="43.531879" lon="12.560279">
        <ele>838.12114999999994</ele>
        <time>2013-06-30T12:40:48Z</time>
      </trkpt>
      <trkpt lat="43.531930" lon="12.560439">
        <ele>839.57306000000005</ele>
        <time>2013-06-30T12:40:50Z</time>
      </trkpt>
      <trkpt lat="43.532019" lon="12.560469">
        <ele>840.27637000000004</ele>
        <time>2013-06-30T12:40:51Z</time>
      </trkpt>
      <trkpt lat="43.532070" lon="12.560420">
        <ele>840.97693000000004</ele>
        <time>2013-06-30T12:40:52Z</time>
      </trkpt>
      <trkpt lat="43.532060" lon="12.560100">
        <ele>843.13629000000003</ele>
        <time>2013-06-30T12:40:55Z</time>
      </trkpt>
      <trkpt lat="43.532100" lon="12.559819">
        <ele>845.34857</ele>
        <time>2013-06-30T12:40:58Z</time>
      </trkpt>
      <trkpt lat="43.532360" lon="12.558890">
        <ele>852.54602</ele>
        <time>2013-06-30T12:41:08Z</time>
      </trkpt>
      <trkpt lat="43.532539" lon="12.558569">
        <ele>854.69794000000002</ele>
        <time>2013-06-30T12:41:11Z</time>
      </trkpt>
      <trkpt lat="43.532920" lon="12.558130">
        <ele>859.67456000000004</ele>
        <time>2013-06-30T12:41:18Z</time>
      </trkpt>
      <trkpt lat="43.533020" lon="12.557879">
        <ele>861.75207999999998</ele>
        <time>2013-06-30T12:41:21Z</time>
      </trkpt>
      <trkpt lat="43.533129" lon="12.557310">
        <ele>865.94983000000002</ele>
        <time>2013-06-30T12:41:27Z</time>
      </trkpt>
      <trkpt lat="43.533370" lon="12.556650">
        <ele>870.79303000000004</ele>
        <time>2013-06-30T12:41:34Z</time>
      </trkpt>
      <trkpt lat="43.533559" lon="12.555709">
        <ele>876.82421999999997</ele>
        <time>2013-06-30T12:41:43Z</time>
      </trkpt>
      <trkpt lat="43.533819" lon="12.555219">
        <ele>880.95025999999996</ele>
        <time>2013-06-30T12:41:49Z</time>
      </trkpt>
      <trkpt lat="43.534200" lon="12.554339">
        <ele>887.64197000000001</ele>
        <time>2013-06-30T12:41:59Z</time>
      </trkpt>
      <trkpt lat="43.534290" lon="12.554179">
        <ele>889.02788999999996</ele>
        <time>2013-06-30T12:42:01Z</time>
      </trkpt>
      <trkpt lat="43.534400" lon="12.554150">
        <ele>889.73175000000003</ele>
        <time>2013-06-30T12:42:02Z</time>
      </trkpt>
      <trkpt lat="43.534490" lon="12.554179">
        <ele>891.16156000000001</ele>
        <time>2013-06-30T12:42:04Z</time>
      </trkpt>
      <trkpt lat="43.534549" lon="12.554339">
        <ele>891.88373000000001</ele>
        <time>2013-06-30T12:42:05Z</time>
      </trkpt>
      <trkpt lat="43.534430" lon="12.554859">
        <ele>896.24994000000004</ele>
        <time>2013-06-30T12:42:11Z</time>
      </trkpt>
      <trkpt lat="43.534420" lon="12.555180">
        <ele>898.46960000000001</ele>
        <time>2013-06-30T12:42:14Z</time>
      </trkpt>
      <trkpt lat="43.534579" lon="12.556399">
        <ele>907.17737</ele>
        <time>2013-06-30T12:42:26Z</time>
      </trkpt>
      <trkpt lat="43.534590" lon="12.556439">
        <ele>907.87225000000001</ele>
        <time>2013-06-30T12:42:27Z</time>
      </trkpt>
      <trkpt lat="43.534880" lon="12.557610">
        <ele>916.35089000000005</ele>
        <time>2013-06-30T12:42:39Z</time>
      </trkpt>
      <trkpt lat="43.534899" lon="12.557689">
        <ele>917.09851000000003</ele>
        <time>2013-06-30T12:42:40Z</time>
      </trkpt>
      <trkpt lat="43.535129" lon="12.558260">
        <ele>921.46074999999996</ele>
        <time>2013-06-30T12:42:46Z</time>
      </trkpt>
      <trkpt lat="43.535220" lon="12.558260">
        <ele>922.17760999999996</ele>
        <time>2013-06-30T12:42:47Z</time>
      </trkpt>
      <trkpt lat="43.535280" lon="12.558190">
        <ele>923.61443999999995</ele>
        <time>2013-06-30T12:42:49Z</time>
      </trkpt>
      <trkpt lat="43.535280" lon="12.557670">
        <ele>927.26549999999997</ele>
        <time>2013-06-30T12:42:54Z</time>
      </trkpt>
      <trkpt lat="43.535550" lon="12.556490">
        <ele>936.13811999999996</ele>
        <time>2013-06-30T12:43:06Z</time>
      </trkpt>
      <trkpt lat="43.535580" lon="12.556330">
        <ele>936.81035999999995</ele>
        <time>2013-06-30T12:43:07Z</time>
      </trkpt>
      <trkpt lat="43.535819" lon="12.555749">
        <ele>941.51946999999996</ele>
        <time>2013-06-30T12:43:14Z</time>
      </trkpt>
      <trkpt lat="43.535919" lon="12.555630">
        <ele>942.20403999999996</ele>
        <time>2013-06-30T12:43:15Z</time>
      </trkpt>
      <trkpt lat="43.536030" lon="12.555649">
        <ele>943.58594000000005</ele>
        <time>2013-06-30T12:43:17Z</time>
      </trkpt>
      <trkpt lat="43.536079" lon="12.555740">
        <ele>944.28375000000005</ele>
        <time>2013-06-30T12:43:18Z</time>
      </trkpt>
      <trkpt lat="43.536030" lon="12.556149">
        <ele>947.09436000000005</ele>
        <time>2013-06-30T12:43:22Z</time>
      </trkpt>
      <trkpt lat="43.536040" lon="12.556460">
        <ele>949.12994000000003</ele>
        <time>2013-06-30T12:43:25Z</time>
      </trkpt>
      <trkpt lat="43.536209" lon="12.557679">
        <ele>956.92998999999998</ele>
        <time>2013-06-30T12:43:37Z</time>
      </trkpt>
      <trkpt lat="43.536209" lon="12.557700">
        <ele>956.92998999999998</ele>
        <time>2013-06-30T12:43:37Z</time>
      </trkpt>
      <trkpt lat="43.536209" lon="12.558060">
        <ele>959.58618000000001</ele>
        <time>2013-06-30T12:43:41Z</time>
      </trkpt>
      <trkpt lat="43.536360" lon="12.558729">
        <ele>963.62536999999998</ele>
        <time>2013-06-30T12:43:47Z</time>
      </trkpt>
      <trkpt lat="43.536430" lon="12.558859">
        <ele>964.98517000000004</ele>
        <time>2013-06-30T12:43:49Z</time>
      </trkpt>
      <trkpt lat="43.536520" lon="12.558829">
        <ele>965.66747999999995</ele>
        <time>2013-06-30T12:43:50Z</time>
      </trkpt>
      <trkpt lat="43.536530" lon="12.558379">
        <ele>969.14380000000006</ele>
        <time>2013-06-30T12:43:55Z</time>
      </trkpt>
      <trkpt lat="43.536639" lon="12.557830">
        <ele>972.81994999999995</ele>
        <time>2013-06-30T12:44:00Z</time>
      </trkpt>
      <trkpt lat="43.536830" lon="12.557170">
        <ele>977.80023000000006</ele>
        <time>2013-06-30T12:44:07Z</time>
      </trkpt>
      <trkpt lat="43.537359" lon="12.556169">
        <ele>985.75562000000002</ele>
        <time>2013-06-30T12:44:19Z</time>
      </trkpt>
      <trkpt lat="43.537440" lon="12.556020">
        <ele>987.05133000000001</ele>
        <time>2013-06-30T12:44:21Z</time>
      </trkpt>
      <trkpt lat="43.537559" lon="12.555860">
        <ele>988.37036000000001</ele>
        <time>2013-06-30T12:44:23Z</time>
      </trkpt>
      <trkpt lat="43.537629" lon="12.555849">
        <ele>989.03850999999997</ele>
        <time>2013-06-30T12:44:24Z</time>
      </trkpt>
      <trkpt lat="43.537670" lon="12.555930">
        <ele>989.71252000000004</ele>
        <time>2013-06-30T12:44:25Z</time>
      </trkpt>
      <trkpt lat="43.537520" lon="12.556450">
        <ele>993.15728999999999</ele>
        <time>2013-06-30T12:44:30Z</time>
      </trkpt>
      <trkpt lat="43.537499" lon="12.557010">
        <ele>997.30480999999997</ele>
        <time>2013-06-30T12:44:36Z</time>
      </trkpt>
      <trkpt lat="43.537540" lon="12.557649">
        <ele>1001.4361</ele>
        <time>2013-06-30T12:44:42Z</time>
      </trkpt>
      <trkpt lat="43.537719" lon="12.558520">
        <ele>1007.52509</ele>
        <time>2013-06-30T12:44:51Z</time>
      </trkpt>
      <trkpt lat="43.537910" lon="12.558969">
        <ele>1010.88312</ele>
        <time>2013-06-30T12:44:56Z</time>
      </trkpt>
      <trkpt lat="43.538130" lon="12.559350">
        <ele>1014.21613</ele>
        <time>2013-06-30T12:45:01Z</time>
      </trkpt>
      <trkpt lat="43.538260" lon="12.559449">
        <ele>1015.53381</ele>
        <time>2013-06-30T12:45:03Z</time>
      </trkpt>
      <trkpt lat="43.538370" lon="12.559359">
        <ele>1016.18884</ele>
        <time>2013-06-30T12:45:04Z</time>
      </trkpt>
      <trkpt lat="43.538349" lon="12.558780">
        <ele>1020.12311</ele>
        <time>2013-06-30T12:45:10Z</time>
      </trkpt>
      <trkpt lat="43.538539" lon="12.558100">
        <ele>1024.7923599999999</ele>
        <time>2013-06-30T12:45:17Z</time>
      </trkpt>
      <trkpt lat="43.538950" lon="12.557370">
        <ele>1030.9122299999999</ele>
        <time>2013-06-30T12:45:26Z</time>
      </trkpt>
      <trkpt lat="43.539109" lon="12.557189">
        <ele>1032.9082000000001</ele>
        <time>2013-06-30T12:45:29Z</time>
      </trkpt>
      <trkpt lat="43.539209" lon="12.557180">
        <ele>1033.5668900000001</ele>
        <time>2013-06-30T12:45:30Z</time>
      </trkpt>
      <trkpt lat="43.539250" lon="12.557250">
        <ele>1034.2226599999999</ele>
        <time>2013-06-30T12:45:31Z</time>
      </trkpt>
      <trkpt lat="43.539269" lon="12.557800">
        <ele>1037.5904499999999</ele>
        <time>2013-06-30T12:45:36Z</time>
      </trkpt>
      <trkpt lat="43.539459" lon="12.558360">
        <ele>1041.95605</ele>
        <time>2013-06-30T12:45:42Z</time>
      </trkpt>
      <trkpt lat="43.539780" lon="12.558780">
        <ele>1046.02136</ele>
        <time>2013-06-30T12:45:48Z</time>
      </trkpt>
      <trkpt lat="43.540059" lon="12.559350">
        <ele>1050.70544</ele>
        <time>2013-06-30T12:45:55Z</time>
      </trkpt>
      <trkpt lat="43.540639" lon="12.560300">
        <ele>1058.7040999999999</ele>
        <time>2013-06-30T12:46:07Z</time>
      </trkpt>
      <trkpt lat="43.541009" lon="12.560899">
        <ele>1063.37573</ele>
        <time>2013-06-30T12:46:14Z</time>
      </trkpt>
      <trkpt lat="43.541329" lon="12.561180">
        <ele>1066.69373</ele>
        <time>2013-06-30T12:46:19Z</time>
      </trkpt>
      <trkpt lat="43.541520" lon="12.561220">
        <ele>1068.7222899999999</ele>
        <time>2013-06-30T12:46:22Z</time>
      </trkpt>
      <trkpt lat="43.541799" lon="12.561329">
        <ele>1071.45264</ele>
        <time>2013-06-30T12:46:26Z</time>
      </trkpt>
      <trkpt lat="43.542149" lon="12.561789">
        <ele>1075.4748500000001</ele>
        <time>2013-06-30T12:46:32Z</time>
      </trkpt>
      <trkpt lat="43.542479" lon="12.562109">
        <ele>1079.26782</ele>
        <time>2013-06-30T12:46:38Z</time>
      </trkpt>
      <trkpt lat="43.542640" lon="12.562579">
        <ele>1082.49719</ele>
        <time>2013-06-30T12:46:43Z</time>
      </trkpt>
      <trkpt lat="43.542679" lon="12.563259">
        <ele>1086.4589800000001</ele>
        <time>2013-06-30T12:46:49Z</time>
      </trkpt>
      <trkpt lat="43.542779" lon="12.563519">
        <ele>1088.4476299999999</ele>
        <time>2013-06-30T12:46:52Z</time>
      </trkpt>
      <trkpt lat="43.542949" lon="12.563800">
        <ele>1091.06152</ele>
        <time>2013-06-30T12:46:56Z</time>
      </trkpt>
      <trkpt lat="43.543569" lon="12.564079">
        <ele>1096.30566</ele>
        <time>2013-06-30T12:47:04Z</time>
      </trkpt>
      <trkpt lat="43.543669" lon="12.564070">
        <ele>1097.6377</ele>
        <time>2013-06-30T12:47:06Z</time>
      </trkpt>
      <trkpt lat="43.543690" lon="12.563859">
        <ele>1098.95703</ele>
        <time>2013-06-30T12:47:08Z</time>
      </trkpt>
      <trkpt lat="43.543539" lon="12.563650">
        <ele>1100.91113</ele>
        <time>2013-06-30T12:47:11Z</time>
      </trkpt>
      <trkpt lat="43.543379" lon="12.563220">
        <ele>1103.4987799999999</ele>
        <time>2013-06-30T12:47:15Z</time>
      </trkpt>
      <trkpt lat="43.543379" lon="12.562960">
        <ele>1105.4506799999999</ele>
        <time>2013-06-30T12:47:18Z</time>
      </trkpt>
      <trkpt lat="43.543450" lon="12.562880">
        <ele>1106.1046100000001</ele>
        <time>2013-06-30T12:47:19Z</time>
      </trkpt>
      <trkpt lat="43.543529" lon="12.562890">
        <ele>1106.7601299999999</ele>
        <time>2013-06-30T12:47:20Z</time>
      </trkpt>
      <trkpt lat="43.544080" lon="12.563580">
        <ele>1113.4362799999999</ele>
        <time>2013-06-30T12:47:30Z</time>
      </trkpt>
      <trkpt lat="43.544159" lon="12.563740">
        <ele>1114.81494</ele>
        <time>2013-06-30T12:47:32Z</time>
      </trkpt>
      <trkpt lat="43.544250" lon="12.564289">
        <ele>1118.3044400000001</ele>
        <time>2013-06-30T12:47:37Z</time>
      </trkpt>
      <trkpt lat="43.544359" lon="12.564639">
        <ele>1121.07593</ele>
        <time>2013-06-30T12:47:41Z</time>
      </trkpt>
      <trkpt lat="43.544419" lon="12.564730">
        <ele>1121.7611099999999</ele>
        <time>2013-06-30T12:47:42Z</time>
      </trkpt>
      <trkpt lat="43.544549" lon="12.564779">
        <ele>1123.1084000000001</ele>
        <time>2013-06-30T12:47:44Z</time>
      </trkpt>
      <trkpt lat="43.544579" lon="12.564579">
        <ele>1124.42554</ele>
        <time>2013-06-30T12:47:46Z</time>
      </trkpt>
      <trkpt lat="43.544530" lon="12.563340">
        <ele>1132.4775400000001</ele>
        <time>2013-06-30T12:47:58Z</time>
      </trkpt>
      <trkpt lat="43.544519" lon="12.563090">
        <ele>1134.5162399999999</ele>
        <time>2013-06-30T12:48:01Z</time>
      </trkpt>
      <trkpt lat="43.544670" lon="12.562460">
        <ele>1138.5650599999999</ele>
        <time>2013-06-30T12:48:07Z</time>
      </trkpt>
      <trkpt lat="43.544689" lon="12.561989">
        <ele>1141.92383</ele>
        <time>2013-06-30T12:48:12Z</time>
      </trkpt>
      <trkpt lat="43.544670" lon="12.560750">
        <ele>1149.37122</ele>
        <time>2013-06-30T12:48:24Z</time>
      </trkpt>
      <trkpt lat="43.544670" lon="12.560569">
        <ele>1149.97046</ele>
        <time>2013-06-30T12:48:25Z</time>
      </trkpt>
      <trkpt lat="43.544640" lon="12.560260">
        <ele>1151.7771</ele>
        <time>2013-06-30T12:48:28Z</time>
      </trkpt>
      <trkpt lat="43.544470" lon="12.559559">
        <ele>1156.0811799999999</ele>
        <time>2013-06-30T12:48:35Z</time>
      </trkpt>
      <trkpt lat="43.544519" lon="12.558539">
        <ele>1162.16895</ele>
        <time>2013-06-30T12:48:45Z</time>
      </trkpt>
      <trkpt lat="43.544659" lon="12.557909">
        <ele>1166.70496</ele>
        <time>2013-06-30T12:48:52Z</time>
      </trkpt>
      <trkpt lat="43.545039" lon="12.557219">
        <ele>1172.17896</ele>
        <time>2013-06-30T12:49:00Z</time>
      </trkpt>
      <trkpt lat="43.545420" lon="12.556720">
        <ele>1176.7940699999999</ele>
        <time>2013-06-30T12:49:07Z</time>
      </trkpt>
      <trkpt lat="43.545479" lon="12.556569">
        <ele>1178.0557899999999</ele>
        <time>2013-06-30T12:49:09Z</time>
      </trkpt>
      <trkpt lat="43.545720" lon="12.555549">
        <ele>1184.7356</ele>
        <time>2013-06-30T12:49:19Z</time>
      </trkpt>
      <trkpt lat="43.545969" lon="12.554759">
        <ele>1190.6711399999999</ele>
        <time>2013-06-30T12:49:28Z</time>
      </trkpt>
      <trkpt lat="43.546089" lon="12.554179">
        <ele>1193.9390900000001</ele>
        <time>2013-06-30T12:49:33Z</time>
      </trkpt>
      <trkpt lat="43.546140" lon="12.554109">
        <ele>1194.625</ele>
        <time>2013-06-30T12:49:34Z</time>
      </trkpt>
      <trkpt lat="43.547030" lon="12.553960">
        <ele>1202.6438000000001</ele>
        <time>2013-06-30T12:49:46Z</time>
      </trkpt>
      <trkpt lat="43.547920" lon="12.553819">
        <ele>1210.49658</ele>
        <time>2013-06-30T12:49:58Z</time>
      </trkpt>
      <trkpt lat="43.548039" lon="12.553800">
        <ele>1211.83411</ele>
        <time>2013-06-30T12:50:00Z</time>
      </trkpt>
      <trkpt lat="43.548259" lon="12.553730">
        <ele>1213.8669400000001</ele>
        <time>2013-06-30T12:50:03Z</time>
      </trkpt>
      <trkpt lat="43.548329" lon="12.553660">
        <ele>1214.5194100000001</ele>
        <time>2013-06-30T12:50:04Z</time>
      </trkpt>
      <trkpt lat="43.548129" lon="12.552450">
        <ele>1221.9387200000001</ele>
        <time>2013-06-30T12:50:16Z</time>
      </trkpt>
      <trkpt lat="43.548029" lon="12.551839">
        <ele>1225.6475800000001</ele>
        <time>2013-06-30T12:50:22Z</time>
      </trkpt>
      <trkpt lat="43.548120" lon="12.551230">
        <ele>1229.38354</ele>
        <time>2013-06-30T12:50:28Z</time>
      </trkpt>
      <trkpt lat="43.548229" lon="12.550810">
        <ele>1231.79053</ele>
        <time>2013-06-30T12:50:32Z</time>
      </trkpt>
      <trkpt lat="43.548540" lon="12.550150">
        <ele>1236.50891</ele>
        <time>2013-06-30T12:50:40Z</time>
      </trkpt>
      <trkpt lat="43.548580" lon="12.549560">
        <ele>1240.09509</ele>
        <time>2013-06-30T12:50:46Z</time>
      </trkpt>
      <trkpt lat="43.548670" lon="12.549409">
        <ele>1241.3068800000001</ele>
        <time>2013-06-30T12:50:48Z</time>
      </trkpt>
      <trkpt lat="43.548729" lon="12.549439">
        <ele>1241.9122299999999</ele>
        <time>2013-06-30T12:50:49Z</time>
      </trkpt>
      <trkpt lat="43.548770" lon="12.549539">
        <ele>1242.51208</ele>
        <time>2013-06-30T12:50:50Z</time>
      </trkpt>
      <trkpt lat="43.548789" lon="12.550619">
        <ele>1248.1666299999999</ele>
        <time>2013-06-30T12:51:00Z</time>
      </trkpt>
      <trkpt lat="43.548870" lon="12.550780">
        <ele>1249.2669699999999</ele>
        <time>2013-06-30T12:51:02Z</time>
      </trkpt>
      <trkpt lat="43.549019" lon="12.550900">
        <ele>1250.3601100000001</ele>
        <time>2013-06-30T12:51:04Z</time>
      </trkpt>
      <trkpt lat="43.549230" lon="12.551200">
        <ele>1252.58923</ele>
        <time>2013-06-30T12:51:08Z</time>
      </trkpt>
      <trkpt lat="43.550120" lon="12.551330">
        <ele>1259.1461200000001</ele>
        <time>2013-06-30T12:51:20Z</time>
      </trkpt>
      <trkpt lat="43.550229" lon="12.551349">
        <ele>1260.1591800000001</ele>
        <time>2013-06-30T12:51:22Z</time>
      </trkpt>
      <trkpt lat="43.551110" lon="12.551100">
        <ele>1266.14526</ele>
        <time>2013-06-30T12:51:34Z</time>
      </trkpt>
      <trkpt lat="43.551379" lon="12.551019">
        <ele>1267.67419</ele>
        <time>2013-06-30T12:51:37Z</time>
      </trkpt>
      <trkpt lat="43.551419" lon="12.550970">
        <ele>1268.18298</ele>
        <time>2013-06-30T12:51:38Z</time>
      </trkpt>
      <trkpt lat="43.551439" lon="12.550910">
        <ele>1268.68469</ele>
        <time>2013-06-30T12:51:39Z</time>
      </trkpt>
      <trkpt lat="43.551379" lon="12.550810">
        <ele>1269.1728499999999</ele>
        <time>2013-06-30T12:51:40Z</time>
      </trkpt>
      <trkpt lat="43.551189" lon="12.550810">
        <ele>1270.5554199999999</ele>
        <time>2013-06-30T12:51:43Z</time>
      </trkpt>
      <trkpt lat="43.550529" lon="12.550420">
        <ele>1274.4748500000001</ele>
        <time>2013-06-30T12:51:52Z</time>
      </trkpt>
      <trkpt lat="43.550080" lon="12.549839">
        <ele>1277.8662099999999</ele>
        <time>2013-06-30T12:52:00Z</time>
      </trkpt>
      <trkpt lat="43.550110" lon="12.549600">
        <ele>1279.04468</ele>
        <time>2013-06-30T12:52:03Z</time>
      </trkpt>
      <trkpt lat="43.550459" lon="12.549049">
        <ele>1281.70642</ele>
        <time>2013-06-30T12:52:10Z</time>
      </trkpt>
      <trkpt lat="43.550489" lon="12.548889">
        <ele>1282.08887</ele>
        <time>2013-06-30T12:52:11Z</time>
      </trkpt>
      <trkpt lat="43.550440" lon="12.547650">
        <ele>1286.7667200000001</ele>
        <time>2013-06-30T12:52:23Z</time>
      </trkpt>
      <trkpt lat="43.550440" lon="12.547620">
        <ele>1287.17822</ele>
        <time>2013-06-30T12:52:24Z</time>
      </trkpt>
      <trkpt lat="43.550299" lon="12.547089">
        <ele>1289.23181</ele>
        <time>2013-06-30T12:52:29Z</time>
      </trkpt>
      <trkpt lat="43.550150" lon="12.546810">
        <ele>1290.85474</ele>
        <time>2013-06-30T12:52:33Z</time>
      </trkpt>
      <trkpt lat="43.550159" lon="12.546680">
        <ele>1291.2244900000001</ele>
        <time>2013-06-30T12:52:34Z</time>
      </trkpt>
      <trkpt lat="43.550250" lon="12.546659">
        <ele>1291.57275</ele>
        <time>2013-06-30T12:52:35Z</time>
      </trkpt>
      <trkpt lat="43.550499" lon="12.546900">
        <ele>1292.82068</ele>
        <time>2013-06-30T12:52:39Z</time>
      </trkpt>
      <trkpt lat="43.550959" lon="12.547109">
        <ele>1295.48633</ele>
        <time>2013-06-30T12:52:46Z</time>
      </trkpt>
      <trkpt lat="43.551669" lon="12.547599">
        <ele>1299.4788799999999</ele>
        <time>2013-06-30T12:52:56Z</time>
      </trkpt>
      <trkpt lat="43.551700" lon="12.547669">
        <ele>1299.8642600000001</ele>
        <time>2013-06-30T12:52:57Z</time>
      </trkpt>
      <trkpt lat="43.551730" lon="12.548559">
        <ele>1303.26196</ele>
        <time>2013-06-30T12:53:06Z</time>
      </trkpt>
      <trkpt lat="43.551820" lon="12.548659">
        <ele>1303.63806</ele>
        <time>2013-06-30T12:53:07Z</time>
      </trkpt>
      <trkpt lat="43.552280" lon="12.548589">
        <ele>1305.88806</ele>
        <time>2013-06-30T12:53:13Z</time>
      </trkpt>
      <trkpt lat="43.552829" lon="12.548329">
        <ele>1308.9313999999999</ele>
        <time>2013-06-30T12:53:21Z</time>
      </trkpt>
      <trkpt lat="43.552850" lon="12.548169">
        <ele>1309.6951899999999</ele>
        <time>2013-06-30T12:53:23Z</time>
      </trkpt>
      <trkpt lat="43.552799" lon="12.548120">
        <ele>1310.0770299999999</ele>
        <time>2013-06-30T12:53:24Z</time>
      </trkpt>
      <trkpt lat="43.552489" lon="12.548120">
        <ele>1311.59448</ele>
        <time>2013-06-30T12:53:28Z</time>
      </trkpt>
      <trkpt lat="43.552310" lon="12.548029">
        <ele>1312.3445999999999</ele>
        <time>2013-06-30T12:53:30Z</time>
      </trkpt>
      <trkpt lat="43.552229" lon="12.547899">
        <ele>1313.08728</ele>
        <time>2013-06-30T12:53:32Z</time>
      </trkpt>
      <trkpt lat="43.552239" lon="12.547690">
        <ele>1313.8226299999999</ele>
        <time>2013-06-30T12:53:34Z</time>
      </trkpt>
      <trkpt lat="43.552499" lon="12.547130">
        <ele>1315.9980499999999</ele>
        <time>2013-06-30T12:53:40Z</time>
      </trkpt>
      <trkpt lat="43.552540" lon="12.546399">
        <ele>1318.52576</ele>
        <time>2013-06-30T12:53:47Z</time>
      </trkpt>
      <trkpt lat="43.552510" lon="12.546269">
        <ele>1319.2591600000001</ele>
        <time>2013-06-30T12:53:49Z</time>
      </trkpt>
      <trkpt lat="43.552420" lon="12.546150">
        <ele>1319.6283000000001</ele>
        <time>2013-06-30T12:53:50Z</time>
      </trkpt>
      <trkpt lat="43.551920" lon="12.545769">
        <ele>1322.51746</ele>
        <time>2013-06-30T12:53:58Z</time>
      </trkpt>
      <trkpt lat="43.551419" lon="12.545200">
        <ele>1325.83313</ele>
        <time>2013-06-30T12:54:07Z</time>
      </trkpt>
      <trkpt lat="43.551219" lon="12.544909">
        <ele>1327.4540999999999</ele>
        <time>2013-06-30T12:54:11Z</time>
      </trkpt>
      <trkpt lat="43.551249" lon="12.544710">
        <ele>1328.2616</ele>
        <time>2013-06-30T12:54:13Z</time>
      </trkpt>
      <trkpt lat="43.551430" lon="12.544700">
        <ele>1329.06592</ele>
        <time>2013-06-30T12:54:15Z</time>
      </trkpt>
      <trkpt lat="43.551999" lon="12.544879">
        <ele>1332.2019</ele>
        <time>2013-06-30T12:54:23Z</time>
      </trkpt>
      <trkpt lat="43.552099" lon="12.544860">
        <ele>1332.5671400000001</ele>
        <time>2013-06-30T12:54:24Z</time>
      </trkpt>
      <trkpt lat="43.552510" lon="12.544640">
        <ele>1334.64795</ele>
        <time>2013-06-30T12:54:30Z</time>
      </trkpt>
      <trkpt lat="43.552750" lon="12.544310">
        <ele>1336.41895</ele>
        <time>2013-06-30T12:54:35Z</time>
      </trkpt>
      <trkpt lat="43.552989" lon="12.544250">
        <ele>1337.46558</ele>
        <time>2013-06-30T12:54:38Z</time>
      </trkpt>
      <trkpt lat="43.553340" lon="12.544410">
        <ele>1339.13672</ele>
        <time>2013-06-30T12:54:43Z</time>
      </trkpt>
      <trkpt lat="43.553460" lon="12.544400">
        <ele>1339.4599599999999</ele>
        <time>2013-06-30T12:54:44Z</time>
      </trkpt>
      <trkpt lat="43.553900" lon="12.544150">
        <ele>1341.67444</ele>
        <time>2013-06-30T12:54:51Z</time>
      </trkpt>
      <trkpt lat="43.554309" lon="12.543539">
        <ele>1344.13867</ele>
        <time>2013-06-30T12:54:59Z</time>
      </trkpt>
      <trkpt lat="43.554420" lon="12.542919">
        <ele>1345.97839</ele>
        <time>2013-06-30T12:55:05Z</time>
      </trkpt>
      <trkpt lat="43.554650" lon="12.542349">
        <ele>1348.0859399999999</ele>
        <time>2013-06-30T12:55:11Z</time>
      </trkpt>
      <trkpt lat="43.554689" lon="12.541989">
        <ele>1349.4599599999999</ele>
        <time>2013-06-30T12:55:15Z</time>
      </trkpt>
      <trkpt lat="43.554669" lon="12.541820">
        <ele>1349.8023700000001</ele>
        <time>2013-06-30T12:55:16Z</time>
      </trkpt>
      <trkpt lat="43.554490" lon="12.541299">
        <ele>1351.8457000000001</ele>
        <time>2013-06-30T12:55:22Z</time>
      </trkpt>
      <trkpt lat="43.554429" lon="12.540839">
        <ele>1353.3046899999999</ele>
        <time>2013-06-30T12:55:27Z</time>
      </trkpt>
      <trkpt lat="43.554510" lon="12.540519">
        <ele>1354.07251</ele>
        <time>2013-06-30T12:55:30Z</time>
      </trkpt>
      <trkpt lat="43.554789" lon="12.540040">
        <ele>1355.6024199999999</ele>
        <time>2013-06-30T12:55:36Z</time>
      </trkpt>
      <trkpt lat="43.554880" lon="12.539799">
        <ele>1355.96228</ele>
        <time>2013-06-30T12:55:38Z</time>
      </trkpt>
      <trkpt lat="43.554899" lon="12.538649">
        <ele>1357.8656000000001</ele>
        <time>2013-06-30T12:55:50Z</time>
      </trkpt>
      <trkpt lat="43.554680" lon="12.537840">
        <ele>1359.37024</ele>
        <time>2013-06-30T12:55:58Z</time>
      </trkpt>
      <trkpt lat="43.554499" lon="12.537540">
        <ele>1360.0716600000001</ele>
        <time>2013-06-30T12:56:02Z</time>
      </trkpt>
      <trkpt lat="43.554410" lon="12.537239">
        <ele>1360.63184</ele>
        <time>2013-06-30T12:56:05Z</time>
      </trkpt>
      <trkpt lat="43.554150" lon="12.536930">
        <ele>1361.2775899999999</ele>
        <time>2013-06-30T12:56:09Z</time>
      </trkpt>
      <trkpt lat="43.554069" lon="12.536730">
        <ele>1361.6546599999999</ele>
        <time>2013-06-30T12:56:12Z</time>
      </trkpt>
      <trkpt lat="43.554339" lon="12.535959">
        <ele>1362.39832</ele>
        <time>2013-06-30T12:56:20Z</time>
      </trkpt>
      <trkpt lat="43.554490" lon="12.535670">
        <ele>1362.6165800000001</ele>
        <time>2013-06-30T12:56:23Z</time>
      </trkpt>
      <trkpt lat="43.554780" lon="12.534920">
        <ele>1363.12122</ele>
        <time>2013-06-30T12:56:32Z</time>
      </trkpt>
      <trkpt lat="43.554819" lon="12.534699">
        <ele>1363.2385300000001</ele>
        <time>2013-06-30T12:56:34Z</time>
      </trkpt>
      <trkpt lat="43.554799" lon="12.534230">
        <ele>1363.48828</ele>
        <time>2013-06-30T12:56:38Z</time>
      </trkpt>
      <trkpt lat="43.554669" lon="12.533810">
        <ele>1363.7519500000001</ele>
        <time>2013-06-30T12:56:43Z</time>
      </trkpt>
      <trkpt lat="43.554429" lon="12.533429">
        <ele>1363.8864699999999</ele>
        <time>2013-06-30T12:56:48Z</time>
      </trkpt>
      <trkpt lat="43.554280" lon="12.532860">
        <ele>1364.0410199999999</ele>
        <time>2013-06-30T12:56:54Z</time>
      </trkpt>
      <trkpt lat="43.554079" lon="12.531649">
        <ele>1364.17273</ele>
        <time>2013-06-30T12:57:06Z</time>
      </trkpt>
      <trkpt lat="43.554079" lon="12.531649">
        <ele>1364.17273</ele>
        <time>2013-06-30T12:57:06Z</time>
      </trkpt>
      <trkpt lat="43.553950" lon="12.531080">
        <ele>1364.1612500000001</ele>
        <time>2013-06-30T12:57:11Z</time>
      </trkpt>
      <trkpt lat="43.553920" lon="12.530760">
        <ele>1364.13391</ele>
        <time>2013-06-30T12:57:14Z</time>
      </trkpt>
      <trkpt lat="43.553800" lon="12.530539">
        <ele>1364.0788600000001</ele>
        <time>2013-06-30T12:57:17Z</time>
      </trkpt>
      <trkpt lat="43.553630" lon="12.530349">
        <ele>1363.9908399999999</ele>
        <time>2013-06-30T12:57:20Z</time>
      </trkpt>
      <trkpt lat="43.553560" lon="12.530179">
        <ele>1363.91113</ele>
        <time>2013-06-30T12:57:22Z</time>
      </trkpt>
      <trkpt lat="43.553200" lon="12.529050">
        <ele>1363.0095200000001</ele>
        <time>2013-06-30T12:57:34Z</time>
      </trkpt>
      <trkpt lat="43.553119" lon="12.528810">
        <ele>1362.7978499999999</ele>
        <time>2013-06-30T12:57:36Z</time>
      </trkpt>
      <trkpt lat="43.553170" lon="12.528590">
        <ele>1362.5217299999999</ele>
        <time>2013-06-30T12:57:39Z</time>
      </trkpt>
      <trkpt lat="43.553449" lon="12.528350">
        <ele>1362.16858</ele>
        <time>2013-06-30T12:57:43Z</time>
      </trkpt>
      <trkpt lat="43.553609" lon="12.527689">
        <ele>1361.36292</ele>
        <time>2013-06-30T12:57:50Z</time>
      </trkpt>
      <trkpt lat="43.553660" lon="12.526759">
        <ele>1359.94714</ele>
        <time>2013-06-30T12:57:59Z</time>
      </trkpt>
      <trkpt lat="43.554069" lon="12.525660">
        <ele>1358.12195</ele>
        <time>2013-06-30T12:58:11Z</time>
      </trkpt>
      <trkpt lat="43.554320" lon="12.525010">
        <ele>1357.10681</ele>
        <time>2013-06-30T12:58:18Z</time>
      </trkpt>
      <trkpt lat="43.554559" lon="12.524329">
        <ele>1355.9720500000001</ele>
        <time>2013-06-30T12:58:25Z</time>
      </trkpt>
      <trkpt lat="43.554840" lon="12.523149">
        <ele>1353.91553</ele>
        <time>2013-06-30T12:58:37Z</time>
      </trkpt>
      <trkpt lat="43.554919" lon="12.522799">
        <ele>1353.2421899999999</ele>
        <time>2013-06-30T12:58:41Z</time>
      </trkpt>
      <trkpt lat="43.554799" lon="12.521869">
        <ele>1351.3811000000001</ele>
        <time>2013-06-30T12:58:50Z</time>
      </trkpt>
      <trkpt lat="43.554829" lon="12.521260">
        <ele>1349.7995599999999</ele>
        <time>2013-06-30T12:58:56Z</time>
      </trkpt>
      <trkpt lat="43.555119" lon="12.520090">
        <ele>1346.5581099999999</ele>
        <time>2013-06-30T12:59:08Z</time>
      </trkpt>
      <trkpt lat="43.555270" lon="12.519460">
        <ele>1345.0667699999999</ele>
        <time>2013-06-30T12:59:14Z</time>
      </trkpt>
      <trkpt lat="43.555519" lon="12.518770">
        <ele>1342.9953599999999</ele>
        <time>2013-06-30T12:59:22Z</time>
      </trkpt>
      <trkpt lat="43.555519" lon="12.518080">
        <ele>1341.16003</ele>
        <time>2013-06-30T12:59:28Z</time>
      </trkpt>
      <trkpt lat="43.555349" lon="12.518050">
        <ele>1340.1690699999999</ele>
        <time>2013-06-30T12:59:31Z</time>
      </trkpt>
      <trkpt lat="43.555259" lon="12.517910">
        <ele>1339.48425</ele>
        <time>2013-06-30T12:59:33Z</time>
      </trkpt>
      <trkpt lat="43.554859" lon="12.516800">
        <ele>1335.16956</ele>
        <time>2013-06-30T12:59:45Z</time>
      </trkpt>
      <trkpt lat="43.554520" lon="12.515890">
        <ele>1331.78845</ele>
        <time>2013-06-30T12:59:54Z</time>
      </trkpt>
      <trkpt lat="43.554499" lon="12.515690">
        <ele>1330.98352</ele>
        <time>2013-06-30T12:59:56Z</time>
      </trkpt>
      <trkpt lat="43.554589" lon="12.515560">
        <ele>1330.1556399999999</ele>
        <time>2013-06-30T12:59:58Z</time>
      </trkpt>
      <trkpt lat="43.554750" lon="12.515569">
        <ele>1329.35193</ele>
        <time>2013-06-30T13:00:00Z</time>
      </trkpt>
      <trkpt lat="43.554910" lon="12.515859">
        <ele>1327.8308099999999</ele>
        <time>2013-06-30T13:00:04Z</time>
      </trkpt>
      <trkpt lat="43.555029" lon="12.515910">
        <ele>1327.4730199999999</ele>
        <time>2013-06-30T13:00:05Z</time>
      </trkpt>
      <trkpt lat="43.555149" lon="12.515859">
        <ele>1326.7910199999999</ele>
        <time>2013-06-30T13:00:07Z</time>
      </trkpt>
      <trkpt lat="43.555210" lon="12.515629">
        <ele>1325.7326700000001</ele>
        <time>2013-06-30T13:00:10Z</time>
      </trkpt>
      <trkpt lat="43.555059" lon="12.514410">
        <ele>1320.96838</ele>
        <time>2013-06-30T13:00:22Z</time>
      </trkpt>
      <trkpt lat="43.555040" lon="12.514270">
        <ele>1320.55493</ele>
        <time>2013-06-30T13:00:23Z</time>
      </trkpt>
      <trkpt lat="43.554840" lon="12.514059">
        <ele>1319.3319100000001</ele>
        <time>2013-06-30T13:00:26Z</time>
      </trkpt>
      <trkpt lat="43.554589" lon="12.514040">
        <ele>1317.6859099999999</ele>
        <time>2013-06-30T13:00:30Z</time>
      </trkpt>
      <trkpt lat="43.554429" lon="12.514229">
        <ele>1316.7876000000001</ele>
        <time>2013-06-30T13:00:32Z</time>
      </trkpt>
      <trkpt lat="43.554139" lon="12.514819">
        <ele>1313.6716300000001</ele>
        <time>2013-06-30T13:00:39Z</time>
      </trkpt>
      <trkpt lat="43.553990" lon="12.515030">
        <ele>1312.34521</ele>
        <time>2013-06-30T13:00:42Z</time>
      </trkpt>
      <trkpt lat="43.553519" lon="12.515550">
        <ele>1308.23181</ele>
        <time>2013-06-30T13:00:50Z</time>
      </trkpt>
      <trkpt lat="43.552859" lon="12.516389">
        <ele>1303.0441900000001</ele>
        <time>2013-06-30T13:01:02Z</time>
      </trkpt>
      <trkpt lat="43.552650" lon="12.516659">
        <ele>1301.3769500000001</ele>
        <time>2013-06-30T13:01:06Z</time>
      </trkpt>
      <trkpt lat="43.552120" lon="12.517179">
        <ele>1297.14355</ele>
        <time>2013-06-30T13:01:15Z</time>
      </trkpt>
      <trkpt lat="43.551600" lon="12.518189">
        <ele>1292.31396</ele>
        <time>2013-06-30T13:01:27Z</time>
      </trkpt>
      <trkpt lat="43.551079" lon="12.519200">
        <ele>1287.15308</ele>
        <time>2013-06-30T13:01:39Z</time>
      </trkpt>
      <trkpt lat="43.550729" lon="12.519869">
        <ele>1283.41724</ele>
        <time>2013-06-30T13:01:47Z</time>
      </trkpt>
      <trkpt lat="43.550529" lon="12.520039">
        <ele>1282.06799</ele>
        <time>2013-06-30T13:01:50Z</time>
      </trkpt>
      <trkpt lat="43.550369" lon="12.520039">
        <ele>1281.18848</ele>
        <time>2013-06-30T13:01:52Z</time>
      </trkpt>
      <trkpt lat="43.550239" lon="12.519969">
        <ele>1280.3249499999999</ele>
        <time>2013-06-30T13:01:54Z</time>
      </trkpt>
      <trkpt lat="43.550120" lon="12.519820">
        <ele>1279.48352</ele>
        <time>2013-06-30T13:01:56Z</time>
      </trkpt>
      <trkpt lat="43.550060" lon="12.519579">
        <ele>1278.67004</ele>
        <time>2013-06-30T13:01:58Z</time>
      </trkpt>
      <trkpt lat="43.550190" lon="12.518359">
        <ele>1273.7110600000001</ele>
        <time>2013-06-30T13:02:10Z</time>
      </trkpt>
      <trkpt lat="43.550269" lon="12.517680">
        <ele>1270.3644999999999</ele>
        <time>2013-06-30T13:02:17Z</time>
      </trkpt>
      <trkpt lat="43.550519" lon="12.516489">
        <ele>1264.5383300000001</ele>
        <time>2013-06-30T13:02:29Z</time>
      </trkpt>
      <trkpt lat="43.550589" lon="12.516170">
        <ele>1263.1763900000001</ele>
        <time>2013-06-30T13:02:32Z</time>
      </trkpt>
      <trkpt lat="43.550680" lon="12.515929">
        <ele>1261.84277</ele>
        <time>2013-06-30T13:02:35Z</time>
      </trkpt>
      <trkpt lat="43.551110" lon="12.515139">
        <ele>1257.28333</ele>
        <time>2013-06-30T13:02:44Z</time>
      </trkpt>
      <trkpt lat="43.551430" lon="12.513980">
        <ele>1250.5184300000001</ele>
        <time>2013-06-30T13:02:56Z</time>
      </trkpt>
      <trkpt lat="43.551539" lon="12.513560">
        <ele>1247.7226599999999</ele>
        <time>2013-06-30T13:03:01Z</time>
      </trkpt>
      <trkpt lat="43.551530" lon="12.513460">
        <ele>1247.1593</ele>
        <time>2013-06-30T13:03:02Z</time>
      </trkpt>
      <trkpt lat="43.551449" lon="12.513330">
        <ele>1246.5943600000001</ele>
        <time>2013-06-30T13:03:03Z</time>
      </trkpt>
      <trkpt lat="43.551319" lon="12.513260">
        <ele>1245.46045</ele>
        <time>2013-06-30T13:03:05Z</time>
      </trkpt>
      <trkpt lat="43.551170" lon="12.513309">
        <ele>1244.3256799999999</ele>
        <time>2013-06-30T13:03:07Z</time>
      </trkpt>
      <trkpt lat="43.551019" lon="12.513699">
        <ele>1241.50659</ele>
        <time>2013-06-30T13:03:12Z</time>
      </trkpt>
      <trkpt lat="43.550970" lon="12.513739">
        <ele>1240.94226</ele>
        <time>2013-06-30T13:03:13Z</time>
      </trkpt>
      <trkpt lat="43.550829" lon="12.513750">
        <ele>1239.8084699999999</ele>
        <time>2013-06-30T13:03:15Z</time>
      </trkpt>
      <trkpt lat="43.550710" lon="12.513590">
        <ele>1238.6680899999999</ele>
        <time>2013-06-30T13:03:17Z</time>
      </trkpt>
      <trkpt lat="43.550689" lon="12.513499">
        <ele>1238.09509</ele>
        <time>2013-06-30T13:03:18Z</time>
      </trkpt>
      <trkpt lat="43.550749" lon="12.513309">
        <ele>1236.9458</ele>
        <time>2013-06-30T13:03:20Z</time>
      </trkpt>
      <trkpt lat="43.551309" lon="12.512340">
        <ele>1230.00281</ele>
        <time>2013-06-30T13:03:32Z</time>
      </trkpt>
      <trkpt lat="43.551330" lon="12.512300">
        <ele>1229.4245599999999</ele>
        <time>2013-06-30T13:03:33Z</time>
      </trkpt>
      <trkpt lat="43.551330" lon="12.512029">
        <ele>1228.2697800000001</ele>
        <time>2013-06-30T13:03:35Z</time>
      </trkpt>
      <trkpt lat="43.551240" lon="12.511799">
        <ele>1226.5413799999999</ele>
        <time>2013-06-30T13:03:38Z</time>
      </trkpt>
      <trkpt lat="43.551219" lon="12.511639">
        <ele>1225.3906300000001</ele>
        <time>2013-06-30T13:03:40Z</time>
      </trkpt>
      <trkpt lat="43.551539" lon="12.510820">
        <ele>1219.9631300000001</ele>
        <time>2013-06-30T13:03:49Z</time>
      </trkpt>
      <trkpt lat="43.551519" lon="12.510210">
        <ele>1216.3438699999999</ele>
        <time>2013-06-30T13:03:55Z</time>
      </trkpt>
      <trkpt lat="43.551200" lon="12.509050">
        <ele>1208.4643599999999</ele>
        <time>2013-06-30T13:04:07Z</time>
      </trkpt>
      <trkpt lat="43.551079" lon="12.508590">
        <ele>1205.70667</ele>
        <time>2013-06-30T13:04:11Z</time>
      </trkpt>
      <trkpt lat="43.550949" lon="12.508319">
        <ele>1203.5979</ele>
        <time>2013-06-30T13:04:14Z</time>
      </trkpt>
      <trkpt lat="43.550440" lon="12.507680">
        <ele>1196.6803</ele>
        <time>2013-06-30T13:04:24Z</time>
      </trkpt>
      <trkpt lat="43.549630" lon="12.507159">
        <ele>1188.7866200000001</ele>
        <time>2013-06-30T13:04:36Z</time>
      </trkpt>
      <trkpt lat="43.549539" lon="12.507099">
        <ele>1188.0981400000001</ele>
        <time>2013-06-30T13:04:37Z</time>
      </trkpt>
      <trkpt lat="43.548970" lon="12.506630">
        <ele>1181.93372</ele>
        <time>2013-06-30T13:04:46Z</time>
      </trkpt>
      <trkpt lat="43.548849" lon="12.506569">
        <ele>1181.2614699999999</ele>
        <time>2013-06-30T13:04:47Z</time>
      </trkpt>
      <trkpt lat="43.548619" lon="12.506569">
        <ele>1179.31287</ele>
        <time>2013-06-30T13:04:50Z</time>
      </trkpt>
      <trkpt lat="43.548210" lon="12.506270">
        <ele>1174.69238</ele>
        <time>2013-06-30T13:04:57Z</time>
      </trkpt>
      <trkpt lat="43.547780" lon="12.506089">
        <ele>1170.6413600000001</ele>
        <time>2013-06-30T13:05:03Z</time>
      </trkpt>
      <trkpt lat="43.547509" lon="12.505780">
        <ele>1167.7627</ele>
        <time>2013-06-30T13:05:07Z</time>
      </trkpt>
      <trkpt lat="43.547179" lon="12.505710">
        <ele>1164.0637200000001</ele>
        <time>2013-06-30T13:05:12Z</time>
      </trkpt>
      <trkpt lat="43.547009" lon="12.505619">
        <ele>1162.5650599999999</ele>
        <time>2013-06-30T13:05:14Z</time>
      </trkpt>
      <trkpt lat="43.546819" lon="12.505649">
        <ele>1160.2938200000001</ele>
        <time>2013-06-30T13:05:17Z</time>
      </trkpt>
      <trkpt lat="43.546589" lon="12.505570">
        <ele>1158.0311300000001</ele>
        <time>2013-06-30T13:05:20Z</time>
      </trkpt>
      <trkpt lat="43.546389" lon="12.505640">
        <ele>1155.7858900000001</ele>
        <time>2013-06-30T13:05:23Z</time>
      </trkpt>
      <trkpt lat="43.545989" lon="12.505550">
        <ele>1152.41138</ele>
        <time>2013-06-30T13:05:28Z</time>
      </trkpt>
      <trkpt lat="43.545829" lon="12.505619">
        <ele>1151.06799</ele>
        <time>2013-06-30T13:05:30Z</time>
      </trkpt>
      <trkpt lat="43.545430" lon="12.505670">
        <ele>1146.9233400000001</ele>
        <time>2013-06-30T13:05:36Z</time>
      </trkpt>
      <trkpt lat="43.545130" lon="12.505879">
        <ele>1144.2406000000001</ele>
        <time>2013-06-30T13:05:40Z</time>
      </trkpt>
      <trkpt lat="43.545030" lon="12.505829">
        <ele>1142.87463</ele>
        <time>2013-06-30T13:05:42Z</time>
      </trkpt>
      <trkpt lat="43.544919" lon="12.505589">
        <ele>1141.47327</ele>
        <time>2013-06-30T13:05:44Z</time>
      </trkpt>
      <trkpt lat="43.544930" lon="12.505199">
        <ele>1138.6065699999999</ele>
        <time>2013-06-30T13:05:48Z</time>
      </trkpt>
      <trkpt lat="43.545230" lon="12.504620">
        <ele>1133.6749299999999</ele>
        <time>2013-06-30T13:05:55Z</time>
      </trkpt>
      <trkpt lat="43.545360" lon="12.503399">
        <ele>1125.4693600000001</ele>
        <time>2013-06-30T13:06:07Z</time>
      </trkpt>
      <trkpt lat="43.545369" lon="12.503350">
        <ele>1124.77612</ele>
        <time>2013-06-30T13:06:08Z</time>
      </trkpt>
      <trkpt lat="43.545509" lon="12.502739">
        <ele>1120.6792</ele>
        <time>2013-06-30T13:06:14Z</time>
      </trkpt>
      <trkpt lat="43.545880" lon="12.501610">
        <ele>1112.6557600000001</ele>
        <time>2013-06-30T13:06:26Z</time>
      </trkpt>
      <trkpt lat="43.546080" lon="12.501010">
        <ele>1108.92371</ele>
        <time>2013-06-30T13:06:32Z</time>
      </trkpt>
      <trkpt lat="43.546500" lon="12.500230">
        <ele>1102.36133</ele>
        <time>2013-06-30T13:06:42Z</time>
      </trkpt>
      <trkpt lat="43.547179" lon="12.499410">
        <ele>1094.2700199999999</ele>
        <time>2013-06-30T13:06:54Z</time>
      </trkpt>
      <trkpt lat="43.547550" lon="12.498959">
        <ele>1090.0440699999999</ele>
        <time>2013-06-30T13:07:00Z</time>
      </trkpt>
      <trkpt lat="43.548169" lon="12.498060">
        <ele>1081.9315200000001</ele>
        <time>2013-06-30T13:07:12Z</time>
      </trkpt>
      <trkpt lat="43.548789" lon="12.497170">
        <ele>1074.07654</ele>
        <time>2013-06-30T13:07:24Z</time>
      </trkpt>
      <trkpt lat="43.549249" lon="12.496499">
        <ele>1068.25171</ele>
        <time>2013-06-30T13:07:33Z</time>
      </trkpt>
      <trkpt lat="43.549549" lon="12.496169">
        <ele>1065.0311300000001</ele>
        <time>2013-06-30T13:07:38Z</time>
      </trkpt>
      <trkpt lat="43.549769" lon="12.496020">
        <ele>1062.3692599999999</ele>
        <time>2013-06-30T13:07:42Z</time>
      </trkpt>
      <trkpt lat="43.550659" lon="12.495849">
        <ele>1054.20715</ele>
        <time>2013-06-30T13:07:54Z</time>
      </trkpt>
      <trkpt lat="43.550810" lon="12.495820">
        <ele>1052.8768299999999</ele>
        <time>2013-06-30T13:07:56Z</time>
      </trkpt>
      <trkpt lat="43.551490" lon="12.495530">
        <ele>1046.94641</ele>
        <time>2013-06-30T13:08:05Z</time>
      </trkpt>
      <trkpt lat="43.552269" lon="12.495400">
        <ele>1039.4174800000001</ele>
        <time>2013-06-30T13:08:16Z</time>
      </trkpt>
      <trkpt lat="43.553170" lon="12.495379">
        <ele>1031.4932899999999</ele>
        <time>2013-06-30T13:08:28Z</time>
      </trkpt>
      <trkpt lat="43.553200" lon="12.495379">
        <ele>1030.8120100000001</ele>
        <time>2013-06-30T13:08:29Z</time>
      </trkpt>
      <trkpt lat="43.553869" lon="12.495800">
        <ele>1023.93134</ele>
        <time>2013-06-30T13:08:39Z</time>
      </trkpt>
      <trkpt lat="43.554490" lon="12.495869">
        <ele>1018.44421</ele>
        <time>2013-06-30T13:08:47Z</time>
      </trkpt>
      <trkpt lat="43.554699" lon="12.496009">
        <ele>1016.40417</ele>
        <time>2013-06-30T13:08:50Z</time>
      </trkpt>
      <trkpt lat="43.554840" lon="12.496209">
        <ele>1014.39655</ele>
        <time>2013-06-30T13:08:53Z</time>
      </trkpt>
      <trkpt lat="43.555010" lon="12.496789">
        <ele>1010.53668</ele>
        <time>2013-06-30T13:08:59Z</time>
      </trkpt>
      <trkpt lat="43.555089" lon="12.496929">
        <ele>1009.2492099999999</ele>
        <time>2013-06-30T13:09:01Z</time>
      </trkpt>
      <trkpt lat="43.555279" lon="12.496959">
        <ele>1007.94476</ele>
        <time>2013-06-30T13:09:03Z</time>
      </trkpt>
      <trkpt lat="43.555609" lon="12.496910">
        <ele>1004.60681</ele>
        <time>2013-06-30T13:09:08Z</time>
      </trkpt>
      <trkpt lat="43.556049" lon="12.496610">
        <ele>1000.48578</ele>
        <time>2013-06-30T13:09:14Z</time>
      </trkpt>
      <trkpt lat="43.556250" lon="12.496580">
        <ele>998.38971000000004</ele>
        <time>2013-06-30T13:09:17Z</time>
      </trkpt>
      <trkpt lat="43.556380" lon="12.496710">
        <ele>997.01251000000002</ele>
        <time>2013-06-30T13:09:19Z</time>
      </trkpt>
      <trkpt lat="43.556490" lon="12.497180">
        <ele>993.66754000000003</ele>
        <time>2013-06-30T13:09:24Z</time>
      </trkpt>
      <trkpt lat="43.556580" lon="12.497300">
        <ele>992.38860999999997</ele>
        <time>2013-06-30T13:09:26Z</time>
      </trkpt>
      <trkpt lat="43.556710" lon="12.497310">
        <ele>991.75878999999998</ele>
        <time>2013-06-30T13:09:27Z</time>
      </trkpt>
      <trkpt lat="43.556799" lon="12.497200">
        <ele>990.50402999999994</ele>
        <time>2013-06-30T13:09:29Z</time>
      </trkpt>
      <trkpt lat="43.556799" lon="12.496989">
        <ele>989.24579000000006</ele>
        <time>2013-06-30T13:09:31Z</time>
      </trkpt>
      <trkpt lat="43.556490" lon="12.496369">
        <ele>984.79418999999996</ele>
        <time>2013-06-30T13:09:38Z</time>
      </trkpt>
      <trkpt lat="43.556230" lon="12.496269">
        <ele>982.20299999999997</ele>
        <time>2013-06-30T13:09:42Z</time>
      </trkpt>
      <trkpt lat="43.555879" lon="12.496360">
        <ele>978.97155999999995</ele>
        <time>2013-06-30T13:09:47Z</time>
      </trkpt>
      <trkpt lat="43.555770" lon="12.496320">
        <ele>978.30920000000003</ele>
        <time>2013-06-30T13:09:48Z</time>
      </trkpt>
      <trkpt lat="43.555719" lon="12.496199">
        <ele>977.63927999999999</ele>
        <time>2013-06-30T13:09:49Z</time>
      </trkpt>
      <trkpt lat="43.555660" lon="12.495749">
        <ele>974.28899999999999</ele>
        <time>2013-06-30T13:09:54Z</time>
      </trkpt>
      <trkpt lat="43.555460" lon="12.495279">
        <ele>971.10204999999996</ele>
        <time>2013-06-30T13:09:59Z</time>
      </trkpt>
      <trkpt lat="43.555300" lon="12.495019">
        <ele>969.13171</ele>
        <time>2013-06-30T13:10:02Z</time>
      </trkpt>
      <trkpt lat="43.554769" lon="12.494450">
        <ele>962.83605999999997</ele>
        <time>2013-06-30T13:10:11Z</time>
      </trkpt>
      <trkpt lat="43.554610" lon="12.494310">
        <ele>960.83514000000002</ele>
        <time>2013-06-30T13:10:14Z</time>
      </trkpt>
      <trkpt lat="43.554469" lon="12.494269">
        <ele>959.47595000000001</ele>
        <time>2013-06-30T13:10:16Z</time>
      </trkpt>
      <trkpt lat="43.553760" lon="12.494290">
        <ele>953.57799999999997</ele>
        <time>2013-06-30T13:10:25Z</time>
      </trkpt>
      <trkpt lat="43.553660" lon="12.494139">
        <ele>952.27581999999995</ele>
        <time>2013-06-30T13:10:27Z</time>
      </trkpt>
      <trkpt lat="43.553660" lon="12.493920">
        <ele>950.97504000000004</ele>
        <time>2013-06-30T13:10:29Z</time>
      </trkpt>
      <trkpt lat="43.553869" lon="12.493200">
        <ele>946.01642000000004</ele>
        <time>2013-06-30T13:10:37Z</time>
      </trkpt>
      <trkpt lat="43.553760" lon="12.492819">
        <ele>943.48041000000001</ele>
        <time>2013-06-30T13:10:41Z</time>
      </trkpt>
      <trkpt lat="43.553779" lon="12.492640">
        <ele>942.21014000000002</ele>
        <time>2013-06-30T13:10:43Z</time>
      </trkpt>
      <trkpt lat="43.553849" lon="12.492550">
        <ele>941.62616000000003</ele>
        <time>2013-06-30T13:10:44Z</time>
      </trkpt>
      <trkpt lat="43.554009" lon="12.492589">
        <ele>940.50171</ele>
        <time>2013-06-30T13:10:46Z</time>
      </trkpt>
      <trkpt lat="43.554099" lon="12.492749">
        <ele>939.38489000000004</ele>
        <time>2013-06-30T13:10:48Z</time>
      </trkpt>
      <trkpt lat="43.554069" lon="12.493400">
        <ele>935.77808000000005</ele>
        <time>2013-06-30T13:10:54Z</time>
      </trkpt>
      <trkpt lat="43.554109" lon="12.493509">
        <ele>934.46001999999999</ele>
        <time>2013-06-30T13:10:56Z</time>
      </trkpt>
      <trkpt lat="43.554250" lon="12.493700">
        <ele>933.14580999999998</ele>
        <time>2013-06-30T13:10:58Z</time>
      </trkpt>
      <trkpt lat="43.554399" lon="12.493760">
        <ele>931.84509000000003</ele>
        <time>2013-06-30T13:11:00Z</time>
      </trkpt>
      <trkpt lat="43.554550" lon="12.493720">
        <ele>930.55791999999997</ele>
        <time>2013-06-30T13:11:02Z</time>
      </trkpt>
      <trkpt lat="43.554959" lon="12.493219">
        <ele>925.55211999999995</ele>
        <time>2013-06-30T13:11:10Z</time>
      </trkpt>
      <trkpt lat="43.555249" lon="12.493030">
        <ele>923.15497000000005</ele>
        <time>2013-06-30T13:11:14Z</time>
      </trkpt>
      <trkpt lat="43.555310" lon="12.492910">
        <ele>922.56311000000005</ele>
        <time>2013-06-30T13:11:15Z</time>
      </trkpt>
      <trkpt lat="43.555310" lon="12.492749">
        <ele>921.36284999999998</ele>
        <time>2013-06-30T13:11:17Z</time>
      </trkpt>
      <trkpt lat="43.555249" lon="12.492610">
        <ele>920.75438999999994</ele>
        <time>2013-06-30T13:11:18Z</time>
      </trkpt>
      <trkpt lat="43.555100" lon="12.492570">
        <ele>918.89580999999998</ele>
        <time>2013-06-30T13:11:21Z</time>
      </trkpt>
      <trkpt lat="43.554999" lon="12.492670">
        <ele>918.26520000000005</ele>
        <time>2013-06-30T13:11:22Z</time>
      </trkpt>
      <trkpt lat="43.554889" lon="12.493010">
        <ele>915.68726000000004</ele>
        <time>2013-06-30T13:11:26Z</time>
      </trkpt>
      <trkpt lat="43.554780" lon="12.493160">
        <ele>914.38995</ele>
        <time>2013-06-30T13:11:28Z</time>
      </trkpt>
      <trkpt lat="43.554680" lon="12.493189">
        <ele>913.75183000000004</ele>
        <time>2013-06-30T13:11:29Z</time>
      </trkpt>
      <trkpt lat="43.554589" lon="12.493140">
        <ele>913.12079000000006</ele>
        <time>2013-06-30T13:11:30Z</time>
      </trkpt>
      <trkpt lat="43.554529" lon="12.492979">
        <ele>911.87976000000003</ele>
        <time>2013-06-30T13:11:32Z</time>
      </trkpt>
      <trkpt lat="43.554699" lon="12.492259">
        <ele>907.18548999999996</ele>
        <time>2013-06-30T13:11:40Z</time>
      </trkpt>
      <trkpt lat="43.554710" lon="12.491980">
        <ele>906.07836999999995</ele>
        <time>2013-06-30T13:11:42Z</time>
      </trkpt>
      <trkpt lat="43.554569" lon="12.491549">
        <ele>903.32288000000005</ele>
        <time>2013-06-30T13:11:47Z</time>
      </trkpt>
      <trkpt lat="43.554369" lon="12.491309">
        <ele>901.64977999999996</ele>
        <time>2013-06-30T13:11:50Z</time>
      </trkpt>
      <trkpt lat="43.554190" lon="12.491200">
        <ele>899.96465999999998</ele>
        <time>2013-06-30T13:11:53Z</time>
      </trkpt>
      <trkpt lat="43.553960" lon="12.491140">
        <ele>898.25909000000001</ele>
        <time>2013-06-30T13:11:56Z</time>
      </trkpt>
      <trkpt lat="43.553769" lon="12.491189">
        <ele>896.50261999999998</ele>
        <time>2013-06-30T13:11:59Z</time>
      </trkpt>
      <trkpt lat="43.553509" lon="12.491349">
        <ele>894.13671999999997</ele>
        <time>2013-06-30T13:12:03Z</time>
      </trkpt>
      <trkpt lat="43.552880" lon="12.491869">
        <ele>889.17962999999997</ele>
        <time>2013-06-30T13:12:12Z</time>
      </trkpt>
      <trkpt lat="43.552670" lon="12.491960">
        <ele>887.57397000000003</ele>
        <time>2013-06-30T13:12:15Z</time>
      </trkpt>
      <trkpt lat="43.551999" lon="12.491980">
        <ele>882.54809999999998</ele>
        <time>2013-06-30T13:12:24Z</time>
      </trkpt>
      <trkpt lat="43.551579" lon="12.492050">
        <ele>879.15764999999999</ele>
        <time>2013-06-30T13:12:30Z</time>
      </trkpt>
      <trkpt lat="43.551170" lon="12.491999">
        <ele>876.39233000000002</ele>
        <time>2013-06-30T13:12:35Z</time>
      </trkpt>
      <trkpt lat="43.550919" lon="12.491850">
        <ele>874.21423000000004</ele>
        <time>2013-06-30T13:12:39Z</time>
      </trkpt>
      <trkpt lat="43.550559" lon="12.491509">
        <ele>870.97973999999999</ele>
        <time>2013-06-30T13:12:45Z</time>
      </trkpt>
      <trkpt lat="43.550080" lon="12.491239">
        <ele>867.15570000000002</ele>
        <time>2013-06-30T13:12:52Z</time>
      </trkpt>
      <trkpt lat="43.549750" lon="12.491109">
        <ele>864.94115999999997</ele>
        <time>2013-06-30T13:12:56Z</time>
      </trkpt>
      <trkpt lat="43.549219" lon="12.491070">
        <ele>861.01904000000002</ele>
        <time>2013-06-30T13:13:03Z</time>
      </trkpt>
      <trkpt lat="43.549149" lon="12.491019">
        <ele>860.46033</ele>
        <time>2013-06-30T13:13:04Z</time>
      </trkpt>
      <trkpt lat="43.549130" lon="12.490759">
        <ele>858.81158000000005</ele>
        <time>2013-06-30T13:13:07Z</time>
      </trkpt>
      <trkpt lat="43.549230" lon="12.490600">
        <ele>857.72424000000001</ele>
        <time>2013-06-30T13:13:09Z</time>
      </trkpt>
      <trkpt lat="43.549360" lon="12.490619">
        <ele>856.64471000000003</ele>
        <time>2013-06-30T13:13:11Z</time>
      </trkpt>
      <trkpt lat="43.549509" lon="12.490830">
        <ele>855.03979000000004</ele>
        <time>2013-06-30T13:13:14Z</time>
      </trkpt>
      <trkpt lat="43.549569" lon="12.490849">
        <ele>854.50854000000004</ele>
        <time>2013-06-30T13:13:15Z</time>
      </trkpt>
      <trkpt lat="43.549699" lon="12.490810">
        <ele>853.97913000000005</ele>
        <time>2013-06-30T13:13:16Z</time>
      </trkpt>
      <trkpt lat="43.549750" lon="12.490740">
        <ele>853.45172000000002</ele>
        <time>2013-06-30T13:13:17Z</time>
      </trkpt>
      <trkpt lat="43.549779" lon="12.490570">
        <ele>852.40308000000005</ele>
        <time>2013-06-30T13:13:19Z</time>
      </trkpt>
      <trkpt lat="43.549739" lon="12.490459">
        <ele>851.88238999999999</ele>
        <time>2013-06-30T13:13:20Z</time>
      </trkpt>
      <trkpt lat="43.549430" lon="12.490389">
        <ele>849.82213999999999</ele>
        <time>2013-06-30T13:13:24Z</time>
      </trkpt>
      <trkpt lat="43.549330" lon="12.490229">
        <ele>848.78876000000002</ele>
        <time>2013-06-30T13:13:26Z</time>
      </trkpt>
      <trkpt lat="43.549349" lon="12.490099">
        <ele>847.75031000000001</ele>
        <time>2013-06-30T13:13:28Z</time>
      </trkpt>
      <trkpt lat="43.549439" lon="12.489950">
        <ele>846.70477000000005</ele>
        <time>2013-06-30T13:13:30Z</time>
      </trkpt>
      <trkpt lat="43.549549" lon="12.489939">
        <ele>846.17864999999995</ele>
        <time>2013-06-30T13:13:31Z</time>
      </trkpt>
      <trkpt lat="43.549750" lon="12.490029">
        <ele>844.58672999999999</ele>
        <time>2013-06-30T13:13:34Z</time>
      </trkpt>
      <trkpt lat="43.549839" lon="12.489999">
        <ele>844.05187999999998</ele>
        <time>2013-06-30T13:13:35Z</time>
      </trkpt>
      <trkpt lat="43.549909" lon="12.489899">
        <ele>843.51538000000005</ele>
        <time>2013-06-30T13:13:36Z</time>
      </trkpt>
      <trkpt lat="43.549920" lon="12.489699">
        <ele>842.4375</ele>
        <time>2013-06-30T13:13:38Z</time>
      </trkpt>
      <trkpt lat="43.549869" lon="12.489609">
        <ele>841.89606000000003</ele>
        <time>2013-06-30T13:13:39Z</time>
      </trkpt>
      <trkpt lat="43.549709" lon="12.489550">
        <ele>840.28650000000005</ele>
        <time>2013-06-30T13:13:42Z</time>
      </trkpt>
      <trkpt lat="43.549119" lon="12.489929">
        <ele>836.14580999999998</ele>
        <time>2013-06-30T13:13:50Z</time>
      </trkpt>
      <trkpt lat="43.548670" lon="12.490429">
        <ele>831.93555000000003</ele>
        <time>2013-06-30T13:13:58Z</time>
      </trkpt>
      <trkpt lat="43.548039" lon="12.490879">
        <ele>826.75647000000004</ele>
        <time>2013-06-30T13:14:08Z</time>
      </trkpt>
      <trkpt lat="43.547809" lon="12.491140">
        <ele>824.67358000000002</ele>
        <time>2013-06-30T13:14:12Z</time>
      </trkpt>
      <trkpt lat="43.547149" lon="12.491490">
        <ele>820.10022000000004</ele>
        <time>2013-06-30T13:14:21Z</time>
      </trkpt>
      <trkpt lat="43.546730" lon="12.491569">
        <ele>816.73082999999997</ele>
        <time>2013-06-30T13:14:27Z</time>
      </trkpt>
      <trkpt lat="43.545839" lon="12.491449">
        <ele>809.40436</ele>
        <time>2013-06-30T13:14:39Z</time>
      </trkpt>
      <trkpt lat="43.545320" lon="12.491379">
        <ele>806.01508000000001</ele>
        <time>2013-06-30T13:14:45Z</time>
      </trkpt>
      <trkpt lat="43.544849" lon="12.491479">
        <ele>801.92249000000004</ele>
        <time>2013-06-30T13:14:52Z</time>
      </trkpt>
      <trkpt lat="43.544640" lon="12.491460">
        <ele>800.14728000000002</ele>
        <time>2013-06-30T13:14:55Z</time>
      </trkpt>
      <trkpt lat="43.544429" lon="12.491260">
        <ele>798.38318000000004</ele>
        <time>2013-06-30T13:14:58Z</time>
      </trkpt>
      <trkpt lat="43.544310" lon="12.490959">
        <ele>796.62958000000003</ele>
        <time>2013-06-30T13:15:01Z</time>
      </trkpt>
      <trkpt lat="43.545000" lon="12.490159">
        <ele>789.73895000000005</ele>
        <time>2013-06-30T13:15:13Z</time>
      </trkpt>
      <trkpt lat="43.545290" lon="12.489829">
        <ele>786.97313999999994</ele>
        <time>2013-06-30T13:15:18Z</time>
      </trkpt>
      <trkpt lat="43.545690" lon="12.489469">
        <ele>783.05353000000002</ele>
        <time>2013-06-30T13:15:25Z</time>
      </trkpt>
      <trkpt lat="43.545690" lon="12.489390">
        <ele>782.49225000000001</ele>
        <time>2013-06-30T13:15:26Z</time>
      </trkpt>
      <trkpt lat="43.546410" lon="12.488640">
        <ele>776.25989000000004</ele>
        <time>2013-06-30T13:15:38Z</time>
      </trkpt>
      <trkpt lat="43.546900" lon="12.488120">
        <ele>772.31994999999995</ele>
        <time>2013-06-30T13:15:46Z</time>
      </trkpt>
      <trkpt lat="43.547179" lon="12.487899">
        <ele>770.27166999999997</ele>
        <time>2013-06-30T13:15:50Z</time>
      </trkpt>
      <trkpt lat="43.547909" lon="12.487420">
        <ele>764.18622000000005</ele>
        <time>2013-06-30T13:16:01Z</time>
      </trkpt>
      <trkpt lat="43.548749" lon="12.486970">
        <ele>757.73163</ele>
        <time>2013-06-30T13:16:13Z</time>
      </trkpt>
      <trkpt lat="43.549590" lon="12.486530">
        <ele>751.72942999999998</ele>
        <time>2013-06-30T13:16:25Z</time>
      </trkpt>
      <trkpt lat="43.550420" lon="12.486080">
        <ele>744.96343999999999</ele>
        <time>2013-06-30T13:16:37Z</time>
      </trkpt>
      <trkpt lat="43.551260" lon="12.485629">
        <ele>738.50622999999996</ele>
        <time>2013-06-30T13:16:49Z</time>
      </trkpt>
      <trkpt lat="43.551999" lon="12.485239">
        <ele>733.18231000000003</ele>
        <time>2013-06-30T13:17:00Z</time>
      </trkpt>
      <trkpt lat="43.552190" lon="12.485079">
        <ele>731.70025999999996</ele>
        <time>2013-06-30T13:17:03Z</time>
      </trkpt>
      <trkpt lat="43.552250" lon="12.484939">
        <ele>731.20258000000001</ele>
        <time>2013-06-30T13:17:04Z</time>
      </trkpt>
      <trkpt lat="43.552269" lon="12.484719">
        <ele>730.21172999999999</ele>
        <time>2013-06-30T13:17:06Z</time>
      </trkpt>
      <trkpt lat="43.552239" lon="12.484510">
        <ele>729.21387000000004</ele>
        <time>2013-06-30T13:17:08Z</time>
      </trkpt>
      <trkpt lat="43.551990" lon="12.483320">
        <ele>723.00598000000002</ele>
        <time>2013-06-30T13:17:20Z</time>
      </trkpt>
      <trkpt lat="43.551979" lon="12.483239">
        <ele>722.49292000000003</ele>
        <time>2013-06-30T13:17:21Z</time>
      </trkpt>
      <trkpt lat="43.551899" lon="12.483050">
        <ele>721.47247000000004</ele>
        <time>2013-06-30T13:17:23Z</time>
      </trkpt>
      <trkpt lat="43.551400" lon="12.482540">
        <ele>716.90472</ele>
        <time>2013-06-30T13:17:32Z</time>
      </trkpt>
      <trkpt lat="43.551349" lon="12.482409">
        <ele>716.39728000000002</ele>
        <time>2013-06-30T13:17:33Z</time>
      </trkpt>
      <trkpt lat="43.551330" lon="12.481840">
        <ele>713.37591999999995</ele>
        <time>2013-06-30T13:17:39Z</time>
      </trkpt>
      <trkpt lat="43.551170" lon="12.481139">
        <ele>709.97466999999995</ele>
        <time>2013-06-30T13:17:46Z</time>
      </trkpt>
      <trkpt lat="43.551189" lon="12.480860">
        <ele>709.00438999999994</ele>
        <time>2013-06-30T13:17:48Z</time>
      </trkpt>
      <trkpt lat="43.551260" lon="12.480649">
        <ele>707.55016999999998</ele>
        <time>2013-06-30T13:17:51Z</time>
      </trkpt>
      <trkpt lat="43.551769" lon="12.479619">
        <ele>701.57330000000002</ele>
        <time>2013-06-30T13:18:03Z</time>
      </trkpt>
      <trkpt lat="43.551909" lon="12.479329">
        <ele>700.17218000000003</ele>
        <time>2013-06-30T13:18:06Z</time>
      </trkpt>
      <trkpt lat="43.552160" lon="12.478660">
        <ele>696.85986000000003</ele>
        <time>2013-06-30T13:18:13Z</time>
      </trkpt>
      <trkpt lat="43.552310" lon="12.478109">
        <ele>693.91321000000005</ele>
        <time>2013-06-30T13:18:19Z</time>
      </trkpt>
      <trkpt lat="43.552440" lon="12.477840">
        <ele>692.46924000000001</ele>
        <time>2013-06-30T13:18:22Z</time>
      </trkpt>
      <trkpt lat="43.553140" lon="12.477069">
        <ele>686.83483999999999</ele>
        <time>2013-06-30T13:18:34Z</time>
      </trkpt>
      <trkpt lat="43.553839" lon="12.476309">
        <ele>681.23199</ele>
        <time>2013-06-30T13:18:46Z</time>
      </trkpt>
      <trkpt lat="43.554060" lon="12.476200">
        <ele>679.79345999999998</ele>
        <time>2013-06-30T13:18:49Z</time>
      </trkpt>
      <trkpt lat="43.554919" lon="12.476040">
        <ele>673.92291</ele>
        <time>2013-06-30T13:19:01Z</time>
      </trkpt>
      <trkpt lat="43.555760" lon="12.475610">
        <ele>667.95551</ele>
        <time>2013-06-30T13:19:13Z</time>
      </trkpt>
      <trkpt lat="43.556590" lon="12.475189">
        <ele>662.56475999999998</ele>
        <time>2013-06-30T13:19:24Z</time>
      </trkpt>
      <trkpt lat="43.556710" lon="12.475059">
        <ele>661.09906000000001</ele>
        <time>2013-06-30T13:19:27Z</time>
      </trkpt>
      <trkpt lat="43.556840" lon="12.474320">
        <ele>657.68011000000001</ele>
        <time>2013-06-30T13:19:34Z</time>
      </trkpt>
      <trkpt lat="43.556980" lon="12.473089">
        <ele>652.08551</ele>
        <time>2013-06-30T13:19:46Z</time>
      </trkpt>
      <trkpt lat="43.557010" lon="12.472780">
        <ele>650.80951000000005</ele>
        <time>2013-06-30T13:19:49Z</time>
      </trkpt>
      <trkpt lat="43.556759" lon="12.471589">
        <ele>645.68762000000004</ele>
        <time>2013-06-30T13:20:01Z</time>
      </trkpt>
      <trkpt lat="43.556750" lon="12.471570">
        <ele>645.68762000000004</ele>
        <time>2013-06-30T13:20:01Z</time>
      </trkpt>
      <trkpt lat="43.556740" lon="12.471150">
        <ele>643.96582000000001</ele>
        <time>2013-06-30T13:20:05Z</time>
      </trkpt>
      <trkpt lat="43.556820" lon="12.470469">
        <ele>641.02637000000004</ele>
        <time>2013-06-30T13:20:12Z</time>
      </trkpt>
      <trkpt lat="43.557010" lon="12.469600">
        <ele>637.29900999999995</ele>
        <time>2013-06-30T13:20:21Z</time>
      </trkpt>
      <trkpt lat="43.557200" lon="12.468870">
        <ele>634.34607000000005</ele>
        <time>2013-06-30T13:20:28Z</time>
      </trkpt>
      <trkpt lat="43.557449" lon="12.468180">
        <ele>631.09631000000002</ele>
        <time>2013-06-30T13:20:36Z</time>
      </trkpt>
      <trkpt lat="43.558009" lon="12.467210">
        <ele>626.31073000000004</ele>
        <time>2013-06-30T13:20:48Z</time>
      </trkpt>
      <trkpt lat="43.558569" lon="12.466239">
        <ele>621.26746000000003</ele>
        <time>2013-06-30T13:21:00Z</time>
      </trkpt>
      <trkpt lat="43.558680" lon="12.466039">
        <ele>620.43426999999997</ele>
        <time>2013-06-30T13:21:02Z</time>
      </trkpt>
      <trkpt lat="43.558820" lon="12.465669">
        <ele>618.79272000000003</ele>
        <time>2013-06-30T13:21:06Z</time>
      </trkpt>
      <trkpt lat="43.559119" lon="12.464499">
        <ele>613.80145000000005</ele>
        <time>2013-06-30T13:21:18Z</time>
      </trkpt>
      <trkpt lat="43.559289" lon="12.463820">
        <ele>610.75811999999996</ele>
        <time>2013-06-30T13:21:25Z</time>
      </trkpt>
      <trkpt lat="43.559210" lon="12.462589">
        <ele>605.32623000000001</ele>
        <time>2013-06-30T13:21:37Z</time>
      </trkpt>
      <trkpt lat="43.559180" lon="12.462059">
        <ele>603.02386000000001</ele>
        <time>2013-06-30T13:21:42Z</time>
      </trkpt>
      <trkpt lat="43.558810" lon="12.460930">
        <ele>597.50658999999996</ele>
        <time>2013-06-30T13:21:54Z</time>
      </trkpt>
      <trkpt lat="43.558710" lon="12.460619">
        <ele>595.68597</ele>
        <time>2013-06-30T13:21:58Z</time>
      </trkpt>
      <trkpt lat="43.558669" lon="12.460370">
        <ele>594.78137000000004</ele>
        <time>2013-06-30T13:22:00Z</time>
      </trkpt>
      <trkpt lat="43.558729" lon="12.460180">
        <ele>593.86395000000005</ele>
        <time>2013-06-30T13:22:02Z</time>
      </trkpt>
      <trkpt lat="43.558899" lon="12.459959">
        <ele>592.48168999999996</ele>
        <time>2013-06-30T13:22:05Z</time>
      </trkpt>
      <trkpt lat="43.558980" lon="12.459920">
        <ele>592.02031999999997</ele>
        <time>2013-06-30T13:22:06Z</time>
      </trkpt>
      <trkpt lat="43.559210" lon="12.460029">
        <ele>590.18535999999995</ele>
        <time>2013-06-30T13:22:10Z</time>
      </trkpt>
      <trkpt lat="43.559700" lon="12.460099">
        <ele>587.50261999999998</ele>
        <time>2013-06-30T13:22:16Z</time>
      </trkpt>
      <trkpt lat="43.560460" lon="12.460010">
        <ele>583.11279000000002</ele>
        <time>2013-06-30T13:22:26Z</time>
      </trkpt>
      <trkpt lat="43.561359" lon="12.460010">
        <ele>577.49841000000004</ele>
        <time>2013-06-30T13:22:38Z</time>
      </trkpt>
      <trkpt lat="43.561450" lon="12.460010">
        <ele>577.02313000000004</ele>
        <time>2013-06-30T13:22:39Z</time>
      </trkpt>
      <trkpt lat="43.561730" lon="12.460059">
        <ele>575.11748999999998</ele>
        <time>2013-06-30T13:22:43Z</time>
      </trkpt>
      <trkpt lat="43.562400" lon="12.460640">
        <ele>569.96802000000002</ele>
        <time>2013-06-30T13:22:54Z</time>
      </trkpt>
      <trkpt lat="43.562829" lon="12.461139">
        <ele>566.91034000000002</ele>
        <time>2013-06-30T13:23:01Z</time>
      </trkpt>
      <trkpt lat="43.562969" lon="12.461219">
        <ele>566.08123999999998</ele>
        <time>2013-06-30T13:23:03Z</time>
      </trkpt>
      <trkpt lat="43.563840" lon="12.461530">
        <ele>560.98914000000002</ele>
        <time>2013-06-30T13:23:15Z</time>
      </trkpt>
      <trkpt lat="43.564709" lon="12.461839">
        <ele>555.58270000000005</ele>
        <time>2013-06-30T13:23:27Z</time>
      </trkpt>
      <trkpt lat="43.565150" lon="12.461999">
        <ele>552.89520000000005</ele>
        <time>2013-06-30T13:23:33Z</time>
      </trkpt>
      <trkpt lat="43.565380" lon="12.462240">
        <ele>551.10619999999994</ele>
        <time>2013-06-30T13:23:37Z</time>
      </trkpt>
      <trkpt lat="43.565659" lon="12.462940">
        <ele>547.47144000000003</ele>
        <time>2013-06-30T13:23:45Z</time>
      </trkpt>
      <trkpt lat="43.565910" lon="12.463070">
        <ele>545.66339000000005</ele>
        <time>2013-06-30T13:23:49Z</time>
      </trkpt>
      <trkpt lat="43.566330" lon="12.463060">
        <ele>543.43511999999998</ele>
        <time>2013-06-30T13:23:54Z</time>
      </trkpt>
      <trkpt lat="43.566660" lon="12.462889">
        <ele>541.17163000000005</ele>
        <time>2013-06-30T13:23:59Z</time>
      </trkpt>
      <trkpt lat="43.566779" lon="12.462710">
        <ele>540.26251000000002</ele>
        <time>2013-06-30T13:24:01Z</time>
      </trkpt>
      <trkpt lat="43.566869" lon="12.462250">
        <ele>538.00438999999994</ele>
        <time>2013-06-30T13:24:06Z</time>
      </trkpt>
      <trkpt lat="43.566920" lon="12.461899">
        <ele>536.65783999999996</ele>
        <time>2013-06-30T13:24:09Z</time>
      </trkpt>
      <trkpt lat="43.567039" lon="12.461729">
        <ele>535.31488000000002</ele>
        <time>2013-06-30T13:24:12Z</time>
      </trkpt>
      <trkpt lat="43.567220" lon="12.461679">
        <ele>534.42133000000001</ele>
        <time>2013-06-30T13:24:14Z</time>
      </trkpt>
      <trkpt lat="43.567589" lon="12.461739">
        <ele>532.20421999999996</ele>
        <time>2013-06-30T13:24:19Z</time>
      </trkpt>
      <trkpt lat="43.568059" lon="12.461290">
        <ele>528.80524000000003</ele>
        <time>2013-06-30T13:24:27Z</time>
      </trkpt>
      <trkpt lat="43.568230" lon="12.461290">
        <ele>528.07079999999996</ele>
        <time>2013-06-30T13:24:29Z</time>
      </trkpt>
      <trkpt lat="43.568479" lon="12.461400">
        <ele>526.56542999999999</ele>
        <time>2013-06-30T13:24:33Z</time>
      </trkpt>
      <trkpt lat="43.569309" lon="12.460909">
        <ele>522.10400000000004</ele>
        <time>2013-06-30T13:24:45Z</time>
      </trkpt>
      <trkpt lat="43.569639" lon="12.460710">
        <ele>520.72388000000001</ele>
        <time>2013-06-30T13:24:49Z</time>
      </trkpt>
      <trkpt lat="43.570289" lon="12.460810">
        <ele>517.6925</ele>
        <time>2013-06-30T13:24:58Z</time>
      </trkpt>
      <trkpt lat="43.570890" lon="12.460389">
        <ele>514.80804000000001</ele>
        <time>2013-06-30T13:25:07Z</time>
      </trkpt>
      <trkpt lat="43.571220" lon="12.460270">
        <ele>513.29076999999995</ele>
        <time>2013-06-30T13:25:12Z</time>
      </trkpt>
      <trkpt lat="43.571429" lon="12.460310">
        <ele>512.41076999999996</ele>
        <time>2013-06-30T13:25:15Z</time>
      </trkpt>
      <trkpt lat="43.571889" lon="12.460640">
        <ele>510.74014</ele>
        <time>2013-06-30T13:25:21Z</time>
      </trkpt>
      <trkpt lat="43.572050" lon="12.460679">
        <ele>509.89776999999998</ele>
        <time>2013-06-30T13:25:24Z</time>
      </trkpt>
      <trkpt lat="43.572180" lon="12.460619">
        <ele>509.61133000000001</ele>
        <time>2013-06-30T13:25:25Z</time>
      </trkpt>
      <trkpt lat="43.572249" lon="12.460529">
        <ele>509.02990999999997</ele>
        <time>2013-06-30T13:25:27Z</time>
      </trkpt>
      <trkpt lat="43.572489" lon="12.460110">
        <ele>507.52569999999997</ele>
        <time>2013-06-30T13:25:32Z</time>
      </trkpt>
      <trkpt lat="43.572740" lon="12.459790">
        <ele>506.25961000000001</ele>
        <time>2013-06-30T13:25:36Z</time>
      </trkpt>
      <trkpt lat="43.572990" lon="12.459580">
        <ele>504.78021000000001</ele>
        <time>2013-06-30T13:25:40Z</time>
      </trkpt>
      <trkpt lat="43.573179" lon="12.459490">
        <ele>503.65908999999999</ele>
        <time>2013-06-30T13:25:43Z</time>
      </trkpt>
      <trkpt lat="43.573499" lon="12.459509">
        <ele>502.20605</ele>
        <time>2013-06-30T13:25:47Z</time>
      </trkpt>
      <trkpt lat="43.574340" lon="12.459939">
        <ele>498.07943999999998</ele>
        <time>2013-06-30T13:25:59Z</time>
      </trkpt>
      <trkpt lat="43.574480" lon="12.460010">
        <ele>497.45443999999998</ele>
        <time>2013-06-30T13:26:01Z</time>
      </trkpt>
      <trkpt lat="43.574949" lon="12.460040">
        <ele>495.32001000000002</ele>
        <time>2013-06-30T13:26:08Z</time>
      </trkpt>
      <trkpt lat="43.575590" lon="12.459969">
        <ele>492.60876000000002</ele>
        <time>2013-06-30T13:26:16Z</time>
      </trkpt>
      <trkpt lat="43.576029" lon="12.459790">
        <ele>490.59311000000002</ele>
        <time>2013-06-30T13:26:22Z</time>
      </trkpt>
      <trkpt lat="43.576689" lon="12.458939">
        <ele>487.07843000000003</ele>
        <time>2013-06-30T13:26:34Z</time>
      </trkpt>
      <trkpt lat="43.576710" lon="12.458909">
        <ele>486.80219</ele>
        <time>2013-06-30T13:26:35Z</time>
      </trkpt>
      <trkpt lat="43.576889" lon="12.458719">
        <ele>485.97305</ele>
        <time>2013-06-30T13:26:38Z</time>
      </trkpt>
      <trkpt lat="43.577030" lon="12.458670">
        <ele>485.42129999999997</ele>
        <time>2013-06-30T13:26:40Z</time>
      </trkpt>
      <trkpt lat="43.577170" lon="12.458700">
        <ele>484.87085000000002</ele>
        <time>2013-06-30T13:26:42Z</time>
      </trkpt>
      <trkpt lat="43.577980" lon="12.459220">
        <ele>481.59582999999998</ele>
        <time>2013-06-30T13:26:54Z</time>
      </trkpt>
      <trkpt lat="43.578059" lon="12.459269">
        <ele>481.30954000000003</ele>
        <time>2013-06-30T13:26:55Z</time>
      </trkpt>
      <trkpt lat="43.578220" lon="12.459249">
        <ele>480.69501000000002</ele>
        <time>2013-06-30T13:26:57Z</time>
      </trkpt>
      <trkpt lat="43.578299" lon="12.459079">
        <ele>480.05727999999999</ele>
        <time>2013-06-30T13:26:59Z</time>
      </trkpt>
      <trkpt lat="43.578250" lon="12.458860">
        <ele>479.42709000000002</ele>
        <time>2013-06-30T13:27:01Z</time>
      </trkpt>
      <trkpt lat="43.577430" lon="12.458349">
        <ele>475.89046999999999</ele>
        <time>2013-06-30T13:27:13Z</time>
      </trkpt>
      <trkpt lat="43.577060" lon="12.458110">
        <ele>474.67739999999998</ele>
        <time>2013-06-30T13:27:18Z</time>
      </trkpt>
      <trkpt lat="43.577030" lon="12.457899">
        <ele>473.91730000000001</ele>
        <time>2013-06-30T13:27:21Z</time>
      </trkpt>
      <trkpt lat="43.577070" lon="12.457790">
        <ele>473.65701000000001</ele>
        <time>2013-06-30T13:27:22Z</time>
      </trkpt>
      <trkpt lat="43.577149" lon="12.457729">
        <ele>473.39328</ele>
        <time>2013-06-30T13:27:23Z</time>
      </trkpt>
      <trkpt lat="43.577290" lon="12.457739">
        <ele>472.85538000000003</ele>
        <time>2013-06-30T13:27:25Z</time>
      </trkpt>
      <trkpt lat="43.577779" lon="12.458129">
        <ele>470.87198000000001</ele>
        <time>2013-06-30T13:27:32Z</time>
      </trkpt>
      <trkpt lat="43.578599" lon="12.458459">
        <ele>467.25821000000002</ele>
        <time>2013-06-30T13:27:44Z</time>
      </trkpt>
      <trkpt lat="43.578729" lon="12.458419">
        <ele>466.64055999999999</ele>
        <time>2013-06-30T13:27:46Z</time>
      </trkpt>
      <trkpt lat="43.578789" lon="12.458300">
        <ele>466.33776999999998</ele>
        <time>2013-06-30T13:27:47Z</time>
      </trkpt>
      <trkpt lat="43.578800" lon="12.458129">
        <ele>465.74419999999998</ele>
        <time>2013-06-30T13:27:49Z</time>
      </trkpt>
      <trkpt lat="43.578700" lon="12.457980">
        <ele>465.16629</ele>
        <time>2013-06-30T13:27:51Z</time>
      </trkpt>
      <trkpt lat="43.578069" lon="12.457650">
        <ele>462.68808000000001</ele>
        <time>2013-06-30T13:28:00Z</time>
      </trkpt>
      <trkpt lat="43.577339" lon="12.456930">
        <ele>459.53705000000002</ele>
        <time>2013-06-30T13:28:12Z</time>
      </trkpt>
      <trkpt lat="43.577130" lon="12.456719">
        <ele>458.74358999999998</ele>
        <time>2013-06-30T13:28:15Z</time>
      </trkpt>
      <trkpt lat="43.577049" lon="12.456459">
        <ele>457.94531000000001</ele>
        <time>2013-06-30T13:28:18Z</time>
      </trkpt>
      <trkpt lat="43.577070" lon="12.456210">
        <ele>457.41305999999997</ele>
        <time>2013-06-30T13:28:20Z</time>
      </trkpt>
      <trkpt lat="43.577190" lon="12.455940">
        <ele>456.61554000000001</ele>
        <time>2013-06-30T13:28:23Z</time>
      </trkpt>
      <trkpt lat="43.577920" lon="12.455220">
        <ele>453.56342000000001</ele>
        <time>2013-06-30T13:28:35Z</time>
      </trkpt>
      <trkpt lat="43.578459" lon="12.454679">
        <ele>451.55074999999999</ele>
        <time>2013-06-30T13:28:44Z</time>
      </trkpt>
      <trkpt lat="43.578979" lon="12.454259">
        <ele>449.98325</ele>
        <time>2013-06-30T13:28:52Z</time>
      </trkpt>
      <trkpt lat="43.579430" lon="12.454200">
        <ele>448.73282</ele>
        <time>2013-06-30T13:28:58Z</time>
      </trkpt>
      <trkpt lat="43.580239" lon="12.454330">
        <ele>446.46231</ele>
        <time>2013-06-30T13:29:09Z</time>
      </trkpt>
      <trkpt lat="43.580320" lon="12.454409">
        <ele>446.22879</ele>
        <time>2013-06-30T13:29:10Z</time>
      </trkpt>
      <trkpt lat="43.580659" lon="12.454519">
        <ele>445.00049000000001</ele>
        <time>2013-06-30T13:29:15Z</time>
      </trkpt>
      <trkpt lat="43.580580" lon="12.455759">
        <ele>442.40866</ele>
        <time>2013-06-30T13:29:27Z</time>
      </trkpt>
      <trkpt lat="43.580559" lon="12.456099">
        <ele>441.74288999999999</ele>
        <time>2013-06-30T13:29:30Z</time>
      </trkpt>
      <trkpt lat="43.580480" lon="12.456700">
        <ele>440.48615000000001</ele>
        <time>2013-06-30T13:29:36Z</time>
      </trkpt>
      <trkpt lat="43.580139" lon="12.457850">
        <ele>437.97793999999999</ele>
        <time>2013-06-30T13:29:48Z</time>
      </trkpt>
      <trkpt lat="43.579799" lon="12.459000">
        <ele>435.49966000000001</ele>
        <time>2013-06-30T13:30:00Z</time>
      </trkpt>
      <trkpt lat="43.579470" lon="12.460150">
        <ele>432.95242000000002</ele>
        <time>2013-06-30T13:30:12Z</time>
      </trkpt>
      <trkpt lat="43.579370" lon="12.460480">
        <ele>432.07404000000002</ele>
        <time>2013-06-30T13:30:16Z</time>
      </trkpt>
      <trkpt lat="43.579300" lon="12.460819">
        <ele>431.43524000000002</ele>
        <time>2013-06-30T13:30:19Z</time>
      </trkpt>
      <trkpt lat="43.579289" lon="12.462059">
        <ele>428.87714</ele>
        <time>2013-06-30T13:30:31Z</time>
      </trkpt>
      <trkpt lat="43.579289" lon="12.462099">
        <ele>428.64724999999999</ele>
        <time>2013-06-30T13:30:32Z</time>
      </trkpt>
      <trkpt lat="43.579260" lon="12.462299">
        <ele>428.18304000000001</ele>
        <time>2013-06-30T13:30:34Z</time>
      </trkpt>
      <trkpt lat="43.579110" lon="12.462789">
        <ele>427.01056</ele>
        <time>2013-06-30T13:30:39Z</time>
      </trkpt>
      <trkpt lat="43.578959" lon="12.463040">
        <ele>426.30300999999997</ele>
        <time>2013-06-30T13:30:42Z</time>
      </trkpt>
      <trkpt lat="43.578259" lon="12.463820">
        <ele>423.68027000000001</ele>
        <time>2013-06-30T13:30:54Z</time>
      </trkpt>
      <trkpt lat="43.577560" lon="12.464599">
        <ele>421.01083</ele>
        <time>2013-06-30T13:31:06Z</time>
      </trkpt>
      <trkpt lat="43.577219" lon="12.464979">
        <ele>419.61635999999999</ele>
        <time>2013-06-30T13:31:12Z</time>
      </trkpt>
      <trkpt lat="43.577019" lon="12.465479">
        <ele>418.56182999999999</ele>
        <time>2013-06-30T13:31:17Z</time>
      </trkpt>
      <trkpt lat="43.576970" lon="12.465939">
        <ele>417.56020999999998</ele>
        <time>2013-06-30T13:31:22Z</time>
      </trkpt>
      <trkpt lat="43.577009" lon="12.466599">
        <ele>416.41913</ele>
        <time>2013-06-30T13:31:28Z</time>
      </trkpt>
      <trkpt lat="43.577160" lon="12.466980">
        <ele>415.68286000000001</ele>
        <time>2013-06-30T13:31:32Z</time>
      </trkpt>
      <trkpt lat="43.577809" lon="12.467839">
        <ele>413.51019000000002</ele>
        <time>2013-06-30T13:31:44Z</time>
      </trkpt>
      <trkpt lat="43.578289" lon="12.468469">
        <ele>411.90114999999997</ele>
        <time>2013-06-30T13:31:53Z</time>
      </trkpt>
      <trkpt lat="43.578489" lon="12.468659">
        <ele>411.15102999999999</ele>
        <time>2013-06-30T13:31:57Z</time>
      </trkpt>
      <trkpt lat="43.578650" lon="12.468880">
        <ele>410.57650999999998</ele>
        <time>2013-06-30T13:32:00Z</time>
      </trkpt>
      <trkpt lat="43.578689" lon="12.469040">
        <ele>410.39893000000001</ele>
        <time>2013-06-30T13:32:01Z</time>
      </trkpt>
      <trkpt lat="43.578719" lon="12.469279">
        <ele>409.89702999999997</ele>
        <time>2013-06-30T13:32:04Z</time>
      </trkpt>
      <trkpt lat="43.578680" lon="12.469579">
        <ele>409.58321999999998</ele>
        <time>2013-06-30T13:32:06Z</time>
      </trkpt>
      <trkpt lat="43.578329" lon="12.470279">
        <ele>408.07418999999999</ele>
        <time>2013-06-30T13:32:15Z</time>
      </trkpt>
      <trkpt lat="43.578280" lon="12.470469">
        <ele>407.71561000000003</ele>
        <time>2013-06-30T13:32:17Z</time>
      </trkpt>
      <trkpt lat="43.578099" lon="12.471689">
        <ele>405.69610999999998</ele>
        <time>2013-06-30T13:32:29Z</time>
      </trkpt>
      <trkpt lat="43.577920" lon="12.472899">
        <ele>403.99435</ele>
        <time>2013-06-30T13:32:41Z</time>
      </trkpt>
      <trkpt lat="43.577899" lon="12.473040">
        <ele>403.88153</ele>
        <time>2013-06-30T13:32:42Z</time>
      </trkpt>
      <trkpt lat="43.577969" lon="12.473710">
        <ele>402.98795000000001</ele>
        <time>2013-06-30T13:32:49Z</time>
      </trkpt>
      <trkpt lat="43.578180" lon="12.474349">
        <ele>402.24457000000001</ele>
        <time>2013-06-30T13:32:55Z</time>
      </trkpt>
      <trkpt lat="43.578640" lon="12.475419">
        <ele>400.68124</ele>
        <time>2013-06-30T13:33:07Z</time>
      </trkpt>
      <trkpt lat="43.578940" lon="12.476119">
        <ele>399.55959999999999</ele>
        <time>2013-06-30T13:33:15Z</time>
      </trkpt>
      <trkpt lat="43.579130" lon="12.476769">
        <ele>398.70612</ele>
        <time>2013-06-30T13:33:22Z</time>
      </trkpt>
      <trkpt lat="43.579100" lon="12.477139">
        <ele>398.18117999999998</ele>
        <time>2013-06-30T13:33:26Z</time>
      </trkpt>
      <trkpt lat="43.578840" lon="12.477949">
        <ele>397.15078999999997</ele>
        <time>2013-06-30T13:33:34Z</time>
      </trkpt>
      <trkpt lat="43.578800" lon="12.478189">
        <ele>396.77426000000003</ele>
        <time>2013-06-30T13:33:37Z</time>
      </trkpt>
      <trkpt lat="43.578800" lon="12.478379">
        <ele>396.53073000000001</ele>
        <time>2013-06-30T13:33:39Z</time>
      </trkpt>
      <trkpt lat="43.579030" lon="12.479290">
        <ele>395.49713000000003</ele>
        <time>2013-06-30T13:33:48Z</time>
      </trkpt>
      <trkpt lat="43.579059" lon="12.479640">
        <ele>395.12387000000001</ele>
        <time>2013-06-30T13:33:51Z</time>
      </trkpt>
      <trkpt lat="43.579040" lon="12.480110">
        <ele>394.49657999999999</ele>
        <time>2013-06-30T13:33:56Z</time>
      </trkpt>
      <trkpt lat="43.578780" lon="12.481030">
        <ele>393.48978</ele>
        <time>2013-06-30T13:34:05Z</time>
      </trkpt>
      <trkpt lat="43.578780" lon="12.481239">
        <ele>393.26636000000002</ele>
        <time>2013-06-30T13:34:07Z</time>
      </trkpt>
      <trkpt lat="43.578900" lon="12.482000">
        <ele>392.39157</ele>
        <time>2013-06-30T13:34:15Z</time>
      </trkpt>
      <trkpt lat="43.578880" lon="12.482249">
        <ele>392.18245999999999</ele>
        <time>2013-06-30T13:34:17Z</time>
      </trkpt>
      <trkpt lat="43.578800" lon="12.482449">
        <ele>391.88119999999998</ele>
        <time>2013-06-30T13:34:20Z</time>
      </trkpt>
      <trkpt lat="43.578540" lon="12.482770">
        <ele>391.50272000000001</ele>
        <time>2013-06-30T13:34:24Z</time>
      </trkpt>
      <trkpt lat="43.578399" lon="12.482830">
        <ele>391.32339000000002</ele>
        <time>2013-06-30T13:34:26Z</time>
      </trkpt>
      <trkpt lat="43.577990" lon="12.482849">
        <ele>390.77773999999999</ele>
        <time>2013-06-30T13:34:32Z</time>
      </trkpt>
      <trkpt lat="43.577809" lon="12.482960">
        <ele>390.61977999999999</ele>
        <time>2013-06-30T13:34:34Z</time>
      </trkpt>
      <trkpt lat="43.577669" lon="12.483199">
        <ele>390.40969999999999</ele>
        <time>2013-06-30T13:34:37Z</time>
      </trkpt>
      <trkpt lat="43.577650" lon="12.483480">
        <ele>390.16501</ele>
        <time>2013-06-30T13:34:40Z</time>
      </trkpt>
      <trkpt lat="43.577839" lon="12.484070">
        <ele>389.55074999999999</ele>
        <time>2013-06-30T13:34:46Z</time>
      </trkpt>
      <trkpt lat="43.578169" lon="12.484679">
        <ele>388.65222</ele>
        <time>2013-06-30T13:34:54Z</time>
      </trkpt>
      <trkpt lat="43.578489" lon="12.485160">
        <ele>388.07794000000001</ele>
        <time>2013-06-30T13:35:00Z</time>
      </trkpt>
      <trkpt lat="43.578900" lon="12.485659">
        <ele>387.37822999999997</ele>
        <time>2013-06-30T13:35:07Z</time>
      </trkpt>
      <trkpt lat="43.579460" lon="12.486170">
        <ele>386.20389</ele>
        <time>2013-06-30T13:35:16Z</time>
      </trkpt>
      <trkpt lat="43.580190" lon="12.486589">
        <ele>384.19495000000001</ele>
        <time>2013-06-30T13:35:27Z</time>
      </trkpt>
      <trkpt lat="43.580980" lon="12.486879">
        <ele>382.36505</ele>
        <time>2013-06-30T13:35:38Z</time>
      </trkpt>
      <trkpt lat="43.581460" lon="12.486830">
        <ele>381.78775000000002</ele>
        <time>2013-06-30T13:35:44Z</time>
      </trkpt>
      <trkpt lat="43.581999" lon="12.486630">
        <ele>381.00995</ele>
        <time>2013-06-30T13:35:52Z</time>
      </trkpt>
      <trkpt lat="43.582260" lon="12.486649">
        <ele>380.71154999999999</ele>
        <time>2013-06-30T13:35:55Z</time>
      </trkpt>
      <trkpt lat="43.582480" lon="12.486730">
        <ele>380.39263999999997</ele>
        <time>2013-06-30T13:35:58Z</time>
      </trkpt>
      <trkpt lat="43.582699" lon="12.486889">
        <ele>380.05273</ele>
        <time>2013-06-30T13:36:01Z</time>
      </trkpt>
      <trkpt lat="43.582950" lon="12.487249">
        <ele>379.4024</ele>
        <time>2013-06-30T13:36:06Z</time>
      </trkpt>
      <trkpt lat="43.583059" lon="12.487539">
        <ele>379.00954999999999</ele>
        <time>2013-06-30T13:36:09Z</time>
      </trkpt>
      <trkpt lat="43.583119" lon="12.487920">
        <ele>378.57479999999998</ele>
        <time>2013-06-30T13:36:13Z</time>
      </trkpt>
      <trkpt lat="43.583070" lon="12.489160">
        <ele>377.28674000000001</ele>
        <time>2013-06-30T13:36:25Z</time>
      </trkpt>
      <trkpt lat="43.583019" lon="12.490399">
        <ele>375.87261999999998</ele>
        <time>2013-06-30T13:36:37Z</time>
      </trkpt>
      <trkpt lat="43.582959" lon="12.491630">
        <ele>374.38918999999999</ele>
        <time>2013-06-30T13:36:49Z</time>
      </trkpt>
      <trkpt lat="43.582959" lon="12.491679">
        <ele>374.24448000000001</ele>
        <time>2013-06-30T13:36:50Z</time>
      </trkpt>
      <trkpt lat="43.582889" lon="12.492080">
        <ele>373.63729999999998</ele>
        <time>2013-06-30T13:36:54Z</time>
      </trkpt>
      <trkpt lat="43.582769" lon="12.492429">
        <ele>373.28856999999999</ele>
        <time>2013-06-30T13:36:57Z</time>
      </trkpt>
      <trkpt lat="43.582350" lon="12.493110">
        <ele>372.45352000000003</ele>
        <time>2013-06-30T13:37:06Z</time>
      </trkpt>
      <trkpt lat="43.581760" lon="12.493850">
        <ele>371.06903</ele>
        <time>2013-06-30T13:37:17Z</time>
      </trkpt>
      <trkpt lat="43.581400" lon="12.494069">
        <ele>370.53964000000002</ele>
        <time>2013-06-30T13:37:22Z</time>
      </trkpt>
      <trkpt lat="43.580540" lon="12.494429">
        <ele>369.57288</ele>
        <time>2013-06-30T13:37:34Z</time>
      </trkpt>
      <trkpt lat="43.580540" lon="12.494429">
        <ele>369.49945000000002</ele>
        <time>2013-06-30T13:37:35Z</time>
      </trkpt>
      <trkpt lat="43.580269" lon="12.494620">
        <ele>369.24918000000002</ele>
        <time>2013-06-30T13:37:39Z</time>
      </trkpt>
      <trkpt lat="43.580190" lon="12.494729">
        <ele>369.19745</ele>
        <time>2013-06-30T13:37:40Z</time>
      </trkpt>
      <trkpt lat="43.579869" lon="12.495340">
        <ele>368.88317999999998</ele>
        <time>2013-06-30T13:37:48Z</time>
      </trkpt>
      <trkpt lat="43.579590" lon="12.496079">
        <ele>368.49642999999998</ele>
        <time>2013-06-30T13:37:56Z</time>
      </trkpt>
      <trkpt lat="43.579539" lon="12.496369">
        <ele>368.30682000000002</ele>
        <time>2013-06-30T13:37:59Z</time>
      </trkpt>
      <trkpt lat="43.579590" lon="12.496940">
        <ele>367.92487</ele>
        <time>2013-06-30T13:38:04Z</time>
      </trkpt>
      <trkpt lat="43.579779" lon="12.497349">
        <ele>367.50491</ele>
        <time>2013-06-30T13:38:09Z</time>
      </trkpt>
      <trkpt lat="43.579990" lon="12.497630">
        <ele>367.20416</ele>
        <time>2013-06-30T13:38:13Z</time>
      </trkpt>
      <trkpt lat="43.580239" lon="12.497830">
        <ele>366.94186000000002</ele>
        <time>2013-06-30T13:38:17Z</time>
      </trkpt>
      <trkpt lat="43.580680" lon="12.498000">
        <ele>366.60153000000003</ele>
        <time>2013-06-30T13:38:23Z</time>
      </trkpt>
      <trkpt lat="43.581309" lon="12.498209">
        <ele>366.14136000000002</ele>
        <time>2013-06-30T13:38:31Z</time>
      </trkpt>
      <trkpt lat="43.581950" lon="12.498350">
        <ele>365.43493999999998</ele>
        <time>2013-06-30T13:38:40Z</time>
      </trkpt>
      <trkpt lat="43.582850" lon="12.498360">
        <ele>364.47672</ele>
        <time>2013-06-30T13:38:52Z</time>
      </trkpt>
      <trkpt lat="43.583739" lon="12.498369">
        <ele>363.63756999999998</ele>
        <time>2013-06-30T13:39:04Z</time>
      </trkpt>
      <trkpt lat="43.584499" lon="12.498520">
        <ele>363.04079999999999</ele>
        <time>2013-06-30T13:39:14Z</time>
      </trkpt>
      <trkpt lat="43.585370" lon="12.498829">
        <ele>362.16735999999997</ele>
        <time>2013-06-30T13:39:26Z</time>
      </trkpt>
      <trkpt lat="43.585589" lon="12.498910">
        <ele>361.89078000000001</ele>
        <time>2013-06-30T13:39:29Z</time>
      </trkpt>
      <trkpt lat="43.585979" lon="12.499259">
        <ele>361.35106999999999</ele>
        <time>2013-06-30T13:39:36Z</time>
      </trkpt>
      <trkpt lat="43.586149" lon="12.499670">
        <ele>361.03402999999997</ele>
        <time>2013-06-30T13:39:40Z</time>
      </trkpt>
      <trkpt lat="43.586169" lon="12.500269">
        <ele>360.54262999999997</ele>
        <time>2013-06-30T13:39:46Z</time>
      </trkpt>
      <trkpt lat="43.586039" lon="12.501500">
        <ele>359.56625000000003</ele>
        <time>2013-06-30T13:39:58Z</time>
      </trkpt>
      <trkpt lat="43.585909" lon="12.502720">
        <ele>358.82242000000002</ele>
        <time>2013-06-30T13:40:10Z</time>
      </trkpt>
      <trkpt lat="43.585779" lon="12.503949">
        <ele>358.01074</ele>
        <time>2013-06-30T13:40:22Z</time>
      </trkpt>
      <trkpt lat="43.585700" lon="12.504760">
        <ele>357.56646999999998</ele>
        <time>2013-06-30T13:40:30Z</time>
      </trkpt>
      <trkpt lat="43.585619" lon="12.505169">
        <ele>357.39120000000003</ele>
        <time>2013-06-30T13:40:34Z</time>
      </trkpt>
      <trkpt lat="43.585400" lon="12.505900">
        <ele>357.01794000000001</ele>
        <time>2013-06-30T13:40:42Z</time>
      </trkpt>
      <trkpt lat="43.585400" lon="12.506390">
        <ele>356.87540000000001</ele>
        <time>2013-06-30T13:40:46Z</time>
      </trkpt>
      <trkpt lat="43.585449" lon="12.506639">
        <ele>356.77722</ele>
        <time>2013-06-30T13:40:49Z</time>
      </trkpt>
      <trkpt lat="43.585700" lon="12.507199">
        <ele>356.57172000000003</ele>
        <time>2013-06-30T13:40:55Z</time>
      </trkpt>
      <trkpt lat="43.585930" lon="12.507429">
        <ele>356.39049999999997</ele>
        <time>2013-06-30T13:40:59Z</time>
      </trkpt>
      <trkpt lat="43.586750" lon="12.507919">
        <ele>356.15762000000001</ele>
        <time>2013-06-30T13:41:11Z</time>
      </trkpt>
      <trkpt lat="43.587579" lon="12.508419">
        <ele>355.77103</ele>
        <time>2013-06-30T13:41:23Z</time>
      </trkpt>
      <trkpt lat="43.588399" lon="12.508909">
        <ele>355.49716000000001</ele>
        <time>2013-06-30T13:41:35Z</time>
      </trkpt>
      <trkpt lat="43.589229" lon="12.509399">
        <ele>355.40078999999997</ele>
        <time>2013-06-30T13:41:47Z</time>
      </trkpt>
      <trkpt lat="43.589429" lon="12.509520">
        <ele>355.36901999999998</ele>
        <time>2013-06-30T13:41:50Z</time>
      </trkpt>
      <trkpt lat="43.590260" lon="12.510010">
        <ele>355.41779000000002</ele>
        <time>2013-06-30T13:42:02Z</time>
      </trkpt>
      <trkpt lat="43.590660" lon="12.510249">
        <ele>355.39483999999999</ele>
        <time>2013-06-30T13:42:08Z</time>
      </trkpt>
      <trkpt lat="43.591010" lon="12.509109">
        <ele>355.48345999999998</ele>
        <time>2013-06-30T13:42:20Z</time>
      </trkpt>
      <trkpt lat="43.591069" lon="12.508930">
        <ele>355.54480000000001</ele>
        <time>2013-06-30T13:42:22Z</time>
      </trkpt>
      <trkpt lat="43.591159" lon="12.508189">
        <ele>355.72570999999999</ele>
        <time>2013-06-30T13:42:29Z</time>
      </trkpt>
      <trkpt lat="43.591269" lon="12.507699">
        <ele>355.7876</ele>
        <time>2013-06-30T13:42:34Z</time>
      </trkpt>
      <trkpt lat="43.591719" lon="12.506630">
        <ele>355.98214999999999</ele>
        <time>2013-06-30T13:42:46Z</time>
      </trkpt>
      <trkpt lat="43.591770" lon="12.506520">
        <ele>356.02222</ele>
        <time>2013-06-30T13:42:47Z</time>
      </trkpt>
      <trkpt lat="43.591989" lon="12.505889">
        <ele>356.33334000000002</ele>
        <time>2013-06-30T13:42:54Z</time>
      </trkpt>
      <trkpt lat="43.592419" lon="12.504969">
        <ele>356.55721999999997</ele>
        <time>2013-06-30T13:43:04Z</time>
      </trkpt>
      <trkpt lat="43.592990" lon="12.504009">
        <ele>356.74392999999998</ele>
        <time>2013-06-30T13:43:16Z</time>
      </trkpt>
      <trkpt lat="43.593550" lon="12.503040">
        <ele>356.91913</ele>
        <time>2013-06-30T13:43:28Z</time>
      </trkpt>
      <trkpt lat="43.593629" lon="12.502910">
        <ele>356.96456999999998</ele>
        <time>2013-06-30T13:43:30Z</time>
      </trkpt>
      <trkpt lat="43.593810" lon="12.502690">
        <ele>357.03735</ele>
        <time>2013-06-30T13:43:33Z</time>
      </trkpt>
      <trkpt lat="43.594579" lon="12.502049">
        <ele>357.35030999999998</ele>
        <time>2013-06-30T13:43:45Z</time>
      </trkpt>
      <trkpt lat="43.594739" lon="12.501919">
        <ele>357.42664000000002</ele>
        <time>2013-06-30T13:43:48Z</time>
      </trkpt>
      <trkpt lat="43.595030" lon="12.501789">
        <ele>357.53687000000002</ele>
        <time>2013-06-30T13:43:52Z</time>
      </trkpt>
      <trkpt lat="43.595829" lon="12.501719">
        <ele>357.95134999999999</ele>
        <time>2013-06-30T13:44:03Z</time>
      </trkpt>
      <trkpt lat="43.596530" lon="12.501570">
        <ele>358.43700999999999</ele>
        <time>2013-06-30T13:44:12Z</time>
      </trkpt>
      <trkpt lat="43.597350" lon="12.501059">
        <ele>358.83575000000002</ele>
        <time>2013-06-30T13:44:24Z</time>
      </trkpt>
      <trkpt lat="43.598159" lon="12.500539">
        <ele>359.08282000000003</ele>
        <time>2013-06-30T13:44:36Z</time>
      </trkpt>
      <trkpt lat="43.598979" lon="12.500030">
        <ele>359.27911</ele>
        <time>2013-06-30T13:44:48Z</time>
      </trkpt>
      <trkpt lat="43.599390" lon="12.499770">
        <ele>359.38103999999998</ele>
        <time>2013-06-30T13:44:54Z</time>
      </trkpt>
      <trkpt lat="43.599820" lon="12.499379">
        <ele>359.51848999999999</ele>
        <time>2013-06-30T13:45:01Z</time>
      </trkpt>
      <trkpt lat="43.600089" lon="12.499040">
        <ele>359.60046</ele>
        <time>2013-06-30T13:45:06Z</time>
      </trkpt>
      <trkpt lat="43.600419" lon="12.498420">
        <ele>359.69922000000003</ele>
        <time>2013-06-30T13:45:13Z</time>
      </trkpt>
      <trkpt lat="43.600809" lon="12.497310">
        <ele>360.14539000000002</ele>
        <time>2013-06-30T13:45:25Z</time>
      </trkpt>
      <trkpt lat="43.600860" lon="12.497180">
        <ele>360.23068000000001</ele>
        <time>2013-06-30T13:45:27Z</time>
      </trkpt>
      <trkpt lat="43.601539" lon="12.496380">
        <ele>360.78345000000002</ele>
        <time>2013-06-30T13:45:39Z</time>
      </trkpt>
      <trkpt lat="43.601859" lon="12.496009">
        <ele>361.02794999999998</ele>
        <time>2013-06-30T13:45:44Z</time>
      </trkpt>
      <trkpt lat="43.602340" lon="12.494959">
        <ele>361.77382999999998</ele>
        <time>2013-06-30T13:45:56Z</time>
      </trkpt>
      <trkpt lat="43.602819" lon="12.493909">
        <ele>362.64487000000003</ele>
        <time>2013-06-30T13:46:08Z</time>
      </trkpt>
      <trkpt lat="43.603279" lon="12.492910">
        <ele>363.66656</ele>
        <time>2013-06-30T13:46:20Z</time>
      </trkpt>
      <trkpt lat="43.603780" lon="12.492239">
        <ele>364.51492000000002</ele>
        <time>2013-06-30T13:46:29Z</time>
      </trkpt>
      <trkpt lat="43.603950" lon="12.491950">
        <ele>364.92818999999997</ele>
        <time>2013-06-30T13:46:33Z</time>
      </trkpt>
      <trkpt lat="43.604450" lon="12.490919">
        <ele>366.26958999999999</ele>
        <time>2013-06-30T13:46:45Z</time>
      </trkpt>
      <trkpt lat="43.604640" lon="12.490519">
        <ele>366.74410999999998</ele>
        <time>2013-06-30T13:46:49Z</time>
      </trkpt>
      <trkpt lat="43.604840" lon="12.490180">
        <ele>367.22656000000001</ele>
        <time>2013-06-30T13:46:53Z</time>
      </trkpt>
      <trkpt lat="43.605079" lon="12.489950">
        <ele>367.71814000000001</ele>
        <time>2013-06-30T13:46:57Z</time>
      </trkpt>
      <trkpt lat="43.605860" lon="12.489509">
        <ele>369.15607</ele>
        <time>2013-06-30T13:47:09Z</time>
      </trkpt>
      <trkpt lat="43.606529" lon="12.489109">
        <ele>370.11777000000001</ele>
        <time>2013-06-30T13:47:18Z</time>
      </trkpt>
      <trkpt lat="43.606729" lon="12.488930">
        <ele>370.45593000000002</ele>
        <time>2013-06-30T13:47:22Z</time>
      </trkpt>
      <trkpt lat="43.607219" lon="12.488299">
        <ele>371.35732999999999</ele>
        <time>2013-06-30T13:47:30Z</time>
      </trkpt>
      <trkpt lat="43.607830" lon="12.487390">
        <ele>372.99822999999998</ele>
        <time>2013-06-30T13:47:42Z</time>
      </trkpt>
      <trkpt lat="43.608440" lon="12.486479">
        <ele>374.68563999999998</ele>
        <time>2013-06-30T13:47:54Z</time>
      </trkpt>
      <trkpt lat="43.608559" lon="12.486300">
        <ele>375.16953000000001</ele>
        <time>2013-06-30T13:47:57Z</time>
      </trkpt>
      <trkpt lat="43.608849" lon="12.485550">
        <ele>376.58670000000001</ele>
        <time>2013-06-30T13:48:05Z</time>
      </trkpt>
      <trkpt lat="43.609000" lon="12.485309">
        <ele>377.11736999999999</ele>
        <time>2013-06-30T13:48:08Z</time>
      </trkpt>
      <trkpt lat="43.609709" lon="12.484549">
        <ele>379.09305000000001</ele>
        <time>2013-06-30T13:48:20Z</time>
      </trkpt>
      <trkpt lat="43.610280" lon="12.483940">
        <ele>380.81002999999998</ele>
        <time>2013-06-30T13:48:30Z</time>
      </trkpt>
      <trkpt lat="43.610540" lon="12.483539">
        <ele>381.89837999999997</ele>
        <time>2013-06-30T13:48:35Z</time>
      </trkpt>
      <trkpt lat="43.610589" lon="12.483409">
        <ele>382.10906999999997</ele>
        <time>2013-06-30T13:48:36Z</time>
      </trkpt>
      <trkpt lat="43.610770" lon="12.482259">
        <ele>384.44092000000001</ele>
        <time>2013-06-30T13:48:48Z</time>
      </trkpt>
      <trkpt lat="43.611359" lon="12.481329">
        <ele>386.92086999999998</ele>
        <time>2013-06-30T13:49:00Z</time>
      </trkpt>
      <trkpt lat="43.611739" lon="12.480739">
        <ele>388.39483999999999</ele>
        <time>2013-06-30T13:49:07Z</time>
      </trkpt>
      <trkpt lat="43.612030" lon="12.480159">
        <ele>389.70114000000001</ele>
        <time>2013-06-30T13:49:14Z</time>
      </trkpt>
      <trkpt lat="43.612409" lon="12.479039">
        <ele>392.20116999999999</ele>
        <time>2013-06-30T13:49:26Z</time>
      </trkpt>
      <trkpt lat="43.612789" lon="12.477910">
        <ele>395.03149000000002</ele>
        <time>2013-06-30T13:49:38Z</time>
      </trkpt>
      <trkpt lat="43.613040" lon="12.477159">
        <ele>396.85419000000002</ele>
        <time>2013-06-30T13:49:46Z</time>
      </trkpt>
      <trkpt lat="43.613510" lon="12.476100">
        <ele>399.70724000000001</ele>
        <time>2013-06-30T13:49:58Z</time>
      </trkpt>
      <trkpt lat="43.613970" lon="12.475039">
        <ele>402.66845999999998</ele>
        <time>2013-06-30T13:50:10Z</time>
      </trkpt>
      <trkpt lat="43.614429" lon="12.473990">
        <ele>405.91653000000002</ele>
        <time>2013-06-30T13:50:22Z</time>
      </trkpt>
      <trkpt lat="43.614690" lon="12.473830">
        <ele>407.01940999999999</ele>
        <time>2013-06-30T13:50:26Z</time>
      </trkpt>
      <trkpt lat="43.615570" lon="12.473589">
        <ele>410.41732999999999</ele>
        <time>2013-06-30T13:50:38Z</time>
      </trkpt>
      <trkpt lat="43.616450" lon="12.473349">
        <ele>413.88162</ele>
        <time>2013-06-30T13:50:50Z</time>
      </trkpt>
      <trkpt lat="43.616729" lon="12.473270">
        <ele>415.08776999999998</ele>
        <time>2013-06-30T13:50:54Z</time>
      </trkpt>
      <trkpt lat="43.617240" lon="12.473270">
        <ele>416.86029000000002</ele>
        <time>2013-06-30T13:51:00Z</time>
      </trkpt>
      <trkpt lat="43.617540" lon="12.473380">
        <ele>418.01001000000002</ele>
        <time>2013-06-30T13:51:04Z</time>
      </trkpt>
      <trkpt lat="43.617900" lon="12.473700">
        <ele>419.73284999999998</ele>
        <time>2013-06-30T13:51:10Z</time>
      </trkpt>
      <trkpt lat="43.618599" lon="12.474490">
        <ele>423.31216000000001</ele>
        <time>2013-06-30T13:51:22Z</time>
      </trkpt>
      <trkpt lat="43.619289" lon="12.475269">
        <ele>426.83895999999999</ele>
        <time>2013-06-30T13:51:34Z</time>
      </trkpt>
      <trkpt lat="43.620140" lon="12.475670">
        <ele>430.20184</ele>
        <time>2013-06-30T13:51:46Z</time>
      </trkpt>
      <trkpt lat="43.620679" lon="12.475919">
        <ele>432.37848000000002</ele>
        <time>2013-06-30T13:51:54Z</time>
      </trkpt>
      <trkpt lat="43.620980" lon="12.475960">
        <ele>433.36221</ele>
        <time>2013-06-30T13:51:58Z</time>
      </trkpt>
      <trkpt lat="43.621169" lon="12.475879">
        <ele>434.06133999999997</ele>
        <time>2013-06-30T13:52:01Z</time>
      </trkpt>
      <trkpt lat="43.621570" lon="12.475159">
        <ele>435.92986999999999</ele>
        <time>2013-06-30T13:52:09Z</time>
      </trkpt>
      <trkpt lat="43.621889" lon="12.474869">
        <ele>437.0437</ele>
        <time>2013-06-30T13:52:14Z</time>
      </trkpt>
      <trkpt lat="43.622059" lon="12.474809">
        <ele>437.73876999999999</ele>
        <time>2013-06-30T13:52:17Z</time>
      </trkpt>
      <trkpt lat="43.622370" lon="12.474850">
        <ele>438.65546000000001</ele>
        <time>2013-06-30T13:52:21Z</time>
      </trkpt>
      <trkpt lat="43.622590" lon="12.474999">
        <ele>439.25143000000003</ele>
        <time>2013-06-30T13:52:24Z</time>
      </trkpt>
      <trkpt lat="43.622869" lon="12.475380">
        <ele>440.19220000000001</ele>
        <time>2013-06-30T13:52:29Z</time>
      </trkpt>
      <trkpt lat="43.623380" lon="12.475619">
        <ele>441.87374999999997</ele>
        <time>2013-06-30T13:52:37Z</time>
      </trkpt>
      <trkpt lat="43.624040" lon="12.476460">
        <ele>444.22244000000001</ele>
        <time>2013-06-30T13:52:49Z</time>
      </trkpt>
      <trkpt lat="43.624179" lon="12.476630">
        <ele>444.57458000000003</ele>
        <time>2013-06-30T13:52:51Z</time>
      </trkpt>
      <trkpt lat="43.624330" lon="12.476750">
        <ele>444.93252999999999</ele>
        <time>2013-06-30T13:52:53Z</time>
      </trkpt>
      <trkpt lat="43.624470" lon="12.476730">
        <ele>445.27350000000001</ele>
        <time>2013-06-30T13:52:55Z</time>
      </trkpt>
      <trkpt lat="43.624949" lon="12.476360">
        <ele>446.59044999999998</ele>
        <time>2013-06-30T13:53:03Z</time>
      </trkpt>
      <trkpt lat="43.625009" lon="12.476219">
        <ele>446.77118000000002</ele>
        <time>2013-06-30T13:53:04Z</time>
      </trkpt>
      <trkpt lat="43.624999" lon="12.475879">
        <ele>447.3374</ele>
        <time>2013-06-30T13:53:07Z</time>
      </trkpt>
      <trkpt lat="43.624660" lon="12.474999">
        <ele>449.07864000000001</ele>
        <time>2013-06-30T13:53:17Z</time>
      </trkpt>
      <trkpt lat="43.624630" lon="12.474809">
        <ele>449.42959999999999</ele>
        <time>2013-06-30T13:53:19Z</time>
      </trkpt>
      <trkpt lat="43.624690" lon="12.474590">
        <ele>449.77899000000002</ele>
        <time>2013-06-30T13:53:21Z</time>
      </trkpt>
      <trkpt lat="43.624849" lon="12.474539">
        <ele>450.11471999999998</ele>
        <time>2013-06-30T13:53:23Z</time>
      </trkpt>
      <trkpt lat="43.624949" lon="12.474660">
        <ele>450.43689000000001</ele>
        <time>2013-06-30T13:53:25Z</time>
      </trkpt>
      <trkpt lat="43.625009" lon="12.475150">
        <ele>451.18660999999997</ele>
        <time>2013-06-30T13:53:30Z</time>
      </trkpt>
      <trkpt lat="43.625439" lon="12.475830">
        <ele>452.45510999999999</ele>
        <time>2013-06-30T13:53:39Z</time>
      </trkpt>
      <trkpt lat="43.625740" lon="12.476999">
        <ele>454.25051999999999</ele>
        <time>2013-06-30T13:53:51Z</time>
      </trkpt>
      <trkpt lat="43.625740" lon="12.477010">
        <ele>454.25051999999999</ele>
        <time>2013-06-30T13:53:51Z</time>
      </trkpt>
      <trkpt lat="43.625799" lon="12.477150">
        <ele>454.39272999999997</ele>
        <time>2013-06-30T13:53:52Z</time>
      </trkpt>
      <trkpt lat="43.625940" lon="12.477199">
        <ele>454.66519</ele>
        <time>2013-06-30T13:53:54Z</time>
      </trkpt>
      <trkpt lat="43.626029" lon="12.477150">
        <ele>454.92178000000001</ele>
        <time>2013-06-30T13:53:56Z</time>
      </trkpt>
      <trkpt lat="43.626070" lon="12.476920">
        <ele>455.16541000000001</ele>
        <time>2013-06-30T13:53:58Z</time>
      </trkpt>
      <trkpt lat="43.625750" lon="12.475759">
        <ele>456.67766999999998</ele>
        <time>2013-06-30T13:54:10Z</time>
      </trkpt>
      <trkpt lat="43.625569" lon="12.475089">
        <ele>457.37630999999999</ele>
        <time>2013-06-30T13:54:17Z</time>
      </trkpt>
      <trkpt lat="43.625599" lon="12.474880">
        <ele>457.60888999999997</ele>
        <time>2013-06-30T13:54:19Z</time>
      </trkpt>
      <trkpt lat="43.625669" lon="12.474769">
        <ele>457.73093</ele>
        <time>2013-06-30T13:54:20Z</time>
      </trkpt>
      <trkpt lat="43.625850" lon="12.474750">
        <ele>458.11993000000001</ele>
        <time>2013-06-30T13:54:23Z</time>
      </trkpt>
      <trkpt lat="43.625929" lon="12.474839">
        <ele>458.25391000000002</ele>
        <time>2013-06-30T13:54:24Z</time>
      </trkpt>
      <trkpt lat="43.625950" lon="12.475480">
        <ele>458.98154</ele>
        <time>2013-06-30T13:54:30Z</time>
      </trkpt>
      <trkpt lat="43.626289" lon="12.476089">
        <ele>459.89281999999997</ele>
        <time>2013-06-30T13:54:38Z</time>
      </trkpt>
      <trkpt lat="43.626530" lon="12.476200">
        <ele>460.26970999999998</ele>
        <time>2013-06-30T13:54:41Z</time>
      </trkpt>
      <trkpt lat="43.627399" lon="12.475870">
        <ele>461.87936000000002</ele>
        <time>2013-06-30T13:54:53Z</time>
      </trkpt>
      <trkpt lat="43.628259" lon="12.475529">
        <ele>463.07760999999999</ele>
        <time>2013-06-30T13:55:05Z</time>
      </trkpt>
      <trkpt lat="43.628270" lon="12.475529">
        <ele>463.07760999999999</ele>
        <time>2013-06-30T13:55:05Z</time>
      </trkpt>
      <trkpt lat="43.628519" lon="12.475340">
        <ele>463.51981000000001</ele>
        <time>2013-06-30T13:55:09Z</time>
      </trkpt>
      <trkpt lat="43.628900" lon="12.474729">
        <ele>464.42932000000002</ele>
        <time>2013-06-30T13:55:17Z</time>
      </trkpt>
      <trkpt lat="43.629060" lon="12.474709">
        <ele>464.65454</ele>
        <time>2013-06-30T13:55:19Z</time>
      </trkpt>
      <trkpt lat="43.629880" lon="12.474839">
        <ele>465.96033</ele>
        <time>2013-06-30T13:55:30Z</time>
      </trkpt>
      <trkpt lat="43.629969" lon="12.474809">
        <ele>466.08303999999998</ele>
        <time>2013-06-30T13:55:31Z</time>
      </trkpt>
      <trkpt lat="43.630040" lon="12.474760">
        <ele>466.20357999999999</ele>
        <time>2013-06-30T13:55:32Z</time>
      </trkpt>
      <trkpt lat="43.630389" lon="12.474200">
        <ele>466.98397999999997</ele>
        <time>2013-06-30T13:55:40Z</time>
      </trkpt>
      <trkpt lat="43.631100" lon="12.473440">
        <ele>467.81957999999997</ele>
        <time>2013-06-30T13:55:52Z</time>
      </trkpt>
      <trkpt lat="43.631550" lon="12.472950">
        <ele>468.12423999999999</ele>
        <time>2013-06-30T13:55:59Z</time>
      </trkpt>
      <trkpt lat="43.632050" lon="12.471919">
        <ele>468.45346000000001</ele>
        <time>2013-06-30T13:56:11Z</time>
      </trkpt>
      <trkpt lat="43.632059" lon="12.471890">
        <ele>468.45346000000001</ele>
        <time>2013-06-30T13:56:11Z</time>
      </trkpt>
      <trkpt lat="43.632140" lon="12.471819">
        <ele>468.49731000000003</ele>
        <time>2013-06-30T13:56:13Z</time>
      </trkpt>
      <trkpt lat="43.632329" lon="12.471789">
        <ele>468.53838999999999</ele>
        <time>2013-06-30T13:56:15Z</time>
      </trkpt>
      <trkpt lat="43.632710" lon="12.472149">
        <ele>468.64532000000003</ele>
        <time>2013-06-30T13:56:21Z</time>
      </trkpt>
      <trkpt lat="43.632889" lon="12.472200">
        <ele>468.69128000000001</ele>
        <time>2013-06-30T13:56:24Z</time>
      </trkpt>
      <trkpt lat="43.633000" lon="12.472100">
        <ele>468.71872000000002</ele>
        <time>2013-06-30T13:56:26Z</time>
      </trkpt>
      <trkpt lat="43.633300" lon="12.471660">
        <ele>468.77584999999999</ele>
        <time>2013-06-30T13:56:31Z</time>
      </trkpt>
      <trkpt lat="43.633469" lon="12.471510">
        <ele>468.81594999999999</ele>
        <time>2013-06-30T13:56:34Z</time>
      </trkpt>
      <trkpt lat="43.633980" lon="12.471410">
        <ele>468.88720999999998</ele>
        <time>2013-06-30T13:56:41Z</time>
      </trkpt>
      <trkpt lat="43.634329" lon="12.471189">
        <ele>468.86777000000001</ele>
        <time>2013-06-30T13:56:46Z</time>
      </trkpt>
      <trkpt lat="43.634970" lon="12.470399">
        <ele>468.87918000000002</ele>
        <time>2013-06-30T13:56:58Z</time>
      </trkpt>
      <trkpt lat="43.635079" lon="12.470320">
        <ele>468.88278000000003</ele>
        <time>2013-06-30T13:56:59Z</time>
      </trkpt>
      <trkpt lat="43.635219" lon="12.470309">
        <ele>468.89654999999999</ele>
        <time>2013-06-30T13:57:01Z</time>
      </trkpt>
      <trkpt lat="43.635700" lon="12.470499">
        <ele>469.00967000000003</ele>
        <time>2013-06-30T13:57:08Z</time>
      </trkpt>
      <trkpt lat="43.635860" lon="12.470509">
        <ele>469.05410999999998</ele>
        <time>2013-06-30T13:57:10Z</time>
      </trkpt>
      <trkpt lat="43.635929" lon="12.470490">
        <ele>469.06414999999998</ele>
        <time>2013-06-30T13:57:11Z</time>
      </trkpt>
      <trkpt lat="43.636359" lon="12.470069">
        <ele>468.91000000000003</ele>
        <time>2013-06-30T13:57:18Z</time>
      </trkpt>
      <trkpt lat="43.636550" lon="12.470000">
        <ele>468.82364000000001</ele>
        <time>2013-06-30T13:57:21Z</time>
      </trkpt>
      <trkpt lat="43.636640" lon="12.470020">
        <ele>468.79297000000003</ele>
        <time>2013-06-30T13:57:22Z</time>
      </trkpt>
      <trkpt lat="43.636759" lon="12.470179">
        <ele>468.70816000000002</ele>
        <time>2013-06-30T13:57:24Z</time>
      </trkpt>
      <trkpt lat="43.636889" lon="12.471029">
        <ele>468.24261000000001</ele>
        <time>2013-06-30T13:57:32Z</time>
      </trkpt>
      <trkpt lat="43.636919" lon="12.471140">
        <ele>468.09973000000002</ele>
        <time>2013-06-30T13:57:34Z</time>
      </trkpt>
      <trkpt lat="43.637079" lon="12.471380">
        <ele>467.87448000000001</ele>
        <time>2013-06-30T13:57:37Z</time>
      </trkpt>
      <trkpt lat="43.637909" lon="12.471860">
        <ele>466.84469999999999</ele>
        <time>2013-06-30T13:57:49Z</time>
      </trkpt>
      <trkpt lat="43.638160" lon="12.472009">
        <ele>466.51089000000002</ele>
        <time>2013-06-30T13:57:52Z</time>
      </trkpt>
      <trkpt lat="43.638540" lon="12.472590">
        <ele>465.55124000000001</ele>
        <time>2013-06-30T13:58:00Z</time>
      </trkpt>
      <trkpt lat="43.638750" lon="12.472820">
        <ele>465.05579</ele>
        <time>2013-06-30T13:58:04Z</time>
      </trkpt>
      <trkpt lat="43.638840" lon="12.472869">
        <ele>464.89123999999998</ele>
        <time>2013-06-30T13:58:05Z</time>
      </trkpt>
      <trkpt lat="43.639530" lon="12.472920">
        <ele>463.86646000000002</ele>
        <time>2013-06-30T13:58:14Z</time>
      </trkpt>
      <trkpt lat="43.639890" lon="12.472999">
        <ele>463.31454000000002</ele>
        <time>2013-06-30T13:58:19Z</time>
      </trkpt>
      <trkpt lat="43.640409" lon="12.473579">
        <ele>462.16525000000001</ele>
        <time>2013-06-30T13:58:28Z</time>
      </trkpt>
      <trkpt lat="43.641070" lon="12.474420">
        <ele>459.85187000000002</ele>
        <time>2013-06-30T13:58:40Z</time>
      </trkpt>
      <trkpt lat="43.641370" lon="12.474939">
        <ele>458.77408000000003</ele>
        <time>2013-06-30T13:58:46Z</time>
      </trkpt>
      <trkpt lat="43.641809" lon="12.475840">
        <ele>456.65579000000002</ele>
        <time>2013-06-30T13:58:57Z</time>
      </trkpt>
      <trkpt lat="43.642429" lon="12.476739">
        <ele>454.07834000000003</ele>
        <time>2013-06-30T13:59:09Z</time>
      </trkpt>
      <trkpt lat="43.642539" lon="12.476899">
        <ele>453.69760000000002</ele>
        <time>2013-06-30T13:59:11Z</time>
      </trkpt>
      <trkpt lat="43.643099" lon="12.477870">
        <ele>451.30617999999998</ele>
        <time>2013-06-30T13:59:23Z</time>
      </trkpt>
      <trkpt lat="43.643410" lon="12.478390">
        <ele>449.86273</ele>
        <time>2013-06-30T13:59:29Z</time>
      </trkpt>
      <trkpt lat="43.643919" lon="12.479009">
        <ele>447.66608000000002</ele>
        <time>2013-06-30T13:59:38Z</time>
      </trkpt>
      <trkpt lat="43.644139" lon="12.479199">
        <ele>446.71899000000002</ele>
        <time>2013-06-30T13:59:42Z</time>
      </trkpt>
      <trkpt lat="43.644980" lon="12.479650">
        <ele>443.84323000000001</ele>
        <time>2013-06-30T13:59:54Z</time>
      </trkpt>
      <trkpt lat="43.645250" lon="12.479800">
        <ele>442.81862999999998</ele>
        <time>2013-06-30T13:59:58Z</time>
      </trkpt>
      <trkpt lat="43.645919" lon="12.479789">
        <ele>440.51596000000001</ele>
        <time>2013-06-30T14:00:07Z</time>
      </trkpt>
      <trkpt lat="43.646739" lon="12.480300">
        <ele>437.13940000000002</ele>
        <time>2013-06-30T14:00:19Z</time>
      </trkpt>
      <trkpt lat="43.647559" lon="12.480820">
        <ele>433.61297999999999</ele>
        <time>2013-06-30T14:00:31Z</time>
      </trkpt>
      <trkpt lat="43.647589" lon="12.480839">
        <ele>433.29937999999999</ele>
        <time>2013-06-30T14:00:32Z</time>
      </trkpt>
      <trkpt lat="43.647889" lon="12.481060">
        <ele>431.65933000000001</ele>
        <time>2013-06-30T14:00:37Z</time>
      </trkpt>
      <trkpt lat="43.648620" lon="12.481770">
        <ele>427.73862000000003</ele>
        <time>2013-06-30T14:00:49Z</time>
      </trkpt>
      <trkpt lat="43.649289" lon="12.482419">
        <ele>424.15573000000001</ele>
        <time>2013-06-30T14:01:00Z</time>
      </trkpt>
      <trkpt lat="43.649759" lon="12.482690">
        <ele>421.86550999999997</ele>
        <time>2013-06-30T14:01:07Z</time>
      </trkpt>
      <trkpt lat="43.650230" lon="12.482770">
        <ele>419.84368999999998</ele>
        <time>2013-06-30T14:01:13Z</time>
      </trkpt>
      <trkpt lat="43.650519" lon="12.482730">
        <ele>418.48568999999998</ele>
        <time>2013-06-30T14:01:17Z</time>
      </trkpt>
      <trkpt lat="43.651339" lon="12.482310">
        <ele>414.71548000000001</ele>
        <time>2013-06-30T14:01:28Z</time>
      </trkpt>
      <trkpt lat="43.651569" lon="12.482259">
        <ele>413.3605</ele>
        <time>2013-06-30T14:01:32Z</time>
      </trkpt>
      <trkpt lat="43.651750" lon="12.482319">
        <ele>412.68234000000001</ele>
        <time>2013-06-30T14:01:34Z</time>
      </trkpt>
      <trkpt lat="43.652330" lon="12.482660">
        <ele>409.96663999999998</ele>
        <time>2013-06-30T14:01:42Z</time>
      </trkpt>
      <trkpt lat="43.652969" lon="12.482790">
        <ele>406.94580000000002</ele>
        <time>2013-06-30T14:01:51Z</time>
      </trkpt>
      <trkpt lat="43.653420" lon="12.482969">
        <ele>404.95925999999997</ele>
        <time>2013-06-30T14:01:57Z</time>
      </trkpt>
      <trkpt lat="43.654200" lon="12.483580">
        <ele>401.08362</ele>
        <time>2013-06-30T14:02:09Z</time>
      </trkpt>
      <trkpt lat="43.654660" lon="12.483940">
        <ele>398.96722</ele>
        <time>2013-06-30T14:02:16Z</time>
      </trkpt>
      <trkpt lat="43.655250" lon="12.484870">
        <ele>395.44878999999997</ele>
        <time>2013-06-30T14:02:28Z</time>
      </trkpt>
      <trkpt lat="43.655369" lon="12.485060">
        <ele>394.59091000000001</ele>
        <time>2013-06-30T14:02:31Z</time>
      </trkpt>
      <trkpt lat="43.655950" lon="12.486010">
        <ele>390.98630000000003</ele>
        <time>2013-06-30T14:02:43Z</time>
      </trkpt>
      <trkpt lat="43.656519" lon="12.486960">
        <ele>387.41095000000001</ele>
        <time>2013-06-30T14:02:55Z</time>
      </trkpt>
      <trkpt lat="43.657100" lon="12.487910">
        <ele>383.90192000000002</ele>
        <time>2013-06-30T14:03:07Z</time>
      </trkpt>
      <trkpt lat="43.657590" lon="12.488719">
        <ele>381.13065</ele>
        <time>2013-06-30T14:03:17Z</time>
      </trkpt>
      <trkpt lat="43.657889" lon="12.489890">
        <ele>377.61678999999998</ele>
        <time>2013-06-30T14:03:29Z</time>
      </trkpt>
      <trkpt lat="43.658040" lon="12.490440">
        <ele>375.97559000000001</ele>
        <time>2013-06-30T14:03:35Z</time>
      </trkpt>
      <trkpt lat="43.658559" lon="12.491449">
        <ele>372.63245000000001</ele>
        <time>2013-06-30T14:03:47Z</time>
      </trkpt>
      <trkpt lat="43.659079" lon="12.492469">
        <ele>369.27478000000002</ele>
        <time>2013-06-30T14:03:59Z</time>
      </trkpt>
      <trkpt lat="43.659130" lon="12.492570">
        <ele>369.00896999999998</ele>
        <time>2013-06-30T14:04:00Z</time>
      </trkpt>
      <trkpt lat="43.659469" lon="12.493720">
        <ele>365.73788000000002</ele>
        <time>2013-06-30T14:04:12Z</time>
      </trkpt>
      <trkpt lat="43.659520" lon="12.493890">
        <ele>365.25385</ele>
        <time>2013-06-30T14:04:14Z</time>
      </trkpt>
      <trkpt lat="43.659690" lon="12.494109">
        <ele>364.50664999999998</ele>
        <time>2013-06-30T14:04:17Z</time>
      </trkpt>
      <trkpt lat="43.659929" lon="12.494199">
        <ele>363.73270000000002</ele>
        <time>2013-06-30T14:04:20Z</time>
      </trkpt>
      <trkpt lat="43.660310" lon="12.494310">
        <ele>362.39364999999998</ele>
        <time>2013-06-30T14:04:25Z</time>
      </trkpt>
      <trkpt lat="43.660559" lon="12.494520">
        <ele>361.36270000000002</ele>
        <time>2013-06-30T14:04:29Z</time>
      </trkpt>
      <trkpt lat="43.661009" lon="12.495309">
        <ele>358.72824000000003</ele>
        <time>2013-06-30T14:04:39Z</time>
      </trkpt>
      <trkpt lat="43.661639" lon="12.496199">
        <ele>355.28339</ele>
        <time>2013-06-30T14:04:51Z</time>
      </trkpt>
      <trkpt lat="43.661669" lon="12.496250">
        <ele>355.00380999999999</ele>
        <time>2013-06-30T14:04:52Z</time>
      </trkpt>
      <trkpt lat="43.662410" lon="12.496959">
        <ele>351.83825999999999</ele>
        <time>2013-06-30T14:05:04Z</time>
      </trkpt>
      <trkpt lat="43.663140" lon="12.497670">
        <ele>348.59273999999999</ele>
        <time>2013-06-30T14:05:16Z</time>
      </trkpt>
      <trkpt lat="43.663400" lon="12.497920">
        <ele>347.19681000000003</ele>
        <time>2013-06-30T14:05:21Z</time>
      </trkpt>
      <trkpt lat="43.663929" lon="12.498329">
        <ele>344.85205000000002</ele>
        <time>2013-06-30T14:05:29Z</time>
      </trkpt>
      <trkpt lat="43.664729" lon="12.498620">
        <ele>341.75707999999997</ele>
        <time>2013-06-30T14:05:40Z</time>
      </trkpt>
      <trkpt lat="43.665330" lon="12.498959">
        <ele>339.76256999999998</ele>
        <time>2013-06-30T14:05:48Z</time>
      </trkpt>
      <trkpt lat="43.665739" lon="12.499300">
        <ele>338.13141000000002</ele>
        <time>2013-06-30T14:05:55Z</time>
      </trkpt>
      <trkpt lat="43.666299" lon="12.499870">
        <ele>336.15784000000002</ele>
        <time>2013-06-30T14:06:04Z</time>
      </trkpt>
      <trkpt lat="43.667000" lon="12.500639">
        <ele>333.57925</ele>
        <time>2013-06-30T14:06:16Z</time>
      </trkpt>
      <trkpt lat="43.667240" lon="12.500899">
        <ele>332.72415000000001</ele>
        <time>2013-06-30T14:06:20Z</time>
      </trkpt>
      <trkpt lat="43.667920" lon="12.501719">
        <ele>330.17291</ele>
        <time>2013-06-30T14:06:32Z</time>
      </trkpt>
      <trkpt lat="43.668590" lon="12.502539">
        <ele>327.67275999999998</ele>
        <time>2013-06-30T14:06:44Z</time>
      </trkpt>
      <trkpt lat="43.668720" lon="12.502699">
        <ele>327.28823999999997</ele>
        <time>2013-06-30T14:06:46Z</time>
      </trkpt>
      <trkpt lat="43.669300" lon="12.503649">
        <ele>324.88531</ele>
        <time>2013-06-30T14:06:58Z</time>
      </trkpt>
      <trkpt lat="43.669749" lon="12.504400">
        <ele>322.82690000000002</ele>
        <time>2013-06-30T14:07:08Z</time>
      </trkpt>
      <trkpt lat="43.670469" lon="12.505150">
        <ele>320.81063999999998</ele>
        <time>2013-06-30T14:07:20Z</time>
      </trkpt>
      <trkpt lat="43.671180" lon="12.505900">
        <ele>319.11928999999998</ele>
        <time>2013-06-30T14:07:32Z</time>
      </trkpt>
      <trkpt lat="43.671319" lon="12.506040">
        <ele>318.88297</ele>
        <time>2013-06-30T14:07:34Z</time>
      </trkpt>
      <trkpt lat="43.671930" lon="12.506960">
        <ele>317.43029999999999</ele>
        <time>2013-06-30T14:07:46Z</time>
      </trkpt>
      <trkpt lat="43.672109" lon="12.507229">
        <ele>316.97039999999998</ele>
        <time>2013-06-30T14:07:50Z</time>
      </trkpt>
      <trkpt lat="43.672699" lon="12.508170">
        <ele>315.87247000000002</ele>
        <time>2013-06-30T14:08:02Z</time>
      </trkpt>
      <trkpt lat="43.673020" lon="12.508690">
        <ele>315.43045000000001</ele>
        <time>2013-06-30T14:08:08Z</time>
      </trkpt>
      <trkpt lat="43.673180" lon="12.509020">
        <ele>315.09798999999998</ele>
        <time>2013-06-30T14:08:12Z</time>
      </trkpt>
      <trkpt lat="43.673559" lon="12.510140">
        <ele>314.16824000000003</ele>
        <time>2013-06-30T14:08:24Z</time>
      </trkpt>
      <trkpt lat="43.673949" lon="12.511269">
        <ele>313.75326999999999</ele>
        <time>2013-06-30T14:08:36Z</time>
      </trkpt>
      <trkpt lat="43.674330" lon="12.512389">
        <ele>313.51825000000002</ele>
        <time>2013-06-30T14:08:48Z</time>
      </trkpt>
      <trkpt lat="43.674709" lon="12.513509">
        <ele>313.49709999999999</ele>
        <time>2013-06-30T14:09:00Z</time>
      </trkpt>
      <trkpt lat="43.674790" lon="12.513729">
        <ele>313.59509000000003</ele>
        <time>2013-06-30T14:09:03Z</time>
      </trkpt>
      <trkpt lat="43.674890" lon="12.513910">
        <ele>313.67227000000003</ele>
        <time>2013-06-30T14:09:05Z</time>
      </trkpt>
      <trkpt lat="43.674160" lon="12.514630">
        <ele>313.87948999999998</ele>
        <time>2013-06-30T14:09:17Z</time>
      </trkpt>
      <trkpt lat="43.673419" lon="12.515350">
        <ele>314.22980000000001</ele>
        <time>2013-06-30T14:09:29Z</time>
      </trkpt>
      <trkpt lat="43.673199" lon="12.515569">
        <ele>314.46334999999999</ele>
        <time>2013-06-30T14:09:33Z</time>
      </trkpt>
      <trkpt lat="43.672520" lon="12.516380">
        <ele>315.08636000000001</ele>
        <time>2013-06-30T14:09:45Z</time>
      </trkpt>
      <trkpt lat="43.671949" lon="12.517070">
        <ele>315.90035999999998</ele>
        <time>2013-06-30T14:09:55Z</time>
      </trkpt>
      <trkpt lat="43.671329" lon="12.517750">
        <ele>316.69851999999997</ele>
        <time>2013-06-30T14:10:05Z</time>
      </trkpt>
      <trkpt lat="43.671180" lon="12.517769">
        <ele>316.84100000000001</ele>
        <time>2013-06-30T14:10:07Z</time>
      </trkpt>
      <trkpt lat="43.671110" lon="12.517959">
        <ele>316.99615</ele>
        <time>2013-06-30T14:10:09Z</time>
      </trkpt>
      <trkpt lat="43.671159" lon="12.518129">
        <ele>317.16599000000002</ele>
        <time>2013-06-30T14:10:11Z</time>
      </trkpt>
      <trkpt lat="43.671270" lon="12.518180">
        <ele>317.34775000000002</ele>
        <time>2013-06-30T14:10:13Z</time>
      </trkpt>
      <trkpt lat="43.671249" lon="12.519420">
        <ele>318.38947000000002</ele>
        <time>2013-06-30T14:10:25Z</time>
      </trkpt>
      <trkpt lat="43.671240" lon="12.519869">
        <ele>318.75988999999998</ele>
        <time>2013-06-30T14:10:29Z</time>
      </trkpt>
      <trkpt lat="43.671180" lon="12.520640">
        <ele>319.36621000000002</ele>
        <time>2013-06-30T14:10:36Z</time>
      </trkpt>
      <trkpt lat="43.671199" lon="12.521100">
        <ele>319.70794999999998</ele>
        <time>2013-06-30T14:10:41Z</time>
      </trkpt>
      <trkpt lat="43.671370" lon="12.521850">
        <ele>320.39013999999997</ele>
        <time>2013-06-30T14:10:48Z</time>
      </trkpt>
      <trkpt lat="43.671670" lon="12.522499">
        <ele>321.19765999999998</ele>
        <time>2013-06-30T14:10:56Z</time>
      </trkpt>
      <trkpt lat="43.672009" lon="12.522849">
        <ele>321.82540999999998</ele>
        <time>2013-06-30T14:11:02Z</time>
      </trkpt>
      <trkpt lat="43.672269" lon="12.523029">
        <ele>322.16298999999998</ele>
        <time>2013-06-30T14:11:05Z</time>
      </trkpt>
      <trkpt lat="43.673120" lon="12.523430">
        <ele>323.55959999999999</ele>
        <time>2013-06-30T14:11:17Z</time>
      </trkpt>
      <trkpt lat="43.673970" lon="12.523830">
        <ele>324.98282</ele>
        <time>2013-06-30T14:11:29Z</time>
      </trkpt>
      <trkpt lat="43.674430" lon="12.524050">
        <ele>325.91726999999997</ele>
        <time>2013-06-30T14:11:36Z</time>
      </trkpt>
      <trkpt lat="43.675090" lon="12.524280">
        <ele>327.22030999999998</ele>
        <time>2013-06-30T14:11:45Z</time>
      </trkpt>
      <trkpt lat="43.675090" lon="12.524439">
        <ele>327.52643</ele>
        <time>2013-06-30T14:11:47Z</time>
      </trkpt>
      <trkpt lat="43.675129" lon="12.524520">
        <ele>327.68326000000002</ele>
        <time>2013-06-30T14:11:48Z</time>
      </trkpt>
      <trkpt lat="43.675280" lon="12.524580">
        <ele>328.00542999999999</ele>
        <time>2013-06-30T14:11:50Z</time>
      </trkpt>
      <trkpt lat="43.675440" lon="12.524550">
        <ele>328.33911000000001</ele>
        <time>2013-06-30T14:11:52Z</time>
      </trkpt>
      <trkpt lat="43.675519" lon="12.524459">
        <ele>328.51001000000002</ele>
        <time>2013-06-30T14:11:53Z</time>
      </trkpt>
      <trkpt lat="43.676300" lon="12.525059">
        <ele>330.63425000000001</ele>
        <time>2013-06-30T14:12:05Z</time>
      </trkpt>
      <trkpt lat="43.676679" lon="12.525349">
        <ele>331.58075000000002</ele>
        <time>2013-06-30T14:12:11Z</time>
      </trkpt>
      <trkpt lat="43.676820" lon="12.525370">
        <ele>331.91341999999997</ele>
        <time>2013-06-30T14:12:13Z</time>
      </trkpt>
      <trkpt lat="43.677169" lon="12.525180">
        <ele>332.79210999999998</ele>
        <time>2013-06-30T14:12:18Z</time>
      </trkpt>
      <trkpt lat="43.677199" lon="12.525370">
        <ele>333.16241000000002</ele>
        <time>2013-06-30T14:12:20Z</time>
      </trkpt>
      <trkpt lat="43.677099" lon="12.525930">
        <ele>334.06560999999999</ele>
        <time>2013-06-30T14:12:25Z</time>
      </trkpt>
      <trkpt lat="43.677329" lon="12.526580">
        <ele>335.29415999999998</ele>
        <time>2013-06-30T14:12:32Z</time>
      </trkpt>
      <trkpt lat="43.677489" lon="12.526740">
        <ele>335.85284000000001</ele>
        <time>2013-06-30T14:12:35Z</time>
      </trkpt>
      <trkpt lat="43.677889" lon="12.526710">
        <ele>336.83701000000002</ele>
        <time>2013-06-30T14:12:40Z</time>
      </trkpt>
      <trkpt lat="43.677979" lon="12.526920">
        <ele>337.25313999999997</ele>
        <time>2013-06-30T14:12:42Z</time>
      </trkpt>
      <trkpt lat="43.678309" lon="12.528079">
        <ele>339.6893</ele>
        <time>2013-06-30T14:12:54Z</time>
      </trkpt>
      <trkpt lat="43.678319" lon="12.528130">
        <ele>339.89746000000002</ele>
        <time>2013-06-30T14:12:55Z</time>
      </trkpt>
      <trkpt lat="43.678560" lon="12.528629">
        <ele>341.21521000000001</ele>
        <time>2013-06-30T14:13:01Z</time>
      </trkpt>
      <trkpt lat="43.679029" lon="12.529259">
        <ele>343.25952000000001</ele>
        <time>2013-06-30T14:13:10Z</time>
      </trkpt>
      <trkpt lat="43.679629" lon="12.529730">
        <ele>345.24533000000002</ele>
        <time>2013-06-30T14:13:19Z</time>
      </trkpt>
      <trkpt lat="43.679810" lon="12.529930">
        <ele>345.95963</ele>
        <time>2013-06-30T14:13:22Z</time>
      </trkpt>
      <trkpt lat="43.679989" lon="12.530239">
        <ele>346.94357000000002</ele>
        <time>2013-06-30T14:13:26Z</time>
      </trkpt>
      <trkpt lat="43.680049" lon="12.530799">
        <ele>348.16498000000001</ele>
        <time>2013-06-30T14:13:31Z</time>
      </trkpt>
      <trkpt lat="43.680159" lon="12.530959">
        <ele>348.64828</ele>
        <time>2013-06-30T14:13:33Z</time>
      </trkpt>
      <trkpt lat="43.680360" lon="12.530959">
        <ele>349.36676</ele>
        <time>2013-06-30T14:13:36Z</time>
      </trkpt>
      <trkpt lat="43.680440" lon="12.530869">
        <ele>349.60379</ele>
        <time>2013-06-30T14:13:37Z</time>
      </trkpt>
      <trkpt lat="43.680479" lon="12.530750">
        <ele>350.07904000000002</ele>
        <time>2013-06-30T14:13:39Z</time>
      </trkpt>
      <trkpt lat="43.680479" lon="12.530439">
        <ele>350.80358999999999</ele>
        <time>2013-06-30T14:13:42Z</time>
      </trkpt>
      <trkpt lat="43.680430" lon="12.529900">
        <ele>352.05518000000001</ele>
        <time>2013-06-30T14:13:47Z</time>
      </trkpt>
      <trkpt lat="43.680289" lon="12.529340">
        <ele>353.59399000000002</ele>
        <time>2013-06-30T14:13:53Z</time>
      </trkpt>
      <trkpt lat="43.679989" lon="12.528669">
        <ele>355.28775000000002</ele>
        <time>2013-06-30T14:14:00Z</time>
      </trkpt>
      <trkpt lat="43.680000" lon="12.528580">
        <ele>355.51760999999999</ele>
        <time>2013-06-30T14:14:01Z</time>
      </trkpt>
      <trkpt lat="43.680079" lon="12.528469">
        <ele>355.97122000000002</ele>
        <time>2013-06-30T14:14:03Z</time>
      </trkpt>
      <trkpt lat="43.680170" lon="12.528480">
        <ele>356.19481999999999</ele>
        <time>2013-06-30T14:14:04Z</time>
      </trkpt>
      <trkpt lat="43.680270" lon="12.528580">
        <ele>356.63754</ele>
        <time>2013-06-30T14:14:06Z</time>
      </trkpt>
      <trkpt lat="43.680660" lon="12.529510">
        <ele>358.80108999999999</ele>
        <time>2013-06-30T14:14:16Z</time>
      </trkpt>
      <trkpt lat="43.680769" lon="12.529659">
        <ele>359.23156999999998</ele>
        <time>2013-06-30T14:14:18Z</time>
      </trkpt>
      <trkpt lat="43.680900" lon="12.529719">
        <ele>359.67523</ele>
        <time>2013-06-30T14:14:20Z</time>
      </trkpt>
      <trkpt lat="43.681190" lon="12.529659">
        <ele>360.59084999999999</ele>
        <time>2013-06-30T14:14:24Z</time>
      </trkpt>
      <trkpt lat="43.681729" lon="12.529340">
        <ele>362.45145000000002</ele>
        <time>2013-06-30T14:14:32Z</time>
      </trkpt>
      <trkpt lat="43.682170" lon="12.529300">
        <ele>363.59897000000001</ele>
        <time>2013-06-30T14:14:37Z</time>
      </trkpt>
      <trkpt lat="43.682370" lon="12.529440">
        <ele>364.27456999999998</ele>
        <time>2013-06-30T14:14:40Z</time>
      </trkpt>
      <trkpt lat="43.682419" lon="12.529570">
        <ele>364.72449</ele>
        <time>2013-06-30T14:14:42Z</time>
      </trkpt>
      <trkpt lat="43.682460" lon="12.529970">
        <ele>365.71893</ele>
        <time>2013-06-30T14:14:46Z</time>
      </trkpt>
      <trkpt lat="43.682560" lon="12.530019">
        <ele>365.98903999999999</ele>
        <time>2013-06-30T14:14:47Z</time>
      </trkpt>
      <trkpt lat="43.682619" lon="12.529979">
        <ele>366.26760999999999</ele>
        <time>2013-06-30T14:14:48Z</time>
      </trkpt>
      <trkpt lat="43.682649" lon="12.529889">
        <ele>366.55471999999997</ele>
        <time>2013-06-30T14:14:49Z</time>
      </trkpt>
      <trkpt lat="43.682609" lon="12.529380">
        <ele>368.00146000000001</ele>
        <time>2013-06-30T14:14:54Z</time>
      </trkpt>
      <trkpt lat="43.682519" lon="12.529250">
        <ele>368.56493999999998</ele>
        <time>2013-06-30T14:14:56Z</time>
      </trkpt>
      <trkpt lat="43.682200" lon="12.528999">
        <ele>369.93033000000003</ele>
        <time>2013-06-30T14:15:01Z</time>
      </trkpt>
      <trkpt lat="43.682149" lon="12.528910">
        <ele>370.20519999999999</ele>
        <time>2013-06-30T14:15:02Z</time>
      </trkpt>
      <trkpt lat="43.682149" lon="12.528799">
        <ele>370.48192999999998</ele>
        <time>2013-06-30T14:15:03Z</time>
      </trkpt>
      <trkpt lat="43.682210" lon="12.528739">
        <ele>370.75668000000002</ele>
        <time>2013-06-30T14:15:04Z</time>
      </trkpt>
      <trkpt lat="43.682359" lon="12.528759">
        <ele>371.28829999999999</ele>
        <time>2013-06-30T14:15:06Z</time>
      </trkpt>
      <trkpt lat="43.682730" lon="12.529170">
        <ele>372.76558999999997</ele>
        <time>2013-06-30T14:15:12Z</time>
      </trkpt>
      <trkpt lat="43.682819" lon="12.529549">
        <ele>373.78859999999997</ele>
        <time>2013-06-30T14:15:16Z</time>
      </trkpt>
      <trkpt lat="43.683049" lon="12.529889">
        <ele>374.87729000000002</ele>
        <time>2013-06-30T14:15:20Z</time>
      </trkpt>
      <trkpt lat="43.683049" lon="12.530239">
        <ele>375.99901999999997</ele>
        <time>2013-06-30T14:15:24Z</time>
      </trkpt>
      <trkpt lat="43.682939" lon="12.530499">
        <ele>376.83465999999999</ele>
        <time>2013-06-30T14:15:27Z</time>
      </trkpt>
      <trkpt lat="43.682600" lon="12.530680">
        <ele>378.23302999999999</ele>
        <time>2013-06-30T14:15:32Z</time>
      </trkpt>
      <trkpt lat="43.682389" lon="12.530910">
        <ele>379.07004000000001</ele>
        <time>2013-06-30T14:15:35Z</time>
      </trkpt>
      <trkpt lat="43.682289" lon="12.531080">
        <ele>379.62625000000003</ele>
        <time>2013-06-30T14:15:37Z</time>
      </trkpt>
      <trkpt lat="43.682080" lon="12.531649">
        <ele>381.28728999999998</ele>
        <time>2013-06-30T14:15:43Z</time>
      </trkpt>
      <trkpt lat="43.682040" lon="12.531949">
        <ele>382.10480000000001</ele>
        <time>2013-06-30T14:15:46Z</time>
      </trkpt>
      <trkpt lat="43.682180" lon="12.532639">
        <ele>383.98214999999999</ele>
        <time>2013-06-30T14:15:53Z</time>
      </trkpt>
      <trkpt lat="43.682159" lon="12.533550">
        <ele>386.34411999999998</ele>
        <time>2013-06-30T14:16:02Z</time>
      </trkpt>
      <trkpt lat="43.682230" lon="12.533689">
        <ele>386.84478999999999</ele>
        <time>2013-06-30T14:16:04Z</time>
      </trkpt>
      <trkpt lat="43.682519" lon="12.533830">
        <ele>387.83010999999999</ele>
        <time>2013-06-30T14:16:08Z</time>
      </trkpt>
      <trkpt lat="43.682719" lon="12.534019">
        <ele>388.58731</ele>
        <time>2013-06-30T14:16:11Z</time>
      </trkpt>
      <trkpt lat="43.682819" lon="12.534219">
        <ele>389.10167999999999</ele>
        <time>2013-06-30T14:16:13Z</time>
      </trkpt>
      <trkpt lat="43.682849" lon="12.534490">
        <ele>389.88763</ele>
        <time>2013-06-30T14:16:16Z</time>
      </trkpt>
      <trkpt lat="43.682749" lon="12.534839">
        <ele>390.892</ele>
        <time>2013-06-30T14:16:20Z</time>
      </trkpt>
      <trkpt lat="43.682630" lon="12.534950">
        <ele>391.37414999999999</ele>
        <time>2013-06-30T14:16:22Z</time>
      </trkpt>
      <trkpt lat="43.682159" lon="12.534980">
        <ele>392.80106000000001</ele>
        <time>2013-06-30T14:16:28Z</time>
      </trkpt>
      <trkpt lat="43.681680" lon="12.534939">
        <ele>394.2106</ele>
        <time>2013-06-30T14:16:34Z</time>
      </trkpt>
      <trkpt lat="43.681659" lon="12.535069">
        <ele>394.67313000000001</ele>
        <time>2013-06-30T14:16:36Z</time>
      </trkpt>
      <trkpt lat="43.681699" lon="12.535139">
        <ele>394.90244000000001</ele>
        <time>2013-06-30T14:16:37Z</time>
      </trkpt>
      <trkpt lat="43.682249" lon="12.535429">
        <ele>396.63425000000001</ele>
        <time>2013-06-30T14:16:45Z</time>
      </trkpt>
      <trkpt lat="43.682359" lon="12.535570">
        <ele>397.03122000000002</ele>
        <time>2013-06-30T14:16:47Z</time>
      </trkpt>
      <trkpt lat="43.682370" lon="12.535729">
        <ele>397.44537000000003</ele>
        <time>2013-06-30T14:16:49Z</time>
      </trkpt>
      <trkpt lat="43.682330" lon="12.535910">
        <ele>397.88738999999998</ele>
        <time>2013-06-30T14:16:51Z</time>
      </trkpt>
      <trkpt lat="43.682189" lon="12.536130">
        <ele>398.59285999999997</ele>
        <time>2013-06-30T14:16:54Z</time>
      </trkpt>
      <trkpt lat="43.681959" lon="12.536370">
        <ele>399.27515</ele>
        <time>2013-06-30T14:16:57Z</time>
      </trkpt>
      <trkpt lat="43.681959" lon="12.536519">
        <ele>399.71276999999998</ele>
        <time>2013-06-30T14:16:59Z</time>
      </trkpt>
      <trkpt lat="43.682530" lon="12.536700">
        <ele>401.35788000000002</ele>
        <time>2013-06-30T14:17:07Z</time>
      </trkpt>
      <trkpt lat="43.682700" lon="12.536800">
        <ele>401.72809000000001</ele>
        <time>2013-06-30T14:17:09Z</time>
      </trkpt>
      <trkpt lat="43.683190" lon="12.537719">
        <ele>403.70598999999999</ele>
        <time>2013-06-30T14:17:20Z</time>
      </trkpt>
      <trkpt lat="43.683369" lon="12.538360">
        <ele>405.13396999999998</ele>
        <time>2013-06-30T14:17:27Z</time>
      </trkpt>
      <trkpt lat="43.683409" lon="12.538839">
        <ele>405.91131999999999</ele>
        <time>2013-06-30T14:17:31Z</time>
      </trkpt>
      <trkpt lat="43.683510" lon="12.538999">
        <ele>406.45688000000001</ele>
        <time>2013-06-30T14:17:34Z</time>
      </trkpt>
      <trkpt lat="43.684010" lon="12.539360">
        <ele>407.69887999999997</ele>
        <time>2013-06-30T14:17:41Z</time>
      </trkpt>
      <trkpt lat="43.684070" lon="12.539459">
        <ele>407.87848000000002</ele>
        <time>2013-06-30T14:17:42Z</time>
      </trkpt>
      <trkpt lat="43.684249" lon="12.540340">
        <ele>409.43671000000001</ele>
        <time>2013-06-30T14:17:51Z</time>
      </trkpt>
      <trkpt lat="43.684370" lon="12.540670">
        <ele>410.09796</ele>
        <time>2013-06-30T14:17:55Z</time>
      </trkpt>
      <trkpt lat="43.684979" lon="12.541439">
        <ele>411.80660999999998</ele>
        <time>2013-06-30T14:18:06Z</time>
      </trkpt>
      <trkpt lat="43.685260" lon="12.541620">
        <ele>412.58562999999998</ele>
        <time>2013-06-30T14:18:10Z</time>
      </trkpt>
      <trkpt lat="43.686129" lon="12.541950">
        <ele>414.84793000000002</ele>
        <time>2013-06-30T14:18:22Z</time>
      </trkpt>
      <trkpt lat="43.686180" lon="12.541969">
        <ele>415.05462999999997</ele>
        <time>2013-06-30T14:18:23Z</time>
      </trkpt>
      <trkpt lat="43.686900" lon="12.542709">
        <ele>417.25475999999998</ele>
        <time>2013-06-30T14:18:35Z</time>
      </trkpt>
      <trkpt lat="43.687090" lon="12.542900">
        <ele>417.79712000000001</ele>
        <time>2013-06-30T14:18:38Z</time>
      </trkpt>
      <trkpt lat="43.687260" lon="12.542930">
        <ele>418.17169000000001</ele>
        <time>2013-06-30T14:18:40Z</time>
      </trkpt>
      <trkpt lat="43.687869" lon="12.542660">
        <ele>419.89240000000001</ele>
        <time>2013-06-30T14:18:49Z</time>
      </trkpt>
      <trkpt lat="43.688140" lon="12.542700">
        <ele>420.49511999999999</ele>
        <time>2013-06-30T14:18:52Z</time>
      </trkpt>
      <trkpt lat="43.688979" lon="12.543120">
        <ele>422.45819</ele>
        <time>2013-06-30T14:19:04Z</time>
      </trkpt>
      <trkpt lat="43.689539" lon="12.543399">
        <ele>423.70285000000001</ele>
        <time>2013-06-30T14:19:12Z</time>
      </trkpt>
      <trkpt lat="43.689750" lon="12.543599">
        <ele>424.38080000000002</ele>
        <time>2013-06-30T14:19:16Z</time>
      </trkpt>
      <trkpt lat="43.690029" lon="12.543980">
        <ele>425.17541999999997</ele>
        <time>2013-06-30T14:19:21Z</time>
      </trkpt>
      <trkpt lat="43.690370" lon="12.544570">
        <ele>426.06195000000002</ele>
        <time>2013-06-30T14:19:28Z</time>
      </trkpt>
      <trkpt lat="43.690459" lon="12.544800">
        <ele>426.35122999999999</ele>
        <time>2013-06-30T14:19:31Z</time>
      </trkpt>
      <trkpt lat="43.690629" lon="12.545829">
        <ele>427.24752999999998</ele>
        <time>2013-06-30T14:19:41Z</time>
      </trkpt>
      <trkpt lat="43.690979" lon="12.546489">
        <ele>428.08112</ele>
        <time>2013-06-30T14:19:49Z</time>
      </trkpt>
      <trkpt lat="43.691019" lon="12.546889">
        <ele>428.30768</ele>
        <time>2013-06-30T14:19:53Z</time>
      </trkpt>
      <trkpt lat="43.691219" lon="12.547439">
        <ele>428.53192000000001</ele>
        <time>2013-06-30T14:19:58Z</time>
      </trkpt>
      <trkpt lat="43.691209" lon="12.547639">
        <ele>428.65231</ele>
        <time>2013-06-30T14:20:00Z</time>
      </trkpt>
      <trkpt lat="43.691119" lon="12.547829">
        <ele>428.86309999999997</ele>
        <time>2013-06-30T14:20:03Z</time>
      </trkpt>
      <trkpt lat="43.690659" lon="12.548199">
        <ele>429.2901</ele>
        <time>2013-06-30T14:20:10Z</time>
      </trkpt>
      <trkpt lat="43.690470" lon="12.548450">
        <ele>429.46201000000002</ele>
        <time>2013-06-30T14:20:13Z</time>
      </trkpt>
      <trkpt lat="43.690299" lon="12.548849">
        <ele>429.81006000000002</ele>
        <time>2013-06-30T14:20:18Z</time>
      </trkpt>
      <trkpt lat="43.690259" lon="12.549160">
        <ele>430.07364000000001</ele>
        <time>2013-06-30T14:20:21Z</time>
      </trkpt>
      <trkpt lat="43.690320" lon="12.549279">
        <ele>430.16543999999999</ele>
        <time>2013-06-30T14:20:22Z</time>
      </trkpt>
      <trkpt lat="43.690399" lon="12.549330">
        <ele>430.25754000000001</ele>
        <time>2013-06-30T14:20:23Z</time>
      </trkpt>
      <trkpt lat="43.690710" lon="12.549409">
        <ele>430.70337000000001</ele>
        <time>2013-06-30T14:20:28Z</time>
      </trkpt>
      <trkpt lat="43.691600" lon="12.549539">
        <ele>432.15338000000003</ele>
        <time>2013-06-30T14:20:40Z</time>
      </trkpt>
      <trkpt lat="43.691660" lon="12.549549">
        <ele>432.30878000000001</ele>
        <time>2013-06-30T14:20:41Z</time>
      </trkpt>
      <trkpt lat="43.692120" lon="12.549530">
        <ele>433.15746999999999</ele>
        <time>2013-06-30T14:20:47Z</time>
      </trkpt>
      <trkpt lat="43.692959" lon="12.549100">
        <ele>434.48383000000001</ele>
        <time>2013-06-30T14:20:59Z</time>
      </trkpt>
      <trkpt lat="43.693360" lon="12.548900">
        <ele>435.17815999999999</ele>
        <time>2013-06-30T14:21:05Z</time>
      </trkpt>
      <trkpt lat="43.694129" lon="12.548640">
        <ele>436.29748999999998</ele>
        <time>2013-06-30T14:21:16Z</time>
      </trkpt>
      <trkpt lat="43.694359" lon="12.548650">
        <ele>436.60262999999998</ele>
        <time>2013-06-30T14:21:19Z</time>
      </trkpt>
      <trkpt lat="43.694759" lon="12.548879">
        <ele>437.28960999999998</ele>
        <time>2013-06-30T14:21:25Z</time>
      </trkpt>
      <trkpt lat="43.695200" lon="12.549390">
        <ele>438.01125999999999</ele>
        <time>2013-06-30T14:21:32Z</time>
      </trkpt>
      <trkpt lat="43.695509" lon="12.549960">
        <ele>438.77010999999999</ele>
        <time>2013-06-30T14:21:39Z</time>
      </trkpt>
      <trkpt lat="43.695700" lon="12.550650">
        <ele>439.50024000000002</ele>
        <time>2013-06-30T14:21:46Z</time>
      </trkpt>
      <trkpt lat="43.696030" lon="12.551070">
        <ele>440.12768999999997</ele>
        <time>2013-06-30T14:21:52Z</time>
      </trkpt>
      <trkpt lat="43.696190" lon="12.551500">
        <ele>440.63204999999999</ele>
        <time>2013-06-30T14:21:57Z</time>
      </trkpt>
      <trkpt lat="43.696229" lon="12.551830">
        <ele>440.89019999999999</ele>
        <time>2013-06-30T14:22:00Z</time>
      </trkpt>
      <trkpt lat="43.696190" lon="12.552020">
        <ele>441.05507999999998</ele>
        <time>2013-06-30T14:22:02Z</time>
      </trkpt>
      <trkpt lat="43.695709" lon="12.552889">
        <ele>441.97888</ele>
        <time>2013-06-30T14:22:13Z</time>
      </trkpt>
      <trkpt lat="43.695370" lon="12.553869">
        <ele>443.12387000000001</ele>
        <time>2013-06-30T14:22:23Z</time>
      </trkpt>
      <trkpt lat="43.695330" lon="12.554150">
        <ele>443.52670000000001</ele>
        <time>2013-06-30T14:22:26Z</time>
      </trkpt>
      <trkpt lat="43.695360" lon="12.554629">
        <ele>443.76895000000002</ele>
        <time>2013-06-30T14:22:31Z</time>
      </trkpt>
      <trkpt lat="43.695579" lon="12.555099">
        <ele>444.06213000000002</ele>
        <time>2013-06-30T14:22:36Z</time>
      </trkpt>
      <trkpt lat="43.695639" lon="12.555400">
        <ele>444.26229999999998</ele>
        <time>2013-06-30T14:22:39Z</time>
      </trkpt>
      <trkpt lat="43.695719" lon="12.556639">
        <ele>445.19366000000002</ele>
        <time>2013-06-30T14:22:51Z</time>
      </trkpt>
      <trkpt lat="43.695749" lon="12.557129">
        <ele>445.55563000000001</ele>
        <time>2013-06-30T14:22:56Z</time>
      </trkpt>
      <trkpt lat="43.695830" lon="12.557419">
        <ele>445.78598</ele>
        <time>2013-06-30T14:22:59Z</time>
      </trkpt>
      <trkpt lat="43.696060" lon="12.557949">
        <ele>446.25885</ele>
        <time>2013-06-30T14:23:05Z</time>
      </trkpt>
      <trkpt lat="43.696079" lon="12.558290">
        <ele>446.46334999999999</ele>
        <time>2013-06-30T14:23:08Z</time>
      </trkpt>
      <trkpt lat="43.696030" lon="12.558499">
        <ele>446.61608999999999</ele>
        <time>2013-06-30T14:23:10Z</time>
      </trkpt>
      <trkpt lat="43.695790" lon="12.558810">
        <ele>446.95413000000002</ele>
        <time>2013-06-30T14:23:14Z</time>
      </trkpt>
      <trkpt lat="43.695219" lon="12.559240">
        <ele>447.72888</ele>
        <time>2013-06-30T14:23:23Z</time>
      </trkpt>
      <trkpt lat="43.694719" lon="12.559480">
        <ele>448.28658999999999</ele>
        <time>2013-06-30T14:23:30Z</time>
      </trkpt>
      <trkpt lat="43.694669" lon="12.559559">
        <ele>448.37313999999998</ele>
        <time>2013-06-30T14:23:31Z</time>
      </trkpt>
      <trkpt lat="43.694689" lon="12.559670">
        <ele>448.46136000000001</ele>
        <time>2013-06-30T14:23:32Z</time>
      </trkpt>
      <trkpt lat="43.694750" lon="12.559689">
        <ele>448.55160999999998</ele>
        <time>2013-06-30T14:23:33Z</time>
      </trkpt>
      <trkpt lat="43.695249" lon="12.559449">
        <ele>449.08472</ele>
        <time>2013-06-30T14:23:40Z</time>
      </trkpt>
      <trkpt lat="43.695389" lon="12.559410">
        <ele>449.16845999999998</ele>
        <time>2013-06-30T14:23:42Z</time>
      </trkpt>
      <trkpt lat="43.695539" lon="12.559440">
        <ele>449.25576999999998</ele>
        <time>2013-06-30T14:23:44Z</time>
      </trkpt>
      <trkpt lat="43.695849" lon="12.559779">
        <ele>449.48987</ele>
        <time>2013-06-30T14:23:49Z</time>
      </trkpt>
      <trkpt lat="43.696150" lon="12.560479">
        <ele>449.92016999999998</ele>
        <time>2013-06-30T14:23:57Z</time>
      </trkpt>
      <trkpt lat="43.696299" lon="12.560739">
        <ele>450.20418999999998</ele>
        <time>2013-06-30T14:24:01Z</time>
      </trkpt>
      <trkpt lat="43.696390" lon="12.560799">
        <ele>450.28246999999999</ele>
        <time>2013-06-30T14:24:02Z</time>
      </trkpt>
      <trkpt lat="43.696850" lon="12.560620">
        <ele>450.78201000000001</ele>
        <time>2013-06-30T14:24:08Z</time>
      </trkpt>
      <trkpt lat="43.697049" lon="12.560639">
        <ele>451.04253999999997</ele>
        <time>2013-06-30T14:24:11Z</time>
      </trkpt>
      <trkpt lat="43.697479" lon="12.560929">
        <ele>451.56128000000001</ele>
        <time>2013-06-30T14:24:17Z</time>
      </trkpt>
      <trkpt lat="43.697709" lon="12.561140">
        <ele>451.98563000000001</ele>
        <time>2013-06-30T14:24:21Z</time>
      </trkpt>
      <trkpt lat="43.697939" lon="12.561440">
        <ele>452.47043000000002</ele>
        <time>2013-06-30T14:24:25Z</time>
      </trkpt>
      <trkpt lat="43.698069" lon="12.561789">
        <ele>452.92824999999999</ele>
        <time>2013-06-30T14:24:29Z</time>
      </trkpt>
      <trkpt lat="43.698120" lon="12.562319">
        <ele>453.27193999999997</ele>
        <time>2013-06-30T14:24:34Z</time>
      </trkpt>
      <trkpt lat="43.698190" lon="12.562590">
        <ele>453.49651999999998</ele>
        <time>2013-06-30T14:24:37Z</time>
      </trkpt>
      <trkpt lat="43.698399" lon="12.562939">
        <ele>453.95886000000002</ele>
        <time>2013-06-30T14:24:41Z</time>
      </trkpt>
      <trkpt lat="43.698739" lon="12.563299">
        <ele>454.60262999999998</ele>
        <time>2013-06-30T14:24:47Z</time>
      </trkpt>
      <trkpt lat="43.698840" lon="12.563489">
        <ele>454.69243999999998</ele>
        <time>2013-06-30T14:24:49Z</time>
      </trkpt>
      <trkpt lat="43.698859" lon="12.563740">
        <ele>454.77325000000002</ele>
        <time>2013-06-30T14:24:52Z</time>
      </trkpt>
      <trkpt lat="43.698789" lon="12.564160">
        <ele>454.96158000000003</ele>
        <time>2013-06-30T14:24:56Z</time>
      </trkpt>
      <trkpt lat="43.698480" lon="12.564869">
        <ele>455.65438999999998</ele>
        <time>2013-06-30T14:25:04Z</time>
      </trkpt>
      <trkpt lat="43.698460" lon="12.565039">
        <ele>455.72039999999998</ele>
        <time>2013-06-30T14:25:06Z</time>
      </trkpt>
      <trkpt lat="43.698750" lon="12.565420">
        <ele>455.92853000000002</ele>
        <time>2013-06-30T14:25:11Z</time>
      </trkpt>
      <trkpt lat="43.698810" lon="12.565629">
        <ele>456.01321000000002</ele>
        <time>2013-06-30T14:25:13Z</time>
      </trkpt>
      <trkpt lat="43.698810" lon="12.566210">
        <ele>456.18853999999999</ele>
        <time>2013-06-30T14:25:19Z</time>
      </trkpt>
      <trkpt lat="43.698739" lon="12.567030">
        <ele>456.43090999999998</ele>
        <time>2013-06-30T14:25:27Z</time>
      </trkpt>
      <trkpt lat="43.698780" lon="12.567399">
        <ele>456.64440999999999</ele>
        <time>2013-06-30T14:25:30Z</time>
      </trkpt>
      <trkpt lat="43.698880" lon="12.567810">
        <ele>456.98903999999999</ele>
        <time>2013-06-30T14:25:35Z</time>
      </trkpt>
      <trkpt lat="43.699159" lon="12.568540">
        <ele>457.36748999999998</ele>
        <time>2013-06-30T14:25:42Z</time>
      </trkpt>
      <trkpt lat="43.699549" lon="12.569399">
        <ele>458.34674000000001</ele>
        <time>2013-06-30T14:25:52Z</time>
      </trkpt>
      <trkpt lat="43.699839" lon="12.570389">
        <ele>459.39666999999997</ele>
        <time>2013-06-30T14:26:03Z</time>
      </trkpt>
      <trkpt lat="43.700230" lon="12.571509">
        <ele>460.43851000000001</ele>
        <time>2013-06-30T14:26:15Z</time>
      </trkpt>
      <trkpt lat="43.700409" lon="12.571999">
        <ele>460.858</ele>
        <time>2013-06-30T14:26:20Z</time>
      </trkpt>
      <trkpt lat="43.700620" lon="12.572319">
        <ele>461.17827999999997</ele>
        <time>2013-06-30T14:26:24Z</time>
      </trkpt>
      <trkpt lat="43.700920" lon="12.572540">
        <ele>461.75812000000002</ele>
        <time>2013-06-30T14:26:29Z</time>
      </trkpt>
      <trkpt lat="43.701210" lon="12.572740">
        <ele>462.21908999999999</ele>
        <time>2013-06-30T14:26:33Z</time>
      </trkpt>
      <trkpt lat="43.701529" lon="12.573239">
        <ele>462.89514000000003</ele>
        <time>2013-06-30T14:26:39Z</time>
      </trkpt>
      <trkpt lat="43.701759" lon="12.573330">
        <ele>463.35565000000003</ele>
        <time>2013-06-30T14:26:43Z</time>
      </trkpt>
      <trkpt lat="43.702509" lon="12.573349">
        <ele>464.43880999999999</ele>
        <time>2013-06-30T14:26:53Z</time>
      </trkpt>
      <trkpt lat="43.702709" lon="12.573409">
        <ele>464.53564</ele>
        <time>2013-06-30T14:26:55Z</time>
      </trkpt>
      <trkpt lat="43.702980" lon="12.573620">
        <ele>464.75339000000002</ele>
        <time>2013-06-30T14:26:59Z</time>
      </trkpt>
      <trkpt lat="43.703099" lon="12.573780">
        <ele>464.97066999999998</ele>
        <time>2013-06-30T14:27:02Z</time>
      </trkpt>
      <trkpt lat="43.703150" lon="12.573929">
        <ele>465.05135999999999</ele>
        <time>2013-06-30T14:27:03Z</time>
      </trkpt>
      <trkpt lat="43.703159" lon="12.574140">
        <ele>465.23135000000002</ele>
        <time>2013-06-30T14:27:05Z</time>
      </trkpt>
      <trkpt lat="43.703110" lon="12.574450">
        <ele>465.54793999999998</ele>
        <time>2013-06-30T14:27:08Z</time>
      </trkpt>
      <trkpt lat="43.702950" lon="12.574930">
        <ele>466.14330999999999</ele>
        <time>2013-06-30T14:27:14Z</time>
      </trkpt>
      <trkpt lat="43.702530" lon="12.575809">
        <ele>466.97665000000001</ele>
        <time>2013-06-30T14:27:24Z</time>
      </trkpt>
      <trkpt lat="43.702439" lon="12.576129">
        <ele>467.16683999999998</ele>
        <time>2013-06-30T14:27:27Z</time>
      </trkpt>
      <trkpt lat="43.702190" lon="12.576740">
        <ele>467.58837999999997</ele>
        <time>2013-06-30T14:27:34Z</time>
      </trkpt>
      <trkpt lat="43.702019" lon="12.577500">
        <ele>468.07686999999999</ele>
        <time>2013-06-30T14:27:41Z</time>
      </trkpt>
      <trkpt lat="43.701840" lon="12.578039">
        <ele>468.54921999999999</ele>
        <time>2013-06-30T14:27:47Z</time>
      </trkpt>
      <trkpt lat="43.701860" lon="12.578259">
        <ele>468.69272000000001</ele>
        <time>2013-06-30T14:27:49Z</time>
      </trkpt>
      <trkpt lat="43.701919" lon="12.578350">
        <ele>468.76211999999998</ele>
        <time>2013-06-30T14:27:50Z</time>
      </trkpt>
      <trkpt lat="43.702079" lon="12.578410">
        <ele>468.96024</ele>
        <time>2013-06-30T14:27:53Z</time>
      </trkpt>
      <trkpt lat="43.702690" lon="12.578359">
        <ele>469.41991999999999</ele>
        <time>2013-06-30T14:28:01Z</time>
      </trkpt>
      <trkpt lat="43.703140" lon="12.578599">
        <ele>469.63952999999998</ele>
        <time>2013-06-30T14:28:07Z</time>
      </trkpt>
      <trkpt lat="43.703700" lon="12.578740">
        <ele>469.89681999999999</ele>
        <time>2013-06-30T14:28:15Z</time>
      </trkpt>
      <trkpt lat="43.704000" lon="12.578670">
        <ele>470.06353999999999</ele>
        <time>2013-06-30T14:28:19Z</time>
      </trkpt>
      <trkpt lat="43.704509" lon="12.578420">
        <ele>470.11547999999999</ele>
        <time>2013-06-30T14:28:26Z</time>
      </trkpt>
      <trkpt lat="43.704609" lon="12.578440">
        <ele>470.09930000000003</ele>
        <time>2013-06-30T14:28:28Z</time>
      </trkpt>
      <trkpt lat="43.704739" lon="12.578510">
        <ele>470.08908000000002</ele>
        <time>2013-06-30T14:28:29Z</time>
      </trkpt>
      <trkpt lat="43.704790" lon="12.578599">
        <ele>470.06342000000001</ele>
        <time>2013-06-30T14:28:31Z</time>
      </trkpt>
      <trkpt lat="43.704980" lon="12.579140">
        <ele>469.94708000000003</ele>
        <time>2013-06-30T14:28:36Z</time>
      </trkpt>
      <trkpt lat="43.705039" lon="12.579460">
        <ele>469.84746999999999</ele>
        <time>2013-06-30T14:28:39Z</time>
      </trkpt>
      <trkpt lat="43.705029" lon="12.580699">
        <ele>469.38681000000003</ele>
        <time>2013-06-30T14:28:51Z</time>
      </trkpt>
      <trkpt lat="43.705029" lon="12.580899">
        <ele>469.2756</ele>
        <time>2013-06-30T14:28:53Z</time>
      </trkpt>
      <trkpt lat="43.705210" lon="12.581690">
        <ele>468.83584999999999</ele>
        <time>2013-06-30T14:29:01Z</time>
      </trkpt>
      <trkpt lat="43.705240" lon="12.582569">
        <ele>468.47653000000003</ele>
        <time>2013-06-30T14:29:10Z</time>
      </trkpt>
      <trkpt lat="43.705210" lon="12.582810">
        <ele>468.36819000000003</ele>
        <time>2013-06-30T14:29:12Z</time>
      </trkpt>
      <trkpt lat="43.705139" lon="12.582999">
        <ele>468.2627</ele>
        <time>2013-06-30T14:29:14Z</time>
      </trkpt>
      <trkpt lat="43.704809" lon="12.583709">
        <ele>467.78476000000001</ele>
        <time>2013-06-30T14:29:23Z</time>
      </trkpt>
      <trkpt lat="43.704769" lon="12.583979">
        <ele>467.68085000000002</ele>
        <time>2013-06-30T14:29:25Z</time>
      </trkpt>
      <trkpt lat="43.704829" lon="12.584290">
        <ele>467.56</ele>
        <time>2013-06-30T14:29:28Z</time>
      </trkpt>
      <trkpt lat="43.704999" lon="12.584729">
        <ele>467.43212999999997</ele>
        <time>2013-06-30T14:29:33Z</time>
      </trkpt>
      <trkpt lat="43.704980" lon="12.585640">
        <ele>467.15820000000002</ele>
        <time>2013-06-30T14:29:42Z</time>
      </trkpt>
      <trkpt lat="43.705180" lon="12.586420">
        <ele>466.91251</ele>
        <time>2013-06-30T14:29:50Z</time>
      </trkpt>
      <trkpt lat="43.705359" lon="12.587010">
        <ele>466.76839999999999</ele>
        <time>2013-06-30T14:29:56Z</time>
      </trkpt>
      <trkpt lat="43.705759" lon="12.587410">
        <ele>466.69396999999998</ele>
        <time>2013-06-30T14:30:03Z</time>
      </trkpt>
      <trkpt lat="43.705870" lon="12.587670">
        <ele>466.70418999999998</ele>
        <time>2013-06-30T14:30:05Z</time>
      </trkpt>
      <trkpt lat="43.705970" lon="12.588899">
        <ele>466.37353999999999</ele>
        <time>2013-06-30T14:30:17Z</time>
      </trkpt>
      <trkpt lat="43.705979" lon="12.588969">
        <ele>466.34357</ele>
        <time>2013-06-30T14:30:18Z</time>
      </trkpt>
      <trkpt lat="43.705959" lon="12.589320">
        <ele>466.21091000000001</ele>
        <time>2013-06-30T14:30:22Z</time>
      </trkpt>
      <trkpt lat="43.705559" lon="12.590060">
        <ele>465.82675</ele>
        <time>2013-06-30T14:30:30Z</time>
      </trkpt>
      <trkpt lat="43.704999" lon="12.590409">
        <ele>465.21674000000002</ele>
        <time>2013-06-30T14:30:39Z</time>
      </trkpt>
      <trkpt lat="43.704790" lon="12.590679">
        <ele>464.78717</ele>
        <time>2013-06-30T14:30:43Z</time>
      </trkpt>
      <trkpt lat="43.704730" lon="12.590939">
        <ele>464.5582</ele>
        <time>2013-06-30T14:30:45Z</time>
      </trkpt>
      <trkpt lat="43.704720" lon="12.591210">
        <ele>464.25772000000001</ele>
        <time>2013-06-30T14:30:48Z</time>
      </trkpt>
      <trkpt lat="43.704909" lon="12.591979">
        <ele>463.51297</ele>
        <time>2013-06-30T14:30:56Z</time>
      </trkpt>
      <trkpt lat="43.704920" lon="12.592179">
        <ele>463.29153000000002</ele>
        <time>2013-06-30T14:30:58Z</time>
      </trkpt>
      <trkpt lat="43.704880" lon="12.592360">
        <ele>463.17606000000001</ele>
        <time>2013-06-30T14:30:59Z</time>
      </trkpt>
      <trkpt lat="43.704660" lon="12.592720">
        <ele>462.59906000000001</ele>
        <time>2013-06-30T14:31:04Z</time>
      </trkpt>
      <trkpt lat="43.703900" lon="12.593390">
        <ele>461.40643</ele>
        <time>2013-06-30T14:31:16Z</time>
      </trkpt>
      <trkpt lat="43.703470" lon="12.593780">
        <ele>460.75853999999998</ele>
        <time>2013-06-30T14:31:23Z</time>
      </trkpt>
      <trkpt lat="43.703310" lon="12.593989">
        <ele>460.49887000000001</ele>
        <time>2013-06-30T14:31:26Z</time>
      </trkpt>
      <trkpt lat="43.703229" lon="12.594270">
        <ele>460.24313000000001</ele>
        <time>2013-06-30T14:31:29Z</time>
      </trkpt>
      <trkpt lat="43.703240" lon="12.595069">
        <ele>459.50839000000002</ele>
        <time>2013-06-30T14:31:36Z</time>
      </trkpt>
      <trkpt lat="43.703110" lon="12.595599">
        <ele>458.88272000000001</ele>
        <time>2013-06-30T14:31:42Z</time>
      </trkpt>
      <trkpt lat="43.703180" lon="12.596210">
        <ele>458.25427000000002</ele>
        <time>2013-06-30T14:31:48Z</time>
      </trkpt>
      <trkpt lat="43.703540" lon="12.596760">
        <ele>457.46782999999999</ele>
        <time>2013-06-30T14:31:55Z</time>
      </trkpt>
      <trkpt lat="43.703719" lon="12.597350">
        <ele>456.81168000000002</ele>
        <time>2013-06-30T14:32:01Z</time>
      </trkpt>
      <trkpt lat="43.704070" lon="12.598029">
        <ele>456.10518999999999</ele>
        <time>2013-06-30T14:32:09Z</time>
      </trkpt>
      <trkpt lat="43.704219" lon="12.598149">
        <ele>455.91237999999998</ele>
        <time>2013-06-30T14:32:11Z</time>
      </trkpt>
      <trkpt lat="43.704660" lon="12.598219">
        <ele>455.26663000000002</ele>
        <time>2013-06-30T14:32:17Z</time>
      </trkpt>
      <trkpt lat="43.704920" lon="12.598419">
        <ele>454.71906000000001</ele>
        <time>2013-06-30T14:32:21Z</time>
      </trkpt>
      <trkpt lat="43.705420" lon="12.599100">
        <ele>453.70508000000001</ele>
        <time>2013-06-30T14:32:31Z</time>
      </trkpt>
      <trkpt lat="43.705480" lon="12.599250">
        <ele>453.63708000000003</ele>
        <time>2013-06-30T14:32:32Z</time>
      </trkpt>
      <trkpt lat="43.705440" lon="12.599399">
        <ele>453.48209000000003</ele>
        <time>2013-06-30T14:32:34Z</time>
      </trkpt>
      <trkpt lat="43.704880" lon="12.599560">
        <ele>452.72170999999997</ele>
        <time>2013-06-30T14:32:42Z</time>
      </trkpt>
      <trkpt lat="43.704630" lon="12.599850">
        <ele>452.32342999999997</ele>
        <time>2013-06-30T14:32:46Z</time>
      </trkpt>
      <trkpt lat="43.704569" lon="12.600029">
        <ele>452.11270000000002</ele>
        <time>2013-06-30T14:32:48Z</time>
      </trkpt>
      <trkpt lat="43.704699" lon="12.600649">
        <ele>451.57479999999998</ele>
        <time>2013-06-30T14:32:54Z</time>
      </trkpt>
      <trkpt lat="43.704650" lon="12.600770">
        <ele>451.49094000000002</ele>
        <time>2013-06-30T14:32:55Z</time>
      </trkpt>
      <trkpt lat="43.704560" lon="12.600830">
        <ele>451.31491</ele>
        <time>2013-06-30T14:32:57Z</time>
      </trkpt>
      <trkpt lat="43.704409" lon="12.600779">
        <ele>451.11959999999999</ele>
        <time>2013-06-30T14:32:59Z</time>
      </trkpt>
      <trkpt lat="43.703870" lon="12.600380">
        <ele>450.18369000000001</ele>
        <time>2013-06-30T14:33:07Z</time>
      </trkpt>
      <trkpt lat="43.703659" lon="12.600310">
        <ele>449.87151999999998</ele>
        <time>2013-06-30T14:33:10Z</time>
      </trkpt>
      <trkpt lat="43.703050" lon="12.600389">
        <ele>449.02501999999998</ele>
        <time>2013-06-30T14:33:18Z</time>
      </trkpt>
      <trkpt lat="43.702769" lon="12.600549">
        <ele>448.55542000000003</ele>
        <time>2013-06-30T14:33:22Z</time>
      </trkpt>
      <trkpt lat="43.702639" lon="12.600860">
        <ele>448.07366999999999</ele>
        <time>2013-06-30T14:33:26Z</time>
      </trkpt>
      <trkpt lat="43.702599" lon="12.601320">
        <ele>447.55023</ele>
        <time>2013-06-30T14:33:30Z</time>
      </trkpt>
      <trkpt lat="43.702699" lon="12.602240">
        <ele>446.43563999999998</ele>
        <time>2013-06-30T14:33:39Z</time>
      </trkpt>
      <trkpt lat="43.702839" lon="12.602770">
        <ele>446.12880999999999</ele>
        <time>2013-06-30T14:33:44Z</time>
      </trkpt>
      <trkpt lat="43.702899" lon="12.603160">
        <ele>445.88907</ele>
        <time>2013-06-30T14:33:48Z</time>
      </trkpt>
      <trkpt lat="43.702999" lon="12.603320">
        <ele>445.76715000000002</ele>
        <time>2013-06-30T14:33:50Z</time>
      </trkpt>
      <trkpt lat="43.703370" lon="12.603599">
        <ele>445.36115000000001</ele>
        <time>2013-06-30T14:33:56Z</time>
      </trkpt>
      <trkpt lat="43.703910" lon="12.604380">
        <ele>444.40920999999997</ele>
        <time>2013-06-30T14:34:06Z</time>
      </trkpt>
      <trkpt lat="43.704030" lon="12.604429">
        <ele>444.18002000000001</ele>
        <time>2013-06-30T14:34:08Z</time>
      </trkpt>
      <trkpt lat="43.704449" lon="12.604399">
        <ele>443.52859000000001</ele>
        <time>2013-06-30T14:34:14Z</time>
      </trkpt>
      <trkpt lat="43.705050" lon="12.604919">
        <ele>442.39794999999998</ele>
        <time>2013-06-30T14:34:23Z</time>
      </trkpt>
      <trkpt lat="43.705359" lon="12.605620">
        <ele>441.32449000000003</ele>
        <time>2013-06-30T14:34:31Z</time>
      </trkpt>
      <trkpt lat="43.705499" lon="12.606340">
        <ele>440.71933000000001</ele>
        <time>2013-06-30T14:34:38Z</time>
      </trkpt>
      <trkpt lat="43.705629" lon="12.606599">
        <ele>440.32208000000003</ele>
        <time>2013-06-30T14:34:41Z</time>
      </trkpt>
      <trkpt lat="43.706109" lon="12.607049">
        <ele>439.29665999999997</ele>
        <time>2013-06-30T14:34:49Z</time>
      </trkpt>
      <trkpt lat="43.706490" lon="12.607600">
        <ele>438.70598999999999</ele>
        <time>2013-06-30T14:34:56Z</time>
      </trkpt>
      <trkpt lat="43.706890" lon="12.607960">
        <ele>437.72753999999998</ele>
        <time>2013-06-30T14:35:03Z</time>
      </trkpt>
      <trkpt lat="43.707420" lon="12.608959">
        <ele>436.93786999999998</ele>
        <time>2013-06-30T14:35:15Z</time>
      </trkpt>
      <trkpt lat="43.707580" lon="12.609259">
        <ele>436.74608999999998</ele>
        <time>2013-06-30T14:35:18Z</time>
      </trkpt>
      <trkpt lat="43.707719" lon="12.609349">
        <ele>436.60413</ele>
        <time>2013-06-30T14:35:20Z</time>
      </trkpt>
      <trkpt lat="43.708530" lon="12.609460">
        <ele>435.91933999999998</ele>
        <time>2013-06-30T14:35:31Z</time>
      </trkpt>
      <trkpt lat="43.709009" lon="12.609159">
        <ele>435.41498000000001</ele>
        <time>2013-06-30T14:35:38Z</time>
      </trkpt>
      <trkpt lat="43.709129" lon="12.609159">
        <ele>435.29183999999998</ele>
        <time>2013-06-30T14:35:40Z</time>
      </trkpt>
      <trkpt lat="43.709220" lon="12.609240">
        <ele>435.21100000000001</ele>
        <time>2013-06-30T14:35:41Z</time>
      </trkpt>
      <trkpt lat="43.709280" lon="12.609400">
        <ele>435.00103999999999</ele>
        <time>2013-06-30T14:35:43Z</time>
      </trkpt>
      <trkpt lat="43.709310" lon="12.609790">
        <ele>434.53487999999999</ele>
        <time>2013-06-30T14:35:47Z</time>
      </trkpt>
      <trkpt lat="43.709369" lon="12.609909">
        <ele>434.42000999999999</ele>
        <time>2013-06-30T14:35:48Z</time>
      </trkpt>
      <trkpt lat="43.709919" lon="12.610569">
        <ele>433.23809999999997</ele>
        <time>2013-06-30T14:35:58Z</time>
      </trkpt>
      <trkpt lat="43.710259" lon="12.611379">
        <ele>432.33694000000003</ele>
        <time>2013-06-30T14:36:07Z</time>
      </trkpt>
      <trkpt lat="43.710809" lon="12.611990">
        <ele>431.31362999999999</ele>
        <time>2013-06-30T14:36:17Z</time>
      </trkpt>
      <trkpt lat="43.710939" lon="12.612299">
        <ele>431.01746000000003</ele>
        <time>2013-06-30T14:36:20Z</time>
      </trkpt>
      <trkpt lat="43.710979" lon="12.612650">
        <ele>430.75533999999999</ele>
        <time>2013-06-30T14:36:23Z</time>
      </trkpt>
      <trkpt lat="43.710909" lon="12.613070">
        <ele>430.1712</ele>
        <time>2013-06-30T14:36:28Z</time>
      </trkpt>
      <trkpt lat="43.710749" lon="12.613319">
        <ele>429.79138</ele>
        <time>2013-06-30T14:36:31Z</time>
      </trkpt>
      <trkpt lat="43.710579" lon="12.613489">
        <ele>429.41730000000001</ele>
        <time>2013-06-30T14:36:34Z</time>
      </trkpt>
      <trkpt lat="43.710400" lon="12.613730">
        <ele>429.04816</ele>
        <time>2013-06-30T14:36:37Z</time>
      </trkpt>
      <trkpt lat="43.710389" lon="12.613870">
        <ele>428.92657000000003</ele>
        <time>2013-06-30T14:36:38Z</time>
      </trkpt>
      <trkpt lat="43.710449" lon="12.614039">
        <ele>428.68588</ele>
        <time>2013-06-30T14:36:40Z</time>
      </trkpt>
      <trkpt lat="43.710619" lon="12.614139">
        <ele>428.32943999999998</ele>
        <time>2013-06-30T14:36:43Z</time>
      </trkpt>
      <trkpt lat="43.711039" lon="12.614090">
        <ele>427.69922000000003</ele>
        <time>2013-06-30T14:36:48Z</time>
      </trkpt>
      <trkpt lat="43.711450" lon="12.614209">
        <ele>427.06457999999998</ele>
        <time>2013-06-30T14:36:54Z</time>
      </trkpt>
      <trkpt lat="43.711580" lon="12.614390">
        <ele>426.91611</ele>
        <time>2013-06-30T14:36:56Z</time>
      </trkpt>
      <trkpt lat="43.711699" lon="12.614799">
        <ele>426.48345999999998</ele>
        <time>2013-06-30T14:37:01Z</time>
      </trkpt>
      <trkpt lat="43.711820" lon="12.615050">
        <ele>426.28043000000002</ele>
        <time>2013-06-30T14:37:03Z</time>
      </trkpt>
      <trkpt lat="43.712050" lon="12.615259">
        <ele>425.82794000000001</ele>
        <time>2013-06-30T14:37:07Z</time>
      </trkpt>
      <trkpt lat="43.712540" lon="12.615579">
        <ele>425.08920000000001</ele>
        <time>2013-06-30T14:37:14Z</time>
      </trkpt>
      <trkpt lat="43.712719" lon="12.615819">
        <ele>424.68948</ele>
        <time>2013-06-30T14:37:18Z</time>
      </trkpt>
      <trkpt lat="43.712760" lon="12.615960">
        <ele>424.58237000000003</ele>
        <time>2013-06-30T14:37:19Z</time>
      </trkpt>
      <trkpt lat="43.712809" lon="12.616739">
        <ele>423.69515999999999</ele>
        <time>2013-06-30T14:37:27Z</time>
      </trkpt>
      <trkpt lat="43.713009" lon="12.617549">
        <ele>422.87860000000001</ele>
        <time>2013-06-30T14:37:35Z</time>
      </trkpt>
      <trkpt lat="43.713020" lon="12.617740">
        <ele>422.66876000000002</ele>
        <time>2013-06-30T14:37:37Z</time>
      </trkpt>
      <trkpt lat="43.712960" lon="12.618030">
        <ele>422.33593999999999</ele>
        <time>2013-06-30T14:37:40Z</time>
      </trkpt>
      <trkpt lat="43.712909" lon="12.617979">
        <ele>422.22018000000003</ele>
        <time>2013-06-30T14:37:41Z</time>
      </trkpt>
      <trkpt lat="43.712790" lon="12.618209">
        <ele>421.98419000000001</ele>
        <time>2013-06-30T14:37:43Z</time>
      </trkpt>
      <trkpt lat="43.712909" lon="12.617979">
        <ele>421.64969000000002</ele>
        <time>2013-06-30T14:37:46Z</time>
      </trkpt>
      <trkpt lat="43.712960" lon="12.618030">
        <ele>421.54437000000001</ele>
        <time>2013-06-30T14:37:47Z</time>
      </trkpt>
      <trkpt lat="43.712719" lon="12.618929">
        <ele>420.72244000000001</ele>
        <time>2013-06-30T14:37:56Z</time>
      </trkpt>
      <trkpt lat="43.712770" lon="12.619269">
        <ele>420.49059999999997</ele>
        <time>2013-06-30T14:37:59Z</time>
      </trkpt>
      <trkpt lat="43.712990" lon="12.619710">
        <ele>419.97482000000002</ele>
        <time>2013-06-30T14:38:05Z</time>
      </trkpt>
      <trkpt lat="43.713360" lon="12.620160">
        <ele>419.36099000000002</ele>
        <time>2013-06-30T14:38:11Z</time>
      </trkpt>
      <trkpt lat="43.713499" lon="12.620809">
        <ele>418.56142999999997</ele>
        <time>2013-06-30T14:38:18Z</time>
      </trkpt>
      <trkpt lat="43.713590" lon="12.620909">
        <ele>418.44223</ele>
        <time>2013-06-30T14:38:19Z</time>
      </trkpt>
      <trkpt lat="43.714050" lon="12.621169">
        <ele>417.71194000000003</ele>
        <time>2013-06-30T14:38:26Z</time>
      </trkpt>
      <trkpt lat="43.714119" lon="12.621290">
        <ele>417.62308000000002</ele>
        <time>2013-06-30T14:38:27Z</time>
      </trkpt>
      <trkpt lat="43.714119" lon="12.621480">
        <ele>417.45553999999998</ele>
        <time>2013-06-30T14:38:29Z</time>
      </trkpt>
      <trkpt lat="43.713850" lon="12.622029">
        <ele>416.92984000000001</ele>
        <time>2013-06-30T14:38:36Z</time>
      </trkpt>
      <trkpt lat="43.713539" lon="12.622679">
        <ele>416.42352</ele>
        <time>2013-06-30T14:38:43Z</time>
      </trkpt>
      <trkpt lat="43.713399" lon="12.623269">
        <ele>415.92703</ele>
        <time>2013-06-30T14:38:49Z</time>
      </trkpt>
      <trkpt lat="43.713369" lon="12.623550">
        <ele>415.66766000000001</ele>
        <time>2013-06-30T14:38:52Z</time>
      </trkpt>
      <trkpt lat="43.713409" lon="12.623750">
        <ele>415.52658000000002</ele>
        <time>2013-06-30T14:38:54Z</time>
      </trkpt>
      <trkpt lat="43.713539" lon="12.624000">
        <ele>415.36304000000001</ele>
        <time>2013-06-30T14:38:57Z</time>
      </trkpt>
      <trkpt lat="43.714089" lon="12.624749">
        <ele>414.74209999999999</ele>
        <time>2013-06-30T14:39:07Z</time>
      </trkpt>
      <trkpt lat="43.714860" lon="12.625390">
        <ele>413.99648999999999</ele>
        <time>2013-06-30T14:39:19Z</time>
      </trkpt>
      <trkpt lat="43.715179" lon="12.625659">
        <ele>413.74230999999997</ele>
        <time>2013-06-30T14:39:24Z</time>
      </trkpt>
      <trkpt lat="43.715690" lon="12.625420">
        <ele>413.34607</ele>
        <time>2013-06-30T14:39:31Z</time>
      </trkpt>
      <trkpt lat="43.716020" lon="12.625420">
        <ele>413.03879000000001</ele>
        <time>2013-06-30T14:39:36Z</time>
      </trkpt>
      <trkpt lat="43.716359" lon="12.625550">
        <ele>412.75119000000001</ele>
        <time>2013-06-30T14:39:41Z</time>
      </trkpt>
      <trkpt lat="43.716540" lon="12.625769">
        <ele>412.57504</ele>
        <time>2013-06-30T14:39:44Z</time>
      </trkpt>
      <trkpt lat="43.716740" lon="12.626300">
        <ele>412.12356999999997</ele>
        <time>2013-06-30T14:39:50Z</time>
      </trkpt>
      <trkpt lat="43.716970" lon="12.626730">
        <ele>411.75878999999998</ele>
        <time>2013-06-30T14:39:55Z</time>
      </trkpt>
      <trkpt lat="43.717409" lon="12.627049">
        <ele>411.31646999999998</ele>
        <time>2013-06-30T14:40:01Z</time>
      </trkpt>
      <trkpt lat="43.717969" lon="12.627959">
        <ele>410.30187999999998</ele>
        <time>2013-06-30T14:40:13Z</time>
      </trkpt>
      <trkpt lat="43.718189" lon="12.628219">
        <ele>410.03818000000001</ele>
        <time>2013-06-30T14:40:17Z</time>
      </trkpt>
      <trkpt lat="43.718320" lon="12.628310">
        <ele>409.86599999999999</ele>
        <time>2013-06-30T14:40:19Z</time>
      </trkpt>
      <trkpt lat="43.718689" lon="12.628500">
        <ele>409.45010000000002</ele>
        <time>2013-06-30T14:40:24Z</time>
      </trkpt>
      <trkpt lat="43.718689" lon="12.628500">
        <ele>409.36876999999998</ele>
        <time>2013-06-30T14:40:25Z</time>
      </trkpt>
      <trkpt lat="43.718979" lon="12.628510">
        <ele>429.99979000000002</ele>
        <time>2013-06-30T14:46:39Z</time>
      </trkpt>
      <trkpt lat="43.719290" lon="12.628340">
        <ele>431.35342000000003</ele>
        <time>2013-06-30T14:53:50Z</time>
      </trkpt>
      <trkpt lat="43.719479" lon="12.628340">
        <ele>431.53417999999999</ele>
        <time>2013-06-30T14:57:55Z</time>
      </trkpt>
      <trkpt lat="43.720269" lon="12.628709">
        <ele>435.71132999999998</ele>
        <time>2013-06-30T15:15:51Z</time>
      </trkpt>
      <trkpt lat="43.720919" lon="12.629220">
        <ele>432.60109999999997</ele>
        <time>2013-06-30T15:16:03Z</time>
      </trkpt>
      <trkpt lat="43.721059" lon="12.629439">
        <ele>432.24227999999999</ele>
        <time>2013-06-30T15:16:07Z</time>
      </trkpt>
      <trkpt lat="43.721260" lon="12.629950">
        <ele>430.71463</ele>
        <time>2013-06-30T15:16:13Z</time>
      </trkpt>
      <trkpt lat="43.721500" lon="12.631049">
        <ele>429.53262000000001</ele>
        <time>2013-06-30T15:16:27Z</time>
      </trkpt>
      <trkpt lat="43.721960" lon="12.631950">
        <ele>420.57436999999999</ele>
        <time>2013-06-30T15:16:39Z</time>
      </trkpt>
      <trkpt lat="43.722139" lon="12.632180">
        <ele>418.26620000000003</ele>
        <time>2013-06-30T15:16:43Z</time>
      </trkpt>
      <trkpt lat="43.722299" lon="12.632280">
        <ele>419.23196000000002</ele>
        <time>2013-06-30T15:16:57Z</time>
      </trkpt>
      <trkpt lat="43.722980" lon="12.632389">
        <ele>423.94116000000002</ele>
        <time>2013-06-30T15:17:50Z</time>
      </trkpt>
      <trkpt lat="43.723140" lon="12.632559">
        <ele>426.18918000000002</ele>
        <time>2013-06-30T15:18:05Z</time>
      </trkpt>
      <trkpt lat="43.723379" lon="12.633560">
        <ele>418.60149999999999</ele>
        <time>2013-06-30T15:18:18Z</time>
      </trkpt>
      <trkpt lat="43.723600" lon="12.634020">
        <ele>415.35030999999998</ele>
        <time>2013-06-30T15:18:24Z</time>
      </trkpt>
      <trkpt lat="43.723609" lon="12.634250">
        <ele>412.22949</ele>
        <time>2013-06-30T15:18:27Z</time>
      </trkpt>
    </trkseg>
  </trk>
</gpx>
